<?xml version="1.0" encoding="UTF-8" standalone="no" ?>
<gpx xmlns="http://www.topografix.com/GPX/1/1" xmlns:xsi="http://www.w3.org/2001/XMLSchema-instance" xsi:schemaLocation="http://www.topografix.com/GPX/1/1 http://www.topografix.com/GPX/1/1/gpx.xsd" version="1.1" creator="VisuGPX - https://www.visugpx.com">
  <metadata>
    <name>tour denecourt</name>
  </metadata>
  <trk>
    <name><![CDATA[Tracé actuel: 30 MAI 2021 08:19]]></name>
    <trkseg>
      <trkpt lat="48.57363" lon="2.61112">
        <ele>77.1</ele>
        <time>2021-05-30T06:19:32Z</time>
      </trkpt>
      <trkpt lat="48.57366" lon="2.61116">
        <ele>77</ele>
        <time>2021-05-30T06:19:50Z</time>
      </trkpt>
      <trkpt lat="48.57365" lon="2.61112">
        <ele>77</ele>
        <time>2021-05-30T06:19:52Z</time>
      </trkpt>
      <trkpt lat="48.57368" lon="2.61096">
        <ele>76.8</ele>
        <time>2021-05-30T06:19:58Z</time>
      </trkpt>
      <trkpt lat="48.57375" lon="2.61031">
        <ele>77.4</ele>
        <time>2021-05-30T06:20:11Z</time>
      </trkpt>
      <trkpt lat="48.57351" lon="2.61006">
        <ele>78.5</ele>
        <time>2021-05-30T06:20:20Z</time>
      </trkpt>
      <trkpt lat="48.57352" lon="2.61002">
        <ele>78.5</ele>
        <time>2021-05-30T06:20:21Z</time>
      </trkpt>
      <trkpt lat="48.57355" lon="2.60972">
        <ele>78.7</ele>
        <time>2021-05-30T06:20:28Z</time>
      </trkpt>
      <trkpt lat="48.5735" lon="2.60963">
        <ele>78.8</ele>
        <time>2021-05-30T06:20:30Z</time>
      </trkpt>
      <trkpt lat="48.57341" lon="2.60957">
        <ele>78.9</ele>
        <time>2021-05-30T06:20:32Z</time>
      </trkpt>
      <trkpt lat="48.5728" lon="2.60933">
        <ele>78.9</ele>
        <time>2021-05-30T06:20:43Z</time>
      </trkpt>
      <trkpt lat="48.57198" lon="2.60901">
        <ele>79.8</ele>
        <time>2021-05-30T06:20:57Z</time>
      </trkpt>
      <trkpt lat="48.57192" lon="2.60899">
        <ele>79.8</ele>
        <time>2021-05-30T06:20:58Z</time>
      </trkpt>
      <trkpt lat="48.57186" lon="2.60899">
        <ele>79.9</ele>
        <time>2021-05-30T06:20:59Z</time>
      </trkpt>
      <trkpt lat="48.57161" lon="2.609">
        <ele>80</ele>
        <time>2021-05-30T06:21:03Z</time>
      </trkpt>
      <trkpt lat="48.57155" lon="2.60899">
        <ele>79.9</ele>
        <time>2021-05-30T06:21:04Z</time>
      </trkpt>
      <trkpt lat="48.57137" lon="2.60895">
        <ele>79.8</ele>
        <time>2021-05-30T06:21:07Z</time>
      </trkpt>
      <trkpt lat="48.57131" lon="2.60897">
        <ele>79.8</ele>
        <time>2021-05-30T06:21:08Z</time>
      </trkpt>
      <trkpt lat="48.57125" lon="2.60901">
        <ele>79.8</ele>
        <time>2021-05-30T06:21:09Z</time>
      </trkpt>
      <trkpt lat="48.57118" lon="2.60904">
        <ele>79.8</ele>
        <time>2021-05-30T06:21:10Z</time>
      </trkpt>
      <trkpt lat="48.57112" lon="2.60905">
        <ele>79.8</ele>
        <time>2021-05-30T06:21:11Z</time>
      </trkpt>
      <trkpt lat="48.57105" lon="2.60906">
        <ele>79.8</ele>
        <time>2021-05-30T06:21:12Z</time>
      </trkpt>
      <trkpt lat="48.57091" lon="2.60907">
        <ele>79.8</ele>
        <time>2021-05-30T06:21:14Z</time>
      </trkpt>
      <trkpt lat="48.57084" lon="2.60906">
        <ele>79.8</ele>
        <time>2021-05-30T06:21:15Z</time>
      </trkpt>
      <trkpt lat="48.56997" lon="2.60918">
        <ele>78</ele>
        <time>2021-05-30T06:21:28Z</time>
      </trkpt>
      <trkpt lat="48.56991" lon="2.60918">
        <ele>77.9</ele>
        <time>2021-05-30T06:21:29Z</time>
      </trkpt>
      <trkpt lat="48.56985" lon="2.60914">
        <ele>77.8</ele>
        <time>2021-05-30T06:21:30Z</time>
      </trkpt>
      <trkpt lat="48.56979" lon="2.60909">
        <ele>77.8</ele>
        <time>2021-05-30T06:21:31Z</time>
      </trkpt>
      <trkpt lat="48.56973" lon="2.60907">
        <ele>77.8</ele>
        <time>2021-05-30T06:21:32Z</time>
      </trkpt>
      <trkpt lat="48.56966" lon="2.60909">
        <ele>77.6</ele>
        <time>2021-05-30T06:21:33Z</time>
      </trkpt>
      <trkpt lat="48.56959" lon="2.60913">
        <ele>77.5</ele>
        <time>2021-05-30T06:21:34Z</time>
      </trkpt>
      <trkpt lat="48.56952" lon="2.60917">
        <ele>77.4</ele>
        <time>2021-05-30T06:21:35Z</time>
      </trkpt>
      <trkpt lat="48.56945" lon="2.60919">
        <ele>77.4</ele>
        <time>2021-05-30T06:21:36Z</time>
      </trkpt>
      <trkpt lat="48.56922" lon="2.60926">
        <ele>77.4</ele>
        <time>2021-05-30T06:21:39Z</time>
      </trkpt>
      <trkpt lat="48.56915" lon="2.60929">
        <ele>77.5</ele>
        <time>2021-05-30T06:21:40Z</time>
      </trkpt>
      <trkpt lat="48.56829" lon="2.6096">
        <ele>76.8</ele>
        <time>2021-05-30T06:21:52Z</time>
      </trkpt>
      <trkpt lat="48.56822" lon="2.60962">
        <ele>76.6</ele>
        <time>2021-05-30T06:21:53Z</time>
      </trkpt>
      <trkpt lat="48.56815" lon="2.6096">
        <ele>76.4</ele>
        <time>2021-05-30T06:21:54Z</time>
      </trkpt>
      <trkpt lat="48.56809" lon="2.60956">
        <ele>76.3</ele>
        <time>2021-05-30T06:21:55Z</time>
      </trkpt>
      <trkpt lat="48.56804" lon="2.60952">
        <ele>76.2</ele>
        <time>2021-05-30T06:21:56Z</time>
      </trkpt>
      <trkpt lat="48.56798" lon="2.60947">
        <ele>76.2</ele>
        <time>2021-05-30T06:21:57Z</time>
      </trkpt>
      <trkpt lat="48.56793" lon="2.6094">
        <ele>76.1</ele>
        <time>2021-05-30T06:21:58Z</time>
      </trkpt>
      <trkpt lat="48.56789" lon="2.60931">
        <ele>76.1</ele>
        <time>2021-05-30T06:21:59Z</time>
      </trkpt>
      <trkpt lat="48.56786" lon="2.60922">
        <ele>76.2</ele>
        <time>2021-05-30T06:22:00Z</time>
      </trkpt>
      <trkpt lat="48.56782" lon="2.60914">
        <ele>76.1</ele>
        <time>2021-05-30T06:22:01Z</time>
      </trkpt>
      <trkpt lat="48.56779" lon="2.60904">
        <ele>75.9</ele>
        <time>2021-05-30T06:22:02Z</time>
      </trkpt>
      <trkpt lat="48.56737" lon="2.60735">
        <ele>75.2</ele>
        <time>2021-05-30T06:22:20Z</time>
      </trkpt>
      <trkpt lat="48.56708" lon="2.60593">
        <ele>75.6</ele>
        <time>2021-05-30T06:22:35Z</time>
      </trkpt>
      <trkpt lat="48.56692" lon="2.60446">
        <ele>76.3</ele>
        <time>2021-05-30T06:22:50Z</time>
      </trkpt>
      <trkpt lat="48.56688" lon="2.60369">
        <ele>76.2</ele>
        <time>2021-05-30T06:22:58Z</time>
      </trkpt>
      <trkpt lat="48.56687" lon="2.60323">
        <ele>75.9</ele>
        <time>2021-05-30T06:23:04Z</time>
      </trkpt>
      <trkpt lat="48.56686" lon="2.60318">
        <ele>75.9</ele>
        <time>2021-05-30T06:23:05Z</time>
      </trkpt>
      <trkpt lat="48.56682" lon="2.60314">
        <ele>75.7</ele>
        <time>2021-05-30T06:23:06Z</time>
      </trkpt>
      <trkpt lat="48.56678" lon="2.60313">
        <ele>75.5</ele>
        <time>2021-05-30T06:23:07Z</time>
      </trkpt>
      <trkpt lat="48.56673" lon="2.60314">
        <ele>75.3</ele>
        <time>2021-05-30T06:23:08Z</time>
      </trkpt>
      <trkpt lat="48.56667" lon="2.60317">
        <ele>75</ele>
        <time>2021-05-30T06:23:09Z</time>
      </trkpt>
      <trkpt lat="48.56656" lon="2.6032">
        <ele>74.4</ele>
        <time>2021-05-30T06:23:11Z</time>
      </trkpt>
      <trkpt lat="48.5656" lon="2.6033">
        <ele>70.3</ele>
        <time>2021-05-30T06:23:24Z</time>
      </trkpt>
      <trkpt lat="48.56475" lon="2.60337">
        <ele>71.9</ele>
        <time>2021-05-30T06:23:36Z</time>
      </trkpt>
      <trkpt lat="48.56429" lon="2.60341">
        <ele>73.6</ele>
        <time>2021-05-30T06:23:45Z</time>
      </trkpt>
      <trkpt lat="48.56424" lon="2.60344">
        <ele>73.7</ele>
        <time>2021-05-30T06:23:46Z</time>
      </trkpt>
      <trkpt lat="48.5642" lon="2.60347">
        <ele>73.9</ele>
        <time>2021-05-30T06:23:47Z</time>
      </trkpt>
      <trkpt lat="48.56417" lon="2.60352">
        <ele>74</ele>
        <time>2021-05-30T06:23:48Z</time>
      </trkpt>
      <trkpt lat="48.56414" lon="2.60357">
        <ele>74.1</ele>
        <time>2021-05-30T06:23:49Z</time>
      </trkpt>
      <trkpt lat="48.56407" lon="2.60372">
        <ele>74.5</ele>
        <time>2021-05-30T06:23:52Z</time>
      </trkpt>
      <trkpt lat="48.56405" lon="2.60377">
        <ele>74.6</ele>
        <time>2021-05-30T06:23:53Z</time>
      </trkpt>
      <trkpt lat="48.56404" lon="2.60383">
        <ele>74.6</ele>
        <time>2021-05-30T06:23:54Z</time>
      </trkpt>
      <trkpt lat="48.56399" lon="2.60404">
        <ele>74.9</ele>
        <time>2021-05-30T06:23:58Z</time>
      </trkpt>
      <trkpt lat="48.56396" lon="2.60406">
        <ele>75</ele>
        <time>2021-05-30T06:23:59Z</time>
      </trkpt>
      <trkpt lat="48.56392" lon="2.60406">
        <ele>75.2</ele>
        <time>2021-05-30T06:24:00Z</time>
      </trkpt>
      <trkpt lat="48.56348" lon="2.60405">
        <ele>77.3</ele>
        <time>2021-05-30T06:24:15Z</time>
      </trkpt>
      <trkpt lat="48.563" lon="2.60401">
        <ele>78.3</ele>
        <time>2021-05-30T06:24:30Z</time>
      </trkpt>
      <trkpt lat="48.56294" lon="2.60399">
        <ele>78.4</ele>
        <time>2021-05-30T06:24:33Z</time>
      </trkpt>
      <trkpt lat="48.56293" lon="2.60397">
        <ele>78.4</ele>
        <time>2021-05-30T06:24:34Z</time>
      </trkpt>
      <trkpt lat="48.56293" lon="2.60393">
        <ele>78.3</ele>
        <time>2021-05-30T06:24:35Z</time>
      </trkpt>
      <trkpt lat="48.56292" lon="2.60388">
        <ele>78.3</ele>
        <time>2021-05-30T06:24:36Z</time>
      </trkpt>
      <trkpt lat="48.56292" lon="2.60383">
        <ele>78.3</ele>
        <time>2021-05-30T06:24:37Z</time>
      </trkpt>
      <trkpt lat="48.56271" lon="2.60326">
        <ele>78.1</ele>
        <time>2021-05-30T06:24:48Z</time>
      </trkpt>
      <trkpt lat="48.5627" lon="2.6032">
        <ele>78.1</ele>
        <time>2021-05-30T06:24:49Z</time>
      </trkpt>
      <trkpt lat="48.56269" lon="2.60315">
        <ele>78.2</ele>
        <time>2021-05-30T06:24:50Z</time>
      </trkpt>
      <trkpt lat="48.56252" lon="2.60262">
        <ele>78.8</ele>
        <time>2021-05-30T06:25:02Z</time>
      </trkpt>
      <trkpt lat="48.56252" lon="2.6026">
        <ele>78.9</ele>
        <time>2021-05-30T06:25:03Z</time>
      </trkpt>
      <trkpt lat="48.56254" lon="2.60257">
        <ele>78.9</ele>
        <time>2021-05-30T06:25:14Z</time>
      </trkpt>
      <trkpt lat="48.56253" lon="2.60258">
        <ele>78.9</ele>
        <time>2021-05-30T06:25:39Z</time>
      </trkpt>
      <trkpt lat="48.56253" lon="2.60259">
        <ele>78.9</ele>
        <time>2021-05-30T06:26:07Z</time>
      </trkpt>
      <trkpt lat="48.56254" lon="2.60258">
        <ele>78.9</ele>
        <time>2021-05-30T06:26:39Z</time>
      </trkpt>
      <trkpt lat="48.56255" lon="2.60258">
        <ele>78.9</ele>
        <time>2021-05-30T06:27:13Z</time>
      </trkpt>
      <trkpt lat="48.56255" lon="2.60259">
        <ele>78.8</ele>
        <time>2021-05-30T06:27:48Z</time>
      </trkpt>
      <trkpt lat="48.56254" lon="2.60259">
        <ele>78.8</ele>
        <time>2021-05-30T06:28:17Z</time>
      </trkpt>
      <trkpt lat="48.56254" lon="2.60259">
        <ele>78.8</ele>
        <time>2021-05-30T06:28:45Z</time>
      </trkpt>
      <trkpt lat="48.56254" lon="2.60259">
        <ele>78.8</ele>
        <time>2021-05-30T06:29:10Z</time>
      </trkpt>
      <trkpt lat="48.56253" lon="2.60259">
        <ele>78.9</ele>
        <time>2021-05-30T06:29:41Z</time>
      </trkpt>
      <trkpt lat="48.56252" lon="2.60258">
        <ele>78.9</ele>
        <time>2021-05-30T06:30:15Z</time>
      </trkpt>
      <trkpt lat="48.56249" lon="2.60258">
        <ele>78.9</ele>
        <time>2021-05-30T06:30:29Z</time>
      </trkpt>
      <trkpt lat="48.5625" lon="2.60258">
        <ele>78.9</ele>
        <time>2021-05-30T06:30:47Z</time>
      </trkpt>
      <trkpt lat="48.56248" lon="2.60258">
        <ele>78.9</ele>
        <time>2021-05-30T06:31:11Z</time>
      </trkpt>
      <trkpt lat="48.56249" lon="2.60258">
        <ele>78.9</ele>
        <time>2021-05-30T06:31:21Z</time>
      </trkpt>
      <trkpt lat="48.56248" lon="2.60258">
        <ele>79</ele>
        <time>2021-05-30T06:31:22Z</time>
      </trkpt>
      <trkpt lat="48.56247" lon="2.60258">
        <ele>79</ele>
        <time>2021-05-30T06:31:23Z</time>
      </trkpt>
      <trkpt lat="48.56244" lon="2.60263">
        <ele>79</ele>
        <time>2021-05-30T06:31:27Z</time>
      </trkpt>
      <trkpt lat="48.56244" lon="2.60265">
        <ele>79</ele>
        <time>2021-05-30T06:31:28Z</time>
      </trkpt>
      <trkpt lat="48.56243" lon="2.60268">
        <ele>79</ele>
        <time>2021-05-30T06:31:29Z</time>
      </trkpt>
      <trkpt lat="48.56242" lon="2.60271">
        <ele>79</ele>
        <time>2021-05-30T06:31:30Z</time>
      </trkpt>
      <trkpt lat="48.5624" lon="2.60273">
        <ele>79</ele>
        <time>2021-05-30T06:31:31Z</time>
      </trkpt>
      <trkpt lat="48.56237" lon="2.60276">
        <ele>79</ele>
        <time>2021-05-30T06:31:32Z</time>
      </trkpt>
      <trkpt lat="48.56235" lon="2.60278">
        <ele>79</ele>
        <time>2021-05-30T06:31:33Z</time>
      </trkpt>
      <trkpt lat="48.56197" lon="2.60311">
        <ele>79.5</ele>
        <time>2021-05-30T06:31:47Z</time>
      </trkpt>
      <trkpt lat="48.56158" lon="2.60321">
        <ele>80.1</ele>
        <time>2021-05-30T06:31:58Z</time>
      </trkpt>
      <trkpt lat="48.56125" lon="2.60296">
        <ele>80.2</ele>
        <time>2021-05-30T06:32:08Z</time>
      </trkpt>
      <trkpt lat="48.56084" lon="2.60265">
        <ele>80</ele>
        <time>2021-05-30T06:32:21Z</time>
      </trkpt>
      <trkpt lat="48.56023" lon="2.60279">
        <ele>79.5</ele>
        <time>2021-05-30T06:32:37Z</time>
      </trkpt>
      <trkpt lat="48.55992" lon="2.6031">
        <ele>80</ele>
        <time>2021-05-30T06:32:49Z</time>
      </trkpt>
      <trkpt lat="48.55986" lon="2.60333">
        <ele>80.3</ele>
        <time>2021-05-30T06:32:54Z</time>
      </trkpt>
      <trkpt lat="48.55983" lon="2.60333">
        <ele>80.4</ele>
        <time>2021-05-30T06:32:55Z</time>
      </trkpt>
      <trkpt lat="48.55978" lon="2.60331">
        <ele>80.5</ele>
        <time>2021-05-30T06:32:56Z</time>
      </trkpt>
      <trkpt lat="48.5592" lon="2.60308">
        <ele>82.8</ele>
        <time>2021-05-30T06:33:11Z</time>
      </trkpt>
      <trkpt lat="48.55852" lon="2.60289">
        <ele>82.8</ele>
        <time>2021-05-30T06:33:27Z</time>
      </trkpt>
      <trkpt lat="48.55848" lon="2.60288">
        <ele>82.8</ele>
        <time>2021-05-30T06:33:28Z</time>
      </trkpt>
      <trkpt lat="48.55789" lon="2.60268">
        <ele>83.8</ele>
        <time>2021-05-30T06:33:41Z</time>
      </trkpt>
      <trkpt lat="48.55785" lon="2.60266">
        <ele>83.9</ele>
        <time>2021-05-30T06:33:42Z</time>
      </trkpt>
      <trkpt lat="48.55777" lon="2.60264">
        <ele>84</ele>
        <time>2021-05-30T06:33:44Z</time>
      </trkpt>
      <trkpt lat="48.55772" lon="2.60265">
        <ele>84</ele>
        <time>2021-05-30T06:33:45Z</time>
      </trkpt>
      <trkpt lat="48.55768" lon="2.60266">
        <ele>84</ele>
        <time>2021-05-30T06:33:46Z</time>
      </trkpt>
      <trkpt lat="48.55764" lon="2.60269">
        <ele>84.1</ele>
        <time>2021-05-30T06:33:47Z</time>
      </trkpt>
      <trkpt lat="48.55761" lon="2.60272">
        <ele>84.1</ele>
        <time>2021-05-30T06:33:48Z</time>
      </trkpt>
      <trkpt lat="48.55758" lon="2.60275">
        <ele>84.2</ele>
        <time>2021-05-30T06:33:49Z</time>
      </trkpt>
      <trkpt lat="48.55756" lon="2.60278">
        <ele>84.2</ele>
        <time>2021-05-30T06:33:50Z</time>
      </trkpt>
      <trkpt lat="48.55753" lon="2.60281">
        <ele>84.3</ele>
        <time>2021-05-30T06:33:51Z</time>
      </trkpt>
      <trkpt lat="48.55729" lon="2.60326">
        <ele>84.6</ele>
        <time>2021-05-30T06:34:02Z</time>
      </trkpt>
      <trkpt lat="48.55722" lon="2.60343">
        <ele>84.6</ele>
        <time>2021-05-30T06:34:07Z</time>
      </trkpt>
      <trkpt lat="48.55722" lon="2.60346">
        <ele>84.6</ele>
        <time>2021-05-30T06:34:08Z</time>
      </trkpt>
      <trkpt lat="48.55728" lon="2.60375">
        <ele>84.5</ele>
        <time>2021-05-30T06:34:14Z</time>
      </trkpt>
      <trkpt lat="48.55727" lon="2.60381">
        <ele>84.5</ele>
        <time>2021-05-30T06:34:15Z</time>
      </trkpt>
      <trkpt lat="48.55725" lon="2.60386">
        <ele>84.4</ele>
        <time>2021-05-30T06:34:16Z</time>
      </trkpt>
      <trkpt lat="48.55719" lon="2.60447">
        <ele>84.2</ele>
        <time>2021-05-30T06:34:27Z</time>
      </trkpt>
      <trkpt lat="48.55713" lon="2.60488">
        <ele>84.1</ele>
        <time>2021-05-30T06:34:37Z</time>
      </trkpt>
      <trkpt lat="48.55714" lon="2.60491">
        <ele>84</ele>
        <time>2021-05-30T06:34:38Z</time>
      </trkpt>
      <trkpt lat="48.55715" lon="2.60494">
        <ele>84</ele>
        <time>2021-05-30T06:34:39Z</time>
      </trkpt>
      <trkpt lat="48.55702" lon="2.60567">
        <ele>83.2</ele>
        <time>2021-05-30T06:34:54Z</time>
      </trkpt>
      <trkpt lat="48.55689" lon="2.6063">
        <ele>81.7</ele>
        <time>2021-05-30T06:35:04Z</time>
      </trkpt>
      <trkpt lat="48.55671" lon="2.60681">
        <ele>80.8</ele>
        <time>2021-05-30T06:35:14Z</time>
      </trkpt>
      <trkpt lat="48.55656" lon="2.60727">
        <ele>80.3</ele>
        <time>2021-05-30T06:35:24Z</time>
      </trkpt>
      <trkpt lat="48.55645" lon="2.60783">
        <ele>80</ele>
        <time>2021-05-30T06:35:35Z</time>
      </trkpt>
      <trkpt lat="48.55636" lon="2.60836">
        <ele>80</ele>
        <time>2021-05-30T06:35:45Z</time>
      </trkpt>
      <trkpt lat="48.55637" lon="2.60841">
        <ele>80.1</ele>
        <time>2021-05-30T06:35:46Z</time>
      </trkpt>
      <trkpt lat="48.55638" lon="2.60845">
        <ele>80.1</ele>
        <time>2021-05-30T06:35:47Z</time>
      </trkpt>
      <trkpt lat="48.55639" lon="2.60849">
        <ele>80.1</ele>
        <time>2021-05-30T06:35:48Z</time>
      </trkpt>
      <trkpt lat="48.5564" lon="2.60854">
        <ele>80.2</ele>
        <time>2021-05-30T06:35:49Z</time>
      </trkpt>
      <trkpt lat="48.55641" lon="2.60857">
        <ele>80.2</ele>
        <time>2021-05-30T06:35:50Z</time>
      </trkpt>
      <trkpt lat="48.55644" lon="2.60861">
        <ele>80.2</ele>
        <time>2021-05-30T06:35:51Z</time>
      </trkpt>
      <trkpt lat="48.55668" lon="2.60927">
        <ele>80.9</ele>
        <time>2021-05-30T06:36:03Z</time>
      </trkpt>
      <trkpt lat="48.55693" lon="2.60986">
        <ele>80.1</ele>
        <time>2021-05-30T06:36:16Z</time>
      </trkpt>
      <trkpt lat="48.55696" lon="2.60988">
        <ele>80.1</ele>
        <time>2021-05-30T06:36:17Z</time>
      </trkpt>
      <trkpt lat="48.55699" lon="2.60988">
        <ele>80.1</ele>
        <time>2021-05-30T06:36:18Z</time>
      </trkpt>
      <trkpt lat="48.55736" lon="2.60998">
        <ele>80</ele>
        <time>2021-05-30T06:36:27Z</time>
      </trkpt>
      <trkpt lat="48.55755" lon="2.61004">
        <ele>80.4</ele>
        <time>2021-05-30T06:36:32Z</time>
      </trkpt>
      <trkpt lat="48.5576" lon="2.61005">
        <ele>80.5</ele>
        <time>2021-05-30T06:36:33Z</time>
      </trkpt>
      <trkpt lat="48.55814" lon="2.61019">
        <ele>82.7</ele>
        <time>2021-05-30T06:36:47Z</time>
      </trkpt>
      <trkpt lat="48.55872" lon="2.61033">
        <ele>84.1</ele>
        <time>2021-05-30T06:37:01Z</time>
      </trkpt>
      <trkpt lat="48.55883" lon="2.61034">
        <ele>84.3</ele>
        <time>2021-05-30T06:37:04Z</time>
      </trkpt>
      <trkpt lat="48.55907" lon="2.61052">
        <ele>85.7</ele>
        <time>2021-05-30T06:37:12Z</time>
      </trkpt>
      <trkpt lat="48.55908" lon="2.61057">
        <ele>86</ele>
        <time>2021-05-30T06:37:13Z</time>
      </trkpt>
      <trkpt lat="48.55909" lon="2.61062">
        <ele>86.4</ele>
        <time>2021-05-30T06:37:14Z</time>
      </trkpt>
      <trkpt lat="48.55911" lon="2.61067">
        <ele>86.7</ele>
        <time>2021-05-30T06:37:15Z</time>
      </trkpt>
      <trkpt lat="48.55912" lon="2.61072">
        <ele>87.1</ele>
        <time>2021-05-30T06:37:16Z</time>
      </trkpt>
      <trkpt lat="48.55913" lon="2.61076">
        <ele>87.4</ele>
        <time>2021-05-30T06:37:17Z</time>
      </trkpt>
      <trkpt lat="48.55914" lon="2.6108">
        <ele>87.7</ele>
        <time>2021-05-30T06:37:18Z</time>
      </trkpt>
      <trkpt lat="48.55916" lon="2.61083">
        <ele>87.9</ele>
        <time>2021-05-30T06:37:19Z</time>
      </trkpt>
      <trkpt lat="48.55917" lon="2.61087">
        <ele>88.1</ele>
        <time>2021-05-30T06:37:20Z</time>
      </trkpt>
      <trkpt lat="48.55918" lon="2.61092">
        <ele>88.3</ele>
        <time>2021-05-30T06:37:21Z</time>
      </trkpt>
      <trkpt lat="48.55918" lon="2.61096">
        <ele>88.4</ele>
        <time>2021-05-30T06:37:22Z</time>
      </trkpt>
      <trkpt lat="48.55914" lon="2.61148">
        <ele>90.2</ele>
        <time>2021-05-30T06:37:32Z</time>
      </trkpt>
      <trkpt lat="48.55919" lon="2.61184">
        <ele>90.7</ele>
        <time>2021-05-30T06:37:42Z</time>
      </trkpt>
      <trkpt lat="48.55922" lon="2.61259">
        <ele>89.6</ele>
        <time>2021-05-30T06:37:52Z</time>
      </trkpt>
      <trkpt lat="48.55902" lon="2.61294">
        <ele>87.9</ele>
        <time>2021-05-30T06:38:02Z</time>
      </trkpt>
      <trkpt lat="48.55892" lon="2.61298">
        <ele>87.4</ele>
        <time>2021-05-30T06:38:04Z</time>
      </trkpt>
      <trkpt lat="48.55888" lon="2.613">
        <ele>87.2</ele>
        <time>2021-05-30T06:38:05Z</time>
      </trkpt>
      <trkpt lat="48.55884" lon="2.61301">
        <ele>87.1</ele>
        <time>2021-05-30T06:38:06Z</time>
      </trkpt>
      <trkpt lat="48.55862" lon="2.6132">
        <ele>86</ele>
        <time>2021-05-30T06:38:13Z</time>
      </trkpt>
      <trkpt lat="48.55857" lon="2.61325">
        <ele>85.7</ele>
        <time>2021-05-30T06:38:14Z</time>
      </trkpt>
      <trkpt lat="48.55854" lon="2.61321">
        <ele>85.7</ele>
        <time>2021-05-30T06:38:15Z</time>
      </trkpt>
      <trkpt lat="48.5582" lon="2.61299">
        <ele>85.2</ele>
        <time>2021-05-30T06:38:26Z</time>
      </trkpt>
      <trkpt lat="48.55814" lon="2.61294">
        <ele>85.1</ele>
        <time>2021-05-30T06:38:28Z</time>
      </trkpt>
      <trkpt lat="48.55811" lon="2.61293">
        <ele>85.1</ele>
        <time>2021-05-30T06:38:29Z</time>
      </trkpt>
      <trkpt lat="48.55809" lon="2.61293">
        <ele>85</ele>
        <time>2021-05-30T06:38:30Z</time>
      </trkpt>
      <trkpt lat="48.55806" lon="2.61294">
        <ele>85</ele>
        <time>2021-05-30T06:38:31Z</time>
      </trkpt>
      <trkpt lat="48.55803" lon="2.61293">
        <ele>84.9</ele>
        <time>2021-05-30T06:38:32Z</time>
      </trkpt>
      <trkpt lat="48.558" lon="2.61293">
        <ele>84.9</ele>
        <time>2021-05-30T06:38:33Z</time>
      </trkpt>
      <trkpt lat="48.55797" lon="2.61293">
        <ele>84.8</ele>
        <time>2021-05-30T06:38:34Z</time>
      </trkpt>
      <trkpt lat="48.55794" lon="2.61293">
        <ele>84.8</ele>
        <time>2021-05-30T06:38:35Z</time>
      </trkpt>
      <trkpt lat="48.5579" lon="2.61293">
        <ele>84.7</ele>
        <time>2021-05-30T06:38:36Z</time>
      </trkpt>
      <trkpt lat="48.55757" lon="2.61289">
        <ele>84.2</ele>
        <time>2021-05-30T06:38:45Z</time>
      </trkpt>
      <trkpt lat="48.55714" lon="2.61285">
        <ele>84.8</ele>
        <time>2021-05-30T06:38:55Z</time>
      </trkpt>
      <trkpt lat="48.55694" lon="2.61285">
        <ele>85.2</ele>
        <time>2021-05-30T06:39:00Z</time>
      </trkpt>
      <trkpt lat="48.5569" lon="2.61285">
        <ele>85.3</ele>
        <time>2021-05-30T06:39:01Z</time>
      </trkpt>
      <trkpt lat="48.55644" lon="2.61283">
        <ele>85.8</ele>
        <time>2021-05-30T06:39:12Z</time>
      </trkpt>
      <trkpt lat="48.55593" lon="2.61282">
        <ele>85.6</ele>
        <time>2021-05-30T06:39:24Z</time>
      </trkpt>
      <trkpt lat="48.55572" lon="2.61284">
        <ele>85.4</ele>
        <time>2021-05-30T06:39:29Z</time>
      </trkpt>
      <trkpt lat="48.55569" lon="2.61286">
        <ele>85.3</ele>
        <time>2021-05-30T06:39:30Z</time>
      </trkpt>
      <trkpt lat="48.55567" lon="2.61289">
        <ele>85.2</ele>
        <time>2021-05-30T06:39:31Z</time>
      </trkpt>
      <trkpt lat="48.55565" lon="2.61292">
        <ele>85.2</ele>
        <time>2021-05-30T06:39:32Z</time>
      </trkpt>
      <trkpt lat="48.55563" lon="2.61295">
        <ele>85.1</ele>
        <time>2021-05-30T06:39:33Z</time>
      </trkpt>
      <trkpt lat="48.5554" lon="2.61312">
        <ele>84.6</ele>
        <time>2021-05-30T06:39:42Z</time>
      </trkpt>
      <trkpt lat="48.55501" lon="2.6131">
        <ele>84</ele>
        <time>2021-05-30T06:39:54Z</time>
      </trkpt>
      <trkpt lat="48.55479" lon="2.61307">
        <ele>83.8</ele>
        <time>2021-05-30T06:39:59Z</time>
      </trkpt>
      <trkpt lat="48.55437" lon="2.61303">
        <ele>83.5</ele>
        <time>2021-05-30T06:40:09Z</time>
      </trkpt>
      <trkpt lat="48.55397" lon="2.61298">
        <ele>83.4</ele>
        <time>2021-05-30T06:40:18Z</time>
      </trkpt>
      <trkpt lat="48.55392" lon="2.61298">
        <ele>83.4</ele>
        <time>2021-05-30T06:40:19Z</time>
      </trkpt>
      <trkpt lat="48.55344" lon="2.61295">
        <ele>83.5</ele>
        <time>2021-05-30T06:40:30Z</time>
      </trkpt>
      <trkpt lat="48.55312" lon="2.6129">
        <ele>84.3</ele>
        <time>2021-05-30T06:40:39Z</time>
      </trkpt>
      <trkpt lat="48.55307" lon="2.61285">
        <ele>84.5</ele>
        <time>2021-05-30T06:40:41Z</time>
      </trkpt>
      <trkpt lat="48.55306" lon="2.61282">
        <ele>84.6</ele>
        <time>2021-05-30T06:40:42Z</time>
      </trkpt>
      <trkpt lat="48.55305" lon="2.61278">
        <ele>84.7</ele>
        <time>2021-05-30T06:40:43Z</time>
      </trkpt>
      <trkpt lat="48.553" lon="2.61261">
        <ele>85.1</ele>
        <time>2021-05-30T06:40:47Z</time>
      </trkpt>
      <trkpt lat="48.55297" lon="2.61255">
        <ele>85.2</ele>
        <time>2021-05-30T06:40:48Z</time>
      </trkpt>
      <trkpt lat="48.55295" lon="2.6125">
        <ele>85.4</ele>
        <time>2021-05-30T06:40:49Z</time>
      </trkpt>
      <trkpt lat="48.55293" lon="2.61244">
        <ele>85.3</ele>
        <time>2021-05-30T06:40:50Z</time>
      </trkpt>
      <trkpt lat="48.55292" lon="2.61238">
        <ele>85.3</ele>
        <time>2021-05-30T06:40:51Z</time>
      </trkpt>
      <trkpt lat="48.5529" lon="2.61232">
        <ele>85.2</ele>
        <time>2021-05-30T06:40:52Z</time>
      </trkpt>
      <trkpt lat="48.55285" lon="2.61208">
        <ele>85</ele>
        <time>2021-05-30T06:40:56Z</time>
      </trkpt>
      <trkpt lat="48.5528" lon="2.61195">
        <ele>84.8</ele>
        <time>2021-05-30T06:40:58Z</time>
      </trkpt>
      <trkpt lat="48.55278" lon="2.61189">
        <ele>84.8</ele>
        <time>2021-05-30T06:40:59Z</time>
      </trkpt>
      <trkpt lat="48.5527" lon="2.6116">
        <ele>84.4</ele>
        <time>2021-05-30T06:41:04Z</time>
      </trkpt>
      <trkpt lat="48.55263" lon="2.61141">
        <ele>84.4</ele>
        <time>2021-05-30T06:41:07Z</time>
      </trkpt>
      <trkpt lat="48.55252" lon="2.61105">
        <ele>84.2</ele>
        <time>2021-05-30T06:41:13Z</time>
      </trkpt>
      <trkpt lat="48.55236" lon="2.61047">
        <ele>84.4</ele>
        <time>2021-05-30T06:41:22Z</time>
      </trkpt>
      <trkpt lat="48.55235" lon="2.61041">
        <ele>84.5</ele>
        <time>2021-05-30T06:41:23Z</time>
      </trkpt>
      <trkpt lat="48.55234" lon="2.61036">
        <ele>84.6</ele>
        <time>2021-05-30T06:41:24Z</time>
      </trkpt>
      <trkpt lat="48.55233" lon="2.61031">
        <ele>84.6</ele>
        <time>2021-05-30T06:41:25Z</time>
      </trkpt>
      <trkpt lat="48.55232" lon="2.61024">
        <ele>84.7</ele>
        <time>2021-05-30T06:41:26Z</time>
      </trkpt>
      <trkpt lat="48.55227" lon="2.6101">
        <ele>84.9</ele>
        <time>2021-05-30T06:41:28Z</time>
      </trkpt>
      <trkpt lat="48.55224" lon="2.61003">
        <ele>85</ele>
        <time>2021-05-30T06:41:29Z</time>
      </trkpt>
      <trkpt lat="48.55205" lon="2.60951">
        <ele>83.5</ele>
        <time>2021-05-30T06:41:37Z</time>
      </trkpt>
      <trkpt lat="48.55204" lon="2.60945">
        <ele>83.3</ele>
        <time>2021-05-30T06:41:38Z</time>
      </trkpt>
      <trkpt lat="48.55202" lon="2.60939">
        <ele>83.1</ele>
        <time>2021-05-30T06:41:39Z</time>
      </trkpt>
      <trkpt lat="48.55196" lon="2.60918">
        <ele>82.4</ele>
        <time>2021-05-30T06:41:42Z</time>
      </trkpt>
      <trkpt lat="48.55194" lon="2.60911">
        <ele>82.1</ele>
        <time>2021-05-30T06:41:43Z</time>
      </trkpt>
      <trkpt lat="48.55192" lon="2.60905">
        <ele>81.9</ele>
        <time>2021-05-30T06:41:44Z</time>
      </trkpt>
      <trkpt lat="48.55189" lon="2.60899">
        <ele>81.6</ele>
        <time>2021-05-30T06:41:45Z</time>
      </trkpt>
      <trkpt lat="48.55187" lon="2.60893">
        <ele>81.4</ele>
        <time>2021-05-30T06:41:46Z</time>
      </trkpt>
      <trkpt lat="48.55185" lon="2.60888">
        <ele>81.2</ele>
        <time>2021-05-30T06:41:47Z</time>
      </trkpt>
      <trkpt lat="48.55183" lon="2.60882">
        <ele>81</ele>
        <time>2021-05-30T06:41:48Z</time>
      </trkpt>
      <trkpt lat="48.55182" lon="2.60877">
        <ele>80.7</ele>
        <time>2021-05-30T06:41:49Z</time>
      </trkpt>
      <trkpt lat="48.55182" lon="2.60871">
        <ele>80.5</ele>
        <time>2021-05-30T06:41:50Z</time>
      </trkpt>
      <trkpt lat="48.55182" lon="2.60866">
        <ele>80.4</ele>
        <time>2021-05-30T06:41:51Z</time>
      </trkpt>
      <trkpt lat="48.55182" lon="2.60862">
        <ele>80.2</ele>
        <time>2021-05-30T06:41:52Z</time>
      </trkpt>
      <trkpt lat="48.55181" lon="2.60858">
        <ele>80</ele>
        <time>2021-05-30T06:41:53Z</time>
      </trkpt>
      <trkpt lat="48.5518" lon="2.60854">
        <ele>79.9</ele>
        <time>2021-05-30T06:41:54Z</time>
      </trkpt>
      <trkpt lat="48.55178" lon="2.6085">
        <ele>79.7</ele>
        <time>2021-05-30T06:41:55Z</time>
      </trkpt>
      <trkpt lat="48.55177" lon="2.60845">
        <ele>79.5</ele>
        <time>2021-05-30T06:41:56Z</time>
      </trkpt>
      <trkpt lat="48.55178" lon="2.6084">
        <ele>79.4</ele>
        <time>2021-05-30T06:41:57Z</time>
      </trkpt>
      <trkpt lat="48.55179" lon="2.60835">
        <ele>79.2</ele>
        <time>2021-05-30T06:41:58Z</time>
      </trkpt>
      <trkpt lat="48.55181" lon="2.60831">
        <ele>79.1</ele>
        <time>2021-05-30T06:41:59Z</time>
      </trkpt>
      <trkpt lat="48.55183" lon="2.60827">
        <ele>79.1</ele>
        <time>2021-05-30T06:42:00Z</time>
      </trkpt>
      <trkpt lat="48.55187" lon="2.60823">
        <ele>79.1</ele>
        <time>2021-05-30T06:42:01Z</time>
      </trkpt>
      <trkpt lat="48.5519" lon="2.60819">
        <ele>79</ele>
        <time>2021-05-30T06:42:02Z</time>
      </trkpt>
      <trkpt lat="48.55194" lon="2.60814">
        <ele>78.9</ele>
        <time>2021-05-30T06:42:03Z</time>
      </trkpt>
      <trkpt lat="48.5521" lon="2.60783">
        <ele>78.3</ele>
        <time>2021-05-30T06:42:09Z</time>
      </trkpt>
      <trkpt lat="48.55212" lon="2.60776">
        <ele>78.1</ele>
        <time>2021-05-30T06:42:10Z</time>
      </trkpt>
      <trkpt lat="48.55212" lon="2.6077">
        <ele>78</ele>
        <time>2021-05-30T06:42:11Z</time>
      </trkpt>
      <trkpt lat="48.55211" lon="2.60765">
        <ele>77.8</ele>
        <time>2021-05-30T06:42:12Z</time>
      </trkpt>
      <trkpt lat="48.55209" lon="2.60759">
        <ele>77.7</ele>
        <time>2021-05-30T06:42:13Z</time>
      </trkpt>
      <trkpt lat="48.55207" lon="2.60754">
        <ele>77.6</ele>
        <time>2021-05-30T06:42:14Z</time>
      </trkpt>
      <trkpt lat="48.55204" lon="2.60749">
        <ele>77.5</ele>
        <time>2021-05-30T06:42:15Z</time>
      </trkpt>
      <trkpt lat="48.55201" lon="2.60744">
        <ele>77.5</ele>
        <time>2021-05-30T06:42:16Z</time>
      </trkpt>
      <trkpt lat="48.55188" lon="2.60719">
        <ele>77.2</ele>
        <time>2021-05-30T06:42:21Z</time>
      </trkpt>
      <trkpt lat="48.55147" lon="2.60658">
        <ele>75.2</ele>
        <time>2021-05-30T06:42:31Z</time>
      </trkpt>
      <trkpt lat="48.55084" lon="2.60582">
        <ele>73</ele>
        <time>2021-05-30T06:42:43Z</time>
      </trkpt>
      <trkpt lat="48.55007" lon="2.60518">
        <ele>73.9</ele>
        <time>2021-05-30T06:43:00Z</time>
      </trkpt>
      <trkpt lat="48.54926" lon="2.60449">
        <ele>74.9</ele>
        <time>2021-05-30T06:43:19Z</time>
      </trkpt>
      <trkpt lat="48.54844" lon="2.6038">
        <ele>75.8</ele>
        <time>2021-05-30T06:43:38Z</time>
      </trkpt>
      <trkpt lat="48.5479" lon="2.60333">
        <ele>78.1</ele>
        <time>2021-05-30T06:43:52Z</time>
      </trkpt>
      <trkpt lat="48.54786" lon="2.60331">
        <ele>78.4</ele>
        <time>2021-05-30T06:43:53Z</time>
      </trkpt>
      <trkpt lat="48.54752" lon="2.60298">
        <ele>81.2</ele>
        <time>2021-05-30T06:44:04Z</time>
      </trkpt>
      <trkpt lat="48.54748" lon="2.60294">
        <ele>81.4</ele>
        <time>2021-05-30T06:44:05Z</time>
      </trkpt>
      <trkpt lat="48.54743" lon="2.6029">
        <ele>81.6</ele>
        <time>2021-05-30T06:44:06Z</time>
      </trkpt>
      <trkpt lat="48.54739" lon="2.60287">
        <ele>81.7</ele>
        <time>2021-05-30T06:44:07Z</time>
      </trkpt>
      <trkpt lat="48.54734" lon="2.60284">
        <ele>81.8</ele>
        <time>2021-05-30T06:44:08Z</time>
      </trkpt>
      <trkpt lat="48.54729" lon="2.60281">
        <ele>81.8</ele>
        <time>2021-05-30T06:44:09Z</time>
      </trkpt>
      <trkpt lat="48.54711" lon="2.60267">
        <ele>81.9</ele>
        <time>2021-05-30T06:44:13Z</time>
      </trkpt>
      <trkpt lat="48.54707" lon="2.60264">
        <ele>81.9</ele>
        <time>2021-05-30T06:44:14Z</time>
      </trkpt>
      <trkpt lat="48.54664" lon="2.60226">
        <ele>80.8</ele>
        <time>2021-05-30T06:44:25Z</time>
      </trkpt>
      <trkpt lat="48.54652" lon="2.60215">
        <ele>80.8</ele>
        <time>2021-05-30T06:44:28Z</time>
      </trkpt>
      <trkpt lat="48.54648" lon="2.60212">
        <ele>80.8</ele>
        <time>2021-05-30T06:44:29Z</time>
      </trkpt>
      <trkpt lat="48.5464" lon="2.60204">
        <ele>80.8</ele>
        <time>2021-05-30T06:44:31Z</time>
      </trkpt>
      <trkpt lat="48.54635" lon="2.602">
        <ele>80.8</ele>
        <time>2021-05-30T06:44:32Z</time>
      </trkpt>
      <trkpt lat="48.54627" lon="2.60193">
        <ele>80.8</ele>
        <time>2021-05-30T06:44:34Z</time>
      </trkpt>
      <trkpt lat="48.54623" lon="2.6019">
        <ele>80.8</ele>
        <time>2021-05-30T06:44:35Z</time>
      </trkpt>
      <trkpt lat="48.54619" lon="2.60186">
        <ele>80.8</ele>
        <time>2021-05-30T06:44:36Z</time>
      </trkpt>
      <trkpt lat="48.5459" lon="2.60163">
        <ele>80.9</ele>
        <time>2021-05-30T06:44:43Z</time>
      </trkpt>
      <trkpt lat="48.54586" lon="2.60159">
        <ele>80.9</ele>
        <time>2021-05-30T06:44:44Z</time>
      </trkpt>
      <trkpt lat="48.54582" lon="2.60155">
        <ele>80.8</ele>
        <time>2021-05-30T06:44:45Z</time>
      </trkpt>
      <trkpt lat="48.54578" lon="2.60151">
        <ele>80.8</ele>
        <time>2021-05-30T06:44:46Z</time>
      </trkpt>
      <trkpt lat="48.54574" lon="2.60147">
        <ele>80.7</ele>
        <time>2021-05-30T06:44:47Z</time>
      </trkpt>
      <trkpt lat="48.54554" lon="2.60128">
        <ele>80.5</ele>
        <time>2021-05-30T06:44:52Z</time>
      </trkpt>
      <trkpt lat="48.54542" lon="2.60118">
        <ele>80.5</ele>
        <time>2021-05-30T06:44:55Z</time>
      </trkpt>
      <trkpt lat="48.54538" lon="2.60114">
        <ele>80.5</ele>
        <time>2021-05-30T06:44:56Z</time>
      </trkpt>
      <trkpt lat="48.54534" lon="2.60111">
        <ele>80.5</ele>
        <time>2021-05-30T06:44:57Z</time>
      </trkpt>
      <trkpt lat="48.54529" lon="2.60108">
        <ele>80.6</ele>
        <time>2021-05-30T06:44:58Z</time>
      </trkpt>
      <trkpt lat="48.54525" lon="2.60104">
        <ele>80.6</ele>
        <time>2021-05-30T06:44:59Z</time>
      </trkpt>
      <trkpt lat="48.5452" lon="2.60101">
        <ele>80.6</ele>
        <time>2021-05-30T06:45:00Z</time>
      </trkpt>
      <trkpt lat="48.54512" lon="2.60094">
        <ele>80.8</ele>
        <time>2021-05-30T06:45:02Z</time>
      </trkpt>
      <trkpt lat="48.54508" lon="2.6009">
        <ele>80.8</ele>
        <time>2021-05-30T06:45:03Z</time>
      </trkpt>
      <trkpt lat="48.54458" lon="2.6005">
        <ele>82.7</ele>
        <time>2021-05-30T06:45:15Z</time>
      </trkpt>
      <trkpt lat="48.54441" lon="2.60042">
        <ele>83.4</ele>
        <time>2021-05-30T06:45:19Z</time>
      </trkpt>
      <trkpt lat="48.5442" lon="2.60036">
        <ele>84.2</ele>
        <time>2021-05-30T06:45:23Z</time>
      </trkpt>
      <trkpt lat="48.54415" lon="2.60036">
        <ele>84.3</ele>
        <time>2021-05-30T06:45:24Z</time>
      </trkpt>
      <trkpt lat="48.54406" lon="2.60033">
        <ele>84.2</ele>
        <time>2021-05-30T06:45:26Z</time>
      </trkpt>
      <trkpt lat="48.54401" lon="2.60031">
        <ele>84.3</ele>
        <time>2021-05-30T06:45:27Z</time>
      </trkpt>
      <trkpt lat="48.5438" lon="2.60019">
        <ele>84.4</ele>
        <time>2021-05-30T06:45:32Z</time>
      </trkpt>
      <trkpt lat="48.54376" lon="2.60017">
        <ele>84.4</ele>
        <time>2021-05-30T06:45:33Z</time>
      </trkpt>
      <trkpt lat="48.54373" lon="2.60015">
        <ele>84.4</ele>
        <time>2021-05-30T06:45:34Z</time>
      </trkpt>
      <trkpt lat="48.54368" lon="2.60011">
        <ele>84.5</ele>
        <time>2021-05-30T06:45:35Z</time>
      </trkpt>
      <trkpt lat="48.54363" lon="2.60007">
        <ele>84.5</ele>
        <time>2021-05-30T06:45:36Z</time>
      </trkpt>
      <trkpt lat="48.54359" lon="2.60003">
        <ele>84.5</ele>
        <time>2021-05-30T06:45:37Z</time>
      </trkpt>
      <trkpt lat="48.54328" lon="2.59978">
        <ele>84.6</ele>
        <time>2021-05-30T06:45:44Z</time>
      </trkpt>
      <trkpt lat="48.54324" lon="2.59973">
        <ele>84.8</ele>
        <time>2021-05-30T06:45:45Z</time>
      </trkpt>
      <trkpt lat="48.54316" lon="2.59967">
        <ele>85</ele>
        <time>2021-05-30T06:45:47Z</time>
      </trkpt>
      <trkpt lat="48.54296" lon="2.59951">
        <ele>85.3</ele>
        <time>2021-05-30T06:45:53Z</time>
      </trkpt>
      <trkpt lat="48.54293" lon="2.59947">
        <ele>85.3</ele>
        <time>2021-05-30T06:45:54Z</time>
      </trkpt>
      <trkpt lat="48.54245" lon="2.59914">
        <ele>85.1</ele>
        <time>2021-05-30T06:46:05Z</time>
      </trkpt>
      <trkpt lat="48.54212" lon="2.59888">
        <ele>85.4</ele>
        <time>2021-05-30T06:46:13Z</time>
      </trkpt>
      <trkpt lat="48.54203" lon="2.59881">
        <ele>85.4</ele>
        <time>2021-05-30T06:46:15Z</time>
      </trkpt>
      <trkpt lat="48.5418" lon="2.59864">
        <ele>85.2</ele>
        <time>2021-05-30T06:46:20Z</time>
      </trkpt>
      <trkpt lat="48.54176" lon="2.59861">
        <ele>85.2</ele>
        <time>2021-05-30T06:46:21Z</time>
      </trkpt>
      <trkpt lat="48.54134" lon="2.59829">
        <ele>83.5</ele>
        <time>2021-05-30T06:46:30Z</time>
      </trkpt>
      <trkpt lat="48.5413" lon="2.59826">
        <ele>83.4</ele>
        <time>2021-05-30T06:46:31Z</time>
      </trkpt>
      <trkpt lat="48.54115" lon="2.59816">
        <ele>82.9</ele>
        <time>2021-05-30T06:46:35Z</time>
      </trkpt>
      <trkpt lat="48.54112" lon="2.59817">
        <ele>82.7</ele>
        <time>2021-05-30T06:46:36Z</time>
      </trkpt>
      <trkpt lat="48.54109" lon="2.59819">
        <ele>82.5</ele>
        <time>2021-05-30T06:46:37Z</time>
      </trkpt>
      <trkpt lat="48.54085" lon="2.5986">
        <ele>81.4</ele>
        <time>2021-05-30T06:46:46Z</time>
      </trkpt>
      <trkpt lat="48.54039" lon="2.59945">
        <ele>81.8</ele>
        <time>2021-05-30T06:47:00Z</time>
      </trkpt>
      <trkpt lat="48.54009" lon="2.59995">
        <ele>80.4</ele>
        <time>2021-05-30T06:47:09Z</time>
      </trkpt>
      <trkpt lat="48.54" lon="2.60013">
        <ele>79.8</ele>
        <time>2021-05-30T06:47:12Z</time>
      </trkpt>
      <trkpt lat="48.53954" lon="2.60107">
        <ele>80.1</ele>
        <time>2021-05-30T06:47:27Z</time>
      </trkpt>
      <trkpt lat="48.53916" lon="2.60192">
        <ele>82.3</ele>
        <time>2021-05-30T06:47:40Z</time>
      </trkpt>
      <trkpt lat="48.5391" lon="2.60198">
        <ele>82.7</ele>
        <time>2021-05-30T06:47:42Z</time>
      </trkpt>
      <trkpt lat="48.53906" lon="2.60198">
        <ele>82.8</ele>
        <time>2021-05-30T06:47:43Z</time>
      </trkpt>
      <trkpt lat="48.53902" lon="2.60194">
        <ele>83</ele>
        <time>2021-05-30T06:47:44Z</time>
      </trkpt>
      <trkpt lat="48.53895" lon="2.60186">
        <ele>83.2</ele>
        <time>2021-05-30T06:47:46Z</time>
      </trkpt>
      <trkpt lat="48.53862" lon="2.60152">
        <ele>84.3</ele>
        <time>2021-05-30T06:47:55Z</time>
      </trkpt>
      <trkpt lat="48.53859" lon="2.60148">
        <ele>84.3</ele>
        <time>2021-05-30T06:47:56Z</time>
      </trkpt>
      <trkpt lat="48.53832" lon="2.60124">
        <ele>85</ele>
        <time>2021-05-30T06:48:03Z</time>
      </trkpt>
      <trkpt lat="48.53828" lon="2.6012">
        <ele>85</ele>
        <time>2021-05-30T06:48:04Z</time>
      </trkpt>
      <trkpt lat="48.53799" lon="2.60091">
        <ele>84.6</ele>
        <time>2021-05-30T06:48:12Z</time>
      </trkpt>
      <trkpt lat="48.53748" lon="2.60041">
        <ele>84</ele>
        <time>2021-05-30T06:48:25Z</time>
      </trkpt>
      <trkpt lat="48.5373" lon="2.60024">
        <ele>84.2</ele>
        <time>2021-05-30T06:48:29Z</time>
      </trkpt>
      <trkpt lat="48.53673" lon="2.59972">
        <ele>84.2</ele>
        <time>2021-05-30T06:48:41Z</time>
      </trkpt>
      <trkpt lat="48.53669" lon="2.59967">
        <ele>84</ele>
        <time>2021-05-30T06:48:42Z</time>
      </trkpt>
      <trkpt lat="48.53664" lon="2.59961">
        <ele>83.6</ele>
        <time>2021-05-30T06:48:43Z</time>
      </trkpt>
      <trkpt lat="48.53659" lon="2.59956">
        <ele>83.2</ele>
        <time>2021-05-30T06:48:44Z</time>
      </trkpt>
      <trkpt lat="48.53626" lon="2.59923">
        <ele>80.8</ele>
        <time>2021-05-30T06:48:51Z</time>
      </trkpt>
      <trkpt lat="48.53622" lon="2.59917">
        <ele>80.5</ele>
        <time>2021-05-30T06:48:52Z</time>
      </trkpt>
      <trkpt lat="48.53617" lon="2.59911">
        <ele>80.4</ele>
        <time>2021-05-30T06:48:53Z</time>
      </trkpt>
      <trkpt lat="48.53613" lon="2.59906">
        <ele>80.3</ele>
        <time>2021-05-30T06:48:54Z</time>
      </trkpt>
      <trkpt lat="48.53607" lon="2.59901">
        <ele>80.2</ele>
        <time>2021-05-30T06:48:55Z</time>
      </trkpt>
      <trkpt lat="48.53545" lon="2.59843">
        <ele>79.6</ele>
        <time>2021-05-30T06:49:07Z</time>
      </trkpt>
      <trkpt lat="48.53535" lon="2.59833">
        <ele>79.6</ele>
        <time>2021-05-30T06:49:09Z</time>
      </trkpt>
      <trkpt lat="48.53523" lon="2.59824">
        <ele>79.8</ele>
        <time>2021-05-30T06:49:11Z</time>
      </trkpt>
      <trkpt lat="48.53517" lon="2.5982">
        <ele>79.9</ele>
        <time>2021-05-30T06:49:12Z</time>
      </trkpt>
      <trkpt lat="48.53513" lon="2.59816">
        <ele>79.9</ele>
        <time>2021-05-30T06:49:13Z</time>
      </trkpt>
      <trkpt lat="48.53508" lon="2.59813">
        <ele>80</ele>
        <time>2021-05-30T06:49:14Z</time>
      </trkpt>
      <trkpt lat="48.53504" lon="2.59808">
        <ele>80</ele>
        <time>2021-05-30T06:49:15Z</time>
      </trkpt>
      <trkpt lat="48.53499" lon="2.59804">
        <ele>80</ele>
        <time>2021-05-30T06:49:16Z</time>
      </trkpt>
      <trkpt lat="48.53494" lon="2.59798">
        <ele>79.9</ele>
        <time>2021-05-30T06:49:17Z</time>
      </trkpt>
      <trkpt lat="48.53461" lon="2.59765">
        <ele>79.2</ele>
        <time>2021-05-30T06:49:24Z</time>
      </trkpt>
      <trkpt lat="48.53441" lon="2.59743">
        <ele>78.6</ele>
        <time>2021-05-30T06:49:29Z</time>
      </trkpt>
      <trkpt lat="48.53437" lon="2.59739">
        <ele>78.4</ele>
        <time>2021-05-30T06:49:30Z</time>
      </trkpt>
      <trkpt lat="48.53412" lon="2.59716">
        <ele>77.6</ele>
        <time>2021-05-30T06:49:36Z</time>
      </trkpt>
      <trkpt lat="48.53392" lon="2.59701">
        <ele>77.3</ele>
        <time>2021-05-30T06:49:40Z</time>
      </trkpt>
      <trkpt lat="48.53382" lon="2.59692">
        <ele>77</ele>
        <time>2021-05-30T06:49:42Z</time>
      </trkpt>
      <trkpt lat="48.53344" lon="2.59655">
        <ele>75.3</ele>
        <time>2021-05-30T06:49:50Z</time>
      </trkpt>
      <trkpt lat="48.53339" lon="2.59651">
        <ele>75.2</ele>
        <time>2021-05-30T06:49:51Z</time>
      </trkpt>
      <trkpt lat="48.53336" lon="2.59647">
        <ele>75.1</ele>
        <time>2021-05-30T06:49:52Z</time>
      </trkpt>
      <trkpt lat="48.53332" lon="2.59643">
        <ele>75</ele>
        <time>2021-05-30T06:49:53Z</time>
      </trkpt>
      <trkpt lat="48.53328" lon="2.59639">
        <ele>75.2</ele>
        <time>2021-05-30T06:49:54Z</time>
      </trkpt>
      <trkpt lat="48.53324" lon="2.59635">
        <ele>75.3</ele>
        <time>2021-05-30T06:49:55Z</time>
      </trkpt>
      <trkpt lat="48.5332" lon="2.59632">
        <ele>75.5</ele>
        <time>2021-05-30T06:49:56Z</time>
      </trkpt>
      <trkpt lat="48.53307" lon="2.59621">
        <ele>75.9</ele>
        <time>2021-05-30T06:49:59Z</time>
      </trkpt>
      <trkpt lat="48.53302" lon="2.59617">
        <ele>76</ele>
        <time>2021-05-30T06:50:00Z</time>
      </trkpt>
      <trkpt lat="48.53262" lon="2.59579">
        <ele>76.7</ele>
        <time>2021-05-30T06:50:10Z</time>
      </trkpt>
      <trkpt lat="48.53231" lon="2.59547">
        <ele>77.4</ele>
        <time>2021-05-30T06:50:19Z</time>
      </trkpt>
      <trkpt lat="48.53205" lon="2.59522">
        <ele>77.7</ele>
        <time>2021-05-30T06:50:25Z</time>
      </trkpt>
      <trkpt lat="48.53201" lon="2.59519">
        <ele>77.7</ele>
        <time>2021-05-30T06:50:26Z</time>
      </trkpt>
      <trkpt lat="48.53193" lon="2.59511">
        <ele>77.8</ele>
        <time>2021-05-30T06:50:28Z</time>
      </trkpt>
      <trkpt lat="48.53189" lon="2.59507">
        <ele>77.8</ele>
        <time>2021-05-30T06:50:29Z</time>
      </trkpt>
      <trkpt lat="48.53184" lon="2.59503">
        <ele>77.8</ele>
        <time>2021-05-30T06:50:30Z</time>
      </trkpt>
      <trkpt lat="48.53179" lon="2.59498">
        <ele>77.8</ele>
        <time>2021-05-30T06:50:31Z</time>
      </trkpt>
      <trkpt lat="48.53175" lon="2.59494">
        <ele>77.8</ele>
        <time>2021-05-30T06:50:32Z</time>
      </trkpt>
      <trkpt lat="48.53171" lon="2.59491">
        <ele>77.8</ele>
        <time>2021-05-30T06:50:33Z</time>
      </trkpt>
      <trkpt lat="48.53167" lon="2.59488">
        <ele>77.7</ele>
        <time>2021-05-30T06:50:34Z</time>
      </trkpt>
      <trkpt lat="48.53139" lon="2.59466">
        <ele>76.8</ele>
        <time>2021-05-30T06:50:43Z</time>
      </trkpt>
      <trkpt lat="48.5312" lon="2.59476">
        <ele>76.9</ele>
        <time>2021-05-30T06:50:49Z</time>
      </trkpt>
      <trkpt lat="48.53118" lon="2.5948">
        <ele>76.9</ele>
        <time>2021-05-30T06:50:50Z</time>
      </trkpt>
      <trkpt lat="48.53115" lon="2.59488">
        <ele>77.1</ele>
        <time>2021-05-30T06:50:52Z</time>
      </trkpt>
      <trkpt lat="48.53112" lon="2.59488">
        <ele>77.1</ele>
        <time>2021-05-30T06:50:53Z</time>
      </trkpt>
      <trkpt lat="48.53099" lon="2.59484">
        <ele>76.8</ele>
        <time>2021-05-30T06:50:58Z</time>
      </trkpt>
      <trkpt lat="48.53098" lon="2.59481">
        <ele>76.7</ele>
        <time>2021-05-30T06:50:59Z</time>
      </trkpt>
      <trkpt lat="48.53096" lon="2.59478">
        <ele>76.6</ele>
        <time>2021-05-30T06:51:00Z</time>
      </trkpt>
      <trkpt lat="48.53095" lon="2.59474">
        <ele>76.5</ele>
        <time>2021-05-30T06:51:01Z</time>
      </trkpt>
      <trkpt lat="48.53093" lon="2.59471">
        <ele>76.4</ele>
        <time>2021-05-30T06:51:02Z</time>
      </trkpt>
      <trkpt lat="48.53091" lon="2.5947">
        <ele>76.4</ele>
        <time>2021-05-30T06:51:03Z</time>
      </trkpt>
      <trkpt lat="48.53089" lon="2.59468">
        <ele>76.3</ele>
        <time>2021-05-30T06:51:04Z</time>
      </trkpt>
      <trkpt lat="48.53086" lon="2.59467">
        <ele>76.2</ele>
        <time>2021-05-30T06:51:05Z</time>
      </trkpt>
      <trkpt lat="48.53082" lon="2.59465">
        <ele>76.1</ele>
        <time>2021-05-30T06:51:06Z</time>
      </trkpt>
      <trkpt lat="48.53079" lon="2.59462">
        <ele>76</ele>
        <time>2021-05-30T06:51:07Z</time>
      </trkpt>
      <trkpt lat="48.53075" lon="2.59459">
        <ele>75.9</ele>
        <time>2021-05-30T06:51:08Z</time>
      </trkpt>
      <trkpt lat="48.53072" lon="2.59457">
        <ele>75.8</ele>
        <time>2021-05-30T06:51:09Z</time>
      </trkpt>
      <trkpt lat="48.53068" lon="2.59457">
        <ele>75.7</ele>
        <time>2021-05-30T06:51:10Z</time>
      </trkpt>
      <trkpt lat="48.53064" lon="2.59457">
        <ele>75.6</ele>
        <time>2021-05-30T06:51:11Z</time>
      </trkpt>
      <trkpt lat="48.53038" lon="2.59449">
        <ele>74.9</ele>
        <time>2021-05-30T06:51:18Z</time>
      </trkpt>
      <trkpt lat="48.53031" lon="2.59446">
        <ele>74.7</ele>
        <time>2021-05-30T06:51:21Z</time>
      </trkpt>
      <trkpt lat="48.53028" lon="2.59444">
        <ele>74.6</ele>
        <time>2021-05-30T06:51:23Z</time>
      </trkpt>
      <trkpt lat="48.53026" lon="2.59445">
        <ele>74.5</ele>
        <time>2021-05-30T06:51:24Z</time>
      </trkpt>
      <trkpt lat="48.53023" lon="2.59448">
        <ele>74.6</ele>
        <time>2021-05-30T06:51:25Z</time>
      </trkpt>
      <trkpt lat="48.53019" lon="2.59453">
        <ele>74.7</ele>
        <time>2021-05-30T06:51:26Z</time>
      </trkpt>
      <trkpt lat="48.53016" lon="2.59457">
        <ele>74.7</ele>
        <time>2021-05-30T06:51:27Z</time>
      </trkpt>
      <trkpt lat="48.53004" lon="2.59478">
        <ele>75.3</ele>
        <time>2021-05-30T06:51:33Z</time>
      </trkpt>
      <trkpt lat="48.52993" lon="2.59493">
        <ele>75.8</ele>
        <time>2021-05-30T06:51:37Z</time>
      </trkpt>
      <trkpt lat="48.52989" lon="2.59502">
        <ele>76</ele>
        <time>2021-05-30T06:51:39Z</time>
      </trkpt>
      <trkpt lat="48.52986" lon="2.59504">
        <ele>76.1</ele>
        <time>2021-05-30T06:51:40Z</time>
      </trkpt>
      <trkpt lat="48.52983" lon="2.59506">
        <ele>76.1</ele>
        <time>2021-05-30T06:51:41Z</time>
      </trkpt>
      <trkpt lat="48.5298" lon="2.59506">
        <ele>76.1</ele>
        <time>2021-05-30T06:51:42Z</time>
      </trkpt>
      <trkpt lat="48.52976" lon="2.59505">
        <ele>76.1</ele>
        <time>2021-05-30T06:51:43Z</time>
      </trkpt>
      <trkpt lat="48.52973" lon="2.59503">
        <ele>76.1</ele>
        <time>2021-05-30T06:51:44Z</time>
      </trkpt>
      <trkpt lat="48.5297" lon="2.59501">
        <ele>76</ele>
        <time>2021-05-30T06:51:45Z</time>
      </trkpt>
      <trkpt lat="48.52966" lon="2.595">
        <ele>76</ele>
        <time>2021-05-30T06:51:46Z</time>
      </trkpt>
      <trkpt lat="48.52962" lon="2.59498">
        <ele>75.9</ele>
        <time>2021-05-30T06:51:47Z</time>
      </trkpt>
      <trkpt lat="48.52958" lon="2.59496">
        <ele>75.8</ele>
        <time>2021-05-30T06:51:48Z</time>
      </trkpt>
      <trkpt lat="48.52953" lon="2.59494">
        <ele>75.7</ele>
        <time>2021-05-30T06:51:49Z</time>
      </trkpt>
      <trkpt lat="48.52904" lon="2.59462">
        <ele>74.1</ele>
        <time>2021-05-30T06:52:01Z</time>
      </trkpt>
      <trkpt lat="48.52898" lon="2.59458">
        <ele>73.9</ele>
        <time>2021-05-30T06:52:02Z</time>
      </trkpt>
      <trkpt lat="48.52893" lon="2.59455">
        <ele>73.7</ele>
        <time>2021-05-30T06:52:03Z</time>
      </trkpt>
      <trkpt lat="48.52889" lon="2.59453">
        <ele>73.6</ele>
        <time>2021-05-30T06:52:04Z</time>
      </trkpt>
      <trkpt lat="48.52885" lon="2.59451">
        <ele>73.4</ele>
        <time>2021-05-30T06:52:05Z</time>
      </trkpt>
      <trkpt lat="48.5288" lon="2.5945">
        <ele>73.3</ele>
        <time>2021-05-30T06:52:06Z</time>
      </trkpt>
      <trkpt lat="48.52875" lon="2.59449">
        <ele>73.2</ele>
        <time>2021-05-30T06:52:07Z</time>
      </trkpt>
      <trkpt lat="48.52864" lon="2.59448">
        <ele>73.1</ele>
        <time>2021-05-30T06:52:09Z</time>
      </trkpt>
      <trkpt lat="48.52859" lon="2.59448">
        <ele>73.1</ele>
        <time>2021-05-30T06:52:10Z</time>
      </trkpt>
      <trkpt lat="48.52847" lon="2.59449">
        <ele>73</ele>
        <time>2021-05-30T06:52:12Z</time>
      </trkpt>
      <trkpt lat="48.5284" lon="2.59448">
        <ele>72.9</ele>
        <time>2021-05-30T06:52:13Z</time>
      </trkpt>
      <trkpt lat="48.52787" lon="2.59437">
        <ele>69.5</ele>
        <time>2021-05-30T06:52:22Z</time>
      </trkpt>
      <trkpt lat="48.5278" lon="2.59435">
        <ele>68.9</ele>
        <time>2021-05-30T06:52:23Z</time>
      </trkpt>
      <trkpt lat="48.52774" lon="2.59433">
        <ele>68.4</ele>
        <time>2021-05-30T06:52:24Z</time>
      </trkpt>
      <trkpt lat="48.52769" lon="2.59431">
        <ele>68</ele>
        <time>2021-05-30T06:52:25Z</time>
      </trkpt>
      <trkpt lat="48.52764" lon="2.5943">
        <ele>67.6</ele>
        <time>2021-05-30T06:52:26Z</time>
      </trkpt>
      <trkpt lat="48.52759" lon="2.59429">
        <ele>67.3</ele>
        <time>2021-05-30T06:52:27Z</time>
      </trkpt>
      <trkpt lat="48.52754" lon="2.59429">
        <ele>66.9</ele>
        <time>2021-05-30T06:52:28Z</time>
      </trkpt>
      <trkpt lat="48.52722" lon="2.5942">
        <ele>64.9</ele>
        <time>2021-05-30T06:52:33Z</time>
      </trkpt>
      <trkpt lat="48.52711" lon="2.59416">
        <ele>64.1</ele>
        <time>2021-05-30T06:52:35Z</time>
      </trkpt>
      <trkpt lat="48.52704" lon="2.59418">
        <ele>63.9</ele>
        <time>2021-05-30T06:52:36Z</time>
      </trkpt>
      <trkpt lat="48.52682" lon="2.59432">
        <ele>63.6</ele>
        <time>2021-05-30T06:52:40Z</time>
      </trkpt>
      <trkpt lat="48.52677" lon="2.59433">
        <ele>63.5</ele>
        <time>2021-05-30T06:52:41Z</time>
      </trkpt>
      <trkpt lat="48.52671" lon="2.59433">
        <ele>63.2</ele>
        <time>2021-05-30T06:52:42Z</time>
      </trkpt>
      <trkpt lat="48.52665" lon="2.59433">
        <ele>62.9</ele>
        <time>2021-05-30T06:52:43Z</time>
      </trkpt>
      <trkpt lat="48.52659" lon="2.59431">
        <ele>62.6</ele>
        <time>2021-05-30T06:52:44Z</time>
      </trkpt>
      <trkpt lat="48.52654" lon="2.5943">
        <ele>62.3</ele>
        <time>2021-05-30T06:52:45Z</time>
      </trkpt>
      <trkpt lat="48.5265" lon="2.59429">
        <ele>62.1</ele>
        <time>2021-05-30T06:52:46Z</time>
      </trkpt>
      <trkpt lat="48.52636" lon="2.59425">
        <ele>61.4</ele>
        <time>2021-05-30T06:52:49Z</time>
      </trkpt>
      <trkpt lat="48.52631" lon="2.59422">
        <ele>61</ele>
        <time>2021-05-30T06:52:50Z</time>
      </trkpt>
      <trkpt lat="48.52626" lon="2.59419">
        <ele>60.7</ele>
        <time>2021-05-30T06:52:51Z</time>
      </trkpt>
      <trkpt lat="48.52582" lon="2.59389">
        <ele>57.7</ele>
        <time>2021-05-30T06:53:00Z</time>
      </trkpt>
      <trkpt lat="48.52546" lon="2.59358">
        <ele>54.8</ele>
        <time>2021-05-30T06:53:09Z</time>
      </trkpt>
      <trkpt lat="48.52542" lon="2.59356">
        <ele>54.6</ele>
        <time>2021-05-30T06:53:10Z</time>
      </trkpt>
      <trkpt lat="48.52534" lon="2.59354">
        <ele>54.2</ele>
        <time>2021-05-30T06:53:12Z</time>
      </trkpt>
      <trkpt lat="48.5253" lon="2.59351">
        <ele>53.9</ele>
        <time>2021-05-30T06:53:13Z</time>
      </trkpt>
      <trkpt lat="48.52489" lon="2.59312">
        <ele>51.8</ele>
        <time>2021-05-30T06:53:21Z</time>
      </trkpt>
      <trkpt lat="48.5241" lon="2.5923">
        <ele>49.7</ele>
        <time>2021-05-30T06:53:37Z</time>
      </trkpt>
      <trkpt lat="48.52389" lon="2.5921">
        <ele>49.3</ele>
        <time>2021-05-30T06:53:42Z</time>
      </trkpt>
      <trkpt lat="48.52333" lon="2.59152">
        <ele>48.6</ele>
        <time>2021-05-30T06:53:55Z</time>
      </trkpt>
      <trkpt lat="48.52282" lon="2.591">
        <ele>44.8</ele>
        <time>2021-05-30T06:54:07Z</time>
      </trkpt>
      <trkpt lat="48.52278" lon="2.59096">
        <ele>44.5</ele>
        <time>2021-05-30T06:54:08Z</time>
      </trkpt>
      <trkpt lat="48.52276" lon="2.5909">
        <ele>44.3</ele>
        <time>2021-05-30T06:54:09Z</time>
      </trkpt>
      <trkpt lat="48.52275" lon="2.59084">
        <ele>44.2</ele>
        <time>2021-05-30T06:54:10Z</time>
      </trkpt>
      <trkpt lat="48.52277" lon="2.59079">
        <ele>44.3</ele>
        <time>2021-05-30T06:54:11Z</time>
      </trkpt>
      <trkpt lat="48.5228" lon="2.59074">
        <ele>44.4</ele>
        <time>2021-05-30T06:54:12Z</time>
      </trkpt>
      <trkpt lat="48.52284" lon="2.5907">
        <ele>44.6</ele>
        <time>2021-05-30T06:54:13Z</time>
      </trkpt>
      <trkpt lat="48.52308" lon="2.59038">
        <ele>45.2</ele>
        <time>2021-05-30T06:54:20Z</time>
      </trkpt>
      <trkpt lat="48.52346" lon="2.58991">
        <ele>45.3</ele>
        <time>2021-05-30T06:54:32Z</time>
      </trkpt>
      <trkpt lat="48.52361" lon="2.58968">
        <ele>45.8</ele>
        <time>2021-05-30T06:54:38Z</time>
      </trkpt>
      <trkpt lat="48.5236" lon="2.58963">
        <ele>45.8</ele>
        <time>2021-05-30T06:54:39Z</time>
      </trkpt>
      <trkpt lat="48.52353" lon="2.58951">
        <ele>45.6</ele>
        <time>2021-05-30T06:54:42Z</time>
      </trkpt>
      <trkpt lat="48.52309" lon="2.58868">
        <ele>44.4</ele>
        <time>2021-05-30T06:54:54Z</time>
      </trkpt>
      <trkpt lat="48.52268" lon="2.58788">
        <ele>44.4</ele>
        <time>2021-05-30T06:55:04Z</time>
      </trkpt>
      <trkpt lat="48.52264" lon="2.5878">
        <ele>44.5</ele>
        <time>2021-05-30T06:55:05Z</time>
      </trkpt>
      <trkpt lat="48.52261" lon="2.58773">
        <ele>44.6</ele>
        <time>2021-05-30T06:55:06Z</time>
      </trkpt>
      <trkpt lat="48.5226" lon="2.58765">
        <ele>44.8</ele>
        <time>2021-05-30T06:55:07Z</time>
      </trkpt>
      <trkpt lat="48.52261" lon="2.58757">
        <ele>45</ele>
        <time>2021-05-30T06:55:08Z</time>
      </trkpt>
      <trkpt lat="48.52263" lon="2.58751">
        <ele>45.1</ele>
        <time>2021-05-30T06:55:09Z</time>
      </trkpt>
      <trkpt lat="48.52267" lon="2.58748">
        <ele>45.2</ele>
        <time>2021-05-30T06:55:10Z</time>
      </trkpt>
      <trkpt lat="48.5227" lon="2.58745">
        <ele>45.2</ele>
        <time>2021-05-30T06:55:11Z</time>
      </trkpt>
      <trkpt lat="48.52292" lon="2.58726">
        <ele>45.1</ele>
        <time>2021-05-30T06:55:18Z</time>
      </trkpt>
      <trkpt lat="48.52293" lon="2.58722">
        <ele>45</ele>
        <time>2021-05-30T06:55:19Z</time>
      </trkpt>
      <trkpt lat="48.52293" lon="2.58719">
        <ele>44.9</ele>
        <time>2021-05-30T06:55:20Z</time>
      </trkpt>
      <trkpt lat="48.52291" lon="2.58718">
        <ele>44.9</ele>
        <time>2021-05-30T06:55:21Z</time>
      </trkpt>
      <trkpt lat="48.52289" lon="2.58719">
        <ele>45</ele>
        <time>2021-05-30T06:55:22Z</time>
      </trkpt>
      <trkpt lat="48.52288" lon="2.5872">
        <ele>45</ele>
        <time>2021-05-30T06:55:23Z</time>
      </trkpt>
      <trkpt lat="48.52287" lon="2.58722">
        <ele>45</ele>
        <time>2021-05-30T06:55:24Z</time>
      </trkpt>
      <trkpt lat="48.52259" lon="2.58748">
        <ele>45.1</ele>
        <time>2021-05-30T06:55:37Z</time>
      </trkpt>
      <trkpt lat="48.52257" lon="2.58748">
        <ele>45.1</ele>
        <time>2021-05-30T06:55:40Z</time>
      </trkpt>
      <trkpt lat="48.52257" lon="2.58746">
        <ele>45.1</ele>
        <time>2021-05-30T06:55:41Z</time>
      </trkpt>
      <trkpt lat="48.52258" lon="2.58744">
        <ele>45.1</ele>
        <time>2021-05-30T06:55:42Z</time>
      </trkpt>
      <trkpt lat="48.52259" lon="2.58743">
        <ele>45.1</ele>
        <time>2021-05-30T06:55:43Z</time>
      </trkpt>
      <trkpt lat="48.52261" lon="2.58741">
        <ele>45.2</ele>
        <time>2021-05-30T06:55:44Z</time>
      </trkpt>
      <trkpt lat="48.52263" lon="2.58739">
        <ele>45.2</ele>
        <time>2021-05-30T06:55:45Z</time>
      </trkpt>
      <trkpt lat="48.52266" lon="2.58737">
        <ele>45.2</ele>
        <time>2021-05-30T06:55:46Z</time>
      </trkpt>
      <trkpt lat="48.52268" lon="2.58735">
        <ele>45.2</ele>
        <time>2021-05-30T06:55:47Z</time>
      </trkpt>
      <trkpt lat="48.5227" lon="2.58733">
        <ele>45.2</ele>
        <time>2021-05-30T06:55:48Z</time>
      </trkpt>
      <trkpt lat="48.52272" lon="2.58731">
        <ele>45.2</ele>
        <time>2021-05-30T06:55:49Z</time>
      </trkpt>
      <trkpt lat="48.52274" lon="2.5873">
        <ele>45.2</ele>
        <time>2021-05-30T06:55:50Z</time>
      </trkpt>
      <trkpt lat="48.52291" lon="2.58714">
        <ele>44.9</ele>
        <time>2021-05-30T06:55:58Z</time>
      </trkpt>
      <trkpt lat="48.52291" lon="2.58711">
        <ele>44.8</ele>
        <time>2021-05-30T06:55:59Z</time>
      </trkpt>
      <trkpt lat="48.5229" lon="2.58708">
        <ele>44.8</ele>
        <time>2021-05-30T06:56:00Z</time>
      </trkpt>
      <trkpt lat="48.52266" lon="2.58645">
        <ele>43.7</ele>
        <time>2021-05-30T06:56:15Z</time>
      </trkpt>
      <trkpt lat="48.5224" lon="2.58587">
        <ele>40.4</ele>
        <time>2021-05-30T06:56:29Z</time>
      </trkpt>
      <trkpt lat="48.52218" lon="2.5853">
        <ele>44.5</ele>
        <time>2021-05-30T06:56:42Z</time>
      </trkpt>
      <trkpt lat="48.5221" lon="2.58512">
        <ele>46.7</ele>
        <time>2021-05-30T06:56:48Z</time>
      </trkpt>
      <trkpt lat="48.52208" lon="2.58513">
        <ele>46.9</ele>
        <time>2021-05-30T06:56:49Z</time>
      </trkpt>
      <trkpt lat="48.52206" lon="2.58514">
        <ele>46.9</ele>
        <time>2021-05-30T06:56:50Z</time>
      </trkpt>
      <trkpt lat="48.52174" lon="2.58542">
        <ele>46.4</ele>
        <time>2021-05-30T06:57:02Z</time>
      </trkpt>
      <trkpt lat="48.52173" lon="2.58544">
        <ele>46.2</ele>
        <time>2021-05-30T06:57:03Z</time>
      </trkpt>
      <trkpt lat="48.52175" lon="2.58544">
        <ele>46.1</ele>
        <time>2021-05-30T06:57:06Z</time>
      </trkpt>
      <trkpt lat="48.52177" lon="2.58542">
        <ele>46.3</ele>
        <time>2021-05-30T06:57:07Z</time>
      </trkpt>
      <trkpt lat="48.522" lon="2.5852">
        <ele>47</ele>
        <time>2021-05-30T06:57:16Z</time>
      </trkpt>
      <trkpt lat="48.52208" lon="2.58515">
        <ele>46.7</ele>
        <time>2021-05-30T06:57:20Z</time>
      </trkpt>
      <trkpt lat="48.52209" lon="2.58517">
        <ele>46.5</ele>
        <time>2021-05-30T06:57:21Z</time>
      </trkpt>
      <trkpt lat="48.52208" lon="2.58519">
        <ele>46.3</ele>
        <time>2021-05-30T06:57:22Z</time>
      </trkpt>
      <trkpt lat="48.52207" lon="2.58521">
        <ele>46.3</ele>
        <time>2021-05-30T06:57:23Z</time>
      </trkpt>
      <trkpt lat="48.52205" lon="2.58523">
        <ele>46.3</ele>
        <time>2021-05-30T06:57:24Z</time>
      </trkpt>
      <trkpt lat="48.52202" lon="2.58525">
        <ele>46.2</ele>
        <time>2021-05-30T06:57:25Z</time>
      </trkpt>
      <trkpt lat="48.52165" lon="2.5856">
        <ele>44.6</ele>
        <time>2021-05-30T06:57:37Z</time>
      </trkpt>
      <trkpt lat="48.5211" lon="2.58616">
        <ele>47.7</ele>
        <time>2021-05-30T06:57:52Z</time>
      </trkpt>
      <trkpt lat="48.52086" lon="2.58639">
        <ele>48.8</ele>
        <time>2021-05-30T06:57:59Z</time>
      </trkpt>
      <trkpt lat="48.52052" lon="2.58666">
        <ele>50.9</ele>
        <time>2021-05-30T06:58:08Z</time>
      </trkpt>
      <trkpt lat="48.52015" lon="2.58694">
        <ele>53.4</ele>
        <time>2021-05-30T06:58:17Z</time>
      </trkpt>
      <trkpt lat="48.51964" lon="2.58768">
        <ele>52.4</ele>
        <time>2021-05-30T06:58:32Z</time>
      </trkpt>
      <trkpt lat="48.51938" lon="2.58816">
        <ele>49.1</ele>
        <time>2021-05-30T06:58:40Z</time>
      </trkpt>
      <trkpt lat="48.51934" lon="2.58822">
        <ele>48.4</ele>
        <time>2021-05-30T06:58:41Z</time>
      </trkpt>
      <trkpt lat="48.51889" lon="2.58899">
        <ele>46.5</ele>
        <time>2021-05-30T06:58:55Z</time>
      </trkpt>
      <trkpt lat="48.51831" lon="2.58997">
        <ele>46.7</ele>
        <time>2021-05-30T06:59:13Z</time>
      </trkpt>
      <trkpt lat="48.51827" lon="2.59002">
        <ele>46.8</ele>
        <time>2021-05-30T06:59:14Z</time>
      </trkpt>
      <trkpt lat="48.51823" lon="2.59005">
        <ele>47</ele>
        <time>2021-05-30T06:59:15Z</time>
      </trkpt>
      <trkpt lat="48.51819" lon="2.5901">
        <ele>46.9</ele>
        <time>2021-05-30T06:59:16Z</time>
      </trkpt>
      <trkpt lat="48.51816" lon="2.59015">
        <ele>46.8</ele>
        <time>2021-05-30T06:59:17Z</time>
      </trkpt>
      <trkpt lat="48.51813" lon="2.5902">
        <ele>46.5</ele>
        <time>2021-05-30T06:59:18Z</time>
      </trkpt>
      <trkpt lat="48.51772" lon="2.59082">
        <ele>46.4</ele>
        <time>2021-05-30T06:59:30Z</time>
      </trkpt>
      <trkpt lat="48.51763" lon="2.59097">
        <ele>47.6</ele>
        <time>2021-05-30T06:59:33Z</time>
      </trkpt>
      <trkpt lat="48.51749" lon="2.59117">
        <ele>49.2</ele>
        <time>2021-05-30T06:59:37Z</time>
      </trkpt>
      <trkpt lat="48.51743" lon="2.59129">
        <ele>49.9</ele>
        <time>2021-05-30T06:59:39Z</time>
      </trkpt>
      <trkpt lat="48.51739" lon="2.59134">
        <ele>50.5</ele>
        <time>2021-05-30T06:59:40Z</time>
      </trkpt>
      <trkpt lat="48.51735" lon="2.59139">
        <ele>51</ele>
        <time>2021-05-30T06:59:41Z</time>
      </trkpt>
      <trkpt lat="48.51724" lon="2.59155">
        <ele>52.3</ele>
        <time>2021-05-30T06:59:44Z</time>
      </trkpt>
      <trkpt lat="48.51677" lon="2.59252">
        <ele>51.3</ele>
        <time>2021-05-30T06:59:59Z</time>
      </trkpt>
      <trkpt lat="48.51643" lon="2.59322">
        <ele>53</ele>
        <time>2021-05-30T07:00:11Z</time>
      </trkpt>
      <trkpt lat="48.5164" lon="2.59327">
        <ele>53.2</ele>
        <time>2021-05-30T07:00:12Z</time>
      </trkpt>
      <trkpt lat="48.51637" lon="2.59333">
        <ele>53.3</ele>
        <time>2021-05-30T07:00:13Z</time>
      </trkpt>
      <trkpt lat="48.5163" lon="2.59351">
        <ele>53.2</ele>
        <time>2021-05-30T07:00:16Z</time>
      </trkpt>
      <trkpt lat="48.51628" lon="2.59357">
        <ele>53.1</ele>
        <time>2021-05-30T07:00:17Z</time>
      </trkpt>
      <trkpt lat="48.51601" lon="2.59441">
        <ele>51.5</ele>
        <time>2021-05-30T07:00:30Z</time>
      </trkpt>
      <trkpt lat="48.51575" lon="2.59541">
        <ele>49.1</ele>
        <time>2021-05-30T07:00:45Z</time>
      </trkpt>
      <trkpt lat="48.51571" lon="2.59554">
        <ele>49.4</ele>
        <time>2021-05-30T07:00:47Z</time>
      </trkpt>
      <trkpt lat="48.5157" lon="2.59561">
        <ele>49.4</ele>
        <time>2021-05-30T07:00:48Z</time>
      </trkpt>
      <trkpt lat="48.51562" lon="2.59598">
        <ele>49.4</ele>
        <time>2021-05-30T07:00:53Z</time>
      </trkpt>
      <trkpt lat="48.51561" lon="2.59605">
        <ele>49.5</ele>
        <time>2021-05-30T07:00:54Z</time>
      </trkpt>
      <trkpt lat="48.51553" lon="2.59646">
        <ele>49.3</ele>
        <time>2021-05-30T07:01:00Z</time>
      </trkpt>
      <trkpt lat="48.51551" lon="2.59653">
        <ele>49.3</ele>
        <time>2021-05-30T07:01:01Z</time>
      </trkpt>
      <trkpt lat="48.51546" lon="2.59684">
        <ele>49.3</ele>
        <time>2021-05-30T07:01:05Z</time>
      </trkpt>
      <trkpt lat="48.51538" lon="2.59737">
        <ele>49.9</ele>
        <time>2021-05-30T07:01:13Z</time>
      </trkpt>
      <trkpt lat="48.51534" lon="2.59768">
        <ele>49.4</ele>
        <time>2021-05-30T07:01:18Z</time>
      </trkpt>
      <trkpt lat="48.51531" lon="2.59773">
        <ele>49.6</ele>
        <time>2021-05-30T07:01:19Z</time>
      </trkpt>
      <trkpt lat="48.51528" lon="2.59775">
        <ele>50</ele>
        <time>2021-05-30T07:01:20Z</time>
      </trkpt>
      <trkpt lat="48.51525" lon="2.59775">
        <ele>50.5</ele>
        <time>2021-05-30T07:01:21Z</time>
      </trkpt>
      <trkpt lat="48.51521" lon="2.59774">
        <ele>51.2</ele>
        <time>2021-05-30T07:01:22Z</time>
      </trkpt>
      <trkpt lat="48.51514" lon="2.59771">
        <ele>52.5</ele>
        <time>2021-05-30T07:01:24Z</time>
      </trkpt>
      <trkpt lat="48.51511" lon="2.59767">
        <ele>53.2</ele>
        <time>2021-05-30T07:01:25Z</time>
      </trkpt>
      <trkpt lat="48.51509" lon="2.59762">
        <ele>53.8</ele>
        <time>2021-05-30T07:01:26Z</time>
      </trkpt>
      <trkpt lat="48.51508" lon="2.59757">
        <ele>54.2</ele>
        <time>2021-05-30T07:01:27Z</time>
      </trkpt>
      <trkpt lat="48.51508" lon="2.59753">
        <ele>54.6</ele>
        <time>2021-05-30T07:01:28Z</time>
      </trkpt>
      <trkpt lat="48.51505" lon="2.59704">
        <ele>56.8</ele>
        <time>2021-05-30T07:01:42Z</time>
      </trkpt>
      <trkpt lat="48.51499" lon="2.59664">
        <ele>59.5</ele>
        <time>2021-05-30T07:01:56Z</time>
      </trkpt>
      <trkpt lat="48.51495" lon="2.59638">
        <ele>62</ele>
        <time>2021-05-30T07:02:07Z</time>
      </trkpt>
      <trkpt lat="48.51494" lon="2.59636">
        <ele>62.3</ele>
        <time>2021-05-30T07:02:08Z</time>
      </trkpt>
      <trkpt lat="48.51494" lon="2.59633">
        <ele>62.6</ele>
        <time>2021-05-30T07:02:09Z</time>
      </trkpt>
      <trkpt lat="48.51493" lon="2.59631">
        <ele>63</ele>
        <time>2021-05-30T07:02:10Z</time>
      </trkpt>
      <trkpt lat="48.51493" lon="2.59628">
        <ele>63.2</ele>
        <time>2021-05-30T07:02:11Z</time>
      </trkpt>
      <trkpt lat="48.51492" lon="2.59626">
        <ele>63.4</ele>
        <time>2021-05-30T07:02:12Z</time>
      </trkpt>
      <trkpt lat="48.51492" lon="2.59624">
        <ele>63.6</ele>
        <time>2021-05-30T07:02:13Z</time>
      </trkpt>
      <trkpt lat="48.51483" lon="2.59601">
        <ele>66.8</ele>
        <time>2021-05-30T07:02:24Z</time>
      </trkpt>
      <trkpt lat="48.51472" lon="2.59576">
        <ele>70</ele>
        <time>2021-05-30T07:02:34Z</time>
      </trkpt>
      <trkpt lat="48.51472" lon="2.59574">
        <ele>70.2</ele>
        <time>2021-05-30T07:02:35Z</time>
      </trkpt>
      <trkpt lat="48.51471" lon="2.59571">
        <ele>70.5</ele>
        <time>2021-05-30T07:02:36Z</time>
      </trkpt>
      <trkpt lat="48.5147" lon="2.59569">
        <ele>70.6</ele>
        <time>2021-05-30T07:02:37Z</time>
      </trkpt>
      <trkpt lat="48.5147" lon="2.59566">
        <ele>70.9</ele>
        <time>2021-05-30T07:02:38Z</time>
      </trkpt>
      <trkpt lat="48.51469" lon="2.59564">
        <ele>71.1</ele>
        <time>2021-05-30T07:02:39Z</time>
      </trkpt>
      <trkpt lat="48.51469" lon="2.59561">
        <ele>71.3</ele>
        <time>2021-05-30T07:02:40Z</time>
      </trkpt>
      <trkpt lat="48.51468" lon="2.59558">
        <ele>71.4</ele>
        <time>2021-05-30T07:02:41Z</time>
      </trkpt>
      <trkpt lat="48.51467" lon="2.59511">
        <ele>73.7</ele>
        <time>2021-05-30T07:02:55Z</time>
      </trkpt>
      <trkpt lat="48.5146" lon="2.59469">
        <ele>74.7</ele>
        <time>2021-05-30T07:03:08Z</time>
      </trkpt>
      <trkpt lat="48.51453" lon="2.59427">
        <ele>74.9</ele>
        <time>2021-05-30T07:03:21Z</time>
      </trkpt>
      <trkpt lat="48.51437" lon="2.59377">
        <ele>75.8</ele>
        <time>2021-05-30T07:03:37Z</time>
      </trkpt>
      <trkpt lat="48.51427" lon="2.59362">
        <ele>76.4</ele>
        <time>2021-05-30T07:03:42Z</time>
      </trkpt>
      <trkpt lat="48.51427" lon="2.59358">
        <ele>76.4</ele>
        <time>2021-05-30T07:03:43Z</time>
      </trkpt>
      <trkpt lat="48.51409" lon="2.59307">
        <ele>76.7</ele>
        <time>2021-05-30T07:03:57Z</time>
      </trkpt>
      <trkpt lat="48.51383" lon="2.59246">
        <ele>76.2</ele>
        <time>2021-05-30T07:04:11Z</time>
      </trkpt>
      <trkpt lat="48.51338" lon="2.59183">
        <ele>76.4</ele>
        <time>2021-05-30T07:04:26Z</time>
      </trkpt>
      <trkpt lat="48.51288" lon="2.59133">
        <ele>75.9</ele>
        <time>2021-05-30T07:04:41Z</time>
      </trkpt>
      <trkpt lat="48.51282" lon="2.59131">
        <ele>75.9</ele>
        <time>2021-05-30T07:04:43Z</time>
      </trkpt>
      <trkpt lat="48.51279" lon="2.59132">
        <ele>76</ele>
        <time>2021-05-30T07:04:44Z</time>
      </trkpt>
      <trkpt lat="48.51276" lon="2.59133">
        <ele>76</ele>
        <time>2021-05-30T07:04:45Z</time>
      </trkpt>
      <trkpt lat="48.51272" lon="2.59135">
        <ele>76.1</ele>
        <time>2021-05-30T07:04:46Z</time>
      </trkpt>
      <trkpt lat="48.5127" lon="2.59137">
        <ele>76.1</ele>
        <time>2021-05-30T07:04:47Z</time>
      </trkpt>
      <trkpt lat="48.51269" lon="2.59139">
        <ele>76.2</ele>
        <time>2021-05-30T07:04:48Z</time>
      </trkpt>
      <trkpt lat="48.51267" lon="2.5914">
        <ele>76.2</ele>
        <time>2021-05-30T07:04:49Z</time>
      </trkpt>
      <trkpt lat="48.51265" lon="2.5914">
        <ele>76.2</ele>
        <time>2021-05-30T07:04:50Z</time>
      </trkpt>
      <trkpt lat="48.51263" lon="2.59139">
        <ele>76.2</ele>
        <time>2021-05-30T07:04:51Z</time>
      </trkpt>
      <trkpt lat="48.51261" lon="2.59138">
        <ele>76.2</ele>
        <time>2021-05-30T07:04:52Z</time>
      </trkpt>
      <trkpt lat="48.5126" lon="2.59136">
        <ele>76.2</ele>
        <time>2021-05-30T07:04:53Z</time>
      </trkpt>
      <trkpt lat="48.51259" lon="2.59132">
        <ele>76.1</ele>
        <time>2021-05-30T07:04:54Z</time>
      </trkpt>
      <trkpt lat="48.51259" lon="2.59129">
        <ele>76</ele>
        <time>2021-05-30T07:04:55Z</time>
      </trkpt>
      <trkpt lat="48.51257" lon="2.59124">
        <ele>75.9</ele>
        <time>2021-05-30T07:04:56Z</time>
      </trkpt>
      <trkpt lat="48.51256" lon="2.5912">
        <ele>75.8</ele>
        <time>2021-05-30T07:04:57Z</time>
      </trkpt>
      <trkpt lat="48.51255" lon="2.59115">
        <ele>75.7</ele>
        <time>2021-05-30T07:04:58Z</time>
      </trkpt>
      <trkpt lat="48.51254" lon="2.59109">
        <ele>75.6</ele>
        <time>2021-05-30T07:04:59Z</time>
      </trkpt>
      <trkpt lat="48.51254" lon="2.59104">
        <ele>75.5</ele>
        <time>2021-05-30T07:05:00Z</time>
      </trkpt>
      <trkpt lat="48.51253" lon="2.59099">
        <ele>75.4</ele>
        <time>2021-05-30T07:05:01Z</time>
      </trkpt>
      <trkpt lat="48.51252" lon="2.59093">
        <ele>75.2</ele>
        <time>2021-05-30T07:05:02Z</time>
      </trkpt>
      <trkpt lat="48.51251" lon="2.59089">
        <ele>75.1</ele>
        <time>2021-05-30T07:05:03Z</time>
      </trkpt>
      <trkpt lat="48.51213" lon="2.59037">
        <ele>74.8</ele>
        <time>2021-05-30T07:05:17Z</time>
      </trkpt>
      <trkpt lat="48.51156" lon="2.58977">
        <ele>75.8</ele>
        <time>2021-05-30T07:05:35Z</time>
      </trkpt>
      <trkpt lat="48.51142" lon="2.58966">
        <ele>76.2</ele>
        <time>2021-05-30T07:05:39Z</time>
      </trkpt>
      <trkpt lat="48.51088" lon="2.58921">
        <ele>77.8</ele>
        <time>2021-05-30T07:05:55Z</time>
      </trkpt>
      <trkpt lat="48.51035" lon="2.58907">
        <ele>77.5</ele>
        <time>2021-05-30T07:06:09Z</time>
      </trkpt>
      <trkpt lat="48.50993" lon="2.58899">
        <ele>77.4</ele>
        <time>2021-05-30T07:06:21Z</time>
      </trkpt>
      <trkpt lat="48.50954" lon="2.58891">
        <ele>78.4</ele>
        <time>2021-05-30T07:06:33Z</time>
      </trkpt>
      <trkpt lat="48.509" lon="2.58879">
        <ele>80.1</ele>
        <time>2021-05-30T07:06:49Z</time>
      </trkpt>
      <trkpt lat="48.50854" lon="2.58869">
        <ele>81.9</ele>
        <time>2021-05-30T07:07:03Z</time>
      </trkpt>
      <trkpt lat="48.50847" lon="2.58868">
        <ele>82.1</ele>
        <time>2021-05-30T07:07:08Z</time>
      </trkpt>
      <trkpt lat="48.50815" lon="2.58861">
        <ele>82.6</ele>
        <time>2021-05-30T07:07:19Z</time>
      </trkpt>
      <trkpt lat="48.50766" lon="2.58853">
        <ele>82.3</ele>
        <time>2021-05-30T07:07:33Z</time>
      </trkpt>
      <trkpt lat="48.50725" lon="2.58884">
        <ele>82.4</ele>
        <time>2021-05-30T07:07:45Z</time>
      </trkpt>
      <trkpt lat="48.50695" lon="2.58914">
        <ele>82.3</ele>
        <time>2021-05-30T07:07:54Z</time>
      </trkpt>
      <trkpt lat="48.50626" lon="2.58979">
        <ele>83.2</ele>
        <time>2021-05-30T07:08:13Z</time>
      </trkpt>
      <trkpt lat="48.50623" lon="2.58983">
        <ele>83.2</ele>
        <time>2021-05-30T07:08:14Z</time>
      </trkpt>
      <trkpt lat="48.5062" lon="2.58987">
        <ele>83.2</ele>
        <time>2021-05-30T07:08:15Z</time>
      </trkpt>
      <trkpt lat="48.50618" lon="2.58992">
        <ele>83.1</ele>
        <time>2021-05-30T07:08:16Z</time>
      </trkpt>
      <trkpt lat="48.50616" lon="2.58996">
        <ele>83.1</ele>
        <time>2021-05-30T07:08:17Z</time>
      </trkpt>
      <trkpt lat="48.50615" lon="2.58999">
        <ele>83</ele>
        <time>2021-05-30T07:08:18Z</time>
      </trkpt>
      <trkpt lat="48.50611" lon="2.59009">
        <ele>83</ele>
        <time>2021-05-30T07:08:21Z</time>
      </trkpt>
      <trkpt lat="48.50608" lon="2.5901">
        <ele>83</ele>
        <time>2021-05-30T07:08:22Z</time>
      </trkpt>
      <trkpt lat="48.50605" lon="2.59009">
        <ele>82.9</ele>
        <time>2021-05-30T07:08:23Z</time>
      </trkpt>
      <trkpt lat="48.50601" lon="2.59008">
        <ele>82.9</ele>
        <time>2021-05-30T07:08:24Z</time>
      </trkpt>
      <trkpt lat="48.50597" lon="2.59008">
        <ele>82.9</ele>
        <time>2021-05-30T07:08:25Z</time>
      </trkpt>
      <trkpt lat="48.50593" lon="2.59009">
        <ele>82.9</ele>
        <time>2021-05-30T07:08:26Z</time>
      </trkpt>
      <trkpt lat="48.5059" lon="2.59012">
        <ele>82.9</ele>
        <time>2021-05-30T07:08:27Z</time>
      </trkpt>
      <trkpt lat="48.50587" lon="2.59015">
        <ele>82.8</ele>
        <time>2021-05-30T07:08:28Z</time>
      </trkpt>
      <trkpt lat="48.50549" lon="2.59049">
        <ele>83.1</ele>
        <time>2021-05-30T07:08:39Z</time>
      </trkpt>
      <trkpt lat="48.50545" lon="2.5905">
        <ele>83.1</ele>
        <time>2021-05-30T07:08:40Z</time>
      </trkpt>
      <trkpt lat="48.50541" lon="2.59051">
        <ele>83.2</ele>
        <time>2021-05-30T07:08:41Z</time>
      </trkpt>
      <trkpt lat="48.50537" lon="2.5905">
        <ele>83.3</ele>
        <time>2021-05-30T07:08:42Z</time>
      </trkpt>
      <trkpt lat="48.50534" lon="2.59048">
        <ele>83.4</ele>
        <time>2021-05-30T07:08:43Z</time>
      </trkpt>
      <trkpt lat="48.5053" lon="2.59046">
        <ele>83.4</ele>
        <time>2021-05-30T07:08:44Z</time>
      </trkpt>
      <trkpt lat="48.50526" lon="2.59043">
        <ele>83.5</ele>
        <time>2021-05-30T07:08:45Z</time>
      </trkpt>
      <trkpt lat="48.50509" lon="2.59035">
        <ele>83.9</ele>
        <time>2021-05-30T07:08:50Z</time>
      </trkpt>
      <trkpt lat="48.50484" lon="2.59067">
        <ele>84.4</ele>
        <time>2021-05-30T07:08:59Z</time>
      </trkpt>
      <trkpt lat="48.50481" lon="2.59073">
        <ele>84.5</ele>
        <time>2021-05-30T07:09:00Z</time>
      </trkpt>
      <trkpt lat="48.50444" lon="2.59161">
        <ele>87</ele>
        <time>2021-05-30T07:09:13Z</time>
      </trkpt>
      <trkpt lat="48.50427" lon="2.59184">
        <ele>86.9</ele>
        <time>2021-05-30T07:09:17Z</time>
      </trkpt>
      <trkpt lat="48.50343" lon="2.59262">
        <ele>88.6</ele>
        <time>2021-05-30T07:09:34Z</time>
      </trkpt>
      <trkpt lat="48.50269" lon="2.59335">
        <ele>86.2</ele>
        <time>2021-05-30T07:09:50Z</time>
      </trkpt>
      <trkpt lat="48.5026" lon="2.59345">
        <ele>85.9</ele>
        <time>2021-05-30T07:09:52Z</time>
      </trkpt>
      <trkpt lat="48.50228" lon="2.5938">
        <ele>83.5</ele>
        <time>2021-05-30T07:09:59Z</time>
      </trkpt>
      <trkpt lat="48.50157" lon="2.59452">
        <ele>81.8</ele>
        <time>2021-05-30T07:10:14Z</time>
      </trkpt>
      <trkpt lat="48.501" lon="2.5951">
        <ele>81.4</ele>
        <time>2021-05-30T07:10:26Z</time>
      </trkpt>
      <trkpt lat="48.50085" lon="2.59527">
        <ele>80.9</ele>
        <time>2021-05-30T07:10:29Z</time>
      </trkpt>
      <trkpt lat="48.5002" lon="2.59592">
        <ele>79.8</ele>
        <time>2021-05-30T07:10:43Z</time>
      </trkpt>
      <trkpt lat="48.5001" lon="2.59603">
        <ele>79.8</ele>
        <time>2021-05-30T07:10:52Z</time>
      </trkpt>
      <trkpt lat="48.50009" lon="2.59603">
        <ele>79.9</ele>
        <time>2021-05-30T07:10:57Z</time>
      </trkpt>
      <trkpt lat="48.50006" lon="2.59604">
        <ele>80</ele>
        <time>2021-05-30T07:11:00Z</time>
      </trkpt>
      <trkpt lat="48.50002" lon="2.59614">
        <ele>79.8</ele>
        <time>2021-05-30T07:11:10Z</time>
      </trkpt>
      <trkpt lat="48.49999" lon="2.5962">
        <ele>79.7</ele>
        <time>2021-05-30T07:11:23Z</time>
      </trkpt>
      <trkpt lat="48.4998" lon="2.59581">
        <ele>80.8</ele>
        <time>2021-05-30T07:11:35Z</time>
      </trkpt>
      <trkpt lat="48.49963" lon="2.59548">
        <ele>81.4</ele>
        <time>2021-05-30T07:11:41Z</time>
      </trkpt>
      <trkpt lat="48.4996" lon="2.59544">
        <ele>81.5</ele>
        <time>2021-05-30T07:11:42Z</time>
      </trkpt>
      <trkpt lat="48.49957" lon="2.59539">
        <ele>81.5</ele>
        <time>2021-05-30T07:11:43Z</time>
      </trkpt>
      <trkpt lat="48.49955" lon="2.59534">
        <ele>81.6</ele>
        <time>2021-05-30T07:11:44Z</time>
      </trkpt>
      <trkpt lat="48.49954" lon="2.59528">
        <ele>81.7</ele>
        <time>2021-05-30T07:11:45Z</time>
      </trkpt>
      <trkpt lat="48.49951" lon="2.59523">
        <ele>81.7</ele>
        <time>2021-05-30T07:11:46Z</time>
      </trkpt>
      <trkpt lat="48.49948" lon="2.59518">
        <ele>81.8</ele>
        <time>2021-05-30T07:11:47Z</time>
      </trkpt>
      <trkpt lat="48.49921" lon="2.59464">
        <ele>80.8</ele>
        <time>2021-05-30T07:11:58Z</time>
      </trkpt>
      <trkpt lat="48.49894" lon="2.59437">
        <ele>79.4</ele>
        <time>2021-05-30T07:12:07Z</time>
      </trkpt>
      <trkpt lat="48.49888" lon="2.59434">
        <ele>79.2</ele>
        <time>2021-05-30T07:12:09Z</time>
      </trkpt>
      <trkpt lat="48.49885" lon="2.59435">
        <ele>79.1</ele>
        <time>2021-05-30T07:12:10Z</time>
      </trkpt>
      <trkpt lat="48.49882" lon="2.59439">
        <ele>79</ele>
        <time>2021-05-30T07:12:11Z</time>
      </trkpt>
      <trkpt lat="48.49877" lon="2.59487">
        <ele>79.4</ele>
        <time>2021-05-30T07:12:22Z</time>
      </trkpt>
      <trkpt lat="48.4988" lon="2.59537">
        <ele>79.2</ele>
        <time>2021-05-30T07:12:33Z</time>
      </trkpt>
      <trkpt lat="48.49881" lon="2.59543">
        <ele>79.2</ele>
        <time>2021-05-30T07:12:34Z</time>
      </trkpt>
      <trkpt lat="48.49883" lon="2.5955">
        <ele>79.2</ele>
        <time>2021-05-30T07:12:35Z</time>
      </trkpt>
      <trkpt lat="48.49885" lon="2.59555">
        <ele>79.2</ele>
        <time>2021-05-30T07:12:36Z</time>
      </trkpt>
      <trkpt lat="48.49888" lon="2.59559">
        <ele>79.3</ele>
        <time>2021-05-30T07:12:37Z</time>
      </trkpt>
      <trkpt lat="48.4989" lon="2.59564">
        <ele>79.3</ele>
        <time>2021-05-30T07:12:38Z</time>
      </trkpt>
      <trkpt lat="48.49891" lon="2.5957">
        <ele>79.2</ele>
        <time>2021-05-30T07:12:39Z</time>
      </trkpt>
      <trkpt lat="48.49892" lon="2.59576">
        <ele>79.2</ele>
        <time>2021-05-30T07:12:40Z</time>
      </trkpt>
      <trkpt lat="48.49892" lon="2.59583">
        <ele>79.1</ele>
        <time>2021-05-30T07:12:41Z</time>
      </trkpt>
      <trkpt lat="48.49891" lon="2.5959">
        <ele>78.9</ele>
        <time>2021-05-30T07:12:42Z</time>
      </trkpt>
      <trkpt lat="48.4989" lon="2.59597">
        <ele>78.6</ele>
        <time>2021-05-30T07:12:43Z</time>
      </trkpt>
      <trkpt lat="48.49889" lon="2.59603">
        <ele>78.4</ele>
        <time>2021-05-30T07:12:44Z</time>
      </trkpt>
      <trkpt lat="48.4986" lon="2.59719">
        <ele>76</ele>
        <time>2021-05-30T07:13:02Z</time>
      </trkpt>
      <trkpt lat="48.49829" lon="2.59847">
        <ele>75.4</ele>
        <time>2021-05-30T07:13:21Z</time>
      </trkpt>
      <trkpt lat="48.49803" lon="2.5996">
        <ele>78.9</ele>
        <time>2021-05-30T07:13:36Z</time>
      </trkpt>
      <trkpt lat="48.498" lon="2.59973">
        <ele>79.2</ele>
        <time>2021-05-30T07:13:38Z</time>
      </trkpt>
      <trkpt lat="48.4979" lon="2.60008">
        <ele>79.3</ele>
        <time>2021-05-30T07:13:43Z</time>
      </trkpt>
      <trkpt lat="48.49745" lon="2.60117">
        <ele>76.6</ele>
        <time>2021-05-30T07:13:59Z</time>
      </trkpt>
      <trkpt lat="48.49693" lon="2.60223">
        <ele>77.6</ele>
        <time>2021-05-30T07:14:17Z</time>
      </trkpt>
      <trkpt lat="48.49691" lon="2.6023">
        <ele>77.8</ele>
        <time>2021-05-30T07:14:18Z</time>
      </trkpt>
      <trkpt lat="48.4969" lon="2.60236">
        <ele>78</ele>
        <time>2021-05-30T07:14:19Z</time>
      </trkpt>
      <trkpt lat="48.49689" lon="2.60249">
        <ele>78.5</ele>
        <time>2021-05-30T07:14:21Z</time>
      </trkpt>
      <trkpt lat="48.49688" lon="2.60256">
        <ele>78.4</ele>
        <time>2021-05-30T07:14:22Z</time>
      </trkpt>
      <trkpt lat="48.49687" lon="2.60263">
        <ele>78.3</ele>
        <time>2021-05-30T07:14:23Z</time>
      </trkpt>
      <trkpt lat="48.4968" lon="2.6032">
        <ele>77.3</ele>
        <time>2021-05-30T07:14:31Z</time>
      </trkpt>
      <trkpt lat="48.49679" lon="2.60327">
        <ele>77.1</ele>
        <time>2021-05-30T07:14:32Z</time>
      </trkpt>
      <trkpt lat="48.49663" lon="2.60407">
        <ele>77</ele>
        <time>2021-05-30T07:14:43Z</time>
      </trkpt>
      <trkpt lat="48.49661" lon="2.60414">
        <ele>77</ele>
        <time>2021-05-30T07:14:44Z</time>
      </trkpt>
      <trkpt lat="48.49639" lon="2.60515">
        <ele>77.2</ele>
        <time>2021-05-30T07:14:58Z</time>
      </trkpt>
      <trkpt lat="48.49638" lon="2.60616">
        <ele>77.2</ele>
        <time>2021-05-30T07:15:14Z</time>
      </trkpt>
      <trkpt lat="48.49629" lon="2.60644">
        <ele>78.2</ele>
        <time>2021-05-30T07:15:24Z</time>
      </trkpt>
      <trkpt lat="48.49614" lon="2.60686">
        <ele>80.2</ele>
        <time>2021-05-30T07:15:31Z</time>
      </trkpt>
      <trkpt lat="48.49611" lon="2.60699">
        <ele>80.7</ele>
        <time>2021-05-30T07:15:33Z</time>
      </trkpt>
      <trkpt lat="48.49608" lon="2.60711">
        <ele>81.1</ele>
        <time>2021-05-30T07:15:35Z</time>
      </trkpt>
      <trkpt lat="48.49601" lon="2.60733">
        <ele>81.9</ele>
        <time>2021-05-30T07:15:39Z</time>
      </trkpt>
      <trkpt lat="48.49588" lon="2.6076">
        <ele>82.4</ele>
        <time>2021-05-30T07:15:44Z</time>
      </trkpt>
      <trkpt lat="48.49577" lon="2.60782">
        <ele>82.1</ele>
        <time>2021-05-30T07:15:48Z</time>
      </trkpt>
      <trkpt lat="48.49571" lon="2.60802">
        <ele>81.7</ele>
        <time>2021-05-30T07:15:51Z</time>
      </trkpt>
      <trkpt lat="48.49565" lon="2.6086">
        <ele>80.4</ele>
        <time>2021-05-30T07:16:02Z</time>
      </trkpt>
      <trkpt lat="48.4956" lon="2.60912">
        <ele>79.3</ele>
        <time>2021-05-30T07:16:12Z</time>
      </trkpt>
      <trkpt lat="48.49559" lon="2.60936">
        <ele>78.8</ele>
        <time>2021-05-30T07:16:16Z</time>
      </trkpt>
      <trkpt lat="48.49549" lon="2.60952">
        <ele>78.8</ele>
        <time>2021-05-30T07:16:20Z</time>
      </trkpt>
      <trkpt lat="48.49467" lon="2.60963">
        <ele>79.8</ele>
        <time>2021-05-30T07:16:36Z</time>
      </trkpt>
      <trkpt lat="48.49456" lon="2.60963">
        <ele>80</ele>
        <time>2021-05-30T07:16:38Z</time>
      </trkpt>
      <trkpt lat="48.49421" lon="2.60954">
        <ele>81.2</ele>
        <time>2021-05-30T07:16:45Z</time>
      </trkpt>
      <trkpt lat="48.49406" lon="2.60948">
        <ele>82.2</ele>
        <time>2021-05-30T07:16:49Z</time>
      </trkpt>
      <trkpt lat="48.49392" lon="2.61016">
        <ele>79.4</ele>
        <time>2021-05-30T07:17:01Z</time>
      </trkpt>
      <trkpt lat="48.49379" lon="2.61099">
        <ele>80.3</ele>
        <time>2021-05-30T07:17:13Z</time>
      </trkpt>
      <trkpt lat="48.49359" lon="2.61234">
        <ele>82.7</ele>
        <time>2021-05-30T07:17:33Z</time>
      </trkpt>
      <trkpt lat="48.49351" lon="2.61344">
        <ele>80.9</ele>
        <time>2021-05-30T07:17:50Z</time>
      </trkpt>
      <trkpt lat="48.4935" lon="2.61357">
        <ele>80.8</ele>
        <time>2021-05-30T07:17:52Z</time>
      </trkpt>
      <trkpt lat="48.49351" lon="2.61411">
        <ele>80.2</ele>
        <time>2021-05-30T07:18:00Z</time>
      </trkpt>
      <trkpt lat="48.49349" lon="2.61517">
        <ele>82.8</ele>
        <time>2021-05-30T07:18:17Z</time>
      </trkpt>
      <trkpt lat="48.4935" lon="2.61535">
        <ele>83.5</ele>
        <time>2021-05-30T07:18:21Z</time>
      </trkpt>
      <trkpt lat="48.49344" lon="2.61541">
        <ele>84.2</ele>
        <time>2021-05-30T07:18:25Z</time>
      </trkpt>
      <trkpt lat="48.4931" lon="2.61517">
        <ele>84.7</ele>
        <time>2021-05-30T07:18:33Z</time>
      </trkpt>
      <trkpt lat="48.49293" lon="2.61507">
        <ele>85.1</ele>
        <time>2021-05-30T07:18:37Z</time>
      </trkpt>
      <trkpt lat="48.49285" lon="2.61501">
        <ele>85.4</ele>
        <time>2021-05-30T07:18:39Z</time>
      </trkpt>
      <trkpt lat="48.4928" lon="2.61497">
        <ele>85.5</ele>
        <time>2021-05-30T07:18:40Z</time>
      </trkpt>
      <trkpt lat="48.49275" lon="2.61493">
        <ele>85.6</ele>
        <time>2021-05-30T07:18:41Z</time>
      </trkpt>
      <trkpt lat="48.49271" lon="2.6149">
        <ele>85.7</ele>
        <time>2021-05-30T07:18:42Z</time>
      </trkpt>
      <trkpt lat="48.49267" lon="2.61486">
        <ele>85.9</ele>
        <time>2021-05-30T07:18:43Z</time>
      </trkpt>
      <trkpt lat="48.49263" lon="2.61483">
        <ele>86</ele>
        <time>2021-05-30T07:18:44Z</time>
      </trkpt>
      <trkpt lat="48.4925" lon="2.61472">
        <ele>86.3</ele>
        <time>2021-05-30T07:18:47Z</time>
      </trkpt>
      <trkpt lat="48.49245" lon="2.61468">
        <ele>86.2</ele>
        <time>2021-05-30T07:18:48Z</time>
      </trkpt>
      <trkpt lat="48.4924" lon="2.61465">
        <ele>86.1</ele>
        <time>2021-05-30T07:18:49Z</time>
      </trkpt>
      <trkpt lat="48.49231" lon="2.61459">
        <ele>85.9</ele>
        <time>2021-05-30T07:18:51Z</time>
      </trkpt>
      <trkpt lat="48.49226" lon="2.61456">
        <ele>85.8</ele>
        <time>2021-05-30T07:18:52Z</time>
      </trkpt>
      <trkpt lat="48.49221" lon="2.61454">
        <ele>85.7</ele>
        <time>2021-05-30T07:18:53Z</time>
      </trkpt>
      <trkpt lat="48.49166" lon="2.61413">
        <ele>85.1</ele>
        <time>2021-05-30T07:19:05Z</time>
      </trkpt>
      <trkpt lat="48.49137" lon="2.61392">
        <ele>86.1</ele>
        <time>2021-05-30T07:19:12Z</time>
      </trkpt>
      <trkpt lat="48.49092" lon="2.61359">
        <ele>86.5</ele>
        <time>2021-05-30T07:19:22Z</time>
      </trkpt>
      <trkpt lat="48.49083" lon="2.61352">
        <ele>86.4</ele>
        <time>2021-05-30T07:19:24Z</time>
      </trkpt>
      <trkpt lat="48.49055" lon="2.61334">
        <ele>84.7</ele>
        <time>2021-05-30T07:19:30Z</time>
      </trkpt>
      <trkpt lat="48.49051" lon="2.61331">
        <ele>84.4</ele>
        <time>2021-05-30T07:19:31Z</time>
      </trkpt>
      <trkpt lat="48.49023" lon="2.61308">
        <ele>82.5</ele>
        <time>2021-05-30T07:19:39Z</time>
      </trkpt>
      <trkpt lat="48.49022" lon="2.61305">
        <ele>82.4</ele>
        <time>2021-05-30T07:19:40Z</time>
      </trkpt>
      <trkpt lat="48.4902" lon="2.61302">
        <ele>82.2</ele>
        <time>2021-05-30T07:19:41Z</time>
      </trkpt>
      <trkpt lat="48.49018" lon="2.61301">
        <ele>82.1</ele>
        <time>2021-05-30T07:19:42Z</time>
      </trkpt>
      <trkpt lat="48.49016" lon="2.61299">
        <ele>81.9</ele>
        <time>2021-05-30T07:19:43Z</time>
      </trkpt>
      <trkpt lat="48.49012" lon="2.61296">
        <ele>81.7</ele>
        <time>2021-05-30T07:19:44Z</time>
      </trkpt>
      <trkpt lat="48.49008" lon="2.61292">
        <ele>81.4</ele>
        <time>2021-05-30T07:19:45Z</time>
      </trkpt>
      <trkpt lat="48.48979" lon="2.61257">
        <ele>79.7</ele>
        <time>2021-05-30T07:19:52Z</time>
      </trkpt>
      <trkpt lat="48.48976" lon="2.61252">
        <ele>79.5</ele>
        <time>2021-05-30T07:19:53Z</time>
      </trkpt>
      <trkpt lat="48.48925" lon="2.61185">
        <ele>76.7</ele>
        <time>2021-05-30T07:20:05Z</time>
      </trkpt>
      <trkpt lat="48.48892" lon="2.61147">
        <ele>76.5</ele>
        <time>2021-05-30T07:20:12Z</time>
      </trkpt>
      <trkpt lat="48.48879" lon="2.61131">
        <ele>76.7</ele>
        <time>2021-05-30T07:20:15Z</time>
      </trkpt>
      <trkpt lat="48.48875" lon="2.61125">
        <ele>76.7</ele>
        <time>2021-05-30T07:20:16Z</time>
      </trkpt>
      <trkpt lat="48.4882" lon="2.61053">
        <ele>77.5</ele>
        <time>2021-05-30T07:20:29Z</time>
      </trkpt>
      <trkpt lat="48.48808" lon="2.61036">
        <ele>77.7</ele>
        <time>2021-05-30T07:20:32Z</time>
      </trkpt>
      <trkpt lat="48.48804" lon="2.6103">
        <ele>77.8</ele>
        <time>2021-05-30T07:20:33Z</time>
      </trkpt>
      <trkpt lat="48.4877" lon="2.60983">
        <ele>78</ele>
        <time>2021-05-30T07:20:42Z</time>
      </trkpt>
      <trkpt lat="48.48716" lon="2.60918">
        <ele>78.4</ele>
        <time>2021-05-30T07:20:55Z</time>
      </trkpt>
      <trkpt lat="48.48711" lon="2.60914">
        <ele>78.4</ele>
        <time>2021-05-30T07:20:56Z</time>
      </trkpt>
      <trkpt lat="48.48637" lon="2.60887">
        <ele>80</ele>
        <time>2021-05-30T07:21:10Z</time>
      </trkpt>
      <trkpt lat="48.48631" lon="2.60884">
        <ele>80.1</ele>
        <time>2021-05-30T07:21:11Z</time>
      </trkpt>
      <trkpt lat="48.48616" lon="2.60876">
        <ele>80.6</ele>
        <time>2021-05-30T07:21:14Z</time>
      </trkpt>
      <trkpt lat="48.48575" lon="2.60844">
        <ele>81.5</ele>
        <time>2021-05-30T07:21:23Z</time>
      </trkpt>
      <trkpt lat="48.48555" lon="2.60832">
        <ele>81.6</ele>
        <time>2021-05-30T07:21:27Z</time>
      </trkpt>
      <trkpt lat="48.48503" lon="2.60804">
        <ele>81.2</ele>
        <time>2021-05-30T07:21:37Z</time>
      </trkpt>
      <trkpt lat="48.48497" lon="2.60802">
        <ele>81</ele>
        <time>2021-05-30T07:21:38Z</time>
      </trkpt>
      <trkpt lat="48.48485" lon="2.60798">
        <ele>80.4</ele>
        <time>2021-05-30T07:21:40Z</time>
      </trkpt>
      <trkpt lat="48.48395" lon="2.60775">
        <ele>77.4</ele>
        <time>2021-05-30T07:21:56Z</time>
      </trkpt>
      <trkpt lat="48.48372" lon="2.60769">
        <ele>77.2</ele>
        <time>2021-05-30T07:22:00Z</time>
      </trkpt>
      <trkpt lat="48.48315" lon="2.60757">
        <ele>77</ele>
        <time>2021-05-30T07:22:11Z</time>
      </trkpt>
      <trkpt lat="48.48245" lon="2.60745">
        <ele>77</ele>
        <time>2021-05-30T07:22:24Z</time>
      </trkpt>
      <trkpt lat="48.48227" lon="2.60737">
        <ele>77</ele>
        <time>2021-05-30T07:22:28Z</time>
      </trkpt>
      <trkpt lat="48.48223" lon="2.60734">
        <ele>77</ele>
        <time>2021-05-30T07:22:29Z</time>
      </trkpt>
      <trkpt lat="48.48218" lon="2.60733">
        <ele>77</ele>
        <time>2021-05-30T07:22:30Z</time>
      </trkpt>
      <trkpt lat="48.48147" lon="2.60707">
        <ele>76.8</ele>
        <time>2021-05-30T07:22:44Z</time>
      </trkpt>
      <trkpt lat="48.48058" lon="2.60681">
        <ele>76.6</ele>
        <time>2021-05-30T07:23:01Z</time>
      </trkpt>
      <trkpt lat="48.47993" lon="2.60672">
        <ele>77.9</ele>
        <time>2021-05-30T07:23:13Z</time>
      </trkpt>
      <trkpt lat="48.47918" lon="2.60668">
        <ele>77</ele>
        <time>2021-05-30T07:23:27Z</time>
      </trkpt>
      <trkpt lat="48.4787" lon="2.60663">
        <ele>77</ele>
        <time>2021-05-30T07:23:36Z</time>
      </trkpt>
      <trkpt lat="48.47795" lon="2.60611">
        <ele>77.9</ele>
        <time>2021-05-30T07:23:51Z</time>
      </trkpt>
      <trkpt lat="48.47723" lon="2.60575">
        <ele>79.2</ele>
        <time>2021-05-30T07:24:05Z</time>
      </trkpt>
      <trkpt lat="48.47696" lon="2.60571">
        <ele>79.3</ele>
        <time>2021-05-30T07:24:10Z</time>
      </trkpt>
      <trkpt lat="48.47596" lon="2.60596">
        <ele>80</ele>
        <time>2021-05-30T07:24:29Z</time>
      </trkpt>
      <trkpt lat="48.47586" lon="2.60599">
        <ele>80</ele>
        <time>2021-05-30T07:24:31Z</time>
      </trkpt>
      <trkpt lat="48.47506" lon="2.60628">
        <ele>80.4</ele>
        <time>2021-05-30T07:24:46Z</time>
      </trkpt>
      <trkpt lat="48.47495" lon="2.60631">
        <ele>80.4</ele>
        <time>2021-05-30T07:24:48Z</time>
      </trkpt>
      <trkpt lat="48.47418" lon="2.60653">
        <ele>80.7</ele>
        <time>2021-05-30T07:25:03Z</time>
      </trkpt>
      <trkpt lat="48.47413" lon="2.60655">
        <ele>80.7</ele>
        <time>2021-05-30T07:25:04Z</time>
      </trkpt>
      <trkpt lat="48.4738" lon="2.60673">
        <ele>81.2</ele>
        <time>2021-05-30T07:25:11Z</time>
      </trkpt>
      <trkpt lat="48.47366" lon="2.6068">
        <ele>81.4</ele>
        <time>2021-05-30T07:25:14Z</time>
      </trkpt>
      <trkpt lat="48.47357" lon="2.60686">
        <ele>81.7</ele>
        <time>2021-05-30T07:25:16Z</time>
      </trkpt>
      <trkpt lat="48.47334" lon="2.60701">
        <ele>82.6</ele>
        <time>2021-05-30T07:25:21Z</time>
      </trkpt>
      <trkpt lat="48.4733" lon="2.60704">
        <ele>83</ele>
        <time>2021-05-30T07:25:22Z</time>
      </trkpt>
      <trkpt lat="48.47283" lon="2.60736">
        <ele>86.9</ele>
        <time>2021-05-30T07:25:34Z</time>
      </trkpt>
      <trkpt lat="48.47273" lon="2.60745">
        <ele>87.8</ele>
        <time>2021-05-30T07:25:37Z</time>
      </trkpt>
      <trkpt lat="48.47243" lon="2.60764">
        <ele>89.3</ele>
        <time>2021-05-30T07:25:45Z</time>
      </trkpt>
      <trkpt lat="48.47239" lon="2.60767">
        <ele>89.3</ele>
        <time>2021-05-30T07:25:46Z</time>
      </trkpt>
      <trkpt lat="48.47235" lon="2.6077">
        <ele>89.2</ele>
        <time>2021-05-30T07:25:47Z</time>
      </trkpt>
      <trkpt lat="48.47231" lon="2.60772">
        <ele>89.1</ele>
        <time>2021-05-30T07:25:48Z</time>
      </trkpt>
      <trkpt lat="48.47227" lon="2.60776">
        <ele>89</ele>
        <time>2021-05-30T07:25:49Z</time>
      </trkpt>
      <trkpt lat="48.4719" lon="2.60832">
        <ele>87.7</ele>
        <time>2021-05-30T07:26:01Z</time>
      </trkpt>
      <trkpt lat="48.47173" lon="2.60895">
        <ele>88.6</ele>
        <time>2021-05-30T07:26:13Z</time>
      </trkpt>
      <trkpt lat="48.47157" lon="2.60914">
        <ele>88.3</ele>
        <time>2021-05-30T07:26:18Z</time>
      </trkpt>
      <trkpt lat="48.47141" lon="2.60927">
        <ele>87.9</ele>
        <time>2021-05-30T07:26:22Z</time>
      </trkpt>
      <trkpt lat="48.47084" lon="2.60947">
        <ele>85.5</ele>
        <time>2021-05-30T07:26:36Z</time>
      </trkpt>
      <trkpt lat="48.47072" lon="2.60947">
        <ele>84.9</ele>
        <time>2021-05-30T07:26:39Z</time>
      </trkpt>
      <trkpt lat="48.47063" lon="2.60945">
        <ele>84.5</ele>
        <time>2021-05-30T07:26:41Z</time>
      </trkpt>
      <trkpt lat="48.47059" lon="2.60945">
        <ele>84.3</ele>
        <time>2021-05-30T07:26:42Z</time>
      </trkpt>
      <trkpt lat="48.47055" lon="2.60944">
        <ele>84.1</ele>
        <time>2021-05-30T07:26:43Z</time>
      </trkpt>
      <trkpt lat="48.47052" lon="2.60944">
        <ele>83.9</ele>
        <time>2021-05-30T07:26:44Z</time>
      </trkpt>
      <trkpt lat="48.47048" lon="2.60943">
        <ele>83.7</ele>
        <time>2021-05-30T07:26:45Z</time>
      </trkpt>
      <trkpt lat="48.47027" lon="2.60934">
        <ele>82.5</ele>
        <time>2021-05-30T07:26:51Z</time>
      </trkpt>
      <trkpt lat="48.4697" lon="2.60891">
        <ele>80.9</ele>
        <time>2021-05-30T07:27:06Z</time>
      </trkpt>
      <trkpt lat="48.46953" lon="2.6089">
        <ele>81</ele>
        <time>2021-05-30T07:27:11Z</time>
      </trkpt>
      <trkpt lat="48.4695" lon="2.60891">
        <ele>81.1</ele>
        <time>2021-05-30T07:27:12Z</time>
      </trkpt>
      <trkpt lat="48.46941" lon="2.60894">
        <ele>81.1</ele>
        <time>2021-05-30T07:27:14Z</time>
      </trkpt>
      <trkpt lat="48.46936" lon="2.60895">
        <ele>81.1</ele>
        <time>2021-05-30T07:27:15Z</time>
      </trkpt>
      <trkpt lat="48.46927" lon="2.60895">
        <ele>81.2</ele>
        <time>2021-05-30T07:27:17Z</time>
      </trkpt>
      <trkpt lat="48.46923" lon="2.60895">
        <ele>81.2</ele>
        <time>2021-05-30T07:27:18Z</time>
      </trkpt>
      <trkpt lat="48.46919" lon="2.60896">
        <ele>81.2</ele>
        <time>2021-05-30T07:27:19Z</time>
      </trkpt>
      <trkpt lat="48.46915" lon="2.60896">
        <ele>81.2</ele>
        <time>2021-05-30T07:27:20Z</time>
      </trkpt>
      <trkpt lat="48.46912" lon="2.60898">
        <ele>81.2</ele>
        <time>2021-05-30T07:27:21Z</time>
      </trkpt>
      <trkpt lat="48.46908" lon="2.609">
        <ele>81.2</ele>
        <time>2021-05-30T07:27:22Z</time>
      </trkpt>
      <trkpt lat="48.46906" lon="2.60903">
        <ele>81.2</ele>
        <time>2021-05-30T07:27:23Z</time>
      </trkpt>
      <trkpt lat="48.46905" lon="2.60908">
        <ele>81.1</ele>
        <time>2021-05-30T07:27:24Z</time>
      </trkpt>
      <trkpt lat="48.46904" lon="2.60915">
        <ele>81</ele>
        <time>2021-05-30T07:27:25Z</time>
      </trkpt>
      <trkpt lat="48.46905" lon="2.60936">
        <ele>81</ele>
        <time>2021-05-30T07:27:28Z</time>
      </trkpt>
      <trkpt lat="48.46904" lon="2.60943">
        <ele>81</ele>
        <time>2021-05-30T07:27:29Z</time>
      </trkpt>
      <trkpt lat="48.46904" lon="2.60972">
        <ele>81</ele>
        <time>2021-05-30T07:27:33Z</time>
      </trkpt>
      <trkpt lat="48.46904" lon="2.60978">
        <ele>81</ele>
        <time>2021-05-30T07:27:34Z</time>
      </trkpt>
      <trkpt lat="48.46902" lon="2.61008">
        <ele>80.9</ele>
        <time>2021-05-30T07:27:39Z</time>
      </trkpt>
      <trkpt lat="48.46902" lon="2.61029">
        <ele>80.7</ele>
        <time>2021-05-30T07:27:42Z</time>
      </trkpt>
      <trkpt lat="48.46901" lon="2.61035">
        <ele>80.7</ele>
        <time>2021-05-30T07:27:43Z</time>
      </trkpt>
      <trkpt lat="48.46901" lon="2.61069">
        <ele>80.3</ele>
        <time>2021-05-30T07:27:51Z</time>
      </trkpt>
      <trkpt lat="48.469" lon="2.61071">
        <ele>80.3</ele>
        <time>2021-05-30T07:27:53Z</time>
      </trkpt>
      <trkpt lat="48.46898" lon="2.61073">
        <ele>80.3</ele>
        <time>2021-05-30T07:27:54Z</time>
      </trkpt>
      <trkpt lat="48.46896" lon="2.61073">
        <ele>80.3</ele>
        <time>2021-05-30T07:27:55Z</time>
      </trkpt>
      <trkpt lat="48.46894" lon="2.61073">
        <ele>80.4</ele>
        <time>2021-05-30T07:27:56Z</time>
      </trkpt>
      <trkpt lat="48.46892" lon="2.61073">
        <ele>80.4</ele>
        <time>2021-05-30T07:27:57Z</time>
      </trkpt>
      <trkpt lat="48.46888" lon="2.61073">
        <ele>80.4</ele>
        <time>2021-05-30T07:27:58Z</time>
      </trkpt>
      <trkpt lat="48.46885" lon="2.61072">
        <ele>80.5</ele>
        <time>2021-05-30T07:27:59Z</time>
      </trkpt>
      <trkpt lat="48.46845" lon="2.61061">
        <ele>80.9</ele>
        <time>2021-05-30T07:28:11Z</time>
      </trkpt>
      <trkpt lat="48.468" lon="2.61048">
        <ele>80.7</ele>
        <time>2021-05-30T07:28:23Z</time>
      </trkpt>
      <trkpt lat="48.46789" lon="2.61045">
        <ele>80.5</ele>
        <time>2021-05-30T07:28:26Z</time>
      </trkpt>
      <trkpt lat="48.46784" lon="2.61043">
        <ele>80.4</ele>
        <time>2021-05-30T07:28:27Z</time>
      </trkpt>
      <trkpt lat="48.4678" lon="2.61041">
        <ele>80.4</ele>
        <time>2021-05-30T07:28:28Z</time>
      </trkpt>
      <trkpt lat="48.46729" lon="2.61014">
        <ele>79.7</ele>
        <time>2021-05-30T07:28:42Z</time>
      </trkpt>
      <trkpt lat="48.46667" lon="2.60972">
        <ele>81.7</ele>
        <time>2021-05-30T07:28:59Z</time>
      </trkpt>
      <trkpt lat="48.46637" lon="2.60953">
        <ele>81.6</ele>
        <time>2021-05-30T07:29:07Z</time>
      </trkpt>
      <trkpt lat="48.46634" lon="2.6095">
        <ele>81.6</ele>
        <time>2021-05-30T07:29:08Z</time>
      </trkpt>
      <trkpt lat="48.46604" lon="2.60944">
        <ele>81.1</ele>
        <time>2021-05-30T07:29:19Z</time>
      </trkpt>
      <trkpt lat="48.46603" lon="2.60946">
        <ele>81</ele>
        <time>2021-05-30T07:29:20Z</time>
      </trkpt>
      <trkpt lat="48.46602" lon="2.6095">
        <ele>81</ele>
        <time>2021-05-30T07:29:21Z</time>
      </trkpt>
      <trkpt lat="48.46601" lon="2.60955">
        <ele>80.9</ele>
        <time>2021-05-30T07:29:22Z</time>
      </trkpt>
      <trkpt lat="48.46598" lon="2.60967">
        <ele>80.6</ele>
        <time>2021-05-30T07:29:24Z</time>
      </trkpt>
      <trkpt lat="48.46596" lon="2.6099">
        <ele>80.3</ele>
        <time>2021-05-30T07:29:27Z</time>
      </trkpt>
      <trkpt lat="48.46571" lon="2.61114">
        <ele>79.6</ele>
        <time>2021-05-30T07:29:44Z</time>
      </trkpt>
      <trkpt lat="48.46556" lon="2.61169">
        <ele>79.3</ele>
        <time>2021-05-30T07:29:52Z</time>
      </trkpt>
      <trkpt lat="48.46556" lon="2.61175">
        <ele>79.4</ele>
        <time>2021-05-30T07:29:53Z</time>
      </trkpt>
      <trkpt lat="48.46556" lon="2.61181">
        <ele>79.4</ele>
        <time>2021-05-30T07:29:54Z</time>
      </trkpt>
      <trkpt lat="48.46556" lon="2.61187">
        <ele>79.4</ele>
        <time>2021-05-30T07:29:55Z</time>
      </trkpt>
      <trkpt lat="48.46557" lon="2.61193">
        <ele>79.4</ele>
        <time>2021-05-30T07:29:56Z</time>
      </trkpt>
      <trkpt lat="48.46579" lon="2.61277">
        <ele>79.4</ele>
        <time>2021-05-30T07:30:09Z</time>
      </trkpt>
      <trkpt lat="48.4658" lon="2.61291">
        <ele>79.5</ele>
        <time>2021-05-30T07:30:11Z</time>
      </trkpt>
      <trkpt lat="48.4658" lon="2.61297">
        <ele>79.6</ele>
        <time>2021-05-30T07:30:12Z</time>
      </trkpt>
      <trkpt lat="48.46581" lon="2.61304">
        <ele>79.7</ele>
        <time>2021-05-30T07:30:13Z</time>
      </trkpt>
      <trkpt lat="48.46582" lon="2.61367">
        <ele>79.6</ele>
        <time>2021-05-30T07:30:22Z</time>
      </trkpt>
      <trkpt lat="48.46582" lon="2.61374">
        <ele>79.5</ele>
        <time>2021-05-30T07:30:23Z</time>
      </trkpt>
      <trkpt lat="48.46581" lon="2.6138">
        <ele>79.4</ele>
        <time>2021-05-30T07:30:24Z</time>
      </trkpt>
      <trkpt lat="48.4658" lon="2.61387">
        <ele>79.3</ele>
        <time>2021-05-30T07:30:25Z</time>
      </trkpt>
      <trkpt lat="48.46578" lon="2.61393">
        <ele>79.3</ele>
        <time>2021-05-30T07:30:26Z</time>
      </trkpt>
      <trkpt lat="48.46575" lon="2.61399">
        <ele>79.2</ele>
        <time>2021-05-30T07:30:27Z</time>
      </trkpt>
      <trkpt lat="48.46572" lon="2.61405">
        <ele>79.1</ele>
        <time>2021-05-30T07:30:28Z</time>
      </trkpt>
      <trkpt lat="48.46519" lon="2.61501">
        <ele>80</ele>
        <time>2021-05-30T07:30:45Z</time>
      </trkpt>
      <trkpt lat="48.46482" lon="2.61599">
        <ele>81.2</ele>
        <time>2021-05-30T07:31:00Z</time>
      </trkpt>
      <trkpt lat="48.46462" lon="2.61723">
        <ele>81.7</ele>
        <time>2021-05-30T07:31:17Z</time>
      </trkpt>
      <trkpt lat="48.46449" lon="2.6183">
        <ele>80.4</ele>
        <time>2021-05-30T07:31:31Z</time>
      </trkpt>
      <trkpt lat="48.46439" lon="2.61914">
        <ele>78.1</ele>
        <time>2021-05-30T07:31:42Z</time>
      </trkpt>
      <trkpt lat="48.46436" lon="2.62041">
        <ele>79.2</ele>
        <time>2021-05-30T07:31:58Z</time>
      </trkpt>
      <trkpt lat="48.46435" lon="2.62106">
        <ele>80.8</ele>
        <time>2021-05-30T07:32:06Z</time>
      </trkpt>
      <trkpt lat="48.46435" lon="2.62113">
        <ele>80.9</ele>
        <time>2021-05-30T07:32:07Z</time>
      </trkpt>
      <trkpt lat="48.46434" lon="2.62128">
        <ele>81.2</ele>
        <time>2021-05-30T07:32:09Z</time>
      </trkpt>
      <trkpt lat="48.46434" lon="2.62166">
        <ele>81.8</ele>
        <time>2021-05-30T07:32:14Z</time>
      </trkpt>
      <trkpt lat="48.46433" lon="2.62206">
        <ele>82.1</ele>
        <time>2021-05-30T07:32:19Z</time>
      </trkpt>
      <trkpt lat="48.46432" lon="2.62214">
        <ele>82.1</ele>
        <time>2021-05-30T07:32:20Z</time>
      </trkpt>
      <trkpt lat="48.46431" lon="2.62222">
        <ele>82.2</ele>
        <time>2021-05-30T07:32:21Z</time>
      </trkpt>
      <trkpt lat="48.46428" lon="2.6231">
        <ele>82.9</ele>
        <time>2021-05-30T07:32:31Z</time>
      </trkpt>
      <trkpt lat="48.46427" lon="2.62337">
        <ele>83.1</ele>
        <time>2021-05-30T07:32:34Z</time>
      </trkpt>
      <trkpt lat="48.46423" lon="2.62458">
        <ele>82.6</ele>
        <time>2021-05-30T07:32:49Z</time>
      </trkpt>
      <trkpt lat="48.46422" lon="2.62505">
        <ele>82.1</ele>
        <time>2021-05-30T07:32:55Z</time>
      </trkpt>
      <trkpt lat="48.46423" lon="2.62518">
        <ele>82.1</ele>
        <time>2021-05-30T07:32:57Z</time>
      </trkpt>
      <trkpt lat="48.46421" lon="2.62559">
        <ele>82</ele>
        <time>2021-05-30T07:33:03Z</time>
      </trkpt>
      <trkpt lat="48.4642" lon="2.62567">
        <ele>82</ele>
        <time>2021-05-30T07:33:04Z</time>
      </trkpt>
      <trkpt lat="48.46419" lon="2.62574">
        <ele>82</ele>
        <time>2021-05-30T07:33:05Z</time>
      </trkpt>
      <trkpt lat="48.46416" lon="2.62603">
        <ele>82</ele>
        <time>2021-05-30T07:33:09Z</time>
      </trkpt>
      <trkpt lat="48.46415" lon="2.6261">
        <ele>82</ele>
        <time>2021-05-30T07:33:10Z</time>
      </trkpt>
      <trkpt lat="48.46403" lon="2.62656">
        <ele>81.7</ele>
        <time>2021-05-30T07:33:20Z</time>
      </trkpt>
      <trkpt lat="48.46402" lon="2.62659">
        <ele>81.7</ele>
        <time>2021-05-30T07:33:21Z</time>
      </trkpt>
      <trkpt lat="48.46401" lon="2.62683">
        <ele>81.6</ele>
        <time>2021-05-30T07:33:26Z</time>
      </trkpt>
      <trkpt lat="48.464" lon="2.62689">
        <ele>81.6</ele>
        <time>2021-05-30T07:33:27Z</time>
      </trkpt>
      <trkpt lat="48.46398" lon="2.62702">
        <ele>81.6</ele>
        <time>2021-05-30T07:33:29Z</time>
      </trkpt>
      <trkpt lat="48.46397" lon="2.6271">
        <ele>81.5</ele>
        <time>2021-05-30T07:33:30Z</time>
      </trkpt>
      <trkpt lat="48.46389" lon="2.62763">
        <ele>81.4</ele>
        <time>2021-05-30T07:33:37Z</time>
      </trkpt>
      <trkpt lat="48.46377" lon="2.62873">
        <ele>82.2</ele>
        <time>2021-05-30T07:33:52Z</time>
      </trkpt>
      <trkpt lat="48.46367" lon="2.62954">
        <ele>82.4</ele>
        <time>2021-05-30T07:34:04Z</time>
      </trkpt>
      <trkpt lat="48.46366" lon="2.6296">
        <ele>82.3</ele>
        <time>2021-05-30T07:34:05Z</time>
      </trkpt>
      <trkpt lat="48.46356" lon="2.6305">
        <ele>82.4</ele>
        <time>2021-05-30T07:34:18Z</time>
      </trkpt>
      <trkpt lat="48.46345" lon="2.63136">
        <ele>84.5</ele>
        <time>2021-05-30T07:34:31Z</time>
      </trkpt>
      <trkpt lat="48.46345" lon="2.63142">
        <ele>84.7</ele>
        <time>2021-05-30T07:34:32Z</time>
      </trkpt>
      <trkpt lat="48.46345" lon="2.63149">
        <ele>84.9</ele>
        <time>2021-05-30T07:34:33Z</time>
      </trkpt>
      <trkpt lat="48.46345" lon="2.63155">
        <ele>85.1</ele>
        <time>2021-05-30T07:34:34Z</time>
      </trkpt>
      <trkpt lat="48.46345" lon="2.63161">
        <ele>85.3</ele>
        <time>2021-05-30T07:34:35Z</time>
      </trkpt>
      <trkpt lat="48.46343" lon="2.63197">
        <ele>85.5</ele>
        <time>2021-05-30T07:34:41Z</time>
      </trkpt>
      <trkpt lat="48.46342" lon="2.63219">
        <ele>85.5</ele>
        <time>2021-05-30T07:34:44Z</time>
      </trkpt>
      <trkpt lat="48.46343" lon="2.63227">
        <ele>85.5</ele>
        <time>2021-05-30T07:34:45Z</time>
      </trkpt>
      <trkpt lat="48.46342" lon="2.63234">
        <ele>85.5</ele>
        <time>2021-05-30T07:34:46Z</time>
      </trkpt>
      <trkpt lat="48.46342" lon="2.63241">
        <ele>85.5</ele>
        <time>2021-05-30T07:34:47Z</time>
      </trkpt>
      <trkpt lat="48.46341" lon="2.63248">
        <ele>85.5</ele>
        <time>2021-05-30T07:34:48Z</time>
      </trkpt>
      <trkpt lat="48.4634" lon="2.63263">
        <ele>86.1</ele>
        <time>2021-05-30T07:34:50Z</time>
      </trkpt>
      <trkpt lat="48.46341" lon="2.63298">
        <ele>87.3</ele>
        <time>2021-05-30T07:34:57Z</time>
      </trkpt>
      <trkpt lat="48.46343" lon="2.63304">
        <ele>87.4</ele>
        <time>2021-05-30T07:34:58Z</time>
      </trkpt>
      <trkpt lat="48.46344" lon="2.6331">
        <ele>87.6</ele>
        <time>2021-05-30T07:34:59Z</time>
      </trkpt>
      <trkpt lat="48.46359" lon="2.63397">
        <ele>89.6</ele>
        <time>2021-05-30T07:35:11Z</time>
      </trkpt>
      <trkpt lat="48.4636" lon="2.63404">
        <ele>89.7</ele>
        <time>2021-05-30T07:35:12Z</time>
      </trkpt>
      <trkpt lat="48.46371" lon="2.63458">
        <ele>90.3</ele>
        <time>2021-05-30T07:35:20Z</time>
      </trkpt>
      <trkpt lat="48.46375" lon="2.63491">
        <ele>90.8</ele>
        <time>2021-05-30T07:35:25Z</time>
      </trkpt>
      <trkpt lat="48.46375" lon="2.63497">
        <ele>91</ele>
        <time>2021-05-30T07:35:26Z</time>
      </trkpt>
      <trkpt lat="48.46374" lon="2.63504">
        <ele>91</ele>
        <time>2021-05-30T07:35:27Z</time>
      </trkpt>
      <trkpt lat="48.46371" lon="2.63545">
        <ele>91.4</ele>
        <time>2021-05-30T07:35:33Z</time>
      </trkpt>
      <trkpt lat="48.46369" lon="2.63565">
        <ele>91.6</ele>
        <time>2021-05-30T07:35:36Z</time>
      </trkpt>
      <trkpt lat="48.46369" lon="2.63571">
        <ele>91.6</ele>
        <time>2021-05-30T07:35:37Z</time>
      </trkpt>
      <trkpt lat="48.4637" lon="2.63591">
        <ele>91.9</ele>
        <time>2021-05-30T07:35:40Z</time>
      </trkpt>
      <trkpt lat="48.46372" lon="2.63597">
        <ele>92.1</ele>
        <time>2021-05-30T07:35:41Z</time>
      </trkpt>
      <trkpt lat="48.46376" lon="2.6361">
        <ele>92.5</ele>
        <time>2021-05-30T07:35:43Z</time>
      </trkpt>
      <trkpt lat="48.46378" lon="2.63615">
        <ele>92.7</ele>
        <time>2021-05-30T07:35:44Z</time>
      </trkpt>
      <trkpt lat="48.46381" lon="2.6362">
        <ele>93</ele>
        <time>2021-05-30T07:35:45Z</time>
      </trkpt>
      <trkpt lat="48.46383" lon="2.63625">
        <ele>93.2</ele>
        <time>2021-05-30T07:35:46Z</time>
      </trkpt>
      <trkpt lat="48.46386" lon="2.63631">
        <ele>93.4</ele>
        <time>2021-05-30T07:35:47Z</time>
      </trkpt>
      <trkpt lat="48.46395" lon="2.63654">
        <ele>94.5</ele>
        <time>2021-05-30T07:35:51Z</time>
      </trkpt>
      <trkpt lat="48.46406" lon="2.63698">
        <ele>96.2</ele>
        <time>2021-05-30T07:35:58Z</time>
      </trkpt>
      <trkpt lat="48.46408" lon="2.63704">
        <ele>96.4</ele>
        <time>2021-05-30T07:35:59Z</time>
      </trkpt>
      <trkpt lat="48.4641" lon="2.63711">
        <ele>96.7</ele>
        <time>2021-05-30T07:36:00Z</time>
      </trkpt>
      <trkpt lat="48.46411" lon="2.63718">
        <ele>96.9</ele>
        <time>2021-05-30T07:36:01Z</time>
      </trkpt>
      <trkpt lat="48.46412" lon="2.63726">
        <ele>97.2</ele>
        <time>2021-05-30T07:36:02Z</time>
      </trkpt>
      <trkpt lat="48.46413" lon="2.63733">
        <ele>97.4</ele>
        <time>2021-05-30T07:36:03Z</time>
      </trkpt>
      <trkpt lat="48.46415" lon="2.63739">
        <ele>97.6</ele>
        <time>2021-05-30T07:36:04Z</time>
      </trkpt>
      <trkpt lat="48.46416" lon="2.63745">
        <ele>97.8</ele>
        <time>2021-05-30T07:36:05Z</time>
      </trkpt>
      <trkpt lat="48.46418" lon="2.63759">
        <ele>98.1</ele>
        <time>2021-05-30T07:36:07Z</time>
      </trkpt>
      <trkpt lat="48.46426" lon="2.63821">
        <ele>98.9</ele>
        <time>2021-05-30T07:36:16Z</time>
      </trkpt>
      <trkpt lat="48.46427" lon="2.63828">
        <ele>98.9</ele>
        <time>2021-05-30T07:36:17Z</time>
      </trkpt>
      <trkpt lat="48.46428" lon="2.63834">
        <ele>99</ele>
        <time>2021-05-30T07:36:18Z</time>
      </trkpt>
      <trkpt lat="48.46433" lon="2.6386">
        <ele>99.6</ele>
        <time>2021-05-30T07:36:22Z</time>
      </trkpt>
      <trkpt lat="48.46433" lon="2.63867">
        <ele>99.7</ele>
        <time>2021-05-30T07:36:23Z</time>
      </trkpt>
      <trkpt lat="48.4643" lon="2.63899">
        <ele>100.4</ele>
        <time>2021-05-30T07:36:28Z</time>
      </trkpt>
      <trkpt lat="48.46404" lon="2.63958">
        <ele>102.1</ele>
        <time>2021-05-30T07:36:38Z</time>
      </trkpt>
      <trkpt lat="48.46382" lon="2.64007">
        <ele>103.4</ele>
        <time>2021-05-30T07:36:47Z</time>
      </trkpt>
      <trkpt lat="48.46356" lon="2.6406">
        <ele>104.1</ele>
        <time>2021-05-30T07:36:57Z</time>
      </trkpt>
      <trkpt lat="48.46348" lon="2.64078">
        <ele>104.4</ele>
        <time>2021-05-30T07:37:00Z</time>
      </trkpt>
      <trkpt lat="48.46345" lon="2.64084">
        <ele>104.6</ele>
        <time>2021-05-30T07:37:01Z</time>
      </trkpt>
      <trkpt lat="48.46343" lon="2.64089">
        <ele>104.5</ele>
        <time>2021-05-30T07:37:02Z</time>
      </trkpt>
      <trkpt lat="48.46341" lon="2.64094">
        <ele>104.4</ele>
        <time>2021-05-30T07:37:03Z</time>
      </trkpt>
      <trkpt lat="48.46339" lon="2.64099">
        <ele>104.3</ele>
        <time>2021-05-30T07:37:04Z</time>
      </trkpt>
      <trkpt lat="48.46325" lon="2.6413">
        <ele>103.5</ele>
        <time>2021-05-30T07:37:09Z</time>
      </trkpt>
      <trkpt lat="48.46322" lon="2.64137">
        <ele>103.3</ele>
        <time>2021-05-30T07:37:10Z</time>
      </trkpt>
      <trkpt lat="48.46293" lon="2.64199">
        <ele>103.5</ele>
        <time>2021-05-30T07:37:20Z</time>
      </trkpt>
      <trkpt lat="48.46273" lon="2.64246">
        <ele>103.8</ele>
        <time>2021-05-30T07:37:28Z</time>
      </trkpt>
      <trkpt lat="48.46251" lon="2.64295">
        <ele>104</ele>
        <time>2021-05-30T07:37:37Z</time>
      </trkpt>
      <trkpt lat="48.46239" lon="2.64319">
        <ele>103.7</ele>
        <time>2021-05-30T07:37:41Z</time>
      </trkpt>
      <trkpt lat="48.46236" lon="2.64326">
        <ele>103.5</ele>
        <time>2021-05-30T07:37:42Z</time>
      </trkpt>
      <trkpt lat="48.46201" lon="2.64404">
        <ele>100</ele>
        <time>2021-05-30T07:37:54Z</time>
      </trkpt>
      <trkpt lat="48.46172" lon="2.64467">
        <ele>98.8</ele>
        <time>2021-05-30T07:38:04Z</time>
      </trkpt>
      <trkpt lat="48.4616" lon="2.64491">
        <ele>99.4</ele>
        <time>2021-05-30T07:38:08Z</time>
      </trkpt>
      <trkpt lat="48.4615" lon="2.64517">
        <ele>100.3</ele>
        <time>2021-05-30T07:38:12Z</time>
      </trkpt>
      <trkpt lat="48.46147" lon="2.64524">
        <ele>100.4</ele>
        <time>2021-05-30T07:38:13Z</time>
      </trkpt>
      <trkpt lat="48.46135" lon="2.64568">
        <ele>100.9</ele>
        <time>2021-05-30T07:38:19Z</time>
      </trkpt>
      <trkpt lat="48.46132" lon="2.64583">
        <ele>100.8</ele>
        <time>2021-05-30T07:38:21Z</time>
      </trkpt>
      <trkpt lat="48.46127" lon="2.64639">
        <ele>101</ele>
        <time>2021-05-30T07:38:28Z</time>
      </trkpt>
      <trkpt lat="48.46127" lon="2.64656">
        <ele>100.9</ele>
        <time>2021-05-30T07:38:30Z</time>
      </trkpt>
      <trkpt lat="48.46133" lon="2.64745">
        <ele>98.4</ele>
        <time>2021-05-30T07:38:42Z</time>
      </trkpt>
      <trkpt lat="48.46133" lon="2.64753">
        <ele>98.2</ele>
        <time>2021-05-30T07:38:43Z</time>
      </trkpt>
      <trkpt lat="48.46132" lon="2.64761">
        <ele>98</ele>
        <time>2021-05-30T07:38:44Z</time>
      </trkpt>
      <trkpt lat="48.46132" lon="2.64769">
        <ele>97.9</ele>
        <time>2021-05-30T07:38:45Z</time>
      </trkpt>
      <trkpt lat="48.46131" lon="2.64777">
        <ele>97.8</ele>
        <time>2021-05-30T07:38:46Z</time>
      </trkpt>
      <trkpt lat="48.4613" lon="2.64799">
        <ele>97.4</ele>
        <time>2021-05-30T07:38:49Z</time>
      </trkpt>
      <trkpt lat="48.4613" lon="2.64807">
        <ele>97.3</ele>
        <time>2021-05-30T07:38:50Z</time>
      </trkpt>
      <trkpt lat="48.4613" lon="2.64815">
        <ele>97.1</ele>
        <time>2021-05-30T07:38:51Z</time>
      </trkpt>
      <trkpt lat="48.4613" lon="2.64823">
        <ele>96.9</ele>
        <time>2021-05-30T07:38:52Z</time>
      </trkpt>
      <trkpt lat="48.4613" lon="2.64831">
        <ele>96.8</ele>
        <time>2021-05-30T07:38:53Z</time>
      </trkpt>
      <trkpt lat="48.46128" lon="2.64891">
        <ele>96.8</ele>
        <time>2021-05-30T07:39:00Z</time>
      </trkpt>
      <trkpt lat="48.46128" lon="2.6494">
        <ele>98</ele>
        <time>2021-05-30T07:39:06Z</time>
      </trkpt>
      <trkpt lat="48.46128" lon="2.64947">
        <ele>98.3</ele>
        <time>2021-05-30T07:39:07Z</time>
      </trkpt>
      <trkpt lat="48.4613" lon="2.64994">
        <ele>100.6</ele>
        <time>2021-05-30T07:39:13Z</time>
      </trkpt>
      <trkpt lat="48.46133" lon="2.65052">
        <ele>102.5</ele>
        <time>2021-05-30T07:39:23Z</time>
      </trkpt>
      <trkpt lat="48.46129" lon="2.6506">
        <ele>102.8</ele>
        <time>2021-05-30T07:39:25Z</time>
      </trkpt>
      <trkpt lat="48.46126" lon="2.65062">
        <ele>102.9</ele>
        <time>2021-05-30T07:39:26Z</time>
      </trkpt>
      <trkpt lat="48.46088" lon="2.65085">
        <ele>103.1</ele>
        <time>2021-05-30T07:39:38Z</time>
      </trkpt>
      <trkpt lat="48.46058" lon="2.65104">
        <ele>104.9</ele>
        <time>2021-05-30T07:39:49Z</time>
      </trkpt>
      <trkpt lat="48.46023" lon="2.65124">
        <ele>107.3</ele>
        <time>2021-05-30T07:40:02Z</time>
      </trkpt>
      <trkpt lat="48.45989" lon="2.65143">
        <ele>110.4</ele>
        <time>2021-05-30T07:40:15Z</time>
      </trkpt>
      <trkpt lat="48.45964" lon="2.65156">
        <ele>113.9</ele>
        <time>2021-05-30T07:40:26Z</time>
      </trkpt>
      <trkpt lat="48.4595" lon="2.6516">
        <ele>115.7</ele>
        <time>2021-05-30T07:40:32Z</time>
      </trkpt>
      <trkpt lat="48.45947" lon="2.65159">
        <ele>116.2</ele>
        <time>2021-05-30T07:40:33Z</time>
      </trkpt>
      <trkpt lat="48.45944" lon="2.6516">
        <ele>116.5</ele>
        <time>2021-05-30T07:40:34Z</time>
      </trkpt>
      <trkpt lat="48.45942" lon="2.6516">
        <ele>116.8</ele>
        <time>2021-05-30T07:40:35Z</time>
      </trkpt>
      <trkpt lat="48.4594" lon="2.6516">
        <ele>117.1</ele>
        <time>2021-05-30T07:40:36Z</time>
      </trkpt>
      <trkpt lat="48.45933" lon="2.65162">
        <ele>118</ele>
        <time>2021-05-30T07:40:40Z</time>
      </trkpt>
      <trkpt lat="48.45931" lon="2.65161">
        <ele>118.2</ele>
        <time>2021-05-30T07:40:41Z</time>
      </trkpt>
      <trkpt lat="48.4593" lon="2.65161">
        <ele>118.5</ele>
        <time>2021-05-30T07:40:42Z</time>
      </trkpt>
      <trkpt lat="48.45928" lon="2.65161">
        <ele>118.7</ele>
        <time>2021-05-30T07:40:43Z</time>
      </trkpt>
      <trkpt lat="48.45926" lon="2.65162">
        <ele>119</ele>
        <time>2021-05-30T07:40:44Z</time>
      </trkpt>
      <trkpt lat="48.45903" lon="2.65167">
        <ele>121.7</ele>
        <time>2021-05-30T07:40:56Z</time>
      </trkpt>
      <trkpt lat="48.45877" lon="2.65175">
        <ele>124.7</ele>
        <time>2021-05-30T07:41:09Z</time>
      </trkpt>
      <trkpt lat="48.45856" lon="2.6518">
        <ele>127</ele>
        <time>2021-05-30T07:41:18Z</time>
      </trkpt>
      <trkpt lat="48.4583" lon="2.65185">
        <ele>129.7</ele>
        <time>2021-05-30T07:41:31Z</time>
      </trkpt>
      <trkpt lat="48.45827" lon="2.65185">
        <ele>129.7</ele>
        <time>2021-05-30T07:41:32Z</time>
      </trkpt>
      <trkpt lat="48.45825" lon="2.65186">
        <ele>129.8</ele>
        <time>2021-05-30T07:41:33Z</time>
      </trkpt>
      <trkpt lat="48.45823" lon="2.65187">
        <ele>129.8</ele>
        <time>2021-05-30T07:41:34Z</time>
      </trkpt>
      <trkpt lat="48.45821" lon="2.65188">
        <ele>129.9</ele>
        <time>2021-05-30T07:41:35Z</time>
      </trkpt>
      <trkpt lat="48.45819" lon="2.65189">
        <ele>129.9</ele>
        <time>2021-05-30T07:41:36Z</time>
      </trkpt>
      <trkpt lat="48.45817" lon="2.65189">
        <ele>130</ele>
        <time>2021-05-30T07:41:37Z</time>
      </trkpt>
      <trkpt lat="48.45797" lon="2.65208">
        <ele>130.3</ele>
        <time>2021-05-30T07:41:49Z</time>
      </trkpt>
      <trkpt lat="48.45783" lon="2.65232">
        <ele>130.6</ele>
        <time>2021-05-30T07:42:00Z</time>
      </trkpt>
      <trkpt lat="48.45768" lon="2.65263">
        <ele>131.1</ele>
        <time>2021-05-30T07:42:12Z</time>
      </trkpt>
      <trkpt lat="48.45769" lon="2.65266">
        <ele>131.1</ele>
        <time>2021-05-30T07:42:13Z</time>
      </trkpt>
      <trkpt lat="48.45769" lon="2.65269">
        <ele>131.1</ele>
        <time>2021-05-30T07:42:14Z</time>
      </trkpt>
      <trkpt lat="48.4577" lon="2.65271">
        <ele>131</ele>
        <time>2021-05-30T07:42:15Z</time>
      </trkpt>
      <trkpt lat="48.4577" lon="2.65274">
        <ele>131</ele>
        <time>2021-05-30T07:42:16Z</time>
      </trkpt>
      <trkpt lat="48.45788" lon="2.65322">
        <ele>130.9</ele>
        <time>2021-05-30T07:42:28Z</time>
      </trkpt>
      <trkpt lat="48.45801" lon="2.65333">
        <ele>131</ele>
        <time>2021-05-30T07:42:33Z</time>
      </trkpt>
      <trkpt lat="48.45802" lon="2.65335">
        <ele>131</ele>
        <time>2021-05-30T07:42:34Z</time>
      </trkpt>
      <trkpt lat="48.45819" lon="2.65345">
        <ele>131</ele>
        <time>2021-05-30T07:42:43Z</time>
      </trkpt>
      <trkpt lat="48.45819" lon="2.65345">
        <ele>131</ele>
        <time>2021-05-30T07:42:44Z</time>
      </trkpt>
      <trkpt lat="48.45822" lon="2.65345">
        <ele>131</ele>
        <time>2021-05-30T07:42:45Z</time>
      </trkpt>
      <trkpt lat="48.45826" lon="2.65344">
        <ele>131</ele>
        <time>2021-05-30T07:42:46Z</time>
      </trkpt>
      <trkpt lat="48.4583" lon="2.65343">
        <ele>131</ele>
        <time>2021-05-30T07:42:47Z</time>
      </trkpt>
      <trkpt lat="48.45833" lon="2.65343">
        <ele>131</ele>
        <time>2021-05-30T07:42:48Z</time>
      </trkpt>
      <trkpt lat="48.45859" lon="2.6534">
        <ele>130.4</ele>
        <time>2021-05-30T07:42:56Z</time>
      </trkpt>
      <trkpt lat="48.45901" lon="2.6534">
        <ele>129.5</ele>
        <time>2021-05-30T07:43:07Z</time>
      </trkpt>
      <trkpt lat="48.45941" lon="2.65369">
        <ele>127.5</ele>
        <time>2021-05-30T07:43:18Z</time>
      </trkpt>
      <trkpt lat="48.45953" lon="2.65413">
        <ele>127.8</ele>
        <time>2021-05-30T07:43:28Z</time>
      </trkpt>
      <trkpt lat="48.4595" lon="2.65424">
        <ele>128.2</ele>
        <time>2021-05-30T07:43:30Z</time>
      </trkpt>
      <trkpt lat="48.45946" lon="2.65494">
        <ele>128.4</ele>
        <time>2021-05-30T07:43:43Z</time>
      </trkpt>
      <trkpt lat="48.45935" lon="2.65544">
        <ele>128.2</ele>
        <time>2021-05-30T07:43:53Z</time>
      </trkpt>
      <trkpt lat="48.45904" lon="2.6561">
        <ele>129.3</ele>
        <time>2021-05-30T07:44:06Z</time>
      </trkpt>
      <trkpt lat="48.45881" lon="2.65658">
        <ele>128.9</ele>
        <time>2021-05-30T07:44:16Z</time>
      </trkpt>
      <trkpt lat="48.45858" lon="2.65706">
        <ele>128.1</ele>
        <time>2021-05-30T07:44:25Z</time>
      </trkpt>
      <trkpt lat="48.45848" lon="2.65721">
        <ele>128.4</ele>
        <time>2021-05-30T07:44:28Z</time>
      </trkpt>
      <trkpt lat="48.45844" lon="2.65724">
        <ele>128.7</ele>
        <time>2021-05-30T07:44:29Z</time>
      </trkpt>
      <trkpt lat="48.45839" lon="2.65727">
        <ele>129.1</ele>
        <time>2021-05-30T07:44:30Z</time>
      </trkpt>
      <trkpt lat="48.45813" lon="2.65736">
        <ele>129.5</ele>
        <time>2021-05-30T07:44:35Z</time>
      </trkpt>
      <trkpt lat="48.45804" lon="2.65738">
        <ele>129.4</ele>
        <time>2021-05-30T07:44:37Z</time>
      </trkpt>
      <trkpt lat="48.45798" lon="2.6574">
        <ele>129.3</ele>
        <time>2021-05-30T07:44:38Z</time>
      </trkpt>
      <trkpt lat="48.45793" lon="2.65741">
        <ele>129.3</ele>
        <time>2021-05-30T07:44:39Z</time>
      </trkpt>
      <trkpt lat="48.45768" lon="2.65748">
        <ele>129.1</ele>
        <time>2021-05-30T07:44:44Z</time>
      </trkpt>
      <trkpt lat="48.45714" lon="2.65775">
        <ele>128.9</ele>
        <time>2021-05-30T07:44:56Z</time>
      </trkpt>
      <trkpt lat="48.45702" lon="2.65781">
        <ele>129.1</ele>
        <time>2021-05-30T07:44:59Z</time>
      </trkpt>
      <trkpt lat="48.45694" lon="2.65786">
        <ele>129.2</ele>
        <time>2021-05-30T07:45:01Z</time>
      </trkpt>
      <trkpt lat="48.4569" lon="2.6579">
        <ele>129.3</ele>
        <time>2021-05-30T07:45:02Z</time>
      </trkpt>
      <trkpt lat="48.45687" lon="2.65795">
        <ele>129.4</ele>
        <time>2021-05-30T07:45:03Z</time>
      </trkpt>
      <trkpt lat="48.45683" lon="2.65799">
        <ele>129.4</ele>
        <time>2021-05-30T07:45:04Z</time>
      </trkpt>
      <trkpt lat="48.4568" lon="2.65805">
        <ele>129.5</ele>
        <time>2021-05-30T07:45:05Z</time>
      </trkpt>
      <trkpt lat="48.45677" lon="2.65811">
        <ele>129.6</ele>
        <time>2021-05-30T07:45:06Z</time>
      </trkpt>
      <trkpt lat="48.45674" lon="2.65817">
        <ele>129.7</ele>
        <time>2021-05-30T07:45:07Z</time>
      </trkpt>
      <trkpt lat="48.45671" lon="2.65823">
        <ele>129.8</ele>
        <time>2021-05-30T07:45:08Z</time>
      </trkpt>
      <trkpt lat="48.45668" lon="2.65829">
        <ele>129.9</ele>
        <time>2021-05-30T07:45:09Z</time>
      </trkpt>
      <trkpt lat="48.45661" lon="2.65847">
        <ele>130.5</ele>
        <time>2021-05-30T07:45:12Z</time>
      </trkpt>
      <trkpt lat="48.45643" lon="2.65916">
        <ele>132.3</ele>
        <time>2021-05-30T07:45:24Z</time>
      </trkpt>
      <trkpt lat="48.45631" lon="2.65977">
        <ele>132.3</ele>
        <time>2021-05-30T07:45:34Z</time>
      </trkpt>
      <trkpt lat="48.45629" lon="2.65983">
        <ele>132.4</ele>
        <time>2021-05-30T07:45:35Z</time>
      </trkpt>
      <trkpt lat="48.4562" lon="2.66012">
        <ele>132.3</ele>
        <time>2021-05-30T07:45:40Z</time>
      </trkpt>
      <trkpt lat="48.45617" lon="2.66017">
        <ele>132.3</ele>
        <time>2021-05-30T07:45:41Z</time>
      </trkpt>
      <trkpt lat="48.45615" lon="2.6602">
        <ele>132.4</ele>
        <time>2021-05-30T07:45:42Z</time>
      </trkpt>
      <trkpt lat="48.45612" lon="2.66023">
        <ele>132.4</ele>
        <time>2021-05-30T07:45:43Z</time>
      </trkpt>
      <trkpt lat="48.45609" lon="2.66026">
        <ele>132.5</ele>
        <time>2021-05-30T07:45:44Z</time>
      </trkpt>
      <trkpt lat="48.45606" lon="2.66028">
        <ele>132.6</ele>
        <time>2021-05-30T07:45:45Z</time>
      </trkpt>
      <trkpt lat="48.45589" lon="2.66044">
        <ele>133.2</ele>
        <time>2021-05-30T07:45:55Z</time>
      </trkpt>
      <trkpt lat="48.45569" lon="2.66062">
        <ele>133.7</ele>
        <time>2021-05-30T07:46:05Z</time>
      </trkpt>
      <trkpt lat="48.45549" lon="2.66075">
        <ele>134.3</ele>
        <time>2021-05-30T07:46:10Z</time>
      </trkpt>
      <trkpt lat="48.45513" lon="2.661">
        <ele>135.9</ele>
        <time>2021-05-30T07:46:19Z</time>
      </trkpt>
      <trkpt lat="48.45465" lon="2.66135">
        <ele>137.1</ele>
        <time>2021-05-30T07:46:31Z</time>
      </trkpt>
      <trkpt lat="48.45418" lon="2.6617">
        <ele>137</ele>
        <time>2021-05-30T07:46:43Z</time>
      </trkpt>
      <trkpt lat="48.45369" lon="2.66212">
        <ele>136.5</ele>
        <time>2021-05-30T07:46:55Z</time>
      </trkpt>
      <trkpt lat="48.45368" lon="2.66218">
        <ele>136.4</ele>
        <time>2021-05-30T07:46:56Z</time>
      </trkpt>
      <trkpt lat="48.45366" lon="2.66231">
        <ele>136.2</ele>
        <time>2021-05-30T07:46:58Z</time>
      </trkpt>
      <trkpt lat="48.45366" lon="2.66238">
        <ele>136.1</ele>
        <time>2021-05-30T07:46:59Z</time>
      </trkpt>
      <trkpt lat="48.45367" lon="2.66252">
        <ele>136</ele>
        <time>2021-05-30T07:47:01Z</time>
      </trkpt>
      <trkpt lat="48.45368" lon="2.6626">
        <ele>136</ele>
        <time>2021-05-30T07:47:02Z</time>
      </trkpt>
      <trkpt lat="48.45368" lon="2.66269">
        <ele>136</ele>
        <time>2021-05-30T07:47:03Z</time>
      </trkpt>
      <trkpt lat="48.45367" lon="2.66277">
        <ele>135.9</ele>
        <time>2021-05-30T07:47:04Z</time>
      </trkpt>
      <trkpt lat="48.45366" lon="2.66285">
        <ele>135.9</ele>
        <time>2021-05-30T07:47:05Z</time>
      </trkpt>
      <trkpt lat="48.4536" lon="2.66372">
        <ele>134.6</ele>
        <time>2021-05-30T07:47:17Z</time>
      </trkpt>
      <trkpt lat="48.45361" lon="2.66408">
        <ele>133.6</ele>
        <time>2021-05-30T07:47:22Z</time>
      </trkpt>
      <trkpt lat="48.45363" lon="2.66415">
        <ele>133.4</ele>
        <time>2021-05-30T07:47:23Z</time>
      </trkpt>
      <trkpt lat="48.45388" lon="2.66468">
        <ele>133.7</ele>
        <time>2021-05-30T07:47:31Z</time>
      </trkpt>
      <trkpt lat="48.45413" lon="2.66519">
        <ele>134</ele>
        <time>2021-05-30T07:47:39Z</time>
      </trkpt>
      <trkpt lat="48.45416" lon="2.66526">
        <ele>134</ele>
        <time>2021-05-30T07:47:40Z</time>
      </trkpt>
      <trkpt lat="48.45416" lon="2.66534">
        <ele>134</ele>
        <time>2021-05-30T07:47:41Z</time>
      </trkpt>
      <trkpt lat="48.45414" lon="2.6654">
        <ele>134</ele>
        <time>2021-05-30T07:47:42Z</time>
      </trkpt>
      <trkpt lat="48.45412" lon="2.66545">
        <ele>134</ele>
        <time>2021-05-30T07:47:43Z</time>
      </trkpt>
      <trkpt lat="48.45409" lon="2.6655">
        <ele>134.1</ele>
        <time>2021-05-30T07:47:44Z</time>
      </trkpt>
      <trkpt lat="48.45404" lon="2.66561">
        <ele>134.2</ele>
        <time>2021-05-30T07:47:46Z</time>
      </trkpt>
      <trkpt lat="48.45401" lon="2.66566">
        <ele>134.3</ele>
        <time>2021-05-30T07:47:47Z</time>
      </trkpt>
      <trkpt lat="48.45392" lon="2.66588">
        <ele>134.7</ele>
        <time>2021-05-30T07:47:51Z</time>
      </trkpt>
      <trkpt lat="48.45391" lon="2.66595">
        <ele>134.8</ele>
        <time>2021-05-30T07:47:52Z</time>
      </trkpt>
      <trkpt lat="48.45391" lon="2.66601">
        <ele>134.9</ele>
        <time>2021-05-30T07:47:53Z</time>
      </trkpt>
      <trkpt lat="48.45393" lon="2.66623">
        <ele>135.2</ele>
        <time>2021-05-30T07:47:56Z</time>
      </trkpt>
      <trkpt lat="48.45394" lon="2.66629">
        <ele>135.2</ele>
        <time>2021-05-30T07:47:57Z</time>
      </trkpt>
      <trkpt lat="48.45406" lon="2.66668">
        <ele>135.4</ele>
        <time>2021-05-30T07:48:03Z</time>
      </trkpt>
      <trkpt lat="48.45409" lon="2.66674">
        <ele>135.2</ele>
        <time>2021-05-30T07:48:04Z</time>
      </trkpt>
      <trkpt lat="48.45413" lon="2.6668">
        <ele>135</ele>
        <time>2021-05-30T07:48:05Z</time>
      </trkpt>
      <trkpt lat="48.45425" lon="2.66704">
        <ele>134.1</ele>
        <time>2021-05-30T07:48:09Z</time>
      </trkpt>
      <trkpt lat="48.45428" lon="2.6671">
        <ele>133.9</ele>
        <time>2021-05-30T07:48:10Z</time>
      </trkpt>
      <trkpt lat="48.45448" lon="2.6675">
        <ele>132.9</ele>
        <time>2021-05-30T07:48:17Z</time>
      </trkpt>
      <trkpt lat="48.4545" lon="2.66756">
        <ele>132.8</ele>
        <time>2021-05-30T07:48:18Z</time>
      </trkpt>
      <trkpt lat="48.45451" lon="2.66763">
        <ele>132.7</ele>
        <time>2021-05-30T07:48:19Z</time>
      </trkpt>
      <trkpt lat="48.45456" lon="2.66785">
        <ele>132.4</ele>
        <time>2021-05-30T07:48:22Z</time>
      </trkpt>
      <trkpt lat="48.45456" lon="2.66793">
        <ele>132.3</ele>
        <time>2021-05-30T07:48:23Z</time>
      </trkpt>
      <trkpt lat="48.45456" lon="2.668">
        <ele>132.3</ele>
        <time>2021-05-30T07:48:24Z</time>
      </trkpt>
      <trkpt lat="48.45454" lon="2.66806">
        <ele>132.3</ele>
        <time>2021-05-30T07:48:25Z</time>
      </trkpt>
      <trkpt lat="48.45452" lon="2.66812">
        <ele>132.3</ele>
        <time>2021-05-30T07:48:26Z</time>
      </trkpt>
      <trkpt lat="48.45448" lon="2.66815">
        <ele>132.4</ele>
        <time>2021-05-30T07:48:27Z</time>
      </trkpt>
      <trkpt lat="48.45444" lon="2.66818">
        <ele>132.5</ele>
        <time>2021-05-30T07:48:28Z</time>
      </trkpt>
      <trkpt lat="48.4544" lon="2.66819">
        <ele>132.6</ele>
        <time>2021-05-30T07:48:29Z</time>
      </trkpt>
      <trkpt lat="48.45435" lon="2.66817">
        <ele>132.7</ele>
        <time>2021-05-30T07:48:30Z</time>
      </trkpt>
      <trkpt lat="48.45431" lon="2.66814">
        <ele>132.9</ele>
        <time>2021-05-30T07:48:31Z</time>
      </trkpt>
      <trkpt lat="48.45427" lon="2.6681">
        <ele>133</ele>
        <time>2021-05-30T07:48:32Z</time>
      </trkpt>
      <trkpt lat="48.45424" lon="2.66805">
        <ele>133.1</ele>
        <time>2021-05-30T07:48:33Z</time>
      </trkpt>
      <trkpt lat="48.45421" lon="2.668">
        <ele>133.3</ele>
        <time>2021-05-30T07:48:34Z</time>
      </trkpt>
      <trkpt lat="48.45414" lon="2.66789">
        <ele>133.7</ele>
        <time>2021-05-30T07:48:36Z</time>
      </trkpt>
      <trkpt lat="48.45411" lon="2.66784">
        <ele>133.9</ele>
        <time>2021-05-30T07:48:37Z</time>
      </trkpt>
      <trkpt lat="48.45407" lon="2.6678">
        <ele>134.2</ele>
        <time>2021-05-30T07:48:38Z</time>
      </trkpt>
      <trkpt lat="48.45403" lon="2.66776">
        <ele>134.5</ele>
        <time>2021-05-30T07:48:39Z</time>
      </trkpt>
      <trkpt lat="48.45398" lon="2.66772">
        <ele>134.8</ele>
        <time>2021-05-30T07:48:40Z</time>
      </trkpt>
      <trkpt lat="48.45394" lon="2.66769">
        <ele>135.1</ele>
        <time>2021-05-30T07:48:41Z</time>
      </trkpt>
      <trkpt lat="48.45389" lon="2.66767">
        <ele>135.5</ele>
        <time>2021-05-30T07:48:42Z</time>
      </trkpt>
      <trkpt lat="48.45384" lon="2.66765">
        <ele>135.8</ele>
        <time>2021-05-30T07:48:43Z</time>
      </trkpt>
      <trkpt lat="48.45379" lon="2.66763">
        <ele>136.1</ele>
        <time>2021-05-30T07:48:44Z</time>
      </trkpt>
      <trkpt lat="48.45374" lon="2.66763">
        <ele>136.4</ele>
        <time>2021-05-30T07:48:45Z</time>
      </trkpt>
      <trkpt lat="48.45369" lon="2.66764">
        <ele>136.7</ele>
        <time>2021-05-30T07:48:46Z</time>
      </trkpt>
      <trkpt lat="48.45364" lon="2.66766">
        <ele>137</ele>
        <time>2021-05-30T07:48:47Z</time>
      </trkpt>
      <trkpt lat="48.45359" lon="2.66769">
        <ele>137.2</ele>
        <time>2021-05-30T07:48:48Z</time>
      </trkpt>
      <trkpt lat="48.45355" lon="2.66772">
        <ele>137.4</ele>
        <time>2021-05-30T07:48:49Z</time>
      </trkpt>
      <trkpt lat="48.45346" lon="2.66779">
        <ele>137.9</ele>
        <time>2021-05-30T07:48:51Z</time>
      </trkpt>
      <trkpt lat="48.45342" lon="2.66782">
        <ele>138.1</ele>
        <time>2021-05-30T07:48:52Z</time>
      </trkpt>
      <trkpt lat="48.4533" lon="2.66792">
        <ele>138.5</ele>
        <time>2021-05-30T07:48:55Z</time>
      </trkpt>
      <trkpt lat="48.45297" lon="2.66834">
        <ele>138</ele>
        <time>2021-05-30T07:49:05Z</time>
      </trkpt>
      <trkpt lat="48.45292" lon="2.66845">
        <ele>137.9</ele>
        <time>2021-05-30T07:49:07Z</time>
      </trkpt>
      <trkpt lat="48.45282" lon="2.66883">
        <ele>137.7</ele>
        <time>2021-05-30T07:49:16Z</time>
      </trkpt>
      <trkpt lat="48.45279" lon="2.66889">
        <ele>137.7</ele>
        <time>2021-05-30T07:49:28Z</time>
      </trkpt>
      <trkpt lat="48.45278" lon="2.66894">
        <ele>137.8</ele>
        <time>2021-05-30T07:49:52Z</time>
      </trkpt>
      <trkpt lat="48.45277" lon="2.66897">
        <ele>137.8</ele>
        <time>2021-05-30T07:49:54Z</time>
      </trkpt>
      <trkpt lat="48.45278" lon="2.66899">
        <ele>137.7</ele>
        <time>2021-05-30T07:49:55Z</time>
      </trkpt>
      <trkpt lat="48.45278" lon="2.66902">
        <ele>137.7</ele>
        <time>2021-05-30T07:49:56Z</time>
      </trkpt>
      <trkpt lat="48.45284" lon="2.66945">
        <ele>137.6</ele>
        <time>2021-05-30T07:50:05Z</time>
      </trkpt>
      <trkpt lat="48.45294" lon="2.67001">
        <ele>137.3</ele>
        <time>2021-05-30T07:50:15Z</time>
      </trkpt>
      <trkpt lat="48.45306" lon="2.67053">
        <ele>135.4</ele>
        <time>2021-05-30T07:50:24Z</time>
      </trkpt>
      <trkpt lat="48.45309" lon="2.67093">
        <ele>134.9</ele>
        <time>2021-05-30T07:50:32Z</time>
      </trkpt>
      <trkpt lat="48.45311" lon="2.67097">
        <ele>134.9</ele>
        <time>2021-05-30T07:50:44Z</time>
      </trkpt>
      <trkpt lat="48.45307" lon="2.67113">
        <ele>135.4</ele>
        <time>2021-05-30T07:50:56Z</time>
      </trkpt>
      <trkpt lat="48.45287" lon="2.6713">
        <ele>136.9</ele>
        <time>2021-05-30T07:51:04Z</time>
      </trkpt>
      <trkpt lat="48.45253" lon="2.67158">
        <ele>138.8</ele>
        <time>2021-05-30T07:51:15Z</time>
      </trkpt>
      <trkpt lat="48.45246" lon="2.67163">
        <ele>139.2</ele>
        <time>2021-05-30T07:51:17Z</time>
      </trkpt>
      <trkpt lat="48.45242" lon="2.67165">
        <ele>139.3</ele>
        <time>2021-05-30T07:51:18Z</time>
      </trkpt>
      <trkpt lat="48.45238" lon="2.67167">
        <ele>139.4</ele>
        <time>2021-05-30T07:51:19Z</time>
      </trkpt>
      <trkpt lat="48.45235" lon="2.6717">
        <ele>139.5</ele>
        <time>2021-05-30T07:51:20Z</time>
      </trkpt>
      <trkpt lat="48.45232" lon="2.67172">
        <ele>139.5</ele>
        <time>2021-05-30T07:51:21Z</time>
      </trkpt>
      <trkpt lat="48.45228" lon="2.67176">
        <ele>139.6</ele>
        <time>2021-05-30T07:51:22Z</time>
      </trkpt>
      <trkpt lat="48.45196" lon="2.67201">
        <ele>139.9</ele>
        <time>2021-05-30T07:51:30Z</time>
      </trkpt>
      <trkpt lat="48.45169" lon="2.67216">
        <ele>140.1</ele>
        <time>2021-05-30T07:51:36Z</time>
      </trkpt>
      <trkpt lat="48.45164" lon="2.67216">
        <ele>140.4</ele>
        <time>2021-05-30T07:51:37Z</time>
      </trkpt>
      <trkpt lat="48.45159" lon="2.67215">
        <ele>140.7</ele>
        <time>2021-05-30T07:51:38Z</time>
      </trkpt>
      <trkpt lat="48.45154" lon="2.67216">
        <ele>140.9</ele>
        <time>2021-05-30T07:51:39Z</time>
      </trkpt>
      <trkpt lat="48.45149" lon="2.67218">
        <ele>141.1</ele>
        <time>2021-05-30T07:51:40Z</time>
      </trkpt>
      <trkpt lat="48.45145" lon="2.67221">
        <ele>141.3</ele>
        <time>2021-05-30T07:51:41Z</time>
      </trkpt>
      <trkpt lat="48.45141" lon="2.67225">
        <ele>141.4</ele>
        <time>2021-05-30T07:51:42Z</time>
      </trkpt>
      <trkpt lat="48.45138" lon="2.67231">
        <ele>141.3</ele>
        <time>2021-05-30T07:51:43Z</time>
      </trkpt>
      <trkpt lat="48.45135" lon="2.67237">
        <ele>141.3</ele>
        <time>2021-05-30T07:51:44Z</time>
      </trkpt>
      <trkpt lat="48.45105" lon="2.67298">
        <ele>141.2</ele>
        <time>2021-05-30T07:51:55Z</time>
      </trkpt>
      <trkpt lat="48.45101" lon="2.673">
        <ele>141.5</ele>
        <time>2021-05-30T07:51:56Z</time>
      </trkpt>
      <trkpt lat="48.45098" lon="2.67303">
        <ele>141.6</ele>
        <time>2021-05-30T07:51:57Z</time>
      </trkpt>
      <trkpt lat="48.45094" lon="2.67306">
        <ele>141.8</ele>
        <time>2021-05-30T07:51:58Z</time>
      </trkpt>
      <trkpt lat="48.4509" lon="2.67309">
        <ele>142</ele>
        <time>2021-05-30T07:51:59Z</time>
      </trkpt>
      <trkpt lat="48.45087" lon="2.67312">
        <ele>142.2</ele>
        <time>2021-05-30T07:52:00Z</time>
      </trkpt>
      <trkpt lat="48.45074" lon="2.67325">
        <ele>142.6</ele>
        <time>2021-05-30T07:52:03Z</time>
      </trkpt>
      <trkpt lat="48.45067" lon="2.67336">
        <ele>142.6</ele>
        <time>2021-05-30T07:52:05Z</time>
      </trkpt>
      <trkpt lat="48.45065" lon="2.67342">
        <ele>142.4</ele>
        <time>2021-05-30T07:52:06Z</time>
      </trkpt>
      <trkpt lat="48.45062" lon="2.67348">
        <ele>142.3</ele>
        <time>2021-05-30T07:52:07Z</time>
      </trkpt>
      <trkpt lat="48.45038" lon="2.67393">
        <ele>142.2</ele>
        <time>2021-05-30T07:52:15Z</time>
      </trkpt>
      <trkpt lat="48.45036" lon="2.67399">
        <ele>142.3</ele>
        <time>2021-05-30T07:52:16Z</time>
      </trkpt>
      <trkpt lat="48.45032" lon="2.67411">
        <ele>142.3</ele>
        <time>2021-05-30T07:52:18Z</time>
      </trkpt>
      <trkpt lat="48.45024" lon="2.67437">
        <ele>142.6</ele>
        <time>2021-05-30T07:52:22Z</time>
      </trkpt>
      <trkpt lat="48.45022" lon="2.67444">
        <ele>142.7</ele>
        <time>2021-05-30T07:52:23Z</time>
      </trkpt>
      <trkpt lat="48.45011" lon="2.67484">
        <ele>142.7</ele>
        <time>2021-05-30T07:52:29Z</time>
      </trkpt>
      <trkpt lat="48.44992" lon="2.67552">
        <ele>141.4</ele>
        <time>2021-05-30T07:52:38Z</time>
      </trkpt>
      <trkpt lat="48.44988" lon="2.67559">
        <ele>141.3</ele>
        <time>2021-05-30T07:52:39Z</time>
      </trkpt>
      <trkpt lat="48.44983" lon="2.67564">
        <ele>141.3</ele>
        <time>2021-05-30T07:52:40Z</time>
      </trkpt>
      <trkpt lat="48.44978" lon="2.67567">
        <ele>141.4</ele>
        <time>2021-05-30T07:52:41Z</time>
      </trkpt>
      <trkpt lat="48.44973" lon="2.67569">
        <ele>141.5</ele>
        <time>2021-05-30T07:52:42Z</time>
      </trkpt>
      <trkpt lat="48.44968" lon="2.67571">
        <ele>141.6</ele>
        <time>2021-05-30T07:52:43Z</time>
      </trkpt>
      <trkpt lat="48.44963" lon="2.67571">
        <ele>141.8</ele>
        <time>2021-05-30T07:52:44Z</time>
      </trkpt>
      <trkpt lat="48.44958" lon="2.67572">
        <ele>141.9</ele>
        <time>2021-05-30T07:52:45Z</time>
      </trkpt>
      <trkpt lat="48.44932" lon="2.6757">
        <ele>142.9</ele>
        <time>2021-05-30T07:52:54Z</time>
      </trkpt>
      <trkpt lat="48.4493" lon="2.67569">
        <ele>143</ele>
        <time>2021-05-30T07:52:56Z</time>
      </trkpt>
      <trkpt lat="48.44929" lon="2.67568">
        <ele>143.1</ele>
        <time>2021-05-30T07:52:57Z</time>
      </trkpt>
      <trkpt lat="48.44928" lon="2.67572">
        <ele>143</ele>
        <time>2021-05-30T07:53:05Z</time>
      </trkpt>
      <trkpt lat="48.44929" lon="2.67573">
        <ele>142.9</ele>
        <time>2021-05-30T07:53:10Z</time>
      </trkpt>
      <trkpt lat="48.44931" lon="2.67575">
        <ele>142.8</ele>
        <time>2021-05-30T07:53:12Z</time>
      </trkpt>
      <trkpt lat="48.44955" lon="2.67577">
        <ele>141.8</ele>
        <time>2021-05-30T07:53:19Z</time>
      </trkpt>
      <trkpt lat="48.4498" lon="2.67578">
        <ele>140.9</ele>
        <time>2021-05-30T07:53:26Z</time>
      </trkpt>
      <trkpt lat="48.44981" lon="2.6758">
        <ele>140.8</ele>
        <time>2021-05-30T07:53:27Z</time>
      </trkpt>
      <trkpt lat="48.44985" lon="2.67592">
        <ele>139.9</ele>
        <time>2021-05-30T07:53:35Z</time>
      </trkpt>
      <trkpt lat="48.44985" lon="2.67594">
        <ele>139.7</ele>
        <time>2021-05-30T07:53:36Z</time>
      </trkpt>
      <trkpt lat="48.44985" lon="2.67596">
        <ele>139.6</ele>
        <time>2021-05-30T07:53:37Z</time>
      </trkpt>
      <trkpt lat="48.44986" lon="2.67599">
        <ele>139.4</ele>
        <time>2021-05-30T07:53:38Z</time>
      </trkpt>
      <trkpt lat="48.44986" lon="2.67603">
        <ele>139.1</ele>
        <time>2021-05-30T07:53:39Z</time>
      </trkpt>
      <trkpt lat="48.44986" lon="2.67607">
        <ele>138.7</ele>
        <time>2021-05-30T07:53:40Z</time>
      </trkpt>
      <trkpt lat="48.44987" lon="2.67613">
        <ele>138.3</ele>
        <time>2021-05-30T07:53:41Z</time>
      </trkpt>
      <trkpt lat="48.44994" lon="2.67675">
        <ele>133.3</ele>
        <time>2021-05-30T07:53:50Z</time>
      </trkpt>
      <trkpt lat="48.45014" lon="2.67729">
        <ele>128.1</ele>
        <time>2021-05-30T07:53:57Z</time>
      </trkpt>
      <trkpt lat="48.45058" lon="2.67833">
        <ele>121.1</ele>
        <time>2021-05-30T07:54:06Z</time>
      </trkpt>
      <trkpt lat="48.45086" lon="2.67955">
        <ele>116.5</ele>
        <time>2021-05-30T07:54:16Z</time>
      </trkpt>
      <trkpt lat="48.45095" lon="2.68">
        <ele>113.6</ele>
        <time>2021-05-30T07:54:20Z</time>
      </trkpt>
      <trkpt lat="48.4514" lon="2.68141">
        <ele>105.5</ele>
        <time>2021-05-30T07:54:33Z</time>
      </trkpt>
      <trkpt lat="48.45183" lon="2.68247">
        <ele>103.1</ele>
        <time>2021-05-30T07:54:45Z</time>
      </trkpt>
      <trkpt lat="48.45195" lon="2.68281">
        <ele>101.6</ele>
        <time>2021-05-30T07:54:49Z</time>
      </trkpt>
      <trkpt lat="48.45199" lon="2.68294">
        <ele>101.2</ele>
        <time>2021-05-30T07:54:51Z</time>
      </trkpt>
      <trkpt lat="48.45198" lon="2.68299">
        <ele>101</ele>
        <time>2021-05-30T07:54:52Z</time>
      </trkpt>
      <trkpt lat="48.45196" lon="2.68302">
        <ele>100.8</ele>
        <time>2021-05-30T07:54:53Z</time>
      </trkpt>
      <trkpt lat="48.45165" lon="2.68333">
        <ele>98</ele>
        <time>2021-05-30T07:55:05Z</time>
      </trkpt>
      <trkpt lat="48.45138" lon="2.68366">
        <ele>96.5</ele>
        <time>2021-05-30T07:55:15Z</time>
      </trkpt>
      <trkpt lat="48.45125" lon="2.68383">
        <ele>95.8</ele>
        <time>2021-05-30T07:55:21Z</time>
      </trkpt>
      <trkpt lat="48.45124" lon="2.68388">
        <ele>95.7</ele>
        <time>2021-05-30T07:55:22Z</time>
      </trkpt>
      <trkpt lat="48.4512" lon="2.68393">
        <ele>95.4</ele>
        <time>2021-05-30T07:55:23Z</time>
      </trkpt>
      <trkpt lat="48.45068" lon="2.68455">
        <ele>94.3</ele>
        <time>2021-05-30T07:55:34Z</time>
      </trkpt>
      <trkpt lat="48.45052" lon="2.68475">
        <ele>95.1</ele>
        <time>2021-05-30T07:55:38Z</time>
      </trkpt>
      <trkpt lat="48.45048" lon="2.68479">
        <ele>95.2</ele>
        <time>2021-05-30T07:55:39Z</time>
      </trkpt>
      <trkpt lat="48.45004" lon="2.6853">
        <ele>97.5</ele>
        <time>2021-05-30T07:55:49Z</time>
      </trkpt>
      <trkpt lat="48.44953" lon="2.68587">
        <ele>100.3</ele>
        <time>2021-05-30T07:56:01Z</time>
      </trkpt>
      <trkpt lat="48.44949" lon="2.68591">
        <ele>100.6</ele>
        <time>2021-05-30T07:56:02Z</time>
      </trkpt>
      <trkpt lat="48.44927" lon="2.68615">
        <ele>102</ele>
        <time>2021-05-30T07:56:08Z</time>
      </trkpt>
      <trkpt lat="48.44923" lon="2.68619">
        <ele>102.2</ele>
        <time>2021-05-30T07:56:09Z</time>
      </trkpt>
      <trkpt lat="48.44881" lon="2.68668">
        <ele>102.4</ele>
        <time>2021-05-30T07:56:21Z</time>
      </trkpt>
      <trkpt lat="48.44866" lon="2.6869">
        <ele>101.5</ele>
        <time>2021-05-30T07:56:28Z</time>
      </trkpt>
      <trkpt lat="48.44865" lon="2.68694">
        <ele>101.3</ele>
        <time>2021-05-30T07:56:29Z</time>
      </trkpt>
      <trkpt lat="48.44865" lon="2.68698">
        <ele>101.1</ele>
        <time>2021-05-30T07:56:30Z</time>
      </trkpt>
      <trkpt lat="48.44855" lon="2.68758">
        <ele>98.5</ele>
        <time>2021-05-30T07:56:41Z</time>
      </trkpt>
      <trkpt lat="48.44855" lon="2.68774">
        <ele>98</ele>
        <time>2021-05-30T07:56:44Z</time>
      </trkpt>
      <trkpt lat="48.44855" lon="2.68778">
        <ele>97.8</ele>
        <time>2021-05-30T07:56:45Z</time>
      </trkpt>
      <trkpt lat="48.44856" lon="2.68786">
        <ele>97.6</ele>
        <time>2021-05-30T07:56:47Z</time>
      </trkpt>
      <trkpt lat="48.44856" lon="2.68796">
        <ele>97.2</ele>
        <time>2021-05-30T07:56:49Z</time>
      </trkpt>
      <trkpt lat="48.44854" lon="2.688">
        <ele>97.1</ele>
        <time>2021-05-30T07:56:50Z</time>
      </trkpt>
      <trkpt lat="48.44848" lon="2.68811">
        <ele>96.7</ele>
        <time>2021-05-30T07:57:01Z</time>
      </trkpt>
      <trkpt lat="48.44846" lon="2.68816">
        <ele>96.6</ele>
        <time>2021-05-30T07:57:23Z</time>
      </trkpt>
      <trkpt lat="48.44846" lon="2.6882">
        <ele>96.4</ele>
        <time>2021-05-30T07:57:38Z</time>
      </trkpt>
      <trkpt lat="48.44842" lon="2.6886">
        <ele>96.4</ele>
        <time>2021-05-30T07:57:48Z</time>
      </trkpt>
      <trkpt lat="48.44841" lon="2.68876">
        <ele>96.6</ele>
        <time>2021-05-30T07:57:50Z</time>
      </trkpt>
      <trkpt lat="48.44826" lon="2.68984">
        <ele>95.9</ele>
        <time>2021-05-30T07:58:02Z</time>
      </trkpt>
      <trkpt lat="48.44822" lon="2.69009">
        <ele>95.4</ele>
        <time>2021-05-30T07:58:05Z</time>
      </trkpt>
      <trkpt lat="48.44821" lon="2.69018">
        <ele>95.2</ele>
        <time>2021-05-30T07:58:06Z</time>
      </trkpt>
      <trkpt lat="48.44817" lon="2.6905">
        <ele>94.3</ele>
        <time>2021-05-30T07:58:10Z</time>
      </trkpt>
      <trkpt lat="48.44814" lon="2.69081">
        <ele>93.6</ele>
        <time>2021-05-30T07:58:14Z</time>
      </trkpt>
      <trkpt lat="48.44802" lon="2.69184">
        <ele>92.5</ele>
        <time>2021-05-30T07:58:27Z</time>
      </trkpt>
      <trkpt lat="48.44797" lon="2.69215">
        <ele>92.4</ele>
        <time>2021-05-30T07:58:31Z</time>
      </trkpt>
      <trkpt lat="48.44795" lon="2.69221">
        <ele>92.5</ele>
        <time>2021-05-30T07:58:32Z</time>
      </trkpt>
      <trkpt lat="48.44792" lon="2.69226">
        <ele>92.6</ele>
        <time>2021-05-30T07:58:33Z</time>
      </trkpt>
      <trkpt lat="48.44788" lon="2.69229">
        <ele>92.9</ele>
        <time>2021-05-30T07:58:34Z</time>
      </trkpt>
      <trkpt lat="48.44784" lon="2.69231">
        <ele>93.2</ele>
        <time>2021-05-30T07:58:35Z</time>
      </trkpt>
      <trkpt lat="48.44779" lon="2.69231">
        <ele>93.5</ele>
        <time>2021-05-30T07:58:36Z</time>
      </trkpt>
      <trkpt lat="48.44769" lon="2.69233">
        <ele>94.2</ele>
        <time>2021-05-30T07:58:38Z</time>
      </trkpt>
      <trkpt lat="48.4476" lon="2.69236">
        <ele>94.9</ele>
        <time>2021-05-30T07:58:40Z</time>
      </trkpt>
      <trkpt lat="48.44735" lon="2.69241">
        <ele>96.2</ele>
        <time>2021-05-30T07:58:45Z</time>
      </trkpt>
      <trkpt lat="48.44673" lon="2.6926">
        <ele>97.9</ele>
        <time>2021-05-30T07:58:59Z</time>
      </trkpt>
      <trkpt lat="48.44622" lon="2.69278">
        <ele>97.1</ele>
        <time>2021-05-30T07:59:10Z</time>
      </trkpt>
      <trkpt lat="48.44551" lon="2.69304">
        <ele>96.5</ele>
        <time>2021-05-30T07:59:24Z</time>
      </trkpt>
      <trkpt lat="48.44518" lon="2.69313">
        <ele>97.2</ele>
        <time>2021-05-30T07:59:31Z</time>
      </trkpt>
      <trkpt lat="48.4445" lon="2.69336">
        <ele>98.6</ele>
        <time>2021-05-30T07:59:44Z</time>
      </trkpt>
      <trkpt lat="48.44429" lon="2.69343">
        <ele>99</ele>
        <time>2021-05-30T07:59:48Z</time>
      </trkpt>
      <trkpt lat="48.44423" lon="2.69344">
        <ele>99</ele>
        <time>2021-05-30T07:59:49Z</time>
      </trkpt>
      <trkpt lat="48.44359" lon="2.69366">
        <ele>95.9</ele>
        <time>2021-05-30T08:00:01Z</time>
      </trkpt>
      <trkpt lat="48.44294" lon="2.69389">
        <ele>93.3</ele>
        <time>2021-05-30T08:00:15Z</time>
      </trkpt>
      <trkpt lat="48.44243" lon="2.69406">
        <ele>92.3</ele>
        <time>2021-05-30T08:00:27Z</time>
      </trkpt>
      <trkpt lat="48.44237" lon="2.69409">
        <ele>92.3</ele>
        <time>2021-05-30T08:00:38Z</time>
      </trkpt>
      <trkpt lat="48.44236" lon="2.6941">
        <ele>92.3</ele>
        <time>2021-05-30T08:00:58Z</time>
      </trkpt>
      <trkpt lat="48.44236" lon="2.69411">
        <ele>92.4</ele>
        <time>2021-05-30T08:00:59Z</time>
      </trkpt>
      <trkpt lat="48.44237" lon="2.69412">
        <ele>92.5</ele>
        <time>2021-05-30T08:01:00Z</time>
      </trkpt>
      <trkpt lat="48.44238" lon="2.69414">
        <ele>92.6</ele>
        <time>2021-05-30T08:01:01Z</time>
      </trkpt>
      <trkpt lat="48.44239" lon="2.69417">
        <ele>92.7</ele>
        <time>2021-05-30T08:01:02Z</time>
      </trkpt>
      <trkpt lat="48.44255" lon="2.69443">
        <ele>94.3</ele>
        <time>2021-05-30T08:01:09Z</time>
      </trkpt>
      <trkpt lat="48.44289" lon="2.69502">
        <ele>95.1</ele>
        <time>2021-05-30T08:01:21Z</time>
      </trkpt>
      <trkpt lat="48.4432" lon="2.69553">
        <ele>93.7</ele>
        <time>2021-05-30T08:01:31Z</time>
      </trkpt>
      <trkpt lat="48.44335" lon="2.6958">
        <ele>93</ele>
        <time>2021-05-30T08:01:36Z</time>
      </trkpt>
      <trkpt lat="48.44349" lon="2.69613">
        <ele>94.2</ele>
        <time>2021-05-30T08:01:42Z</time>
      </trkpt>
      <trkpt lat="48.44365" lon="2.69641">
        <ele>95</ele>
        <time>2021-05-30T08:01:47Z</time>
      </trkpt>
      <trkpt lat="48.4437" lon="2.69647">
        <ele>95.2</ele>
        <time>2021-05-30T08:01:48Z</time>
      </trkpt>
      <trkpt lat="48.44374" lon="2.69654">
        <ele>95.3</ele>
        <time>2021-05-30T08:01:49Z</time>
      </trkpt>
      <trkpt lat="48.44388" lon="2.69677">
        <ele>95.4</ele>
        <time>2021-05-30T08:01:53Z</time>
      </trkpt>
      <trkpt lat="48.44391" lon="2.69682">
        <ele>95.4</ele>
        <time>2021-05-30T08:01:54Z</time>
      </trkpt>
      <trkpt lat="48.44395" lon="2.69688">
        <ele>95.3</ele>
        <time>2021-05-30T08:01:55Z</time>
      </trkpt>
      <trkpt lat="48.44398" lon="2.69694">
        <ele>95.3</ele>
        <time>2021-05-30T08:01:56Z</time>
      </trkpt>
      <trkpt lat="48.44401" lon="2.69699">
        <ele>95.1</ele>
        <time>2021-05-30T08:01:57Z</time>
      </trkpt>
      <trkpt lat="48.44405" lon="2.69705">
        <ele>95</ele>
        <time>2021-05-30T08:01:58Z</time>
      </trkpt>
      <trkpt lat="48.44409" lon="2.69711">
        <ele>94.8</ele>
        <time>2021-05-30T08:01:59Z</time>
      </trkpt>
      <trkpt lat="48.44413" lon="2.69717">
        <ele>94.6</ele>
        <time>2021-05-30T08:02:00Z</time>
      </trkpt>
      <trkpt lat="48.44421" lon="2.69729">
        <ele>94.4</ele>
        <time>2021-05-30T08:02:02Z</time>
      </trkpt>
      <trkpt lat="48.44424" lon="2.69734">
        <ele>94.4</ele>
        <time>2021-05-30T08:02:03Z</time>
      </trkpt>
      <trkpt lat="48.44428" lon="2.69739">
        <ele>94.4</ele>
        <time>2021-05-30T08:02:04Z</time>
      </trkpt>
      <trkpt lat="48.44431" lon="2.69745">
        <ele>94.4</ele>
        <time>2021-05-30T08:02:05Z</time>
      </trkpt>
      <trkpt lat="48.44435" lon="2.6975">
        <ele>94.4</ele>
        <time>2021-05-30T08:02:06Z</time>
      </trkpt>
      <trkpt lat="48.44442" lon="2.69761">
        <ele>94.7</ele>
        <time>2021-05-30T08:02:08Z</time>
      </trkpt>
      <trkpt lat="48.44449" lon="2.69771">
        <ele>94.8</ele>
        <time>2021-05-30T08:02:10Z</time>
      </trkpt>
      <trkpt lat="48.44452" lon="2.69777">
        <ele>94.9</ele>
        <time>2021-05-30T08:02:11Z</time>
      </trkpt>
      <trkpt lat="48.44454" lon="2.69782">
        <ele>94.9</ele>
        <time>2021-05-30T08:02:12Z</time>
      </trkpt>
      <trkpt lat="48.44454" lon="2.69787">
        <ele>94.9</ele>
        <time>2021-05-30T08:02:15Z</time>
      </trkpt>
      <trkpt lat="48.44449" lon="2.69786">
        <ele>94.9</ele>
        <time>2021-05-30T08:02:16Z</time>
      </trkpt>
      <trkpt lat="48.44442" lon="2.69785">
        <ele>94.8</ele>
        <time>2021-05-30T08:02:17Z</time>
      </trkpt>
      <trkpt lat="48.44349" lon="2.69789">
        <ele>97.8</ele>
        <time>2021-05-30T08:02:35Z</time>
      </trkpt>
      <trkpt lat="48.4431" lon="2.69786">
        <ele>98.8</ele>
        <time>2021-05-30T08:02:43Z</time>
      </trkpt>
      <trkpt lat="48.44306" lon="2.69786">
        <ele>98.9</ele>
        <time>2021-05-30T08:02:44Z</time>
      </trkpt>
      <trkpt lat="48.44296" lon="2.69786">
        <ele>98.9</ele>
        <time>2021-05-30T08:02:46Z</time>
      </trkpt>
      <trkpt lat="48.44291" lon="2.69786">
        <ele>98.9</ele>
        <time>2021-05-30T08:02:47Z</time>
      </trkpt>
      <trkpt lat="48.44229" lon="2.69787">
        <ele>98</ele>
        <time>2021-05-30T08:03:00Z</time>
      </trkpt>
      <trkpt lat="48.44225" lon="2.69787">
        <ele>97.8</ele>
        <time>2021-05-30T08:03:01Z</time>
      </trkpt>
      <trkpt lat="48.44192" lon="2.69788">
        <ele>95.9</ele>
        <time>2021-05-30T08:03:08Z</time>
      </trkpt>
      <trkpt lat="48.44173" lon="2.69788">
        <ele>94.9</ele>
        <time>2021-05-30T08:03:12Z</time>
      </trkpt>
      <trkpt lat="48.44163" lon="2.6979">
        <ele>94.5</ele>
        <time>2021-05-30T08:03:14Z</time>
      </trkpt>
      <trkpt lat="48.44148" lon="2.6979">
        <ele>94.3</ele>
        <time>2021-05-30T08:03:17Z</time>
      </trkpt>
      <trkpt lat="48.44138" lon="2.69792">
        <ele>94.2</ele>
        <time>2021-05-30T08:03:19Z</time>
      </trkpt>
      <trkpt lat="48.44134" lon="2.69791">
        <ele>94.1</ele>
        <time>2021-05-30T08:03:20Z</time>
      </trkpt>
      <trkpt lat="48.44129" lon="2.69791">
        <ele>94</ele>
        <time>2021-05-30T08:03:21Z</time>
      </trkpt>
      <trkpt lat="48.44086" lon="2.69791">
        <ele>93.5</ele>
        <time>2021-05-30T08:03:31Z</time>
      </trkpt>
      <trkpt lat="48.44081" lon="2.69792">
        <ele>93.7</ele>
        <time>2021-05-30T08:03:32Z</time>
      </trkpt>
      <trkpt lat="48.44076" lon="2.69793">
        <ele>94</ele>
        <time>2021-05-30T08:03:33Z</time>
      </trkpt>
      <trkpt lat="48.44049" lon="2.6979">
        <ele>95.5</ele>
        <time>2021-05-30T08:03:41Z</time>
      </trkpt>
      <trkpt lat="48.44026" lon="2.69785">
        <ele>96.3</ele>
        <time>2021-05-30T08:03:47Z</time>
      </trkpt>
      <trkpt lat="48.44022" lon="2.69785">
        <ele>96.5</ele>
        <time>2021-05-30T08:03:48Z</time>
      </trkpt>
      <trkpt lat="48.44018" lon="2.69784">
        <ele>96.6</ele>
        <time>2021-05-30T08:03:49Z</time>
      </trkpt>
      <trkpt lat="48.44014" lon="2.69783">
        <ele>96.8</ele>
        <time>2021-05-30T08:03:50Z</time>
      </trkpt>
      <trkpt lat="48.4401" lon="2.69782">
        <ele>96.9</ele>
        <time>2021-05-30T08:03:51Z</time>
      </trkpt>
      <trkpt lat="48.43978" lon="2.69776">
        <ele>99.4</ele>
        <time>2021-05-30T08:04:00Z</time>
      </trkpt>
      <trkpt lat="48.4396" lon="2.69774">
        <ele>101.3</ele>
        <time>2021-05-30T08:04:06Z</time>
      </trkpt>
      <trkpt lat="48.43958" lon="2.69775">
        <ele>101.6</ele>
        <time>2021-05-30T08:04:07Z</time>
      </trkpt>
      <trkpt lat="48.43956" lon="2.69775">
        <ele>101.9</ele>
        <time>2021-05-30T08:04:08Z</time>
      </trkpt>
      <trkpt lat="48.43953" lon="2.69775">
        <ele>102.2</ele>
        <time>2021-05-30T08:04:09Z</time>
      </trkpt>
      <trkpt lat="48.43951" lon="2.69774">
        <ele>102.4</ele>
        <time>2021-05-30T08:04:10Z</time>
      </trkpt>
      <trkpt lat="48.43949" lon="2.69773">
        <ele>102.6</ele>
        <time>2021-05-30T08:04:11Z</time>
      </trkpt>
      <trkpt lat="48.43947" lon="2.69774">
        <ele>102.8</ele>
        <time>2021-05-30T08:04:12Z</time>
      </trkpt>
      <trkpt lat="48.43945" lon="2.69773">
        <ele>103.1</ele>
        <time>2021-05-30T08:04:13Z</time>
      </trkpt>
      <trkpt lat="48.43942" lon="2.69775">
        <ele>103.5</ele>
        <time>2021-05-30T08:04:14Z</time>
      </trkpt>
      <trkpt lat="48.43939" lon="2.69775">
        <ele>103.9</ele>
        <time>2021-05-30T08:04:15Z</time>
      </trkpt>
      <trkpt lat="48.43934" lon="2.69776">
        <ele>104.5</ele>
        <time>2021-05-30T08:04:17Z</time>
      </trkpt>
      <trkpt lat="48.43932" lon="2.69775">
        <ele>104.7</ele>
        <time>2021-05-30T08:04:18Z</time>
      </trkpt>
      <trkpt lat="48.4393" lon="2.69776">
        <ele>105</ele>
        <time>2021-05-30T08:04:19Z</time>
      </trkpt>
      <trkpt lat="48.43915" lon="2.69771">
        <ele>106.5</ele>
        <time>2021-05-30T08:04:27Z</time>
      </trkpt>
      <trkpt lat="48.43913" lon="2.6977">
        <ele>106.7</ele>
        <time>2021-05-30T08:04:28Z</time>
      </trkpt>
      <trkpt lat="48.43912" lon="2.6977">
        <ele>106.8</ele>
        <time>2021-05-30T08:04:29Z</time>
      </trkpt>
      <trkpt lat="48.4391" lon="2.69769">
        <ele>107</ele>
        <time>2021-05-30T08:04:30Z</time>
      </trkpt>
      <trkpt lat="48.43909" lon="2.69769">
        <ele>107.2</ele>
        <time>2021-05-30T08:04:31Z</time>
      </trkpt>
      <trkpt lat="48.43897" lon="2.69767">
        <ele>108.5</ele>
        <time>2021-05-30T08:04:39Z</time>
      </trkpt>
      <trkpt lat="48.43896" lon="2.69766">
        <ele>108.6</ele>
        <time>2021-05-30T08:04:40Z</time>
      </trkpt>
      <trkpt lat="48.43881" lon="2.69761">
        <ele>110.4</ele>
        <time>2021-05-30T08:04:52Z</time>
      </trkpt>
      <trkpt lat="48.43877" lon="2.69763">
        <ele>110.9</ele>
        <time>2021-05-30T08:04:57Z</time>
      </trkpt>
      <trkpt lat="48.43876" lon="2.69764">
        <ele>111.1</ele>
        <time>2021-05-30T08:04:58Z</time>
      </trkpt>
      <trkpt lat="48.43875" lon="2.69765">
        <ele>111.3</ele>
        <time>2021-05-30T08:04:59Z</time>
      </trkpt>
      <trkpt lat="48.43874" lon="2.69766">
        <ele>111.5</ele>
        <time>2021-05-30T08:05:00Z</time>
      </trkpt>
      <trkpt lat="48.43872" lon="2.69767">
        <ele>111.8</ele>
        <time>2021-05-30T08:05:01Z</time>
      </trkpt>
      <trkpt lat="48.43871" lon="2.69768">
        <ele>112</ele>
        <time>2021-05-30T08:05:02Z</time>
      </trkpt>
      <trkpt lat="48.43857" lon="2.69774">
        <ele>114.2</ele>
        <time>2021-05-30T08:05:13Z</time>
      </trkpt>
      <trkpt lat="48.43845" lon="2.6979">
        <ele>116.5</ele>
        <time>2021-05-30T08:05:24Z</time>
      </trkpt>
      <trkpt lat="48.43843" lon="2.69792">
        <ele>116.8</ele>
        <time>2021-05-30T08:05:25Z</time>
      </trkpt>
      <trkpt lat="48.43842" lon="2.69793">
        <ele>117</ele>
        <time>2021-05-30T08:05:26Z</time>
      </trkpt>
      <trkpt lat="48.43841" lon="2.69794">
        <ele>117.2</ele>
        <time>2021-05-30T08:05:27Z</time>
      </trkpt>
      <trkpt lat="48.43834" lon="2.69804">
        <ele>118.5</ele>
        <time>2021-05-30T08:05:42Z</time>
      </trkpt>
      <trkpt lat="48.43835" lon="2.69805">
        <ele>118.4</ele>
        <time>2021-05-30T08:06:04Z</time>
      </trkpt>
      <trkpt lat="48.43833" lon="2.69804">
        <ele>118.6</ele>
        <time>2021-05-30T08:06:17Z</time>
      </trkpt>
      <trkpt lat="48.43832" lon="2.69808">
        <ele>118.7</ele>
        <time>2021-05-30T08:06:24Z</time>
      </trkpt>
      <trkpt lat="48.43831" lon="2.69809">
        <ele>118.7</ele>
        <time>2021-05-30T08:06:25Z</time>
      </trkpt>
      <trkpt lat="48.43829" lon="2.69812">
        <ele>118.7</ele>
        <time>2021-05-30T08:06:26Z</time>
      </trkpt>
      <trkpt lat="48.43827" lon="2.69816">
        <ele>118.8</ele>
        <time>2021-05-30T08:06:27Z</time>
      </trkpt>
      <trkpt lat="48.43824" lon="2.69819">
        <ele>118.8</ele>
        <time>2021-05-30T08:06:28Z</time>
      </trkpt>
      <trkpt lat="48.43821" lon="2.69821">
        <ele>118.7</ele>
        <time>2021-05-30T08:06:29Z</time>
      </trkpt>
      <trkpt lat="48.43817" lon="2.69821">
        <ele>118.5</ele>
        <time>2021-05-30T08:06:30Z</time>
      </trkpt>
      <trkpt lat="48.43814" lon="2.6982">
        <ele>118.2</ele>
        <time>2021-05-30T08:06:31Z</time>
      </trkpt>
      <trkpt lat="48.4381" lon="2.6982">
        <ele>118</ele>
        <time>2021-05-30T08:06:32Z</time>
      </trkpt>
      <trkpt lat="48.43806" lon="2.69819">
        <ele>117.7</ele>
        <time>2021-05-30T08:06:33Z</time>
      </trkpt>
      <trkpt lat="48.43801" lon="2.69817">
        <ele>117.3</ele>
        <time>2021-05-30T08:06:34Z</time>
      </trkpt>
      <trkpt lat="48.43797" lon="2.69815">
        <ele>116.9</ele>
        <time>2021-05-30T08:06:35Z</time>
      </trkpt>
      <trkpt lat="48.43793" lon="2.69811">
        <ele>116.5</ele>
        <time>2021-05-30T08:06:36Z</time>
      </trkpt>
      <trkpt lat="48.43788" lon="2.69807">
        <ele>116</ele>
        <time>2021-05-30T08:06:37Z</time>
      </trkpt>
      <trkpt lat="48.43777" lon="2.69795">
        <ele>114.8</ele>
        <time>2021-05-30T08:06:40Z</time>
      </trkpt>
      <trkpt lat="48.4376" lon="2.69779">
        <ele>113</ele>
        <time>2021-05-30T08:06:44Z</time>
      </trkpt>
      <trkpt lat="48.43756" lon="2.69776">
        <ele>112.6</ele>
        <time>2021-05-30T08:06:45Z</time>
      </trkpt>
      <trkpt lat="48.43752" lon="2.69772">
        <ele>112.1</ele>
        <time>2021-05-30T08:06:46Z</time>
      </trkpt>
      <trkpt lat="48.43747" lon="2.69768">
        <ele>111.6</ele>
        <time>2021-05-30T08:06:47Z</time>
      </trkpt>
      <trkpt lat="48.43742" lon="2.69765">
        <ele>110.9</ele>
        <time>2021-05-30T08:06:48Z</time>
      </trkpt>
      <trkpt lat="48.43737" lon="2.69763">
        <ele>110.2</ele>
        <time>2021-05-30T08:06:49Z</time>
      </trkpt>
      <trkpt lat="48.43731" lon="2.6976">
        <ele>109.5</ele>
        <time>2021-05-30T08:06:50Z</time>
      </trkpt>
      <trkpt lat="48.43678" lon="2.69739">
        <ele>103.2</ele>
        <time>2021-05-30T08:06:59Z</time>
      </trkpt>
      <trkpt lat="48.43665" lon="2.69736">
        <ele>102</ele>
        <time>2021-05-30T08:07:01Z</time>
      </trkpt>
      <trkpt lat="48.4366" lon="2.69734">
        <ele>101.7</ele>
        <time>2021-05-30T08:07:02Z</time>
      </trkpt>
      <trkpt lat="48.43643" lon="2.69731">
        <ele>101</ele>
        <time>2021-05-30T08:07:06Z</time>
      </trkpt>
      <trkpt lat="48.43641" lon="2.69734">
        <ele>101</ele>
        <time>2021-05-30T08:07:07Z</time>
      </trkpt>
      <trkpt lat="48.4364" lon="2.69737">
        <ele>101</ele>
        <time>2021-05-30T08:07:08Z</time>
      </trkpt>
      <trkpt lat="48.43639" lon="2.69741">
        <ele>101</ele>
        <time>2021-05-30T08:07:09Z</time>
      </trkpt>
      <trkpt lat="48.43638" lon="2.69746">
        <ele>100.9</ele>
        <time>2021-05-30T08:07:10Z</time>
      </trkpt>
      <trkpt lat="48.43637" lon="2.6975">
        <ele>100.9</ele>
        <time>2021-05-30T08:07:11Z</time>
      </trkpt>
      <trkpt lat="48.43636" lon="2.69753">
        <ele>101.1</ele>
        <time>2021-05-30T08:07:12Z</time>
      </trkpt>
      <trkpt lat="48.43635" lon="2.69757">
        <ele>101.3</ele>
        <time>2021-05-30T08:07:13Z</time>
      </trkpt>
      <trkpt lat="48.43628" lon="2.69806">
        <ele>104</ele>
        <time>2021-05-30T08:07:23Z</time>
      </trkpt>
      <trkpt lat="48.43627" lon="2.69814">
        <ele>104.5</ele>
        <time>2021-05-30T08:07:24Z</time>
      </trkpt>
      <trkpt lat="48.43625" lon="2.69829">
        <ele>105.2</ele>
        <time>2021-05-30T08:07:26Z</time>
      </trkpt>
      <trkpt lat="48.43624" lon="2.69835">
        <ele>105.5</ele>
        <time>2021-05-30T08:07:27Z</time>
      </trkpt>
      <trkpt lat="48.43623" lon="2.69842">
        <ele>105.7</ele>
        <time>2021-05-30T08:07:28Z</time>
      </trkpt>
      <trkpt lat="48.43612" lon="2.69895">
        <ele>107.2</ele>
        <time>2021-05-30T08:07:37Z</time>
      </trkpt>
      <trkpt lat="48.43602" lon="2.69946">
        <ele>108.7</ele>
        <time>2021-05-30T08:07:46Z</time>
      </trkpt>
      <trkpt lat="48.43589" lon="2.70006">
        <ele>110.6</ele>
        <time>2021-05-30T08:07:57Z</time>
      </trkpt>
      <trkpt lat="48.43575" lon="2.70071">
        <ele>113.6</ele>
        <time>2021-05-30T08:08:09Z</time>
      </trkpt>
      <trkpt lat="48.43571" lon="2.70108">
        <ele>115.2</ele>
        <time>2021-05-30T08:08:17Z</time>
      </trkpt>
      <trkpt lat="48.43571" lon="2.70111">
        <ele>115.3</ele>
        <time>2021-05-30T08:08:18Z</time>
      </trkpt>
      <trkpt lat="48.43571" lon="2.70116">
        <ele>115.5</ele>
        <time>2021-05-30T08:08:19Z</time>
      </trkpt>
      <trkpt lat="48.43567" lon="2.70168">
        <ele>117.5</ele>
        <time>2021-05-30T08:08:29Z</time>
      </trkpt>
      <trkpt lat="48.43561" lon="2.70229">
        <ele>121.3</ele>
        <time>2021-05-30T08:08:42Z</time>
      </trkpt>
      <trkpt lat="48.43562" lon="2.70265">
        <ele>123.3</ele>
        <time>2021-05-30T08:08:50Z</time>
      </trkpt>
      <trkpt lat="48.43562" lon="2.70269">
        <ele>123.6</ele>
        <time>2021-05-30T08:08:51Z</time>
      </trkpt>
      <trkpt lat="48.43561" lon="2.70318">
        <ele>126.2</ele>
        <time>2021-05-30T08:09:03Z</time>
      </trkpt>
      <trkpt lat="48.43561" lon="2.70358">
        <ele>128.4</ele>
        <time>2021-05-30T08:09:14Z</time>
      </trkpt>
      <trkpt lat="48.43561" lon="2.70409">
        <ele>131.1</ele>
        <time>2021-05-30T08:09:27Z</time>
      </trkpt>
      <trkpt lat="48.4356" lon="2.70422">
        <ele>131.8</ele>
        <time>2021-05-30T08:09:31Z</time>
      </trkpt>
      <trkpt lat="48.4356" lon="2.70424">
        <ele>131.9</ele>
        <time>2021-05-30T08:09:32Z</time>
      </trkpt>
      <trkpt lat="48.43559" lon="2.70457">
        <ele>133.6</ele>
        <time>2021-05-30T08:09:43Z</time>
      </trkpt>
      <trkpt lat="48.4356" lon="2.70494">
        <ele>135.4</ele>
        <time>2021-05-30T08:09:54Z</time>
      </trkpt>
      <trkpt lat="48.43561" lon="2.705">
        <ele>135.7</ele>
        <time>2021-05-30T08:09:56Z</time>
      </trkpt>
      <trkpt lat="48.43556" lon="2.70537">
        <ele>136.4</ele>
        <time>2021-05-30T08:10:09Z</time>
      </trkpt>
      <trkpt lat="48.43554" lon="2.70547">
        <ele>136.6</ele>
        <time>2021-05-30T08:10:13Z</time>
      </trkpt>
      <trkpt lat="48.43554" lon="2.7055">
        <ele>136.6</ele>
        <time>2021-05-30T08:10:14Z</time>
      </trkpt>
      <trkpt lat="48.43553" lon="2.70553">
        <ele>136.6</ele>
        <time>2021-05-30T08:10:15Z</time>
      </trkpt>
      <trkpt lat="48.43553" lon="2.70556">
        <ele>136.7</ele>
        <time>2021-05-30T08:10:16Z</time>
      </trkpt>
      <trkpt lat="48.43555" lon="2.7056">
        <ele>136.8</ele>
        <time>2021-05-30T08:10:18Z</time>
      </trkpt>
      <trkpt lat="48.43557" lon="2.70559">
        <ele>136.9</ele>
        <time>2021-05-30T08:10:19Z</time>
      </trkpt>
      <trkpt lat="48.43558" lon="2.70558">
        <ele>136.9</ele>
        <time>2021-05-30T08:10:20Z</time>
      </trkpt>
      <trkpt lat="48.4356" lon="2.70556">
        <ele>137</ele>
        <time>2021-05-30T08:10:21Z</time>
      </trkpt>
      <trkpt lat="48.43562" lon="2.70554">
        <ele>137</ele>
        <time>2021-05-30T08:10:22Z</time>
      </trkpt>
      <trkpt lat="48.43563" lon="2.70553">
        <ele>137</ele>
        <time>2021-05-30T08:10:23Z</time>
      </trkpt>
      <trkpt lat="48.43564" lon="2.70551">
        <ele>137.1</ele>
        <time>2021-05-30T08:10:24Z</time>
      </trkpt>
      <trkpt lat="48.43565" lon="2.7055">
        <ele>137.1</ele>
        <time>2021-05-30T08:10:25Z</time>
      </trkpt>
      <trkpt lat="48.43566" lon="2.70549">
        <ele>137.1</ele>
        <time>2021-05-30T08:10:26Z</time>
      </trkpt>
      <trkpt lat="48.43567" lon="2.70547">
        <ele>137</ele>
        <time>2021-05-30T08:10:27Z</time>
      </trkpt>
      <trkpt lat="48.43568" lon="2.70545">
        <ele>137</ele>
        <time>2021-05-30T08:10:28Z</time>
      </trkpt>
      <trkpt lat="48.43569" lon="2.70543">
        <ele>137</ele>
        <time>2021-05-30T08:10:29Z</time>
      </trkpt>
      <trkpt lat="48.4357" lon="2.70541">
        <ele>137</ele>
        <time>2021-05-30T08:10:30Z</time>
      </trkpt>
      <trkpt lat="48.43571" lon="2.70539">
        <ele>137</ele>
        <time>2021-05-30T08:10:31Z</time>
      </trkpt>
      <trkpt lat="48.43572" lon="2.70537">
        <ele>137</ele>
        <time>2021-05-30T08:10:32Z</time>
      </trkpt>
      <trkpt lat="48.43573" lon="2.70536">
        <ele>137</ele>
        <time>2021-05-30T08:10:33Z</time>
      </trkpt>
      <trkpt lat="48.43587" lon="2.70511">
        <ele>136.7</ele>
        <time>2021-05-30T08:10:45Z</time>
      </trkpt>
      <trkpt lat="48.43599" lon="2.70485">
        <ele>136.5</ele>
        <time>2021-05-30T08:10:56Z</time>
      </trkpt>
      <trkpt lat="48.43604" lon="2.7045">
        <ele>135</ele>
        <time>2021-05-30T08:11:08Z</time>
      </trkpt>
      <trkpt lat="48.43625" lon="2.70411">
        <ele>135.3</ele>
        <time>2021-05-30T08:11:21Z</time>
      </trkpt>
      <trkpt lat="48.43643" lon="2.70394">
        <ele>137</ele>
        <time>2021-05-30T08:11:32Z</time>
      </trkpt>
      <trkpt lat="48.43658" lon="2.70377">
        <ele>138.9</ele>
        <time>2021-05-30T08:11:40Z</time>
      </trkpt>
      <trkpt lat="48.43666" lon="2.70327">
        <ele>139.5</ele>
        <time>2021-05-30T08:11:51Z</time>
      </trkpt>
      <trkpt lat="48.43675" lon="2.70276">
        <ele>136.9</ele>
        <time>2021-05-30T08:12:01Z</time>
      </trkpt>
      <trkpt lat="48.43678" lon="2.70271">
        <ele>136.8</ele>
        <time>2021-05-30T08:12:03Z</time>
      </trkpt>
      <trkpt lat="48.4368" lon="2.7027">
        <ele>136.8</ele>
        <time>2021-05-30T08:12:04Z</time>
      </trkpt>
      <trkpt lat="48.4368" lon="2.70268">
        <ele>136.7</ele>
        <time>2021-05-30T08:12:05Z</time>
      </trkpt>
      <trkpt lat="48.43678" lon="2.70266">
        <ele>136.6</ele>
        <time>2021-05-30T08:12:06Z</time>
      </trkpt>
      <trkpt lat="48.43677" lon="2.70266">
        <ele>136.5</ele>
        <time>2021-05-30T08:12:07Z</time>
      </trkpt>
      <trkpt lat="48.43675" lon="2.70267">
        <ele>136.4</ele>
        <time>2021-05-30T08:12:08Z</time>
      </trkpt>
      <trkpt lat="48.43674" lon="2.70269">
        <ele>136.5</ele>
        <time>2021-05-30T08:12:09Z</time>
      </trkpt>
      <trkpt lat="48.43674" lon="2.7027">
        <ele>136.5</ele>
        <time>2021-05-30T08:12:21Z</time>
      </trkpt>
      <trkpt lat="48.43675" lon="2.7027">
        <ele>136.6</ele>
        <time>2021-05-30T08:12:42Z</time>
      </trkpt>
      <trkpt lat="48.43676" lon="2.70269">
        <ele>136.6</ele>
        <time>2021-05-30T08:13:07Z</time>
      </trkpt>
      <trkpt lat="48.43676" lon="2.70268">
        <ele>136.6</ele>
        <time>2021-05-30T08:13:25Z</time>
      </trkpt>
      <trkpt lat="48.43678" lon="2.70266">
        <ele>136.6</ele>
        <time>2021-05-30T08:13:31Z</time>
      </trkpt>
      <trkpt lat="48.4368" lon="2.70265">
        <ele>136.6</ele>
        <time>2021-05-30T08:13:32Z</time>
      </trkpt>
      <trkpt lat="48.43682" lon="2.70264">
        <ele>136.7</ele>
        <time>2021-05-30T08:13:33Z</time>
      </trkpt>
      <trkpt lat="48.43684" lon="2.70264">
        <ele>136.8</ele>
        <time>2021-05-30T08:13:34Z</time>
      </trkpt>
      <trkpt lat="48.43687" lon="2.70264">
        <ele>137</ele>
        <time>2021-05-30T08:13:35Z</time>
      </trkpt>
      <trkpt lat="48.4369" lon="2.70263">
        <ele>137.1</ele>
        <time>2021-05-30T08:13:36Z</time>
      </trkpt>
      <trkpt lat="48.43693" lon="2.70263">
        <ele>137.3</ele>
        <time>2021-05-30T08:13:37Z</time>
      </trkpt>
      <trkpt lat="48.43695" lon="2.70264">
        <ele>137.4</ele>
        <time>2021-05-30T08:13:38Z</time>
      </trkpt>
      <trkpt lat="48.43697" lon="2.70267">
        <ele>137.6</ele>
        <time>2021-05-30T08:13:39Z</time>
      </trkpt>
      <trkpt lat="48.43702" lon="2.70274">
        <ele>138</ele>
        <time>2021-05-30T08:13:42Z</time>
      </trkpt>
      <trkpt lat="48.43702" lon="2.70278">
        <ele>138.1</ele>
        <time>2021-05-30T08:13:43Z</time>
      </trkpt>
      <trkpt lat="48.43703" lon="2.70282">
        <ele>138.2</ele>
        <time>2021-05-30T08:13:44Z</time>
      </trkpt>
      <trkpt lat="48.43702" lon="2.70287">
        <ele>138.3</ele>
        <time>2021-05-30T08:13:45Z</time>
      </trkpt>
      <trkpt lat="48.43701" lon="2.70291">
        <ele>138.3</ele>
        <time>2021-05-30T08:13:46Z</time>
      </trkpt>
      <trkpt lat="48.43699" lon="2.70295">
        <ele>138.4</ele>
        <time>2021-05-30T08:13:47Z</time>
      </trkpt>
      <trkpt lat="48.43699" lon="2.70301">
        <ele>138.5</ele>
        <time>2021-05-30T08:13:48Z</time>
      </trkpt>
      <trkpt lat="48.43699" lon="2.70304">
        <ele>138.5</ele>
        <time>2021-05-30T08:13:49Z</time>
      </trkpt>
      <trkpt lat="48.43698" lon="2.70307">
        <ele>138.6</ele>
        <time>2021-05-30T08:13:50Z</time>
      </trkpt>
      <trkpt lat="48.43698" lon="2.7031">
        <ele>138.7</ele>
        <time>2021-05-30T08:13:51Z</time>
      </trkpt>
      <trkpt lat="48.43699" lon="2.70314">
        <ele>138.8</ele>
        <time>2021-05-30T08:13:52Z</time>
      </trkpt>
      <trkpt lat="48.43698" lon="2.70317">
        <ele>138.8</ele>
        <time>2021-05-30T08:13:53Z</time>
      </trkpt>
      <trkpt lat="48.43698" lon="2.7032">
        <ele>138.9</ele>
        <time>2021-05-30T08:13:54Z</time>
      </trkpt>
      <trkpt lat="48.43697" lon="2.70323">
        <ele>139</ele>
        <time>2021-05-30T08:13:55Z</time>
      </trkpt>
      <trkpt lat="48.43697" lon="2.70328">
        <ele>139.1</ele>
        <time>2021-05-30T08:13:56Z</time>
      </trkpt>
      <trkpt lat="48.43696" lon="2.70332">
        <ele>139.3</ele>
        <time>2021-05-30T08:13:57Z</time>
      </trkpt>
      <trkpt lat="48.43696" lon="2.70336">
        <ele>139.2</ele>
        <time>2021-05-30T08:13:58Z</time>
      </trkpt>
      <trkpt lat="48.43696" lon="2.7034">
        <ele>139.2</ele>
        <time>2021-05-30T08:13:59Z</time>
      </trkpt>
      <trkpt lat="48.43691" lon="2.70358">
        <ele>139.1</ele>
        <time>2021-05-30T08:14:05Z</time>
      </trkpt>
      <trkpt lat="48.4369" lon="2.70362">
        <ele>139</ele>
        <time>2021-05-30T08:14:06Z</time>
      </trkpt>
      <trkpt lat="48.43689" lon="2.70368">
        <ele>139</ele>
        <time>2021-05-30T08:14:07Z</time>
      </trkpt>
      <trkpt lat="48.43688" lon="2.70372">
        <ele>139</ele>
        <time>2021-05-30T08:14:08Z</time>
      </trkpt>
      <trkpt lat="48.43687" lon="2.70376">
        <ele>139</ele>
        <time>2021-05-30T08:14:09Z</time>
      </trkpt>
      <trkpt lat="48.43694" lon="2.70428">
        <ele>138.5</ele>
        <time>2021-05-30T08:14:20Z</time>
      </trkpt>
      <trkpt lat="48.43721" lon="2.70484">
        <ele>139</ele>
        <time>2021-05-30T08:14:32Z</time>
      </trkpt>
      <trkpt lat="48.43738" lon="2.70539">
        <ele>139.2</ele>
        <time>2021-05-30T08:14:42Z</time>
      </trkpt>
      <trkpt lat="48.43745" lon="2.7055">
        <ele>138.9</ele>
        <time>2021-05-30T08:14:44Z</time>
      </trkpt>
      <trkpt lat="48.43774" lon="2.70585">
        <ele>134.6</ele>
        <time>2021-05-30T08:14:54Z</time>
      </trkpt>
      <trkpt lat="48.43776" lon="2.70586">
        <ele>134.3</ele>
        <time>2021-05-30T08:14:55Z</time>
      </trkpt>
      <trkpt lat="48.43779" lon="2.70588">
        <ele>133.6</ele>
        <time>2021-05-30T08:15:07Z</time>
      </trkpt>
      <trkpt lat="48.4378" lon="2.70589">
        <ele>133.4</ele>
        <time>2021-05-30T08:15:35Z</time>
      </trkpt>
      <trkpt lat="48.43779" lon="2.70594">
        <ele>133.3</ele>
        <time>2021-05-30T08:15:56Z</time>
      </trkpt>
      <trkpt lat="48.43779" lon="2.70589">
        <ele>133.5</ele>
        <time>2021-05-30T08:16:24Z</time>
      </trkpt>
      <trkpt lat="48.43777" lon="2.70589">
        <ele>134</ele>
        <time>2021-05-30T08:16:35Z</time>
      </trkpt>
      <trkpt lat="48.43771" lon="2.70585">
        <ele>135.2</ele>
        <time>2021-05-30T08:16:41Z</time>
      </trkpt>
      <trkpt lat="48.43769" lon="2.70585">
        <ele>135.5</ele>
        <time>2021-05-30T08:16:42Z</time>
      </trkpt>
      <trkpt lat="48.43767" lon="2.70585">
        <ele>135.8</ele>
        <time>2021-05-30T08:16:43Z</time>
      </trkpt>
      <trkpt lat="48.43766" lon="2.70587">
        <ele>136</ele>
        <time>2021-05-30T08:16:44Z</time>
      </trkpt>
      <trkpt lat="48.43764" lon="2.70587">
        <ele>136.3</ele>
        <time>2021-05-30T08:16:45Z</time>
      </trkpt>
      <trkpt lat="48.43763" lon="2.70587">
        <ele>136.5</ele>
        <time>2021-05-30T08:16:46Z</time>
      </trkpt>
      <trkpt lat="48.43762" lon="2.70588">
        <ele>136.7</ele>
        <time>2021-05-30T08:16:47Z</time>
      </trkpt>
      <trkpt lat="48.43761" lon="2.70588">
        <ele>136.9</ele>
        <time>2021-05-30T08:16:48Z</time>
      </trkpt>
      <trkpt lat="48.43759" lon="2.70588">
        <ele>137.2</ele>
        <time>2021-05-30T08:16:49Z</time>
      </trkpt>
      <trkpt lat="48.43757" lon="2.70586">
        <ele>137.6</ele>
        <time>2021-05-30T08:16:50Z</time>
      </trkpt>
      <trkpt lat="48.43729" lon="2.70582">
        <ele>140.2</ele>
        <time>2021-05-30T08:17:01Z</time>
      </trkpt>
      <trkpt lat="48.43713" lon="2.70616">
        <ele>140.2</ele>
        <time>2021-05-30T08:17:10Z</time>
      </trkpt>
      <trkpt lat="48.43698" lon="2.70666">
        <ele>139.8</ele>
        <time>2021-05-30T08:17:21Z</time>
      </trkpt>
      <trkpt lat="48.43692" lon="2.70718">
        <ele>140.2</ele>
        <time>2021-05-30T08:17:32Z</time>
      </trkpt>
      <trkpt lat="48.43719" lon="2.70744">
        <ele>138.3</ele>
        <time>2021-05-30T08:17:42Z</time>
      </trkpt>
      <trkpt lat="48.4375" lon="2.70759">
        <ele>136</ele>
        <time>2021-05-30T08:17:52Z</time>
      </trkpt>
      <trkpt lat="48.43772" lon="2.70787">
        <ele>132.5</ele>
        <time>2021-05-30T08:18:02Z</time>
      </trkpt>
      <trkpt lat="48.43777" lon="2.70803">
        <ele>131.9</ele>
        <time>2021-05-30T08:18:06Z</time>
      </trkpt>
      <trkpt lat="48.43777" lon="2.70808">
        <ele>132</ele>
        <time>2021-05-30T08:18:07Z</time>
      </trkpt>
      <trkpt lat="48.43775" lon="2.70813">
        <ele>132.2</ele>
        <time>2021-05-30T08:18:08Z</time>
      </trkpt>
      <trkpt lat="48.43774" lon="2.70818">
        <ele>132.4</ele>
        <time>2021-05-30T08:18:09Z</time>
      </trkpt>
      <trkpt lat="48.43772" lon="2.70822">
        <ele>132.8</ele>
        <time>2021-05-30T08:18:10Z</time>
      </trkpt>
      <trkpt lat="48.4377" lon="2.70826">
        <ele>133</ele>
        <time>2021-05-30T08:18:11Z</time>
      </trkpt>
      <trkpt lat="48.43755" lon="2.70837">
        <ele>134.9</ele>
        <time>2021-05-30T08:18:16Z</time>
      </trkpt>
      <trkpt lat="48.43752" lon="2.70837">
        <ele>135.5</ele>
        <time>2021-05-30T08:18:17Z</time>
      </trkpt>
      <trkpt lat="48.43748" lon="2.70836">
        <ele>135.9</ele>
        <time>2021-05-30T08:18:18Z</time>
      </trkpt>
      <trkpt lat="48.43745" lon="2.70834">
        <ele>136.3</ele>
        <time>2021-05-30T08:18:19Z</time>
      </trkpt>
      <trkpt lat="48.43742" lon="2.70833">
        <ele>136.6</ele>
        <time>2021-05-30T08:18:20Z</time>
      </trkpt>
      <trkpt lat="48.43739" lon="2.70831">
        <ele>136.8</ele>
        <time>2021-05-30T08:18:21Z</time>
      </trkpt>
      <trkpt lat="48.43735" lon="2.7083">
        <ele>137.1</ele>
        <time>2021-05-30T08:18:22Z</time>
      </trkpt>
      <trkpt lat="48.43732" lon="2.7083">
        <ele>137.3</ele>
        <time>2021-05-30T08:18:23Z</time>
      </trkpt>
      <trkpt lat="48.43693" lon="2.70845">
        <ele>139.1</ele>
        <time>2021-05-30T08:18:34Z</time>
      </trkpt>
      <trkpt lat="48.43679" lon="2.70876">
        <ele>137.6</ele>
        <time>2021-05-30T08:18:41Z</time>
      </trkpt>
      <trkpt lat="48.43667" lon="2.70897">
        <ele>136.6</ele>
        <time>2021-05-30T08:18:45Z</time>
      </trkpt>
      <trkpt lat="48.43625" lon="2.70977">
        <ele>130.4</ele>
        <time>2021-05-30T08:18:56Z</time>
      </trkpt>
      <trkpt lat="48.43611" lon="2.71002">
        <ele>129.1</ele>
        <time>2021-05-30T08:18:59Z</time>
      </trkpt>
      <trkpt lat="48.43607" lon="2.71012">
        <ele>128.4</ele>
        <time>2021-05-30T08:19:00Z</time>
      </trkpt>
      <trkpt lat="48.43593" lon="2.71039">
        <ele>126.5</ele>
        <time>2021-05-30T08:19:03Z</time>
      </trkpt>
      <trkpt lat="48.43588" lon="2.71046">
        <ele>126.2</ele>
        <time>2021-05-30T08:19:04Z</time>
      </trkpt>
      <trkpt lat="48.43583" lon="2.71052">
        <ele>126</ele>
        <time>2021-05-30T08:19:05Z</time>
      </trkpt>
      <trkpt lat="48.4357" lon="2.71061">
        <ele>124.6</ele>
        <time>2021-05-30T08:19:07Z</time>
      </trkpt>
      <trkpt lat="48.43525" lon="2.71084">
        <ele>121.6</ele>
        <time>2021-05-30T08:19:14Z</time>
      </trkpt>
      <trkpt lat="48.4352" lon="2.71083">
        <ele>121.5</ele>
        <time>2021-05-30T08:19:15Z</time>
      </trkpt>
      <trkpt lat="48.43514" lon="2.71081">
        <ele>121.4</ele>
        <time>2021-05-30T08:19:16Z</time>
      </trkpt>
      <trkpt lat="48.43508" lon="2.71075">
        <ele>121.5</ele>
        <time>2021-05-30T08:19:17Z</time>
      </trkpt>
      <trkpt lat="48.43503" lon="2.71069">
        <ele>121.6</ele>
        <time>2021-05-30T08:19:18Z</time>
      </trkpt>
      <trkpt lat="48.43493" lon="2.71056">
        <ele>122.4</ele>
        <time>2021-05-30T08:19:20Z</time>
      </trkpt>
      <trkpt lat="48.43488" lon="2.71051">
        <ele>122.8</ele>
        <time>2021-05-30T08:19:21Z</time>
      </trkpt>
      <trkpt lat="48.43484" lon="2.71049">
        <ele>123.2</ele>
        <time>2021-05-30T08:19:22Z</time>
      </trkpt>
      <trkpt lat="48.4348" lon="2.7105">
        <ele>123.3</ele>
        <time>2021-05-30T08:19:23Z</time>
      </trkpt>
      <trkpt lat="48.43478" lon="2.71054">
        <ele>123.4</ele>
        <time>2021-05-30T08:19:24Z</time>
      </trkpt>
      <trkpt lat="48.43476" lon="2.7106">
        <ele>123.3</ele>
        <time>2021-05-30T08:19:25Z</time>
      </trkpt>
      <trkpt lat="48.43475" lon="2.71067">
        <ele>123.2</ele>
        <time>2021-05-30T08:19:26Z</time>
      </trkpt>
      <trkpt lat="48.43466" lon="2.71117">
        <ele>123.3</ele>
        <time>2021-05-30T08:19:33Z</time>
      </trkpt>
      <trkpt lat="48.43465" lon="2.71124">
        <ele>123.4</ele>
        <time>2021-05-30T08:19:34Z</time>
      </trkpt>
      <trkpt lat="48.43463" lon="2.71136">
        <ele>123.6</ele>
        <time>2021-05-30T08:19:36Z</time>
      </trkpt>
      <trkpt lat="48.43461" lon="2.71142">
        <ele>123.7</ele>
        <time>2021-05-30T08:19:37Z</time>
      </trkpt>
      <trkpt lat="48.4346" lon="2.71147">
        <ele>123.8</ele>
        <time>2021-05-30T08:19:38Z</time>
      </trkpt>
      <trkpt lat="48.43459" lon="2.71153">
        <ele>123.9</ele>
        <time>2021-05-30T08:19:39Z</time>
      </trkpt>
      <trkpt lat="48.43458" lon="2.71158">
        <ele>124.1</ele>
        <time>2021-05-30T08:19:40Z</time>
      </trkpt>
      <trkpt lat="48.43457" lon="2.71164">
        <ele>124.1</ele>
        <time>2021-05-30T08:19:41Z</time>
      </trkpt>
      <trkpt lat="48.43456" lon="2.7117">
        <ele>124.2</ele>
        <time>2021-05-30T08:19:42Z</time>
      </trkpt>
      <trkpt lat="48.43455" lon="2.71176">
        <ele>124.2</ele>
        <time>2021-05-30T08:19:43Z</time>
      </trkpt>
      <trkpt lat="48.43454" lon="2.71181">
        <ele>124.1</ele>
        <time>2021-05-30T08:19:44Z</time>
      </trkpt>
      <trkpt lat="48.43453" lon="2.71187">
        <ele>124.1</ele>
        <time>2021-05-30T08:19:45Z</time>
      </trkpt>
      <trkpt lat="48.43452" lon="2.71193">
        <ele>124.1</ele>
        <time>2021-05-30T08:19:46Z</time>
      </trkpt>
      <trkpt lat="48.43451" lon="2.71199">
        <ele>124.1</ele>
        <time>2021-05-30T08:19:47Z</time>
      </trkpt>
      <trkpt lat="48.43442" lon="2.71249">
        <ele>123.9</ele>
        <time>2021-05-30T08:19:57Z</time>
      </trkpt>
      <trkpt lat="48.43441" lon="2.71258">
        <ele>123.6</ele>
        <time>2021-05-30T08:19:59Z</time>
      </trkpt>
      <trkpt lat="48.4344" lon="2.71263">
        <ele>123.5</ele>
        <time>2021-05-30T08:20:00Z</time>
      </trkpt>
      <trkpt lat="48.43433" lon="2.71312">
        <ele>121.2</ele>
        <time>2021-05-30T08:20:11Z</time>
      </trkpt>
      <trkpt lat="48.43428" lon="2.71335">
        <ele>120.2</ele>
        <time>2021-05-30T08:20:20Z</time>
      </trkpt>
      <trkpt lat="48.43427" lon="2.71356">
        <ele>120</ele>
        <time>2021-05-30T08:20:28Z</time>
      </trkpt>
      <trkpt lat="48.43427" lon="2.7136">
        <ele>120</ele>
        <time>2021-05-30T08:20:37Z</time>
      </trkpt>
      <trkpt lat="48.43427" lon="2.71362">
        <ele>119.9</ele>
        <time>2021-05-30T08:20:38Z</time>
      </trkpt>
      <trkpt lat="48.43427" lon="2.71366">
        <ele>119.9</ele>
        <time>2021-05-30T08:20:39Z</time>
      </trkpt>
      <trkpt lat="48.43428" lon="2.71371">
        <ele>119.8</ele>
        <time>2021-05-30T08:20:40Z</time>
      </trkpt>
      <trkpt lat="48.43428" lon="2.71374">
        <ele>119.8</ele>
        <time>2021-05-30T08:20:41Z</time>
      </trkpt>
      <trkpt lat="48.43427" lon="2.71378">
        <ele>119.8</ele>
        <time>2021-05-30T08:20:42Z</time>
      </trkpt>
      <trkpt lat="48.43426" lon="2.71382">
        <ele>119.8</ele>
        <time>2021-05-30T08:20:43Z</time>
      </trkpt>
      <trkpt lat="48.43425" lon="2.71387">
        <ele>119.8</ele>
        <time>2021-05-30T08:20:44Z</time>
      </trkpt>
      <trkpt lat="48.43423" lon="2.71391">
        <ele>119.9</ele>
        <time>2021-05-30T08:20:45Z</time>
      </trkpt>
      <trkpt lat="48.43423" lon="2.71397">
        <ele>119.9</ele>
        <time>2021-05-30T08:20:46Z</time>
      </trkpt>
      <trkpt lat="48.43423" lon="2.71402">
        <ele>119.8</ele>
        <time>2021-05-30T08:20:47Z</time>
      </trkpt>
      <trkpt lat="48.43423" lon="2.71407">
        <ele>119.7</ele>
        <time>2021-05-30T08:20:48Z</time>
      </trkpt>
      <trkpt lat="48.43422" lon="2.71411">
        <ele>119.7</ele>
        <time>2021-05-30T08:20:49Z</time>
      </trkpt>
      <trkpt lat="48.43421" lon="2.71415">
        <ele>119.8</ele>
        <time>2021-05-30T08:20:50Z</time>
      </trkpt>
      <trkpt lat="48.4342" lon="2.71421">
        <ele>119.8</ele>
        <time>2021-05-30T08:20:51Z</time>
      </trkpt>
      <trkpt lat="48.43419" lon="2.71425">
        <ele>119.8</ele>
        <time>2021-05-30T08:20:52Z</time>
      </trkpt>
      <trkpt lat="48.43418" lon="2.7143">
        <ele>119.8</ele>
        <time>2021-05-30T08:20:53Z</time>
      </trkpt>
      <trkpt lat="48.4341" lon="2.71485">
        <ele>119.1</ele>
        <time>2021-05-30T08:21:03Z</time>
      </trkpt>
      <trkpt lat="48.434" lon="2.71533">
        <ele>117.7</ele>
        <time>2021-05-30T08:21:13Z</time>
      </trkpt>
      <trkpt lat="48.43394" lon="2.71592">
        <ele>116.2</ele>
        <time>2021-05-30T08:21:25Z</time>
      </trkpt>
      <trkpt lat="48.43384" lon="2.71662">
        <ele>115.8</ele>
        <time>2021-05-30T08:21:36Z</time>
      </trkpt>
      <trkpt lat="48.43381" lon="2.71683">
        <ele>115.6</ele>
        <time>2021-05-30T08:21:39Z</time>
      </trkpt>
      <trkpt lat="48.4338" lon="2.7169">
        <ele>115.5</ele>
        <time>2021-05-30T08:21:40Z</time>
      </trkpt>
      <trkpt lat="48.43374" lon="2.71731">
        <ele>115.1</ele>
        <time>2021-05-30T08:21:46Z</time>
      </trkpt>
      <trkpt lat="48.43373" lon="2.71738">
        <ele>115.1</ele>
        <time>2021-05-30T08:21:47Z</time>
      </trkpt>
      <trkpt lat="48.43372" lon="2.71744">
        <ele>115</ele>
        <time>2021-05-30T08:21:48Z</time>
      </trkpt>
      <trkpt lat="48.43368" lon="2.7177">
        <ele>115</ele>
        <time>2021-05-30T08:21:52Z</time>
      </trkpt>
      <trkpt lat="48.43367" lon="2.71777">
        <ele>115</ele>
        <time>2021-05-30T08:21:53Z</time>
      </trkpt>
      <trkpt lat="48.43363" lon="2.71811">
        <ele>115</ele>
        <time>2021-05-30T08:21:58Z</time>
      </trkpt>
      <trkpt lat="48.43358" lon="2.71838">
        <ele>115.1</ele>
        <time>2021-05-30T08:22:02Z</time>
      </trkpt>
      <trkpt lat="48.43357" lon="2.71845">
        <ele>115.2</ele>
        <time>2021-05-30T08:22:03Z</time>
      </trkpt>
      <trkpt lat="48.43353" lon="2.71874">
        <ele>115.7</ele>
        <time>2021-05-30T08:22:07Z</time>
      </trkpt>
      <trkpt lat="48.4335" lon="2.71893">
        <ele>116.2</ele>
        <time>2021-05-30T08:22:10Z</time>
      </trkpt>
      <trkpt lat="48.43348" lon="2.719">
        <ele>116.3</ele>
        <time>2021-05-30T08:22:11Z</time>
      </trkpt>
      <trkpt lat="48.43348" lon="2.71906">
        <ele>116.5</ele>
        <time>2021-05-30T08:22:12Z</time>
      </trkpt>
      <trkpt lat="48.43341" lon="2.71955">
        <ele>118.5</ele>
        <time>2021-05-30T08:22:19Z</time>
      </trkpt>
      <trkpt lat="48.4334" lon="2.71962">
        <ele>118.9</ele>
        <time>2021-05-30T08:22:20Z</time>
      </trkpt>
      <trkpt lat="48.43339" lon="2.71969">
        <ele>119.2</ele>
        <time>2021-05-30T08:22:21Z</time>
      </trkpt>
      <trkpt lat="48.43337" lon="2.71976">
        <ele>119.6</ele>
        <time>2021-05-30T08:22:22Z</time>
      </trkpt>
      <trkpt lat="48.43336" lon="2.71983">
        <ele>120</ele>
        <time>2021-05-30T08:22:23Z</time>
      </trkpt>
      <trkpt lat="48.43333" lon="2.72015">
        <ele>120.9</ele>
        <time>2021-05-30T08:22:28Z</time>
      </trkpt>
      <trkpt lat="48.43331" lon="2.72021">
        <ele>120.9</ele>
        <time>2021-05-30T08:22:29Z</time>
      </trkpt>
      <trkpt lat="48.43331" lon="2.72026">
        <ele>120.9</ele>
        <time>2021-05-30T08:22:30Z</time>
      </trkpt>
      <trkpt lat="48.43331" lon="2.72032">
        <ele>120.8</ele>
        <time>2021-05-30T08:22:31Z</time>
      </trkpt>
      <trkpt lat="48.4333" lon="2.72037">
        <ele>120.8</ele>
        <time>2021-05-30T08:22:32Z</time>
      </trkpt>
      <trkpt lat="48.43329" lon="2.72043">
        <ele>120.8</ele>
        <time>2021-05-30T08:22:33Z</time>
      </trkpt>
      <trkpt lat="48.43327" lon="2.72049">
        <ele>120.8</ele>
        <time>2021-05-30T08:22:34Z</time>
      </trkpt>
      <trkpt lat="48.43326" lon="2.72055">
        <ele>120.8</ele>
        <time>2021-05-30T08:22:35Z</time>
      </trkpt>
      <trkpt lat="48.43325" lon="2.72062">
        <ele>120.8</ele>
        <time>2021-05-30T08:22:36Z</time>
      </trkpt>
      <trkpt lat="48.43325" lon="2.72069">
        <ele>120.8</ele>
        <time>2021-05-30T08:22:37Z</time>
      </trkpt>
      <trkpt lat="48.43324" lon="2.72075">
        <ele>120.8</ele>
        <time>2021-05-30T08:22:38Z</time>
      </trkpt>
      <trkpt lat="48.43317" lon="2.72124">
        <ele>120.8</ele>
        <time>2021-05-30T08:22:47Z</time>
      </trkpt>
      <trkpt lat="48.43315" lon="2.7213">
        <ele>120.8</ele>
        <time>2021-05-30T08:22:48Z</time>
      </trkpt>
      <trkpt lat="48.43303" lon="2.72169">
        <ele>121.7</ele>
        <time>2021-05-30T08:22:56Z</time>
      </trkpt>
      <trkpt lat="48.43299" lon="2.72187">
        <ele>122.7</ele>
        <time>2021-05-30T08:23:00Z</time>
      </trkpt>
      <trkpt lat="48.43299" lon="2.7219">
        <ele>122.8</ele>
        <time>2021-05-30T08:23:01Z</time>
      </trkpt>
      <trkpt lat="48.43299" lon="2.72193">
        <ele>123</ele>
        <time>2021-05-30T08:23:02Z</time>
      </trkpt>
      <trkpt lat="48.43298" lon="2.72196">
        <ele>123.1</ele>
        <time>2021-05-30T08:23:03Z</time>
      </trkpt>
      <trkpt lat="48.43297" lon="2.72199">
        <ele>123.3</ele>
        <time>2021-05-30T08:23:04Z</time>
      </trkpt>
      <trkpt lat="48.43296" lon="2.72204">
        <ele>123.6</ele>
        <time>2021-05-30T08:23:05Z</time>
      </trkpt>
      <trkpt lat="48.43295" lon="2.72209">
        <ele>123.8</ele>
        <time>2021-05-30T08:23:06Z</time>
      </trkpt>
      <trkpt lat="48.43293" lon="2.72215">
        <ele>124.2</ele>
        <time>2021-05-30T08:23:07Z</time>
      </trkpt>
      <trkpt lat="48.43291" lon="2.72222">
        <ele>124.6</ele>
        <time>2021-05-30T08:23:08Z</time>
      </trkpt>
      <trkpt lat="48.43288" lon="2.72229">
        <ele>124.9</ele>
        <time>2021-05-30T08:23:09Z</time>
      </trkpt>
      <trkpt lat="48.43285" lon="2.72236">
        <ele>125.3</ele>
        <time>2021-05-30T08:23:10Z</time>
      </trkpt>
      <trkpt lat="48.43283" lon="2.72244">
        <ele>125.6</ele>
        <time>2021-05-30T08:23:11Z</time>
      </trkpt>
      <trkpt lat="48.43281" lon="2.7225">
        <ele>125.9</ele>
        <time>2021-05-30T08:23:12Z</time>
      </trkpt>
      <trkpt lat="48.43281" lon="2.72255">
        <ele>125.9</ele>
        <time>2021-05-30T08:23:13Z</time>
      </trkpt>
      <trkpt lat="48.43279" lon="2.7226">
        <ele>125.9</ele>
        <time>2021-05-30T08:23:14Z</time>
      </trkpt>
      <trkpt lat="48.43278" lon="2.72265">
        <ele>125.9</ele>
        <time>2021-05-30T08:23:15Z</time>
      </trkpt>
      <trkpt lat="48.43264" lon="2.72303">
        <ele>125.6</ele>
        <time>2021-05-30T08:23:22Z</time>
      </trkpt>
      <trkpt lat="48.43263" lon="2.72309">
        <ele>125.6</ele>
        <time>2021-05-30T08:23:23Z</time>
      </trkpt>
      <trkpt lat="48.43262" lon="2.72313">
        <ele>125.5</ele>
        <time>2021-05-30T08:23:24Z</time>
      </trkpt>
      <trkpt lat="48.43239" lon="2.72388">
        <ele>123.8</ele>
        <time>2021-05-30T08:23:37Z</time>
      </trkpt>
      <trkpt lat="48.43234" lon="2.72403">
        <ele>123.7</ele>
        <time>2021-05-30T08:23:39Z</time>
      </trkpt>
      <trkpt lat="48.43226" lon="2.72428">
        <ele>123.1</ele>
        <time>2021-05-30T08:23:43Z</time>
      </trkpt>
      <trkpt lat="48.43223" lon="2.72435">
        <ele>123</ele>
        <time>2021-05-30T08:23:44Z</time>
      </trkpt>
      <trkpt lat="48.43207" lon="2.72494">
        <ele>120.9</ele>
        <time>2021-05-30T08:23:51Z</time>
      </trkpt>
      <trkpt lat="48.43204" lon="2.72502">
        <ele>120.7</ele>
        <time>2021-05-30T08:23:52Z</time>
      </trkpt>
      <trkpt lat="48.43196" lon="2.72526">
        <ele>119.9</ele>
        <time>2021-05-30T08:23:55Z</time>
      </trkpt>
      <trkpt lat="48.43194" lon="2.72531">
        <ele>119.7</ele>
        <time>2021-05-30T08:23:56Z</time>
      </trkpt>
      <trkpt lat="48.43192" lon="2.72537">
        <ele>119.5</ele>
        <time>2021-05-30T08:23:57Z</time>
      </trkpt>
      <trkpt lat="48.43192" lon="2.72543">
        <ele>119.2</ele>
        <time>2021-05-30T08:23:58Z</time>
      </trkpt>
      <trkpt lat="48.43192" lon="2.72548">
        <ele>118.9</ele>
        <time>2021-05-30T08:23:59Z</time>
      </trkpt>
      <trkpt lat="48.43195" lon="2.72551">
        <ele>118.7</ele>
        <time>2021-05-30T08:24:00Z</time>
      </trkpt>
      <trkpt lat="48.43196" lon="2.72551">
        <ele>118.6</ele>
        <time>2021-05-30T08:24:01Z</time>
      </trkpt>
      <trkpt lat="48.43199" lon="2.7255">
        <ele>118.6</ele>
        <time>2021-05-30T08:24:02Z</time>
      </trkpt>
      <trkpt lat="48.432" lon="2.72548">
        <ele>118.6</ele>
        <time>2021-05-30T08:24:03Z</time>
      </trkpt>
      <trkpt lat="48.43203" lon="2.72545">
        <ele>118.6</ele>
        <time>2021-05-30T08:24:04Z</time>
      </trkpt>
      <trkpt lat="48.43211" lon="2.72529">
        <ele>118.9</ele>
        <time>2021-05-30T08:24:08Z</time>
      </trkpt>
      <trkpt lat="48.43214" lon="2.72525">
        <ele>119</ele>
        <time>2021-05-30T08:24:09Z</time>
      </trkpt>
      <trkpt lat="48.43221" lon="2.72514">
        <ele>119.1</ele>
        <time>2021-05-30T08:24:11Z</time>
      </trkpt>
      <trkpt lat="48.43235" lon="2.72495">
        <ele>119.2</ele>
        <time>2021-05-30T08:24:15Z</time>
      </trkpt>
      <trkpt lat="48.43249" lon="2.72472">
        <ele>119.4</ele>
        <time>2021-05-30T08:24:20Z</time>
      </trkpt>
      <trkpt lat="48.43252" lon="2.72468">
        <ele>119.6</ele>
        <time>2021-05-30T08:24:21Z</time>
      </trkpt>
      <trkpt lat="48.43293" lon="2.72444">
        <ele>123.1</ele>
        <time>2021-05-30T08:24:33Z</time>
      </trkpt>
      <trkpt lat="48.43323" lon="2.72467">
        <ele>124.2</ele>
        <time>2021-05-30T08:24:44Z</time>
      </trkpt>
      <trkpt lat="48.43338" lon="2.72505">
        <ele>124.2</ele>
        <time>2021-05-30T08:24:55Z</time>
      </trkpt>
      <trkpt lat="48.4335" lon="2.72556">
        <ele>123.8</ele>
        <time>2021-05-30T08:25:09Z</time>
      </trkpt>
      <trkpt lat="48.43354" lon="2.72608">
        <ele>122.9</ele>
        <time>2021-05-30T08:25:21Z</time>
      </trkpt>
      <trkpt lat="48.43359" lon="2.72645">
        <ele>122.4</ele>
        <time>2021-05-30T08:25:30Z</time>
      </trkpt>
      <trkpt lat="48.43375" lon="2.72663">
        <ele>123.1</ele>
        <time>2021-05-30T08:25:37Z</time>
      </trkpt>
      <trkpt lat="48.43378" lon="2.72663">
        <ele>123.3</ele>
        <time>2021-05-30T08:25:38Z</time>
      </trkpt>
      <trkpt lat="48.43381" lon="2.72661">
        <ele>123.6</ele>
        <time>2021-05-30T08:25:39Z</time>
      </trkpt>
      <trkpt lat="48.43402" lon="2.72622">
        <ele>126</ele>
        <time>2021-05-30T08:25:51Z</time>
      </trkpt>
      <trkpt lat="48.43402" lon="2.72607">
        <ele>126.4</ele>
        <time>2021-05-30T08:25:57Z</time>
      </trkpt>
      <trkpt lat="48.43384" lon="2.72599">
        <ele>125.3</ele>
        <time>2021-05-30T08:26:09Z</time>
      </trkpt>
      <trkpt lat="48.43384" lon="2.72599">
        <ele>125.3</ele>
        <time>2021-05-30T08:26:23Z</time>
      </trkpt>
      <trkpt lat="48.43383" lon="2.72598">
        <ele>125.2</ele>
        <time>2021-05-30T08:26:58Z</time>
      </trkpt>
      <trkpt lat="48.43385" lon="2.72597">
        <ele>125.4</ele>
        <time>2021-05-30T08:27:31Z</time>
      </trkpt>
      <trkpt lat="48.43385" lon="2.72597">
        <ele>125.4</ele>
        <time>2021-05-30T08:28:07Z</time>
      </trkpt>
      <trkpt lat="48.43385" lon="2.72598">
        <ele>125.4</ele>
        <time>2021-05-30T08:28:41Z</time>
      </trkpt>
      <trkpt lat="48.43385" lon="2.72597">
        <ele>125.4</ele>
        <time>2021-05-30T08:29:12Z</time>
      </trkpt>
      <trkpt lat="48.43385" lon="2.72598">
        <ele>125.3</ele>
        <time>2021-05-30T08:29:44Z</time>
      </trkpt>
      <trkpt lat="48.43384" lon="2.72598">
        <ele>125.3</ele>
        <time>2021-05-30T08:30:16Z</time>
      </trkpt>
      <trkpt lat="48.43383" lon="2.72599">
        <ele>125.2</ele>
        <time>2021-05-30T08:30:50Z</time>
      </trkpt>
      <trkpt lat="48.43383" lon="2.72597">
        <ele>125.3</ele>
        <time>2021-05-30T08:31:31Z</time>
      </trkpt>
      <trkpt lat="48.43384" lon="2.72597">
        <ele>125.3</ele>
        <time>2021-05-30T08:32:02Z</time>
      </trkpt>
      <trkpt lat="48.43385" lon="2.72597">
        <ele>125.4</ele>
        <time>2021-05-30T08:32:25Z</time>
      </trkpt>
      <trkpt lat="48.43386" lon="2.72593">
        <ele>125.6</ele>
        <time>2021-05-30T08:32:37Z</time>
      </trkpt>
      <trkpt lat="48.43389" lon="2.72593">
        <ele>125.7</ele>
        <time>2021-05-30T08:32:41Z</time>
      </trkpt>
      <trkpt lat="48.4339" lon="2.72593">
        <ele>125.9</ele>
        <time>2021-05-30T08:32:42Z</time>
      </trkpt>
      <trkpt lat="48.43392" lon="2.72594">
        <ele>126</ele>
        <time>2021-05-30T08:32:43Z</time>
      </trkpt>
      <trkpt lat="48.43394" lon="2.72596">
        <ele>126.1</ele>
        <time>2021-05-30T08:32:44Z</time>
      </trkpt>
      <trkpt lat="48.43396" lon="2.72599">
        <ele>126.2</ele>
        <time>2021-05-30T08:32:45Z</time>
      </trkpt>
      <trkpt lat="48.43398" lon="2.72603">
        <ele>126.2</ele>
        <time>2021-05-30T08:32:46Z</time>
      </trkpt>
      <trkpt lat="48.43401" lon="2.72627">
        <ele>125.8</ele>
        <time>2021-05-30T08:32:50Z</time>
      </trkpt>
      <trkpt lat="48.434" lon="2.72634">
        <ele>125.6</ele>
        <time>2021-05-30T08:32:51Z</time>
      </trkpt>
      <trkpt lat="48.43398" lon="2.72642">
        <ele>125.2</ele>
        <time>2021-05-30T08:32:52Z</time>
      </trkpt>
      <trkpt lat="48.43394" lon="2.7265">
        <ele>124.8</ele>
        <time>2021-05-30T08:32:53Z</time>
      </trkpt>
      <trkpt lat="48.4339" lon="2.72656">
        <ele>124.3</ele>
        <time>2021-05-30T08:32:54Z</time>
      </trkpt>
      <trkpt lat="48.43385" lon="2.72661">
        <ele>123.8</ele>
        <time>2021-05-30T08:32:55Z</time>
      </trkpt>
      <trkpt lat="48.43379" lon="2.72663">
        <ele>123.4</ele>
        <time>2021-05-30T08:32:56Z</time>
      </trkpt>
      <trkpt lat="48.43374" lon="2.72664">
        <ele>123</ele>
        <time>2021-05-30T08:32:57Z</time>
      </trkpt>
      <trkpt lat="48.43369" lon="2.72663">
        <ele>122.6</ele>
        <time>2021-05-30T08:32:58Z</time>
      </trkpt>
      <trkpt lat="48.43364" lon="2.7266">
        <ele>122.4</ele>
        <time>2021-05-30T08:32:59Z</time>
      </trkpt>
      <trkpt lat="48.43361" lon="2.72657">
        <ele>122.2</ele>
        <time>2021-05-30T08:33:00Z</time>
      </trkpt>
      <trkpt lat="48.43358" lon="2.72654">
        <ele>122.1</ele>
        <time>2021-05-30T08:33:01Z</time>
      </trkpt>
      <trkpt lat="48.43348" lon="2.72608">
        <ele>122.5</ele>
        <time>2021-05-30T08:33:09Z</time>
      </trkpt>
      <trkpt lat="48.43351" lon="2.7259">
        <ele>123.1</ele>
        <time>2021-05-30T08:33:11Z</time>
      </trkpt>
      <trkpt lat="48.4335" lon="2.72568">
        <ele>123.6</ele>
        <time>2021-05-30T08:33:14Z</time>
      </trkpt>
      <trkpt lat="48.43349" lon="2.72554">
        <ele>123.8</ele>
        <time>2021-05-30T08:33:16Z</time>
      </trkpt>
      <trkpt lat="48.43348" lon="2.72547">
        <ele>123.9</ele>
        <time>2021-05-30T08:33:17Z</time>
      </trkpt>
      <trkpt lat="48.43347" lon="2.72539">
        <ele>124</ele>
        <time>2021-05-30T08:33:18Z</time>
      </trkpt>
      <trkpt lat="48.43346" lon="2.72531">
        <ele>124.2</ele>
        <time>2021-05-30T08:33:19Z</time>
      </trkpt>
      <trkpt lat="48.43345" lon="2.72523">
        <ele>124.3</ele>
        <time>2021-05-30T08:33:20Z</time>
      </trkpt>
      <trkpt lat="48.43343" lon="2.72515">
        <ele>124.3</ele>
        <time>2021-05-30T08:33:21Z</time>
      </trkpt>
      <trkpt lat="48.43341" lon="2.72507">
        <ele>124.3</ele>
        <time>2021-05-30T08:33:22Z</time>
      </trkpt>
      <trkpt lat="48.4333" lon="2.72472">
        <ele>124.4</ele>
        <time>2021-05-30T08:33:27Z</time>
      </trkpt>
      <trkpt lat="48.43326" lon="2.72464">
        <ele>124.4</ele>
        <time>2021-05-30T08:33:28Z</time>
      </trkpt>
      <trkpt lat="48.43322" lon="2.72456">
        <ele>124.4</ele>
        <time>2021-05-30T08:33:29Z</time>
      </trkpt>
      <trkpt lat="48.43312" lon="2.72442">
        <ele>124.2</ele>
        <time>2021-05-30T08:33:31Z</time>
      </trkpt>
      <trkpt lat="48.43306" lon="2.72437">
        <ele>124.1</ele>
        <time>2021-05-30T08:33:32Z</time>
      </trkpt>
      <trkpt lat="48.43299" lon="2.72434">
        <ele>123.8</ele>
        <time>2021-05-30T08:33:33Z</time>
      </trkpt>
      <trkpt lat="48.43292" lon="2.72435">
        <ele>123.4</ele>
        <time>2021-05-30T08:33:34Z</time>
      </trkpt>
      <trkpt lat="48.43286" lon="2.72437">
        <ele>123</ele>
        <time>2021-05-30T08:33:35Z</time>
      </trkpt>
      <trkpt lat="48.43279" lon="2.72441">
        <ele>122.4</ele>
        <time>2021-05-30T08:33:36Z</time>
      </trkpt>
      <trkpt lat="48.43271" lon="2.72448">
        <ele>121.7</ele>
        <time>2021-05-30T08:33:37Z</time>
      </trkpt>
      <trkpt lat="48.43232" lon="2.72507">
        <ele>118.8</ele>
        <time>2021-05-30T08:33:44Z</time>
      </trkpt>
      <trkpt lat="48.43223" lon="2.72517">
        <ele>118.9</ele>
        <time>2021-05-30T08:33:46Z</time>
      </trkpt>
      <trkpt lat="48.43219" lon="2.72524">
        <ele>118.8</ele>
        <time>2021-05-30T08:33:47Z</time>
      </trkpt>
      <trkpt lat="48.43215" lon="2.72529">
        <ele>118.7</ele>
        <time>2021-05-30T08:33:48Z</time>
      </trkpt>
      <trkpt lat="48.43212" lon="2.72535">
        <ele>118.6</ele>
        <time>2021-05-30T08:33:49Z</time>
      </trkpt>
      <trkpt lat="48.43209" lon="2.72541">
        <ele>118.5</ele>
        <time>2021-05-30T08:33:50Z</time>
      </trkpt>
      <trkpt lat="48.43205" lon="2.72547">
        <ele>118.4</ele>
        <time>2021-05-30T08:33:51Z</time>
      </trkpt>
      <trkpt lat="48.43195" lon="2.72589">
        <ele>116.7</ele>
        <time>2021-05-30T08:33:59Z</time>
      </trkpt>
      <trkpt lat="48.43196" lon="2.72601">
        <ele>116.2</ele>
        <time>2021-05-30T08:34:02Z</time>
      </trkpt>
      <trkpt lat="48.43196" lon="2.72618">
        <ele>115.4</ele>
        <time>2021-05-30T08:34:05Z</time>
      </trkpt>
      <trkpt lat="48.43197" lon="2.72625">
        <ele>115.1</ele>
        <time>2021-05-30T08:34:06Z</time>
      </trkpt>
      <trkpt lat="48.4321" lon="2.72677">
        <ele>112.7</ele>
        <time>2021-05-30T08:34:13Z</time>
      </trkpt>
      <trkpt lat="48.43213" lon="2.72685">
        <ele>112.4</ele>
        <time>2021-05-30T08:34:14Z</time>
      </trkpt>
      <trkpt lat="48.43216" lon="2.72693">
        <ele>112.1</ele>
        <time>2021-05-30T08:34:15Z</time>
      </trkpt>
      <trkpt lat="48.43229" lon="2.7273">
        <ele>111.2</ele>
        <time>2021-05-30T08:34:21Z</time>
      </trkpt>
      <trkpt lat="48.4323" lon="2.72732">
        <ele>111.1</ele>
        <time>2021-05-30T08:34:22Z</time>
      </trkpt>
      <trkpt lat="48.4323" lon="2.72735">
        <ele>111.1</ele>
        <time>2021-05-30T08:34:23Z</time>
      </trkpt>
      <trkpt lat="48.43231" lon="2.72738">
        <ele>111</ele>
        <time>2021-05-30T08:34:24Z</time>
      </trkpt>
      <trkpt lat="48.43233" lon="2.72741">
        <ele>111</ele>
        <time>2021-05-30T08:34:25Z</time>
      </trkpt>
      <trkpt lat="48.43236" lon="2.72745">
        <ele>110.9</ele>
        <time>2021-05-30T08:34:26Z</time>
      </trkpt>
      <trkpt lat="48.4324" lon="2.72748">
        <ele>110.9</ele>
        <time>2021-05-30T08:34:27Z</time>
      </trkpt>
      <trkpt lat="48.43244" lon="2.72751">
        <ele>110.9</ele>
        <time>2021-05-30T08:34:28Z</time>
      </trkpt>
      <trkpt lat="48.43248" lon="2.72754">
        <ele>110.9</ele>
        <time>2021-05-30T08:34:29Z</time>
      </trkpt>
      <trkpt lat="48.43285" lon="2.72764">
        <ele>112.8</ele>
        <time>2021-05-30T08:34:39Z</time>
      </trkpt>
      <trkpt lat="48.43312" lon="2.72766">
        <ele>114.5</ele>
        <time>2021-05-30T08:34:49Z</time>
      </trkpt>
      <trkpt lat="48.43341" lon="2.72768">
        <ele>116.2</ele>
        <time>2021-05-30T08:34:58Z</time>
      </trkpt>
      <trkpt lat="48.43363" lon="2.72778">
        <ele>117.2</ele>
        <time>2021-05-30T08:35:05Z</time>
      </trkpt>
      <trkpt lat="48.43367" lon="2.72779">
        <ele>117.4</ele>
        <time>2021-05-30T08:35:06Z</time>
      </trkpt>
      <trkpt lat="48.4337" lon="2.7278">
        <ele>117.5</ele>
        <time>2021-05-30T08:35:07Z</time>
      </trkpt>
      <trkpt lat="48.43372" lon="2.72781">
        <ele>117.7</ele>
        <time>2021-05-30T08:35:08Z</time>
      </trkpt>
      <trkpt lat="48.43375" lon="2.72782">
        <ele>117.8</ele>
        <time>2021-05-30T08:35:09Z</time>
      </trkpt>
      <trkpt lat="48.43378" lon="2.72783">
        <ele>118</ele>
        <time>2021-05-30T08:35:10Z</time>
      </trkpt>
      <trkpt lat="48.43407" lon="2.72782">
        <ele>119.5</ele>
        <time>2021-05-30T08:35:19Z</time>
      </trkpt>
      <trkpt lat="48.43417" lon="2.72784">
        <ele>120</ele>
        <time>2021-05-30T08:35:22Z</time>
      </trkpt>
      <trkpt lat="48.43432" lon="2.72794">
        <ele>118.7</ele>
        <time>2021-05-30T08:35:25Z</time>
      </trkpt>
      <trkpt lat="48.43444" lon="2.72803">
        <ele>117.5</ele>
        <time>2021-05-30T08:35:27Z</time>
      </trkpt>
      <trkpt lat="48.43451" lon="2.72808">
        <ele>116.8</ele>
        <time>2021-05-30T08:35:28Z</time>
      </trkpt>
      <trkpt lat="48.43488" lon="2.72833">
        <ele>112.3</ele>
        <time>2021-05-30T08:35:33Z</time>
      </trkpt>
      <trkpt lat="48.43494" lon="2.72841">
        <ele>111.5</ele>
        <time>2021-05-30T08:35:34Z</time>
      </trkpt>
      <trkpt lat="48.43511" lon="2.72863">
        <ele>109.3</ele>
        <time>2021-05-30T08:35:37Z</time>
      </trkpt>
      <trkpt lat="48.43522" lon="2.7288">
        <ele>107.9</ele>
        <time>2021-05-30T08:35:39Z</time>
      </trkpt>
      <trkpt lat="48.43529" lon="2.72887">
        <ele>107.2</ele>
        <time>2021-05-30T08:35:40Z</time>
      </trkpt>
      <trkpt lat="48.43535" lon="2.72893">
        <ele>106.5</ele>
        <time>2021-05-30T08:35:41Z</time>
      </trkpt>
      <trkpt lat="48.43559" lon="2.72909">
        <ele>104.2</ele>
        <time>2021-05-30T08:35:46Z</time>
      </trkpt>
      <trkpt lat="48.43562" lon="2.72906">
        <ele>103.9</ele>
        <time>2021-05-30T08:35:47Z</time>
      </trkpt>
      <trkpt lat="48.43565" lon="2.72902">
        <ele>103.7</ele>
        <time>2021-05-30T08:35:48Z</time>
      </trkpt>
      <trkpt lat="48.43569" lon="2.72898">
        <ele>103.5</ele>
        <time>2021-05-30T08:35:49Z</time>
      </trkpt>
      <trkpt lat="48.43572" lon="2.72895">
        <ele>103.3</ele>
        <time>2021-05-30T08:35:50Z</time>
      </trkpt>
      <trkpt lat="48.43574" lon="2.72891">
        <ele>103.1</ele>
        <time>2021-05-30T08:35:51Z</time>
      </trkpt>
      <trkpt lat="48.43575" lon="2.72886">
        <ele>103.1</ele>
        <time>2021-05-30T08:35:52Z</time>
      </trkpt>
      <trkpt lat="48.43577" lon="2.72881">
        <ele>103</ele>
        <time>2021-05-30T08:35:53Z</time>
      </trkpt>
      <trkpt lat="48.43577" lon="2.72876">
        <ele>103.1</ele>
        <time>2021-05-30T08:35:54Z</time>
      </trkpt>
      <trkpt lat="48.4358" lon="2.72827">
        <ele>103.7</ele>
        <time>2021-05-30T08:36:05Z</time>
      </trkpt>
      <trkpt lat="48.43583" lon="2.72809">
        <ele>104.5</ele>
        <time>2021-05-30T08:36:09Z</time>
      </trkpt>
      <trkpt lat="48.43584" lon="2.72804">
        <ele>104.8</ele>
        <time>2021-05-30T08:36:10Z</time>
      </trkpt>
      <trkpt lat="48.43585" lon="2.728">
        <ele>105</ele>
        <time>2021-05-30T08:36:11Z</time>
      </trkpt>
      <trkpt lat="48.43585" lon="2.72796">
        <ele>105.3</ele>
        <time>2021-05-30T08:36:12Z</time>
      </trkpt>
      <trkpt lat="48.43586" lon="2.72791">
        <ele>105.6</ele>
        <time>2021-05-30T08:36:13Z</time>
      </trkpt>
      <trkpt lat="48.43598" lon="2.72766">
        <ele>107.3</ele>
        <time>2021-05-30T08:36:20Z</time>
      </trkpt>
      <trkpt lat="48.436" lon="2.72766">
        <ele>107.4</ele>
        <time>2021-05-30T08:36:21Z</time>
      </trkpt>
      <trkpt lat="48.43602" lon="2.72766">
        <ele>107.4</ele>
        <time>2021-05-30T08:36:22Z</time>
      </trkpt>
      <trkpt lat="48.43605" lon="2.72766">
        <ele>107.4</ele>
        <time>2021-05-30T08:36:23Z</time>
      </trkpt>
      <trkpt lat="48.43608" lon="2.72767">
        <ele>107.5</ele>
        <time>2021-05-30T08:36:24Z</time>
      </trkpt>
      <trkpt lat="48.43611" lon="2.72767">
        <ele>107.5</ele>
        <time>2021-05-30T08:36:25Z</time>
      </trkpt>
      <trkpt lat="48.43635" lon="2.72776">
        <ele>107.6</ele>
        <time>2021-05-30T08:36:33Z</time>
      </trkpt>
      <trkpt lat="48.43637" lon="2.72777">
        <ele>107.6</ele>
        <time>2021-05-30T08:36:34Z</time>
      </trkpt>
      <trkpt lat="48.4364" lon="2.72778">
        <ele>107.7</ele>
        <time>2021-05-30T08:36:35Z</time>
      </trkpt>
      <trkpt lat="48.43642" lon="2.72778">
        <ele>107.7</ele>
        <time>2021-05-30T08:36:36Z</time>
      </trkpt>
      <trkpt lat="48.43645" lon="2.7278">
        <ele>107.7</ele>
        <time>2021-05-30T08:36:37Z</time>
      </trkpt>
      <trkpt lat="48.43647" lon="2.72781">
        <ele>107.8</ele>
        <time>2021-05-30T08:36:38Z</time>
      </trkpt>
      <trkpt lat="48.4365" lon="2.72782">
        <ele>107.8</ele>
        <time>2021-05-30T08:36:39Z</time>
      </trkpt>
      <trkpt lat="48.43652" lon="2.72783">
        <ele>107.8</ele>
        <time>2021-05-30T08:36:40Z</time>
      </trkpt>
      <trkpt lat="48.43654" lon="2.72784">
        <ele>107.8</ele>
        <time>2021-05-30T08:36:41Z</time>
      </trkpt>
      <trkpt lat="48.43656" lon="2.72786">
        <ele>107.8</ele>
        <time>2021-05-30T08:36:42Z</time>
      </trkpt>
      <trkpt lat="48.43684" lon="2.72793">
        <ele>105.8</ele>
        <time>2021-05-30T08:36:53Z</time>
      </trkpt>
      <trkpt lat="48.43706" lon="2.72798">
        <ele>102.9</ele>
        <time>2021-05-30T08:37:02Z</time>
      </trkpt>
      <trkpt lat="48.43715" lon="2.72801">
        <ele>101.4</ele>
        <time>2021-05-30T08:37:04Z</time>
      </trkpt>
      <trkpt lat="48.4372" lon="2.72804">
        <ele>100.7</ele>
        <time>2021-05-30T08:37:05Z</time>
      </trkpt>
      <trkpt lat="48.43726" lon="2.72807">
        <ele>99.8</ele>
        <time>2021-05-30T08:37:06Z</time>
      </trkpt>
      <trkpt lat="48.43732" lon="2.72809">
        <ele>98.9</ele>
        <time>2021-05-30T08:37:07Z</time>
      </trkpt>
      <trkpt lat="48.43737" lon="2.72812">
        <ele>98</ele>
        <time>2021-05-30T08:37:08Z</time>
      </trkpt>
      <trkpt lat="48.43743" lon="2.72815">
        <ele>97.1</ele>
        <time>2021-05-30T08:37:09Z</time>
      </trkpt>
      <trkpt lat="48.43748" lon="2.72816">
        <ele>96.3</ele>
        <time>2021-05-30T08:37:10Z</time>
      </trkpt>
      <trkpt lat="48.43753" lon="2.72816">
        <ele>96</ele>
        <time>2021-05-30T08:37:11Z</time>
      </trkpt>
      <trkpt lat="48.43759" lon="2.72815">
        <ele>95.9</ele>
        <time>2021-05-30T08:37:12Z</time>
      </trkpt>
      <trkpt lat="48.43764" lon="2.72814">
        <ele>95.9</ele>
        <time>2021-05-30T08:37:13Z</time>
      </trkpt>
      <trkpt lat="48.4378" lon="2.72811">
        <ele>95.8</ele>
        <time>2021-05-30T08:37:16Z</time>
      </trkpt>
      <trkpt lat="48.43814" lon="2.72807">
        <ele>95.1</ele>
        <time>2021-05-30T08:37:23Z</time>
      </trkpt>
      <trkpt lat="48.43818" lon="2.7281">
        <ele>95</ele>
        <time>2021-05-30T08:37:24Z</time>
      </trkpt>
      <trkpt lat="48.43822" lon="2.72812">
        <ele>95</ele>
        <time>2021-05-30T08:37:25Z</time>
      </trkpt>
      <trkpt lat="48.43835" lon="2.72819">
        <ele>94.9</ele>
        <time>2021-05-30T08:37:28Z</time>
      </trkpt>
      <trkpt lat="48.43841" lon="2.72821">
        <ele>95</ele>
        <time>2021-05-30T08:37:29Z</time>
      </trkpt>
      <trkpt lat="48.43845" lon="2.72822">
        <ele>95.1</ele>
        <time>2021-05-30T08:37:30Z</time>
      </trkpt>
      <trkpt lat="48.43849" lon="2.72824">
        <ele>95.2</ele>
        <time>2021-05-30T08:37:31Z</time>
      </trkpt>
      <trkpt lat="48.43853" lon="2.72826">
        <ele>95.4</ele>
        <time>2021-05-30T08:37:32Z</time>
      </trkpt>
      <trkpt lat="48.43857" lon="2.72828">
        <ele>95.5</ele>
        <time>2021-05-30T08:37:33Z</time>
      </trkpt>
      <trkpt lat="48.4389" lon="2.72842">
        <ele>96.4</ele>
        <time>2021-05-30T08:37:41Z</time>
      </trkpt>
      <trkpt lat="48.43893" lon="2.72845">
        <ele>96.4</ele>
        <time>2021-05-30T08:37:42Z</time>
      </trkpt>
      <trkpt lat="48.43895" lon="2.72848">
        <ele>96.5</ele>
        <time>2021-05-30T08:37:43Z</time>
      </trkpt>
      <trkpt lat="48.43897" lon="2.72851">
        <ele>96.5</ele>
        <time>2021-05-30T08:37:44Z</time>
      </trkpt>
      <trkpt lat="48.439" lon="2.72854">
        <ele>96.6</ele>
        <time>2021-05-30T08:37:45Z</time>
      </trkpt>
      <trkpt lat="48.43902" lon="2.72855">
        <ele>96.7</ele>
        <time>2021-05-30T08:37:46Z</time>
      </trkpt>
      <trkpt lat="48.43905" lon="2.72856">
        <ele>96.7</ele>
        <time>2021-05-30T08:37:47Z</time>
      </trkpt>
      <trkpt lat="48.43908" lon="2.72856">
        <ele>96.8</ele>
        <time>2021-05-30T08:37:48Z</time>
      </trkpt>
      <trkpt lat="48.43912" lon="2.72855">
        <ele>96.9</ele>
        <time>2021-05-30T08:37:49Z</time>
      </trkpt>
      <trkpt lat="48.43932" lon="2.72865">
        <ele>97.4</ele>
        <time>2021-05-30T08:37:56Z</time>
      </trkpt>
      <trkpt lat="48.43935" lon="2.72868">
        <ele>97.4</ele>
        <time>2021-05-30T08:37:57Z</time>
      </trkpt>
      <trkpt lat="48.43938" lon="2.7287">
        <ele>97.5</ele>
        <time>2021-05-30T08:37:58Z</time>
      </trkpt>
      <trkpt lat="48.43979" lon="2.72899">
        <ele>98.5</ele>
        <time>2021-05-30T08:38:10Z</time>
      </trkpt>
      <trkpt lat="48.44021" lon="2.72928">
        <ele>99.2</ele>
        <time>2021-05-30T08:38:22Z</time>
      </trkpt>
      <trkpt lat="48.44025" lon="2.72931">
        <ele>99.2</ele>
        <time>2021-05-30T08:38:23Z</time>
      </trkpt>
      <trkpt lat="48.4403" lon="2.72935">
        <ele>99.2</ele>
        <time>2021-05-30T08:38:24Z</time>
      </trkpt>
      <trkpt lat="48.44034" lon="2.72938">
        <ele>99.2</ele>
        <time>2021-05-30T08:38:25Z</time>
      </trkpt>
      <trkpt lat="48.44038" lon="2.72941">
        <ele>99.2</ele>
        <time>2021-05-30T08:38:26Z</time>
      </trkpt>
      <trkpt lat="48.44042" lon="2.72944">
        <ele>99.2</ele>
        <time>2021-05-30T08:38:27Z</time>
      </trkpt>
      <trkpt lat="48.44047" lon="2.72946">
        <ele>99.2</ele>
        <time>2021-05-30T08:38:28Z</time>
      </trkpt>
      <trkpt lat="48.44061" lon="2.72955">
        <ele>99.1</ele>
        <time>2021-05-30T08:38:31Z</time>
      </trkpt>
      <trkpt lat="48.44066" lon="2.72957">
        <ele>99</ele>
        <time>2021-05-30T08:38:32Z</time>
      </trkpt>
      <trkpt lat="48.44089" lon="2.72972">
        <ele>98.7</ele>
        <time>2021-05-30T08:38:37Z</time>
      </trkpt>
      <trkpt lat="48.44093" lon="2.72975">
        <ele>98.7</ele>
        <time>2021-05-30T08:38:38Z</time>
      </trkpt>
      <trkpt lat="48.44098" lon="2.72979">
        <ele>98.7</ele>
        <time>2021-05-30T08:38:39Z</time>
      </trkpt>
      <trkpt lat="48.44106" lon="2.72985">
        <ele>98.8</ele>
        <time>2021-05-30T08:38:41Z</time>
      </trkpt>
      <trkpt lat="48.44121" lon="2.72995">
        <ele>98.9</ele>
        <time>2021-05-30T08:38:44Z</time>
      </trkpt>
      <trkpt lat="48.44176" lon="2.73034">
        <ele>98.8</ele>
        <time>2021-05-30T08:38:56Z</time>
      </trkpt>
      <trkpt lat="48.4418" lon="2.73037">
        <ele>98.7</ele>
        <time>2021-05-30T08:38:57Z</time>
      </trkpt>
      <trkpt lat="48.44219" lon="2.73063">
        <ele>98.5</ele>
        <time>2021-05-30T08:39:05Z</time>
      </trkpt>
      <trkpt lat="48.44224" lon="2.73066">
        <ele>98.6</ele>
        <time>2021-05-30T08:39:06Z</time>
      </trkpt>
      <trkpt lat="48.44233" lon="2.73072">
        <ele>98.7</ele>
        <time>2021-05-30T08:39:08Z</time>
      </trkpt>
      <trkpt lat="48.44238" lon="2.73075">
        <ele>98.8</ele>
        <time>2021-05-30T08:39:09Z</time>
      </trkpt>
      <trkpt lat="48.44243" lon="2.73078">
        <ele>98.8</ele>
        <time>2021-05-30T08:39:10Z</time>
      </trkpt>
      <trkpt lat="48.44247" lon="2.73081">
        <ele>98.9</ele>
        <time>2021-05-30T08:39:11Z</time>
      </trkpt>
      <trkpt lat="48.44252" lon="2.73084">
        <ele>99</ele>
        <time>2021-05-30T08:39:12Z</time>
      </trkpt>
      <trkpt lat="48.44268" lon="2.73095">
        <ele>98.8</ele>
        <time>2021-05-30T08:39:16Z</time>
      </trkpt>
      <trkpt lat="48.44273" lon="2.73097">
        <ele>98.7</ele>
        <time>2021-05-30T08:39:17Z</time>
      </trkpt>
      <trkpt lat="48.44277" lon="2.73098">
        <ele>98.7</ele>
        <time>2021-05-30T08:39:18Z</time>
      </trkpt>
      <trkpt lat="48.44282" lon="2.73099">
        <ele>98.7</ele>
        <time>2021-05-30T08:39:19Z</time>
      </trkpt>
      <trkpt lat="48.44286" lon="2.73098">
        <ele>98.7</ele>
        <time>2021-05-30T08:39:20Z</time>
      </trkpt>
      <trkpt lat="48.44291" lon="2.73097">
        <ele>98.7</ele>
        <time>2021-05-30T08:39:21Z</time>
      </trkpt>
      <trkpt lat="48.44295" lon="2.73097">
        <ele>98.7</ele>
        <time>2021-05-30T08:39:22Z</time>
      </trkpt>
      <trkpt lat="48.44303" lon="2.73096">
        <ele>98.7</ele>
        <time>2021-05-30T08:39:24Z</time>
      </trkpt>
      <trkpt lat="48.44341" lon="2.73085">
        <ele>99</ele>
        <time>2021-05-30T08:39:34Z</time>
      </trkpt>
      <trkpt lat="48.44373" lon="2.73079">
        <ele>99.6</ele>
        <time>2021-05-30T08:39:43Z</time>
      </trkpt>
      <trkpt lat="48.44407" lon="2.73072">
        <ele>100.2</ele>
        <time>2021-05-30T08:39:53Z</time>
      </trkpt>
      <trkpt lat="48.44449" lon="2.73058">
        <ele>101.2</ele>
        <time>2021-05-30T08:40:05Z</time>
      </trkpt>
      <trkpt lat="48.44479" lon="2.73051">
        <ele>101.7</ele>
        <time>2021-05-30T08:40:13Z</time>
      </trkpt>
      <trkpt lat="48.44515" lon="2.73043">
        <ele>101.6</ele>
        <time>2021-05-30T08:40:21Z</time>
      </trkpt>
      <trkpt lat="48.44545" lon="2.73037">
        <ele>100.9</ele>
        <time>2021-05-30T08:40:27Z</time>
      </trkpt>
      <trkpt lat="48.44554" lon="2.73035">
        <ele>100.7</ele>
        <time>2021-05-30T08:40:29Z</time>
      </trkpt>
      <trkpt lat="48.44558" lon="2.73034">
        <ele>100.6</ele>
        <time>2021-05-30T08:40:30Z</time>
      </trkpt>
      <trkpt lat="48.44562" lon="2.73032">
        <ele>100.5</ele>
        <time>2021-05-30T08:40:31Z</time>
      </trkpt>
      <trkpt lat="48.44566" lon="2.7303">
        <ele>100.4</ele>
        <time>2021-05-30T08:40:32Z</time>
      </trkpt>
      <trkpt lat="48.4457" lon="2.73029">
        <ele>100.3</ele>
        <time>2021-05-30T08:40:33Z</time>
      </trkpt>
      <trkpt lat="48.44574" lon="2.73028">
        <ele>100.2</ele>
        <time>2021-05-30T08:40:34Z</time>
      </trkpt>
      <trkpt lat="48.44617" lon="2.73019">
        <ele>98.8</ele>
        <time>2021-05-30T08:40:44Z</time>
      </trkpt>
      <trkpt lat="48.44639" lon="2.73016">
        <ele>98</ele>
        <time>2021-05-30T08:40:50Z</time>
      </trkpt>
      <trkpt lat="48.44643" lon="2.73014">
        <ele>97.9</ele>
        <time>2021-05-30T08:40:51Z</time>
      </trkpt>
      <trkpt lat="48.44683" lon="2.73002">
        <ele>96.6</ele>
        <time>2021-05-30T08:41:01Z</time>
      </trkpt>
      <trkpt lat="48.44722" lon="2.72989">
        <ele>95.6</ele>
        <time>2021-05-30T08:41:10Z</time>
      </trkpt>
      <trkpt lat="48.44779" lon="2.72925">
        <ele>93.7</ele>
        <time>2021-05-30T08:41:24Z</time>
      </trkpt>
      <trkpt lat="48.44826" lon="2.72862">
        <ele>92.2</ele>
        <time>2021-05-30T08:41:36Z</time>
      </trkpt>
      <trkpt lat="48.44851" lon="2.72824">
        <ele>92</ele>
        <time>2021-05-30T08:41:43Z</time>
      </trkpt>
      <trkpt lat="48.44856" lon="2.72823">
        <ele>92.2</ele>
        <time>2021-05-30T08:41:44Z</time>
      </trkpt>
      <trkpt lat="48.44861" lon="2.72825">
        <ele>92.2</ele>
        <time>2021-05-30T08:41:45Z</time>
      </trkpt>
      <trkpt lat="48.44865" lon="2.72829">
        <ele>92.3</ele>
        <time>2021-05-30T08:41:46Z</time>
      </trkpt>
      <trkpt lat="48.44868" lon="2.72832">
        <ele>92.3</ele>
        <time>2021-05-30T08:41:47Z</time>
      </trkpt>
      <trkpt lat="48.44879" lon="2.72842">
        <ele>93</ele>
        <time>2021-05-30T08:41:50Z</time>
      </trkpt>
      <trkpt lat="48.44884" lon="2.72842">
        <ele>93.2</ele>
        <time>2021-05-30T08:41:51Z</time>
      </trkpt>
      <trkpt lat="48.44888" lon="2.72839">
        <ele>93.2</ele>
        <time>2021-05-30T08:41:52Z</time>
      </trkpt>
      <trkpt lat="48.44891" lon="2.72835">
        <ele>93.2</ele>
        <time>2021-05-30T08:41:53Z</time>
      </trkpt>
      <trkpt lat="48.44894" lon="2.72831">
        <ele>93.2</ele>
        <time>2021-05-30T08:41:54Z</time>
      </trkpt>
      <trkpt lat="48.44897" lon="2.72827">
        <ele>93.4</ele>
        <time>2021-05-30T08:41:55Z</time>
      </trkpt>
      <trkpt lat="48.449" lon="2.72823">
        <ele>93.5</ele>
        <time>2021-05-30T08:41:56Z</time>
      </trkpt>
      <trkpt lat="48.44938" lon="2.72779">
        <ele>94.8</ele>
        <time>2021-05-30T08:42:08Z</time>
      </trkpt>
      <trkpt lat="48.4498" lon="2.72729">
        <ele>96.4</ele>
        <time>2021-05-30T08:42:22Z</time>
      </trkpt>
      <trkpt lat="48.44999" lon="2.72701">
        <ele>96.4</ele>
        <time>2021-05-30T08:42:30Z</time>
      </trkpt>
      <trkpt lat="48.45028" lon="2.72666">
        <ele>97</ele>
        <time>2021-05-30T08:42:39Z</time>
      </trkpt>
      <trkpt lat="48.45066" lon="2.72618">
        <ele>97.1</ele>
        <time>2021-05-30T08:42:51Z</time>
      </trkpt>
      <trkpt lat="48.45069" lon="2.72614">
        <ele>97</ele>
        <time>2021-05-30T08:42:52Z</time>
      </trkpt>
      <trkpt lat="48.45092" lon="2.72585">
        <ele>96.5</ele>
        <time>2021-05-30T08:42:59Z</time>
      </trkpt>
      <trkpt lat="48.45096" lon="2.72582">
        <ele>96.6</ele>
        <time>2021-05-30T08:43:00Z</time>
      </trkpt>
      <trkpt lat="48.45116" lon="2.72559">
        <ele>97.9</ele>
        <time>2021-05-30T08:43:06Z</time>
      </trkpt>
      <trkpt lat="48.45135" lon="2.72536">
        <ele>98.4</ele>
        <time>2021-05-30T08:43:11Z</time>
      </trkpt>
      <trkpt lat="48.4519" lon="2.72469">
        <ele>99</ele>
        <time>2021-05-30T08:43:26Z</time>
      </trkpt>
      <trkpt lat="48.45215" lon="2.72436">
        <ele>99.1</ele>
        <time>2021-05-30T08:43:33Z</time>
      </trkpt>
      <trkpt lat="48.45262" lon="2.72373">
        <ele>97.6</ele>
        <time>2021-05-30T08:43:47Z</time>
      </trkpt>
      <trkpt lat="48.45266" lon="2.72369">
        <ele>97.5</ele>
        <time>2021-05-30T08:43:48Z</time>
      </trkpt>
      <trkpt lat="48.45303" lon="2.72325">
        <ele>95.3</ele>
        <time>2021-05-30T08:43:59Z</time>
      </trkpt>
      <trkpt lat="48.45311" lon="2.72316">
        <ele>95</ele>
        <time>2021-05-30T08:44:07Z</time>
      </trkpt>
      <trkpt lat="48.45314" lon="2.72315">
        <ele>95</ele>
        <time>2021-05-30T08:44:09Z</time>
      </trkpt>
      <trkpt lat="48.45315" lon="2.72313">
        <ele>94.9</ele>
        <time>2021-05-30T08:44:10Z</time>
      </trkpt>
      <trkpt lat="48.45317" lon="2.7231">
        <ele>94.8</ele>
        <time>2021-05-30T08:44:11Z</time>
      </trkpt>
      <trkpt lat="48.45317" lon="2.72308">
        <ele>94.8</ele>
        <time>2021-05-30T08:44:12Z</time>
      </trkpt>
      <trkpt lat="48.45318" lon="2.72306">
        <ele>94.7</ele>
        <time>2021-05-30T08:44:13Z</time>
      </trkpt>
      <trkpt lat="48.45335" lon="2.72283">
        <ele>93.9</ele>
        <time>2021-05-30T08:44:21Z</time>
      </trkpt>
      <trkpt lat="48.4534" lon="2.72273">
        <ele>94</ele>
        <time>2021-05-30T08:44:26Z</time>
      </trkpt>
      <trkpt lat="48.45367" lon="2.72251">
        <ele>95</ele>
        <time>2021-05-30T08:44:36Z</time>
      </trkpt>
      <trkpt lat="48.45402" lon="2.72206">
        <ele>96.7</ele>
        <time>2021-05-30T08:44:49Z</time>
      </trkpt>
      <trkpt lat="48.45438" lon="2.72164">
        <ele>96.5</ele>
        <time>2021-05-30T08:45:01Z</time>
      </trkpt>
      <trkpt lat="48.45473" lon="2.7212">
        <ele>95.6</ele>
        <time>2021-05-30T08:45:13Z</time>
      </trkpt>
      <trkpt lat="48.45503" lon="2.72084">
        <ele>93.2</ele>
        <time>2021-05-30T08:45:21Z</time>
      </trkpt>
      <trkpt lat="48.45511" lon="2.72073">
        <ele>93.8</ele>
        <time>2021-05-30T08:45:23Z</time>
      </trkpt>
      <trkpt lat="48.45514" lon="2.72069">
        <ele>94</ele>
        <time>2021-05-30T08:45:24Z</time>
      </trkpt>
      <trkpt lat="48.45528" lon="2.7205">
        <ele>94.7</ele>
        <time>2021-05-30T08:45:28Z</time>
      </trkpt>
      <trkpt lat="48.45533" lon="2.72045">
        <ele>94.9</ele>
        <time>2021-05-30T08:45:29Z</time>
      </trkpt>
      <trkpt lat="48.4557" lon="2.72004">
        <ele>94.4</ele>
        <time>2021-05-30T08:45:38Z</time>
      </trkpt>
      <trkpt lat="48.45608" lon="2.7196">
        <ele>94.6</ele>
        <time>2021-05-30T08:45:47Z</time>
      </trkpt>
      <trkpt lat="48.45621" lon="2.71946">
        <ele>94.6</ele>
        <time>2021-05-30T08:45:50Z</time>
      </trkpt>
      <trkpt lat="48.45637" lon="2.71924">
        <ele>94.2</ele>
        <time>2021-05-30T08:45:54Z</time>
      </trkpt>
      <trkpt lat="48.45641" lon="2.71919">
        <ele>94.1</ele>
        <time>2021-05-30T08:45:55Z</time>
      </trkpt>
      <trkpt lat="48.4569" lon="2.71856">
        <ele>95.8</ele>
        <time>2021-05-30T08:46:07Z</time>
      </trkpt>
      <trkpt lat="48.45705" lon="2.71837">
        <ele>96</ele>
        <time>2021-05-30T08:46:11Z</time>
      </trkpt>
      <trkpt lat="48.45751" lon="2.71779">
        <ele>95.1</ele>
        <time>2021-05-30T08:46:23Z</time>
      </trkpt>
      <trkpt lat="48.4578" lon="2.71741">
        <ele>95.4</ele>
        <time>2021-05-30T08:46:31Z</time>
      </trkpt>
      <trkpt lat="48.4581" lon="2.717">
        <ele>95.3</ele>
        <time>2021-05-30T08:46:40Z</time>
      </trkpt>
      <trkpt lat="48.45819" lon="2.7169">
        <ele>95</ele>
        <time>2021-05-30T08:46:42Z</time>
      </trkpt>
      <trkpt lat="48.45834" lon="2.71671">
        <ele>94.3</ele>
        <time>2021-05-30T08:46:46Z</time>
      </trkpt>
      <trkpt lat="48.45838" lon="2.71667">
        <ele>94.3</ele>
        <time>2021-05-30T08:46:47Z</time>
      </trkpt>
      <trkpt lat="48.45841" lon="2.71663">
        <ele>94.5</ele>
        <time>2021-05-30T08:46:48Z</time>
      </trkpt>
      <trkpt lat="48.45844" lon="2.71659">
        <ele>94.8</ele>
        <time>2021-05-30T08:46:49Z</time>
      </trkpt>
      <trkpt lat="48.45848" lon="2.71654">
        <ele>95.1</ele>
        <time>2021-05-30T08:46:50Z</time>
      </trkpt>
      <trkpt lat="48.45864" lon="2.71634">
        <ele>96</ele>
        <time>2021-05-30T08:46:54Z</time>
      </trkpt>
      <trkpt lat="48.4589" lon="2.71595">
        <ele>96.8</ele>
        <time>2021-05-30T08:47:03Z</time>
      </trkpt>
      <trkpt lat="48.45926" lon="2.71554">
        <ele>97.7</ele>
        <time>2021-05-30T08:47:12Z</time>
      </trkpt>
      <trkpt lat="48.45929" lon="2.71553">
        <ele>97.8</ele>
        <time>2021-05-30T08:47:13Z</time>
      </trkpt>
      <trkpt lat="48.45943" lon="2.71548">
        <ele>98.4</ele>
        <time>2021-05-30T08:47:17Z</time>
      </trkpt>
      <trkpt lat="48.45946" lon="2.71546">
        <ele>98.4</ele>
        <time>2021-05-30T08:47:18Z</time>
      </trkpt>
      <trkpt lat="48.45949" lon="2.71544">
        <ele>98.5</ele>
        <time>2021-05-30T08:47:19Z</time>
      </trkpt>
      <trkpt lat="48.45952" lon="2.71543">
        <ele>98.6</ele>
        <time>2021-05-30T08:47:20Z</time>
      </trkpt>
      <trkpt lat="48.45955" lon="2.71542">
        <ele>98.7</ele>
        <time>2021-05-30T08:47:21Z</time>
      </trkpt>
      <trkpt lat="48.45958" lon="2.7154">
        <ele>98.7</ele>
        <time>2021-05-30T08:47:22Z</time>
      </trkpt>
      <trkpt lat="48.45987" lon="2.71531">
        <ele>99.2</ele>
        <time>2021-05-30T08:47:31Z</time>
      </trkpt>
      <trkpt lat="48.46017" lon="2.71523">
        <ele>99.7</ele>
        <time>2021-05-30T08:47:40Z</time>
      </trkpt>
      <trkpt lat="48.46059" lon="2.71505">
        <ele>100.9</ele>
        <time>2021-05-30T08:47:51Z</time>
      </trkpt>
      <trkpt lat="48.46101" lon="2.71489">
        <ele>102.1</ele>
        <time>2021-05-30T08:48:02Z</time>
      </trkpt>
      <trkpt lat="48.46136" lon="2.71486">
        <ele>102.7</ele>
        <time>2021-05-30T08:48:11Z</time>
      </trkpt>
      <trkpt lat="48.46142" lon="2.7148">
        <ele>102.8</ele>
        <time>2021-05-30T08:48:13Z</time>
      </trkpt>
      <trkpt lat="48.46145" lon="2.71479">
        <ele>102.9</ele>
        <time>2021-05-30T08:48:14Z</time>
      </trkpt>
      <trkpt lat="48.4618" lon="2.71466">
        <ele>103</ele>
        <time>2021-05-30T08:48:24Z</time>
      </trkpt>
      <trkpt lat="48.46213" lon="2.7146">
        <ele>102.3</ele>
        <time>2021-05-30T08:48:35Z</time>
      </trkpt>
      <trkpt lat="48.46228" lon="2.71465">
        <ele>101.6</ele>
        <time>2021-05-30T08:48:41Z</time>
      </trkpt>
      <trkpt lat="48.46229" lon="2.71466">
        <ele>101.5</ele>
        <time>2021-05-30T08:48:42Z</time>
      </trkpt>
      <trkpt lat="48.46231" lon="2.71467">
        <ele>101.4</ele>
        <time>2021-05-30T08:48:43Z</time>
      </trkpt>
      <trkpt lat="48.46232" lon="2.71469">
        <ele>101.2</ele>
        <time>2021-05-30T08:48:44Z</time>
      </trkpt>
      <trkpt lat="48.46234" lon="2.71472">
        <ele>100.9</ele>
        <time>2021-05-30T08:48:45Z</time>
      </trkpt>
      <trkpt lat="48.46245" lon="2.71487">
        <ele>99.3</ele>
        <time>2021-05-30T08:48:53Z</time>
      </trkpt>
      <trkpt lat="48.46255" lon="2.71499">
        <ele>97.6</ele>
        <time>2021-05-30T08:49:02Z</time>
      </trkpt>
      <trkpt lat="48.46258" lon="2.715">
        <ele>97.3</ele>
        <time>2021-05-30T08:49:03Z</time>
      </trkpt>
      <trkpt lat="48.4626" lon="2.71502">
        <ele>96.9</ele>
        <time>2021-05-30T08:49:04Z</time>
      </trkpt>
      <trkpt lat="48.46263" lon="2.71504">
        <ele>96.5</ele>
        <time>2021-05-30T08:49:05Z</time>
      </trkpt>
      <trkpt lat="48.46266" lon="2.71507">
        <ele>96.1</ele>
        <time>2021-05-30T08:49:06Z</time>
      </trkpt>
      <trkpt lat="48.46271" lon="2.71511">
        <ele>95.4</ele>
        <time>2021-05-30T08:49:08Z</time>
      </trkpt>
      <trkpt lat="48.46273" lon="2.71513">
        <ele>95.1</ele>
        <time>2021-05-30T08:49:09Z</time>
      </trkpt>
      <trkpt lat="48.46276" lon="2.71514">
        <ele>94.8</ele>
        <time>2021-05-30T08:49:10Z</time>
      </trkpt>
      <trkpt lat="48.4628" lon="2.71516">
        <ele>94.4</ele>
        <time>2021-05-30T08:49:11Z</time>
      </trkpt>
      <trkpt lat="48.46283" lon="2.71518">
        <ele>94</ele>
        <time>2021-05-30T08:49:12Z</time>
      </trkpt>
      <trkpt lat="48.46287" lon="2.7152">
        <ele>93.6</ele>
        <time>2021-05-30T08:49:13Z</time>
      </trkpt>
      <trkpt lat="48.4629" lon="2.71522">
        <ele>93.2</ele>
        <time>2021-05-30T08:49:14Z</time>
      </trkpt>
      <trkpt lat="48.46306" lon="2.71534">
        <ele>91.4</ele>
        <time>2021-05-30T08:49:18Z</time>
      </trkpt>
      <trkpt lat="48.4631" lon="2.71537">
        <ele>91</ele>
        <time>2021-05-30T08:49:19Z</time>
      </trkpt>
      <trkpt lat="48.46343" lon="2.7156">
        <ele>88.5</ele>
        <time>2021-05-30T08:49:28Z</time>
      </trkpt>
      <trkpt lat="48.46377" lon="2.71581">
        <ele>88</ele>
        <time>2021-05-30T08:49:37Z</time>
      </trkpt>
      <trkpt lat="48.46415" lon="2.71608">
        <ele>87.4</ele>
        <time>2021-05-30T08:49:46Z</time>
      </trkpt>
      <trkpt lat="48.46435" lon="2.71622">
        <ele>86.6</ele>
        <time>2021-05-30T08:49:50Z</time>
      </trkpt>
      <trkpt lat="48.46441" lon="2.71625">
        <ele>86.4</ele>
        <time>2021-05-30T08:49:51Z</time>
      </trkpt>
      <trkpt lat="48.46481" lon="2.71653">
        <ele>85.3</ele>
        <time>2021-05-30T08:50:00Z</time>
      </trkpt>
      <trkpt lat="48.46489" lon="2.7166">
        <ele>85.2</ele>
        <time>2021-05-30T08:50:02Z</time>
      </trkpt>
      <trkpt lat="48.46493" lon="2.71662">
        <ele>85.1</ele>
        <time>2021-05-30T08:50:03Z</time>
      </trkpt>
      <trkpt lat="48.46533" lon="2.71687">
        <ele>88.1</ele>
        <time>2021-05-30T08:50:14Z</time>
      </trkpt>
      <trkpt lat="48.46535" lon="2.71685">
        <ele>88.2</ele>
        <time>2021-05-30T08:50:15Z</time>
      </trkpt>
      <trkpt lat="48.46537" lon="2.71683">
        <ele>88.2</ele>
        <time>2021-05-30T08:50:16Z</time>
      </trkpt>
      <trkpt lat="48.46539" lon="2.71679">
        <ele>88.3</ele>
        <time>2021-05-30T08:50:17Z</time>
      </trkpt>
      <trkpt lat="48.46542" lon="2.71675">
        <ele>88.3</ele>
        <time>2021-05-30T08:50:18Z</time>
      </trkpt>
      <trkpt lat="48.46558" lon="2.7163">
        <ele>88.6</ele>
        <time>2021-05-30T08:50:26Z</time>
      </trkpt>
      <trkpt lat="48.4657" lon="2.71595">
        <ele>88.6</ele>
        <time>2021-05-30T08:50:32Z</time>
      </trkpt>
      <trkpt lat="48.46572" lon="2.71589">
        <ele>88.6</ele>
        <time>2021-05-30T08:50:33Z</time>
      </trkpt>
      <trkpt lat="48.46575" lon="2.71583">
        <ele>88.6</ele>
        <time>2021-05-30T08:50:34Z</time>
      </trkpt>
      <trkpt lat="48.46577" lon="2.71577">
        <ele>88.5</ele>
        <time>2021-05-30T08:50:35Z</time>
      </trkpt>
      <trkpt lat="48.46579" lon="2.71571">
        <ele>88.4</ele>
        <time>2021-05-30T08:50:36Z</time>
      </trkpt>
      <trkpt lat="48.46581" lon="2.71565">
        <ele>88.3</ele>
        <time>2021-05-30T08:50:37Z</time>
      </trkpt>
      <trkpt lat="48.46584" lon="2.71558">
        <ele>88.1</ele>
        <time>2021-05-30T08:50:38Z</time>
      </trkpt>
      <trkpt lat="48.46586" lon="2.71552">
        <ele>87.9</ele>
        <time>2021-05-30T08:50:39Z</time>
      </trkpt>
      <trkpt lat="48.46588" lon="2.71545">
        <ele>87.7</ele>
        <time>2021-05-30T08:50:40Z</time>
      </trkpt>
      <trkpt lat="48.46611" lon="2.71478">
        <ele>86.3</ele>
        <time>2021-05-30T08:50:52Z</time>
      </trkpt>
      <trkpt lat="48.46629" lon="2.71426">
        <ele>85.5</ele>
        <time>2021-05-30T08:51:02Z</time>
      </trkpt>
      <trkpt lat="48.46653" lon="2.71365">
        <ele>85.8</ele>
        <time>2021-05-30T08:51:13Z</time>
      </trkpt>
      <trkpt lat="48.46675" lon="2.71302">
        <ele>85.6</ele>
        <time>2021-05-30T08:51:24Z</time>
      </trkpt>
      <trkpt lat="48.46681" lon="2.71277">
        <ele>85.3</ele>
        <time>2021-05-30T08:51:31Z</time>
      </trkpt>
      <trkpt lat="48.46687" lon="2.71273">
        <ele>85.4</ele>
        <time>2021-05-30T08:51:34Z</time>
      </trkpt>
      <trkpt lat="48.46689" lon="2.71274">
        <ele>85.6</ele>
        <time>2021-05-30T08:51:35Z</time>
      </trkpt>
      <trkpt lat="48.46691" lon="2.71274">
        <ele>85.7</ele>
        <time>2021-05-30T08:51:36Z</time>
      </trkpt>
      <trkpt lat="48.46693" lon="2.71275">
        <ele>85.8</ele>
        <time>2021-05-30T08:51:37Z</time>
      </trkpt>
      <trkpt lat="48.46696" lon="2.71276">
        <ele>85.9</ele>
        <time>2021-05-30T08:51:38Z</time>
      </trkpt>
      <trkpt lat="48.46698" lon="2.71279">
        <ele>86.1</ele>
        <time>2021-05-30T08:51:39Z</time>
      </trkpt>
      <trkpt lat="48.46701" lon="2.71281">
        <ele>86.2</ele>
        <time>2021-05-30T08:51:40Z</time>
      </trkpt>
      <trkpt lat="48.46704" lon="2.71283">
        <ele>86.4</ele>
        <time>2021-05-30T08:51:41Z</time>
      </trkpt>
      <trkpt lat="48.46707" lon="2.71285">
        <ele>86.6</ele>
        <time>2021-05-30T08:51:42Z</time>
      </trkpt>
      <trkpt lat="48.4671" lon="2.71286">
        <ele>86.7</ele>
        <time>2021-05-30T08:51:43Z</time>
      </trkpt>
      <trkpt lat="48.46711" lon="2.71287">
        <ele>86.8</ele>
        <time>2021-05-30T08:51:44Z</time>
      </trkpt>
      <trkpt lat="48.46713" lon="2.71289">
        <ele>86.9</ele>
        <time>2021-05-30T08:51:45Z</time>
      </trkpt>
      <trkpt lat="48.46739" lon="2.71305">
        <ele>88.2</ele>
        <time>2021-05-30T08:51:55Z</time>
      </trkpt>
      <trkpt lat="48.46746" lon="2.71311">
        <ele>88.6</ele>
        <time>2021-05-30T08:51:57Z</time>
      </trkpt>
      <trkpt lat="48.46769" lon="2.7133">
        <ele>88</ele>
        <time>2021-05-30T08:52:05Z</time>
      </trkpt>
      <trkpt lat="48.46771" lon="2.71328">
        <ele>88</ele>
        <time>2021-05-30T08:52:06Z</time>
      </trkpt>
      <trkpt lat="48.46771" lon="2.71327">
        <ele>87.9</ele>
        <time>2021-05-30T08:52:07Z</time>
      </trkpt>
      <trkpt lat="48.46774" lon="2.7132">
        <ele>87.7</ele>
        <time>2021-05-30T08:52:15Z</time>
      </trkpt>
      <trkpt lat="48.46776" lon="2.71318">
        <ele>87.6</ele>
        <time>2021-05-30T08:52:16Z</time>
      </trkpt>
      <trkpt lat="48.46779" lon="2.71314">
        <ele>87.4</ele>
        <time>2021-05-30T08:52:17Z</time>
      </trkpt>
      <trkpt lat="48.46781" lon="2.7131">
        <ele>87.2</ele>
        <time>2021-05-30T08:52:18Z</time>
      </trkpt>
      <trkpt lat="48.46782" lon="2.713">
        <ele>87</ele>
        <time>2021-05-30T08:52:21Z</time>
      </trkpt>
      <trkpt lat="48.46783" lon="2.71296">
        <ele>87</ele>
        <time>2021-05-30T08:52:22Z</time>
      </trkpt>
      <trkpt lat="48.46784" lon="2.71291">
        <ele>86.8</ele>
        <time>2021-05-30T08:52:23Z</time>
      </trkpt>
      <trkpt lat="48.46786" lon="2.71286">
        <ele>86.7</ele>
        <time>2021-05-30T08:52:24Z</time>
      </trkpt>
      <trkpt lat="48.46788" lon="2.71282">
        <ele>86.6</ele>
        <time>2021-05-30T08:52:25Z</time>
      </trkpt>
      <trkpt lat="48.4679" lon="2.71278">
        <ele>86.4</ele>
        <time>2021-05-30T08:52:26Z</time>
      </trkpt>
      <trkpt lat="48.46791" lon="2.71275">
        <ele>86.3</ele>
        <time>2021-05-30T08:52:27Z</time>
      </trkpt>
      <trkpt lat="48.46792" lon="2.71273">
        <ele>86.3</ele>
        <time>2021-05-30T08:52:28Z</time>
      </trkpt>
      <trkpt lat="48.46794" lon="2.71269">
        <ele>86.1</ele>
        <time>2021-05-30T08:52:29Z</time>
      </trkpt>
      <trkpt lat="48.46795" lon="2.71265">
        <ele>86</ele>
        <time>2021-05-30T08:52:30Z</time>
      </trkpt>
      <trkpt lat="48.46795" lon="2.71262">
        <ele>86</ele>
        <time>2021-05-30T08:52:31Z</time>
      </trkpt>
      <trkpt lat="48.46795" lon="2.71258">
        <ele>85.9</ele>
        <time>2021-05-30T08:52:32Z</time>
      </trkpt>
      <trkpt lat="48.46795" lon="2.71254">
        <ele>85.9</ele>
        <time>2021-05-30T08:52:33Z</time>
      </trkpt>
      <trkpt lat="48.46796" lon="2.71251">
        <ele>85.8</ele>
        <time>2021-05-30T08:52:34Z</time>
      </trkpt>
      <trkpt lat="48.46799" lon="2.71228">
        <ele>85.6</ele>
        <time>2021-05-30T08:52:42Z</time>
      </trkpt>
      <trkpt lat="48.46811" lon="2.71194">
        <ele>85.2</ele>
        <time>2021-05-30T08:52:48Z</time>
      </trkpt>
      <trkpt lat="48.46815" lon="2.71189">
        <ele>85.1</ele>
        <time>2021-05-30T08:52:49Z</time>
      </trkpt>
      <trkpt lat="48.46849" lon="2.71135">
        <ele>85.1</ele>
        <time>2021-05-30T08:52:58Z</time>
      </trkpt>
      <trkpt lat="48.46867" lon="2.71081">
        <ele>85.5</ele>
        <time>2021-05-30T08:53:08Z</time>
      </trkpt>
      <trkpt lat="48.46879" lon="2.71032">
        <ele>84.2</ele>
        <time>2021-05-30T08:53:16Z</time>
      </trkpt>
      <trkpt lat="48.46881" lon="2.71027">
        <ele>84.1</ele>
        <time>2021-05-30T08:53:17Z</time>
      </trkpt>
      <trkpt lat="48.46892" lon="2.71006">
        <ele>83.6</ele>
        <time>2021-05-30T08:53:20Z</time>
      </trkpt>
      <trkpt lat="48.46894" lon="2.71002">
        <ele>83.6</ele>
        <time>2021-05-30T08:53:21Z</time>
      </trkpt>
      <trkpt lat="48.46894" lon="2.70999">
        <ele>83.5</ele>
        <time>2021-05-30T08:53:22Z</time>
      </trkpt>
      <trkpt lat="48.46895" lon="2.70994">
        <ele>83.4</ele>
        <time>2021-05-30T08:53:23Z</time>
      </trkpt>
      <trkpt lat="48.46897" lon="2.70988">
        <ele>83.2</ele>
        <time>2021-05-30T08:53:24Z</time>
      </trkpt>
      <trkpt lat="48.46899" lon="2.7098">
        <ele>82.9</ele>
        <time>2021-05-30T08:53:25Z</time>
      </trkpt>
      <trkpt lat="48.46926" lon="2.70893">
        <ele>80.7</ele>
        <time>2021-05-30T08:53:40Z</time>
      </trkpt>
      <trkpt lat="48.4693" lon="2.70878">
        <ele>80.5</ele>
        <time>2021-05-30T08:53:44Z</time>
      </trkpt>
      <trkpt lat="48.46929" lon="2.70874">
        <ele>80.6</ele>
        <time>2021-05-30T08:53:45Z</time>
      </trkpt>
      <trkpt lat="48.46929" lon="2.70869">
        <ele>80.5</ele>
        <time>2021-05-30T08:53:46Z</time>
      </trkpt>
      <trkpt lat="48.46937" lon="2.70811">
        <ele>80.3</ele>
        <time>2021-05-30T08:53:57Z</time>
      </trkpt>
      <trkpt lat="48.46943" lon="2.70766">
        <ele>80.3</ele>
        <time>2021-05-30T08:54:11Z</time>
      </trkpt>
      <trkpt lat="48.46943" lon="2.70764">
        <ele>80.3</ele>
        <time>2021-05-30T08:54:12Z</time>
      </trkpt>
      <trkpt lat="48.46945" lon="2.70763">
        <ele>80.3</ele>
        <time>2021-05-30T08:54:13Z</time>
      </trkpt>
      <trkpt lat="48.46947" lon="2.70761">
        <ele>80.2</ele>
        <time>2021-05-30T08:54:14Z</time>
      </trkpt>
      <trkpt lat="48.46949" lon="2.70761">
        <ele>80.2</ele>
        <time>2021-05-30T08:54:15Z</time>
      </trkpt>
      <trkpt lat="48.46951" lon="2.70761">
        <ele>80.1</ele>
        <time>2021-05-30T08:54:16Z</time>
      </trkpt>
      <trkpt lat="48.46982" lon="2.70773">
        <ele>79.2</ele>
        <time>2021-05-30T08:54:27Z</time>
      </trkpt>
      <trkpt lat="48.47003" lon="2.70785">
        <ele>78.5</ele>
        <time>2021-05-30T08:54:37Z</time>
      </trkpt>
      <trkpt lat="48.47004" lon="2.70785">
        <ele>78.4</ele>
        <time>2021-05-30T08:54:39Z</time>
      </trkpt>
      <trkpt lat="48.47006" lon="2.70784">
        <ele>78.3</ele>
        <time>2021-05-30T08:54:40Z</time>
      </trkpt>
      <trkpt lat="48.47007" lon="2.70782">
        <ele>78.3</ele>
        <time>2021-05-30T08:54:41Z</time>
      </trkpt>
      <trkpt lat="48.47008" lon="2.7078">
        <ele>78.3</ele>
        <time>2021-05-30T08:54:42Z</time>
      </trkpt>
      <trkpt lat="48.4701" lon="2.70778">
        <ele>78.2</ele>
        <time>2021-05-30T08:54:43Z</time>
      </trkpt>
      <trkpt lat="48.47012" lon="2.70775">
        <ele>78.2</ele>
        <time>2021-05-30T08:54:44Z</time>
      </trkpt>
      <trkpt lat="48.47015" lon="2.70771">
        <ele>78.1</ele>
        <time>2021-05-30T08:54:45Z</time>
      </trkpt>
      <trkpt lat="48.47037" lon="2.70729">
        <ele>77.2</ele>
        <time>2021-05-30T08:54:53Z</time>
      </trkpt>
      <trkpt lat="48.4704" lon="2.70723">
        <ele>77.1</ele>
        <time>2021-05-30T08:54:54Z</time>
      </trkpt>
      <trkpt lat="48.47066" lon="2.70679">
        <ele>76.3</ele>
        <time>2021-05-30T08:55:02Z</time>
      </trkpt>
      <trkpt lat="48.47068" lon="2.70665">
        <ele>76.4</ele>
        <time>2021-05-30T08:55:06Z</time>
      </trkpt>
      <trkpt lat="48.47069" lon="2.70661">
        <ele>76.3</ele>
        <time>2021-05-30T08:55:07Z</time>
      </trkpt>
      <trkpt lat="48.47072" lon="2.70657">
        <ele>76.3</ele>
        <time>2021-05-30T08:55:08Z</time>
      </trkpt>
      <trkpt lat="48.47083" lon="2.70626">
        <ele>76</ele>
        <time>2021-05-30T08:55:19Z</time>
      </trkpt>
      <trkpt lat="48.47072" lon="2.706">
        <ele>76.2</ele>
        <time>2021-05-30T08:55:31Z</time>
      </trkpt>
      <trkpt lat="48.47071" lon="2.70595">
        <ele>76.2</ele>
        <time>2021-05-30T08:55:32Z</time>
      </trkpt>
      <trkpt lat="48.4707" lon="2.70591">
        <ele>76.2</ele>
        <time>2021-05-30T08:55:33Z</time>
      </trkpt>
      <trkpt lat="48.47071" lon="2.70579">
        <ele>76.1</ele>
        <time>2021-05-30T08:55:36Z</time>
      </trkpt>
      <trkpt lat="48.47072" lon="2.70576">
        <ele>76.1</ele>
        <time>2021-05-30T08:55:37Z</time>
      </trkpt>
      <trkpt lat="48.47074" lon="2.70572">
        <ele>76</ele>
        <time>2021-05-30T08:55:38Z</time>
      </trkpt>
      <trkpt lat="48.47077" lon="2.70567">
        <ele>75.9</ele>
        <time>2021-05-30T08:55:39Z</time>
      </trkpt>
      <trkpt lat="48.4708" lon="2.70562">
        <ele>75.8</ele>
        <time>2021-05-30T08:55:40Z</time>
      </trkpt>
      <trkpt lat="48.47106" lon="2.70521">
        <ele>74.2</ele>
        <time>2021-05-30T08:55:50Z</time>
      </trkpt>
      <trkpt lat="48.47108" lon="2.7052">
        <ele>74</ele>
        <time>2021-05-30T08:55:51Z</time>
      </trkpt>
      <trkpt lat="48.4711" lon="2.7052">
        <ele>74</ele>
        <time>2021-05-30T08:55:52Z</time>
      </trkpt>
      <trkpt lat="48.47111" lon="2.70521">
        <ele>73.9</ele>
        <time>2021-05-30T08:55:53Z</time>
      </trkpt>
      <trkpt lat="48.4713" lon="2.70535">
        <ele>73.6</ele>
        <time>2021-05-30T08:55:59Z</time>
      </trkpt>
      <trkpt lat="48.47134" lon="2.70538">
        <ele>73.5</ele>
        <time>2021-05-30T08:56:00Z</time>
      </trkpt>
      <trkpt lat="48.47167" lon="2.70563">
        <ele>73.7</ele>
        <time>2021-05-30T08:56:08Z</time>
      </trkpt>
      <trkpt lat="48.47183" lon="2.70571">
        <ele>72.6</ele>
        <time>2021-05-30T08:56:11Z</time>
      </trkpt>
      <trkpt lat="48.47194" lon="2.70576">
        <ele>71.7</ele>
        <time>2021-05-30T08:56:13Z</time>
      </trkpt>
      <trkpt lat="48.47199" lon="2.70578">
        <ele>71.2</ele>
        <time>2021-05-30T08:56:14Z</time>
      </trkpt>
      <trkpt lat="48.47212" lon="2.70584">
        <ele>70.1</ele>
        <time>2021-05-30T08:56:17Z</time>
      </trkpt>
      <trkpt lat="48.4723" lon="2.7059">
        <ele>68.5</ele>
        <time>2021-05-30T08:56:26Z</time>
      </trkpt>
      <trkpt lat="48.47239" lon="2.70583">
        <ele>67.1</ele>
        <time>2021-05-30T08:56:31Z</time>
      </trkpt>
      <trkpt lat="48.47269" lon="2.70529">
        <ele>63.6</ele>
        <time>2021-05-30T08:56:44Z</time>
      </trkpt>
      <trkpt lat="48.47272" lon="2.70522">
        <ele>63.3</ele>
        <time>2021-05-30T08:56:46Z</time>
      </trkpt>
      <trkpt lat="48.47289" lon="2.70519">
        <ele>62.4</ele>
        <time>2021-05-30T08:56:53Z</time>
      </trkpt>
      <trkpt lat="48.47297" lon="2.70521">
        <ele>61.9</ele>
        <time>2021-05-30T08:56:57Z</time>
      </trkpt>
      <trkpt lat="48.47303" lon="2.70526">
        <ele>61.7</ele>
        <time>2021-05-30T08:57:00Z</time>
      </trkpt>
      <trkpt lat="48.47319" lon="2.70503">
        <ele>60.7</ele>
        <time>2021-05-30T08:57:09Z</time>
      </trkpt>
      <trkpt lat="48.47331" lon="2.70477">
        <ele>60.9</ele>
        <time>2021-05-30T08:57:18Z</time>
      </trkpt>
      <trkpt lat="48.47323" lon="2.70459">
        <ele>61.8</ele>
        <time>2021-05-30T08:57:24Z</time>
      </trkpt>
      <trkpt lat="48.47332" lon="2.70422">
        <ele>62.8</ele>
        <time>2021-05-30T08:57:35Z</time>
      </trkpt>
      <trkpt lat="48.47351" lon="2.70386">
        <ele>64.3</ele>
        <time>2021-05-30T08:57:47Z</time>
      </trkpt>
      <trkpt lat="48.47356" lon="2.70377">
        <ele>64.6</ele>
        <time>2021-05-30T08:57:50Z</time>
      </trkpt>
      <trkpt lat="48.47365" lon="2.70362">
        <ele>64.9</ele>
        <time>2021-05-30T08:57:55Z</time>
      </trkpt>
      <trkpt lat="48.4739" lon="2.70315">
        <ele>64.9</ele>
        <time>2021-05-30T08:58:08Z</time>
      </trkpt>
      <trkpt lat="48.47396" lon="2.7031">
        <ele>64.5</ele>
        <time>2021-05-30T08:58:10Z</time>
      </trkpt>
      <trkpt lat="48.47414" lon="2.70318">
        <ele>62.6</ele>
        <time>2021-05-30T08:58:15Z</time>
      </trkpt>
      <trkpt lat="48.47418" lon="2.70319">
        <ele>62.4</ele>
        <time>2021-05-30T08:58:16Z</time>
      </trkpt>
      <trkpt lat="48.47423" lon="2.70318">
        <ele>62.5</ele>
        <time>2021-05-30T08:58:17Z</time>
      </trkpt>
      <trkpt lat="48.47427" lon="2.70315">
        <ele>62.6</ele>
        <time>2021-05-30T08:58:18Z</time>
      </trkpt>
      <trkpt lat="48.47431" lon="2.70311">
        <ele>62.8</ele>
        <time>2021-05-30T08:58:19Z</time>
      </trkpt>
      <trkpt lat="48.47433" lon="2.70307">
        <ele>62.9</ele>
        <time>2021-05-30T08:58:20Z</time>
      </trkpt>
      <trkpt lat="48.47463" lon="2.70262">
        <ele>63.9</ele>
        <time>2021-05-30T08:58:32Z</time>
      </trkpt>
      <trkpt lat="48.47472" lon="2.70245">
        <ele>64</ele>
        <time>2021-05-30T08:58:36Z</time>
      </trkpt>
      <trkpt lat="48.47513" lon="2.70192">
        <ele>62.8</ele>
        <time>2021-05-30T08:58:46Z</time>
      </trkpt>
      <trkpt lat="48.47516" lon="2.70186">
        <ele>62.7</ele>
        <time>2021-05-30T08:58:47Z</time>
      </trkpt>
      <trkpt lat="48.47518" lon="2.7018">
        <ele>62.5</ele>
        <time>2021-05-30T08:58:48Z</time>
      </trkpt>
      <trkpt lat="48.4753" lon="2.70147">
        <ele>63.1</ele>
        <time>2021-05-30T08:58:53Z</time>
      </trkpt>
      <trkpt lat="48.47533" lon="2.70141">
        <ele>63.4</ele>
        <time>2021-05-30T08:58:54Z</time>
      </trkpt>
      <trkpt lat="48.47551" lon="2.70084">
        <ele>66.1</ele>
        <time>2021-05-30T08:59:04Z</time>
      </trkpt>
      <trkpt lat="48.47553" lon="2.70077">
        <ele>66.2</ele>
        <time>2021-05-30T08:59:05Z</time>
      </trkpt>
      <trkpt lat="48.47555" lon="2.70071">
        <ele>66.2</ele>
        <time>2021-05-30T08:59:06Z</time>
      </trkpt>
      <trkpt lat="48.47557" lon="2.70064">
        <ele>66.2</ele>
        <time>2021-05-30T08:59:07Z</time>
      </trkpt>
      <trkpt lat="48.4756" lon="2.70059">
        <ele>66.2</ele>
        <time>2021-05-30T08:59:08Z</time>
      </trkpt>
      <trkpt lat="48.47569" lon="2.70034">
        <ele>66.2</ele>
        <time>2021-05-30T08:59:15Z</time>
      </trkpt>
      <trkpt lat="48.47594" lon="2.69984">
        <ele>66.2</ele>
        <time>2021-05-30T08:59:25Z</time>
      </trkpt>
      <trkpt lat="48.47604" lon="2.69958">
        <ele>66.5</ele>
        <time>2021-05-30T08:59:30Z</time>
      </trkpt>
      <trkpt lat="48.47604" lon="2.69954">
        <ele>66.6</ele>
        <time>2021-05-30T08:59:31Z</time>
      </trkpt>
      <trkpt lat="48.47604" lon="2.69951">
        <ele>66.6</ele>
        <time>2021-05-30T08:59:32Z</time>
      </trkpt>
      <trkpt lat="48.47604" lon="2.69946">
        <ele>66.7</ele>
        <time>2021-05-30T08:59:33Z</time>
      </trkpt>
      <trkpt lat="48.47607" lon="2.69938">
        <ele>66.8</ele>
        <time>2021-05-30T08:59:34Z</time>
      </trkpt>
      <trkpt lat="48.47609" lon="2.69933">
        <ele>66.8</ele>
        <time>2021-05-30T08:59:35Z</time>
      </trkpt>
      <trkpt lat="48.47622" lon="2.69893">
        <ele>67.2</ele>
        <time>2021-05-30T08:59:44Z</time>
      </trkpt>
      <trkpt lat="48.47644" lon="2.69847">
        <ele>67.1</ele>
        <time>2021-05-30T08:59:54Z</time>
      </trkpt>
      <trkpt lat="48.47657" lon="2.69814">
        <ele>66.8</ele>
        <time>2021-05-30T09:00:01Z</time>
      </trkpt>
      <trkpt lat="48.4766" lon="2.69812">
        <ele>66.6</ele>
        <time>2021-05-30T09:00:02Z</time>
      </trkpt>
      <trkpt lat="48.47697" lon="2.69798">
        <ele>64.4</ele>
        <time>2021-05-30T09:00:11Z</time>
      </trkpt>
      <trkpt lat="48.47721" lon="2.69795">
        <ele>62.8</ele>
        <time>2021-05-30T09:00:17Z</time>
      </trkpt>
      <trkpt lat="48.47726" lon="2.69794">
        <ele>62.5</ele>
        <time>2021-05-30T09:00:18Z</time>
      </trkpt>
      <trkpt lat="48.47741" lon="2.69791">
        <ele>61.6</ele>
        <time>2021-05-30T09:00:21Z</time>
      </trkpt>
      <trkpt lat="48.47746" lon="2.69788">
        <ele>61.4</ele>
        <time>2021-05-30T09:00:22Z</time>
      </trkpt>
      <trkpt lat="48.47751" lon="2.69786">
        <ele>61.2</ele>
        <time>2021-05-30T09:00:23Z</time>
      </trkpt>
      <trkpt lat="48.47757" lon="2.69783">
        <ele>60.8</ele>
        <time>2021-05-30T09:00:24Z</time>
      </trkpt>
      <trkpt lat="48.47762" lon="2.69781">
        <ele>60.5</ele>
        <time>2021-05-30T09:00:25Z</time>
      </trkpt>
      <trkpt lat="48.47766" lon="2.69778">
        <ele>60.1</ele>
        <time>2021-05-30T09:00:26Z</time>
      </trkpt>
      <trkpt lat="48.47771" lon="2.69776">
        <ele>59.8</ele>
        <time>2021-05-30T09:00:27Z</time>
      </trkpt>
      <trkpt lat="48.47775" lon="2.69774">
        <ele>59.5</ele>
        <time>2021-05-30T09:00:28Z</time>
      </trkpt>
      <trkpt lat="48.47778" lon="2.69772">
        <ele>59.3</ele>
        <time>2021-05-30T09:00:29Z</time>
      </trkpt>
      <trkpt lat="48.47782" lon="2.69769">
        <ele>59</ele>
        <time>2021-05-30T09:00:30Z</time>
      </trkpt>
      <trkpt lat="48.47786" lon="2.69766">
        <ele>58.7</ele>
        <time>2021-05-30T09:00:31Z</time>
      </trkpt>
      <trkpt lat="48.47791" lon="2.69764">
        <ele>58.2</ele>
        <time>2021-05-30T09:00:32Z</time>
      </trkpt>
      <trkpt lat="48.47795" lon="2.69761">
        <ele>57.9</ele>
        <time>2021-05-30T09:00:33Z</time>
      </trkpt>
      <trkpt lat="48.47799" lon="2.69758">
        <ele>57.5</ele>
        <time>2021-05-30T09:00:34Z</time>
      </trkpt>
      <trkpt lat="48.47802" lon="2.69754">
        <ele>57.3</ele>
        <time>2021-05-30T09:00:35Z</time>
      </trkpt>
      <trkpt lat="48.47806" lon="2.6975">
        <ele>57</ele>
        <time>2021-05-30T09:00:36Z</time>
      </trkpt>
      <trkpt lat="48.47812" lon="2.6974">
        <ele>56.3</ele>
        <time>2021-05-30T09:00:38Z</time>
      </trkpt>
      <trkpt lat="48.47814" lon="2.69734">
        <ele>56</ele>
        <time>2021-05-30T09:00:39Z</time>
      </trkpt>
      <trkpt lat="48.47823" lon="2.69685">
        <ele>55</ele>
        <time>2021-05-30T09:00:49Z</time>
      </trkpt>
      <trkpt lat="48.47822" lon="2.69681">
        <ele>55</ele>
        <time>2021-05-30T09:00:50Z</time>
      </trkpt>
      <trkpt lat="48.47822" lon="2.69678">
        <ele>55</ele>
        <time>2021-05-30T09:00:51Z</time>
      </trkpt>
      <trkpt lat="48.47822" lon="2.69675">
        <ele>54.9</ele>
        <time>2021-05-30T09:00:52Z</time>
      </trkpt>
      <trkpt lat="48.47823" lon="2.69672">
        <ele>54.9</ele>
        <time>2021-05-30T09:00:53Z</time>
      </trkpt>
      <trkpt lat="48.47826" lon="2.69651">
        <ele>54.8</ele>
        <time>2021-05-30T09:00:58Z</time>
      </trkpt>
      <trkpt lat="48.47826" lon="2.69644">
        <ele>54.8</ele>
        <time>2021-05-30T09:00:59Z</time>
      </trkpt>
      <trkpt lat="48.47819" lon="2.6958">
        <ele>55.7</ele>
        <time>2021-05-30T09:01:10Z</time>
      </trkpt>
      <trkpt lat="48.47822" lon="2.69497">
        <ele>55.7</ele>
        <time>2021-05-30T09:01:24Z</time>
      </trkpt>
      <trkpt lat="48.47823" lon="2.69437">
        <ele>59.1</ele>
        <time>2021-05-30T09:01:36Z</time>
      </trkpt>
      <trkpt lat="48.47822" lon="2.69432">
        <ele>59.4</ele>
        <time>2021-05-30T09:01:38Z</time>
      </trkpt>
      <trkpt lat="48.47821" lon="2.69429">
        <ele>59.6</ele>
        <time>2021-05-30T09:01:39Z</time>
      </trkpt>
      <trkpt lat="48.47819" lon="2.69427">
        <ele>59.8</ele>
        <time>2021-05-30T09:01:40Z</time>
      </trkpt>
      <trkpt lat="48.47765" lon="2.69408">
        <ele>62</ele>
        <time>2021-05-30T09:01:54Z</time>
      </trkpt>
      <trkpt lat="48.4771" lon="2.69391">
        <ele>66.6</ele>
        <time>2021-05-30T09:02:09Z</time>
      </trkpt>
      <trkpt lat="48.47686" lon="2.69383">
        <ele>69.1</ele>
        <time>2021-05-30T09:02:15Z</time>
      </trkpt>
      <trkpt lat="48.47683" lon="2.69382">
        <ele>69.5</ele>
        <time>2021-05-30T09:02:16Z</time>
      </trkpt>
      <trkpt lat="48.4768" lon="2.69381">
        <ele>69.9</ele>
        <time>2021-05-30T09:02:17Z</time>
      </trkpt>
      <trkpt lat="48.47637" lon="2.69364">
        <ele>75.1</ele>
        <time>2021-05-30T09:02:29Z</time>
      </trkpt>
      <trkpt lat="48.47599" lon="2.69352">
        <ele>79.1</ele>
        <time>2021-05-30T09:02:40Z</time>
      </trkpt>
      <trkpt lat="48.47561" lon="2.69339">
        <ele>80.6</ele>
        <time>2021-05-30T09:02:51Z</time>
      </trkpt>
      <trkpt lat="48.47523" lon="2.69331">
        <ele>80.3</ele>
        <time>2021-05-30T09:03:01Z</time>
      </trkpt>
      <trkpt lat="48.47491" lon="2.69326">
        <ele>80.3</ele>
        <time>2021-05-30T09:03:11Z</time>
      </trkpt>
      <trkpt lat="48.4748" lon="2.69315">
        <ele>80.6</ele>
        <time>2021-05-30T09:03:14Z</time>
      </trkpt>
      <trkpt lat="48.47477" lon="2.69311">
        <ele>80.6</ele>
        <time>2021-05-30T09:03:15Z</time>
      </trkpt>
      <trkpt lat="48.47475" lon="2.69307">
        <ele>80.7</ele>
        <time>2021-05-30T09:03:16Z</time>
      </trkpt>
      <trkpt lat="48.47474" lon="2.69302">
        <ele>80.7</ele>
        <time>2021-05-30T09:03:17Z</time>
      </trkpt>
      <trkpt lat="48.47473" lon="2.69298">
        <ele>80.7</ele>
        <time>2021-05-30T09:03:18Z</time>
      </trkpt>
      <trkpt lat="48.47474" lon="2.69294">
        <ele>80.6</ele>
        <time>2021-05-30T09:03:19Z</time>
      </trkpt>
      <trkpt lat="48.47475" lon="2.6929">
        <ele>80.5</ele>
        <time>2021-05-30T09:03:20Z</time>
      </trkpt>
      <trkpt lat="48.47476" lon="2.69286">
        <ele>80.5</ele>
        <time>2021-05-30T09:03:21Z</time>
      </trkpt>
      <trkpt lat="48.47477" lon="2.69282">
        <ele>80.4</ele>
        <time>2021-05-30T09:03:22Z</time>
      </trkpt>
      <trkpt lat="48.47479" lon="2.69279">
        <ele>80.3</ele>
        <time>2021-05-30T09:03:23Z</time>
      </trkpt>
      <trkpt lat="48.4748" lon="2.69275">
        <ele>80.2</ele>
        <time>2021-05-30T09:03:24Z</time>
      </trkpt>
      <trkpt lat="48.47498" lon="2.69248">
        <ele>79.1</ele>
        <time>2021-05-30T09:03:34Z</time>
      </trkpt>
      <trkpt lat="48.47518" lon="2.69214">
        <ele>79.4</ele>
        <time>2021-05-30T09:03:45Z</time>
      </trkpt>
      <trkpt lat="48.47532" lon="2.69186">
        <ele>79.3</ele>
        <time>2021-05-30T09:03:57Z</time>
      </trkpt>
      <trkpt lat="48.47532" lon="2.69185">
        <ele>79.3</ele>
        <time>2021-05-30T09:04:09Z</time>
      </trkpt>
      <trkpt lat="48.47531" lon="2.69186">
        <ele>79.3</ele>
        <time>2021-05-30T09:04:32Z</time>
      </trkpt>
      <trkpt lat="48.47529" lon="2.69186">
        <ele>79.3</ele>
        <time>2021-05-30T09:04:55Z</time>
      </trkpt>
      <trkpt lat="48.4753" lon="2.69186">
        <ele>79.3</ele>
        <time>2021-05-30T09:05:13Z</time>
      </trkpt>
      <trkpt lat="48.47532" lon="2.69185">
        <ele>79.3</ele>
        <time>2021-05-30T09:05:31Z</time>
      </trkpt>
      <trkpt lat="48.47532" lon="2.69189">
        <ele>79.3</ele>
        <time>2021-05-30T09:05:39Z</time>
      </trkpt>
      <trkpt lat="48.47518" lon="2.69216">
        <ele>79.4</ele>
        <time>2021-05-30T09:05:51Z</time>
      </trkpt>
      <trkpt lat="48.47506" lon="2.6924">
        <ele>79.2</ele>
        <time>2021-05-30T09:05:58Z</time>
      </trkpt>
      <trkpt lat="48.47484" lon="2.69282">
        <ele>80.1</ele>
        <time>2021-05-30T09:06:09Z</time>
      </trkpt>
      <trkpt lat="48.47468" lon="2.69309">
        <ele>81</ele>
        <time>2021-05-30T09:06:20Z</time>
      </trkpt>
      <trkpt lat="48.47468" lon="2.69317">
        <ele>81</ele>
        <time>2021-05-30T09:06:23Z</time>
      </trkpt>
      <trkpt lat="48.4747" lon="2.69318">
        <ele>81</ele>
        <time>2021-05-30T09:06:24Z</time>
      </trkpt>
      <trkpt lat="48.47473" lon="2.69321">
        <ele>80.9</ele>
        <time>2021-05-30T09:06:25Z</time>
      </trkpt>
      <trkpt lat="48.47505" lon="2.69338">
        <ele>80.2</ele>
        <time>2021-05-30T09:06:36Z</time>
      </trkpt>
      <trkpt lat="48.4751" lon="2.69337">
        <ele>80.2</ele>
        <time>2021-05-30T09:06:39Z</time>
      </trkpt>
      <trkpt lat="48.47512" lon="2.69335">
        <ele>80.2</ele>
        <time>2021-05-30T09:06:40Z</time>
      </trkpt>
      <trkpt lat="48.47513" lon="2.69332">
        <ele>80.1</ele>
        <time>2021-05-30T09:06:41Z</time>
      </trkpt>
      <trkpt lat="48.47514" lon="2.69328">
        <ele>80.1</ele>
        <time>2021-05-30T09:06:42Z</time>
      </trkpt>
      <trkpt lat="48.47515" lon="2.69324">
        <ele>80.1</ele>
        <time>2021-05-30T09:06:43Z</time>
      </trkpt>
      <trkpt lat="48.47534" lon="2.69289">
        <ele>79.9</ele>
        <time>2021-05-30T09:06:53Z</time>
      </trkpt>
      <trkpt lat="48.47569" lon="2.69229">
        <ele>79.4</ele>
        <time>2021-05-30T09:07:07Z</time>
      </trkpt>
      <trkpt lat="48.47587" lon="2.69199">
        <ele>78.7</ele>
        <time>2021-05-30T09:07:13Z</time>
      </trkpt>
      <trkpt lat="48.47589" lon="2.69193">
        <ele>78.6</ele>
        <time>2021-05-30T09:07:14Z</time>
      </trkpt>
      <trkpt lat="48.47633" lon="2.69123">
        <ele>77.4</ele>
        <time>2021-05-30T09:07:28Z</time>
      </trkpt>
      <trkpt lat="48.47677" lon="2.69049">
        <ele>76.6</ele>
        <time>2021-05-30T09:07:44Z</time>
      </trkpt>
      <trkpt lat="48.47708" lon="2.68984">
        <ele>77.8</ele>
        <time>2021-05-30T09:07:56Z</time>
      </trkpt>
      <trkpt lat="48.47711" lon="2.68978">
        <ele>77.9</ele>
        <time>2021-05-30T09:07:57Z</time>
      </trkpt>
      <trkpt lat="48.47714" lon="2.68972">
        <ele>78</ele>
        <time>2021-05-30T09:07:58Z</time>
      </trkpt>
      <trkpt lat="48.47717" lon="2.68967">
        <ele>78</ele>
        <time>2021-05-30T09:07:59Z</time>
      </trkpt>
      <trkpt lat="48.4772" lon="2.68962">
        <ele>78</ele>
        <time>2021-05-30T09:08:00Z</time>
      </trkpt>
      <trkpt lat="48.47723" lon="2.68957">
        <ele>78</ele>
        <time>2021-05-30T09:08:01Z</time>
      </trkpt>
      <trkpt lat="48.47726" lon="2.68952">
        <ele>78</ele>
        <time>2021-05-30T09:08:02Z</time>
      </trkpt>
      <trkpt lat="48.47748" lon="2.6891">
        <ele>77.2</ele>
        <time>2021-05-30T09:08:10Z</time>
      </trkpt>
      <trkpt lat="48.47752" lon="2.68905">
        <ele>77.2</ele>
        <time>2021-05-30T09:08:11Z</time>
      </trkpt>
      <trkpt lat="48.47755" lon="2.68901">
        <ele>77.2</ele>
        <time>2021-05-30T09:08:12Z</time>
      </trkpt>
      <trkpt lat="48.47758" lon="2.68896">
        <ele>77.2</ele>
        <time>2021-05-30T09:08:13Z</time>
      </trkpt>
      <trkpt lat="48.47759" lon="2.68892">
        <ele>77.2</ele>
        <time>2021-05-30T09:08:14Z</time>
      </trkpt>
      <trkpt lat="48.47761" lon="2.68888">
        <ele>77.2</ele>
        <time>2021-05-30T09:08:15Z</time>
      </trkpt>
      <trkpt lat="48.47763" lon="2.68885">
        <ele>77.2</ele>
        <time>2021-05-30T09:08:16Z</time>
      </trkpt>
      <trkpt lat="48.47765" lon="2.68883">
        <ele>77.1</ele>
        <time>2021-05-30T09:08:17Z</time>
      </trkpt>
      <trkpt lat="48.47767" lon="2.68882">
        <ele>77</ele>
        <time>2021-05-30T09:08:18Z</time>
      </trkpt>
      <trkpt lat="48.4777" lon="2.68883">
        <ele>76.9</ele>
        <time>2021-05-30T09:08:19Z</time>
      </trkpt>
      <trkpt lat="48.47772" lon="2.68885">
        <ele>76.8</ele>
        <time>2021-05-30T09:08:20Z</time>
      </trkpt>
      <trkpt lat="48.4783" lon="2.68917">
        <ele>74.1</ele>
        <time>2021-05-30T09:08:33Z</time>
      </trkpt>
      <trkpt lat="48.47873" lon="2.68942">
        <ele>70.8</ele>
        <time>2021-05-30T09:08:41Z</time>
      </trkpt>
      <trkpt lat="48.47878" lon="2.68944">
        <ele>70.3</ele>
        <time>2021-05-30T09:08:42Z</time>
      </trkpt>
      <trkpt lat="48.47942" lon="2.68979">
        <ele>63</ele>
        <time>2021-05-30T09:08:54Z</time>
      </trkpt>
      <trkpt lat="48.48013" lon="2.69017">
        <ele>54.7</ele>
        <time>2021-05-30T09:09:06Z</time>
      </trkpt>
      <trkpt lat="48.48019" lon="2.69021">
        <ele>54.3</ele>
        <time>2021-05-30T09:09:07Z</time>
      </trkpt>
      <trkpt lat="48.48091" lon="2.69065">
        <ele>48.5</ele>
        <time>2021-05-30T09:09:20Z</time>
      </trkpt>
      <trkpt lat="48.481" lon="2.6907">
        <ele>47.8</ele>
        <time>2021-05-30T09:09:23Z</time>
      </trkpt>
      <trkpt lat="48.48103" lon="2.69069">
        <ele>47.7</ele>
        <time>2021-05-30T09:09:24Z</time>
      </trkpt>
      <trkpt lat="48.48105" lon="2.69066">
        <ele>47.7</ele>
        <time>2021-05-30T09:09:25Z</time>
      </trkpt>
      <trkpt lat="48.48108" lon="2.69061">
        <ele>47.8</ele>
        <time>2021-05-30T09:09:26Z</time>
      </trkpt>
      <trkpt lat="48.48109" lon="2.69056">
        <ele>47.9</ele>
        <time>2021-05-30T09:09:27Z</time>
      </trkpt>
      <trkpt lat="48.4811" lon="2.69051">
        <ele>48</ele>
        <time>2021-05-30T09:09:28Z</time>
      </trkpt>
      <trkpt lat="48.48111" lon="2.69045">
        <ele>48.2</ele>
        <time>2021-05-30T09:09:29Z</time>
      </trkpt>
      <trkpt lat="48.48113" lon="2.69013">
        <ele>49.4</ele>
        <time>2021-05-30T09:09:34Z</time>
      </trkpt>
      <trkpt lat="48.48114" lon="2.69001">
        <ele>49.8</ele>
        <time>2021-05-30T09:09:36Z</time>
      </trkpt>
      <trkpt lat="48.48123" lon="2.68948">
        <ele>49.2</ele>
        <time>2021-05-30T09:09:44Z</time>
      </trkpt>
      <trkpt lat="48.48125" lon="2.68928">
        <ele>49</ele>
        <time>2021-05-30T09:09:47Z</time>
      </trkpt>
      <trkpt lat="48.48127" lon="2.68908">
        <ele>49</ele>
        <time>2021-05-30T09:09:50Z</time>
      </trkpt>
      <trkpt lat="48.48133" lon="2.68851">
        <ele>49.5</ele>
        <time>2021-05-30T09:09:59Z</time>
      </trkpt>
      <trkpt lat="48.48143" lon="2.688">
        <ele>49.1</ele>
        <time>2021-05-30T09:10:06Z</time>
      </trkpt>
      <trkpt lat="48.48165" lon="2.68708">
        <ele>48.3</ele>
        <time>2021-05-30T09:10:20Z</time>
      </trkpt>
      <trkpt lat="48.48188" lon="2.68613">
        <ele>50.9</ele>
        <time>2021-05-30T09:10:34Z</time>
      </trkpt>
      <trkpt lat="48.48192" lon="2.68594">
        <ele>51</ele>
        <time>2021-05-30T09:10:37Z</time>
      </trkpt>
      <trkpt lat="48.48203" lon="2.68549">
        <ele>52.3</ele>
        <time>2021-05-30T09:10:44Z</time>
      </trkpt>
      <trkpt lat="48.48205" lon="2.68543">
        <ele>52.5</ele>
        <time>2021-05-30T09:10:45Z</time>
      </trkpt>
      <trkpt lat="48.48215" lon="2.68501">
        <ele>53.6</ele>
        <time>2021-05-30T09:10:51Z</time>
      </trkpt>
      <trkpt lat="48.48217" lon="2.68496">
        <ele>53.9</ele>
        <time>2021-05-30T09:10:52Z</time>
      </trkpt>
      <trkpt lat="48.48228" lon="2.68457">
        <ele>56.3</ele>
        <time>2021-05-30T09:11:03Z</time>
      </trkpt>
      <trkpt lat="48.48227" lon="2.68451">
        <ele>57.2</ele>
        <time>2021-05-30T09:11:16Z</time>
      </trkpt>
      <trkpt lat="48.48228" lon="2.68444">
        <ele>57.9</ele>
        <time>2021-05-30T09:11:32Z</time>
      </trkpt>
      <trkpt lat="48.48231" lon="2.68431">
        <ele>58.7</ele>
        <time>2021-05-30T09:11:37Z</time>
      </trkpt>
      <trkpt lat="48.48232" lon="2.68427">
        <ele>58.9</ele>
        <time>2021-05-30T09:11:38Z</time>
      </trkpt>
      <trkpt lat="48.48233" lon="2.68423">
        <ele>59.1</ele>
        <time>2021-05-30T09:11:39Z</time>
      </trkpt>
      <trkpt lat="48.48234" lon="2.6842">
        <ele>59.2</ele>
        <time>2021-05-30T09:11:40Z</time>
      </trkpt>
      <trkpt lat="48.48236" lon="2.68417">
        <ele>59.1</ele>
        <time>2021-05-30T09:11:41Z</time>
      </trkpt>
      <trkpt lat="48.4825" lon="2.6837">
        <ele>60.5</ele>
        <time>2021-05-30T09:11:52Z</time>
      </trkpt>
      <trkpt lat="48.48263" lon="2.6833">
        <ele>61.3</ele>
        <time>2021-05-30T09:12:00Z</time>
      </trkpt>
      <trkpt lat="48.48278" lon="2.68281">
        <ele>61.4</ele>
        <time>2021-05-30T09:12:10Z</time>
      </trkpt>
      <trkpt lat="48.48287" lon="2.68252">
        <ele>60.9</ele>
        <time>2021-05-30T09:12:15Z</time>
      </trkpt>
      <trkpt lat="48.48288" lon="2.68247">
        <ele>60.8</ele>
        <time>2021-05-30T09:12:16Z</time>
      </trkpt>
      <trkpt lat="48.4829" lon="2.68242">
        <ele>60.5</ele>
        <time>2021-05-30T09:12:17Z</time>
      </trkpt>
      <trkpt lat="48.48309" lon="2.68192">
        <ele>58.6</ele>
        <time>2021-05-30T09:12:27Z</time>
      </trkpt>
      <trkpt lat="48.48312" lon="2.68182">
        <ele>58.6</ele>
        <time>2021-05-30T09:12:30Z</time>
      </trkpt>
      <trkpt lat="48.48313" lon="2.68179">
        <ele>58.4</ele>
        <time>2021-05-30T09:12:31Z</time>
      </trkpt>
      <trkpt lat="48.48315" lon="2.68175">
        <ele>58.2</ele>
        <time>2021-05-30T09:12:32Z</time>
      </trkpt>
      <trkpt lat="48.48325" lon="2.68149">
        <ele>57.3</ele>
        <time>2021-05-30T09:12:38Z</time>
      </trkpt>
      <trkpt lat="48.48329" lon="2.6814">
        <ele>56.8</ele>
        <time>2021-05-30T09:12:39Z</time>
      </trkpt>
      <trkpt lat="48.48332" lon="2.68132">
        <ele>56.7</ele>
        <time>2021-05-30T09:12:40Z</time>
      </trkpt>
      <trkpt lat="48.48335" lon="2.68125">
        <ele>56.6</ele>
        <time>2021-05-30T09:12:41Z</time>
      </trkpt>
      <trkpt lat="48.48338" lon="2.68117">
        <ele>56.7</ele>
        <time>2021-05-30T09:12:42Z</time>
      </trkpt>
      <trkpt lat="48.4834" lon="2.6811">
        <ele>56.8</ele>
        <time>2021-05-30T09:12:43Z</time>
      </trkpt>
      <trkpt lat="48.48342" lon="2.68103">
        <ele>56.8</ele>
        <time>2021-05-30T09:12:44Z</time>
      </trkpt>
      <trkpt lat="48.48356" lon="2.6807">
        <ele>55.5</ele>
        <time>2021-05-30T09:12:49Z</time>
      </trkpt>
      <trkpt lat="48.48359" lon="2.68063">
        <ele>55.1</ele>
        <time>2021-05-30T09:12:50Z</time>
      </trkpt>
      <trkpt lat="48.48361" lon="2.68058">
        <ele>54.7</ele>
        <time>2021-05-30T09:12:51Z</time>
      </trkpt>
      <trkpt lat="48.48363" lon="2.68054">
        <ele>54.4</ele>
        <time>2021-05-30T09:12:52Z</time>
      </trkpt>
      <trkpt lat="48.48365" lon="2.68049">
        <ele>54.2</ele>
        <time>2021-05-30T09:12:53Z</time>
      </trkpt>
      <trkpt lat="48.48371" lon="2.68032">
        <ele>53.2</ele>
        <time>2021-05-30T09:12:56Z</time>
      </trkpt>
      <trkpt lat="48.48396" lon="2.67981">
        <ele>49.2</ele>
        <time>2021-05-30T09:13:06Z</time>
      </trkpt>
      <trkpt lat="48.48398" lon="2.67976">
        <ele>49.2</ele>
        <time>2021-05-30T09:13:07Z</time>
      </trkpt>
      <trkpt lat="48.48402" lon="2.67965">
        <ele>49</ele>
        <time>2021-05-30T09:13:09Z</time>
      </trkpt>
      <trkpt lat="48.48422" lon="2.67931">
        <ele>48.5</ele>
        <time>2021-05-30T09:13:16Z</time>
      </trkpt>
      <trkpt lat="48.48431" lon="2.67914">
        <ele>49.5</ele>
        <time>2021-05-30T09:13:19Z</time>
      </trkpt>
      <trkpt lat="48.48434" lon="2.67909">
        <ele>49.9</ele>
        <time>2021-05-30T09:13:20Z</time>
      </trkpt>
      <trkpt lat="48.48437" lon="2.67904">
        <ele>50.3</ele>
        <time>2021-05-30T09:13:21Z</time>
      </trkpt>
      <trkpt lat="48.48466" lon="2.6785">
        <ele>52.4</ele>
        <time>2021-05-30T09:13:34Z</time>
      </trkpt>
      <trkpt lat="48.48489" lon="2.67804">
        <ele>52.3</ele>
        <time>2021-05-30T09:13:45Z</time>
      </trkpt>
      <trkpt lat="48.48509" lon="2.67767">
        <ele>52.6</ele>
        <time>2021-05-30T09:13:51Z</time>
      </trkpt>
      <trkpt lat="48.48513" lon="2.67761">
        <ele>52.6</ele>
        <time>2021-05-30T09:13:52Z</time>
      </trkpt>
      <trkpt lat="48.4852" lon="2.67749">
        <ele>52.7</ele>
        <time>2021-05-30T09:13:54Z</time>
      </trkpt>
      <trkpt lat="48.48548" lon="2.67705">
        <ele>52.7</ele>
        <time>2021-05-30T09:14:02Z</time>
      </trkpt>
      <trkpt lat="48.48555" lon="2.67694">
        <ele>52.4</ele>
        <time>2021-05-30T09:14:04Z</time>
      </trkpt>
      <trkpt lat="48.4857" lon="2.67672">
        <ele>51.2</ele>
        <time>2021-05-30T09:14:08Z</time>
      </trkpt>
      <trkpt lat="48.48574" lon="2.67666">
        <ele>50.9</ele>
        <time>2021-05-30T09:14:09Z</time>
      </trkpt>
      <trkpt lat="48.48588" lon="2.67643">
        <ele>50.8</ele>
        <time>2021-05-30T09:14:13Z</time>
      </trkpt>
      <trkpt lat="48.4865" lon="2.6756">
        <ele>48.7</ele>
        <time>2021-05-30T09:14:29Z</time>
      </trkpt>
      <trkpt lat="48.48687" lon="2.67517">
        <ele>49.3</ele>
        <time>2021-05-30T09:14:38Z</time>
      </trkpt>
      <trkpt lat="48.48695" lon="2.67508">
        <ele>49.3</ele>
        <time>2021-05-30T09:14:40Z</time>
      </trkpt>
      <trkpt lat="48.48699" lon="2.67503">
        <ele>49.3</ele>
        <time>2021-05-30T09:14:41Z</time>
      </trkpt>
      <trkpt lat="48.48748" lon="2.67443">
        <ele>53</ele>
        <time>2021-05-30T09:14:55Z</time>
      </trkpt>
      <trkpt lat="48.48763" lon="2.67429">
        <ele>53.6</ele>
        <time>2021-05-30T09:14:59Z</time>
      </trkpt>
      <trkpt lat="48.48767" lon="2.67425">
        <ele>53.7</ele>
        <time>2021-05-30T09:15:00Z</time>
      </trkpt>
      <trkpt lat="48.48793" lon="2.67394">
        <ele>54.5</ele>
        <time>2021-05-30T09:15:10Z</time>
      </trkpt>
      <trkpt lat="48.48795" lon="2.67384">
        <ele>55.7</ele>
        <time>2021-05-30T09:15:17Z</time>
      </trkpt>
      <trkpt lat="48.48793" lon="2.67384">
        <ele>56</ele>
        <time>2021-05-30T09:15:18Z</time>
      </trkpt>
      <trkpt lat="48.48792" lon="2.67384">
        <ele>56.2</ele>
        <time>2021-05-30T09:15:19Z</time>
      </trkpt>
      <trkpt lat="48.4879" lon="2.67384">
        <ele>56.5</ele>
        <time>2021-05-30T09:15:20Z</time>
      </trkpt>
      <trkpt lat="48.48789" lon="2.67381">
        <ele>57</ele>
        <time>2021-05-30T09:15:22Z</time>
      </trkpt>
      <trkpt lat="48.48787" lon="2.67371">
        <ele>58.7</ele>
        <time>2021-05-30T09:15:28Z</time>
      </trkpt>
      <trkpt lat="48.48795" lon="2.67359">
        <ele>59.2</ele>
        <time>2021-05-30T09:15:36Z</time>
      </trkpt>
      <trkpt lat="48.48806" lon="2.67349">
        <ele>58.9</ele>
        <time>2021-05-30T09:15:43Z</time>
      </trkpt>
      <trkpt lat="48.48797" lon="2.6733">
        <ele>63</ele>
        <time>2021-05-30T09:15:54Z</time>
      </trkpt>
      <trkpt lat="48.48778" lon="2.67335">
        <ele>65.7</ele>
        <time>2021-05-30T09:16:06Z</time>
      </trkpt>
      <trkpt lat="48.4876" lon="2.67349">
        <ele>66.6</ele>
        <time>2021-05-30T09:16:18Z</time>
      </trkpt>
      <trkpt lat="48.48758" lon="2.6735">
        <ele>66.8</ele>
        <time>2021-05-30T09:16:19Z</time>
      </trkpt>
      <trkpt lat="48.48751" lon="2.67358">
        <ele>66.7</ele>
        <time>2021-05-30T09:16:24Z</time>
      </trkpt>
      <trkpt lat="48.48747" lon="2.67364">
        <ele>66.3</ele>
        <time>2021-05-30T09:16:28Z</time>
      </trkpt>
      <trkpt lat="48.48727" lon="2.67377">
        <ele>66.8</ele>
        <time>2021-05-30T09:16:40Z</time>
      </trkpt>
      <trkpt lat="48.48719" lon="2.67375">
        <ele>68.2</ele>
        <time>2021-05-30T09:16:45Z</time>
      </trkpt>
      <trkpt lat="48.48717" lon="2.67366">
        <ele>69.9</ele>
        <time>2021-05-30T09:16:49Z</time>
      </trkpt>
      <trkpt lat="48.48716" lon="2.67345">
        <ele>73.5</ele>
        <time>2021-05-30T09:16:59Z</time>
      </trkpt>
      <trkpt lat="48.48699" lon="2.67341">
        <ele>76.5</ele>
        <time>2021-05-30T09:17:09Z</time>
      </trkpt>
      <trkpt lat="48.48685" lon="2.67336">
        <ele>79.1</ele>
        <time>2021-05-30T09:17:16Z</time>
      </trkpt>
      <trkpt lat="48.48672" lon="2.67328">
        <ele>82.2</ele>
        <time>2021-05-30T09:17:25Z</time>
      </trkpt>
      <trkpt lat="48.48656" lon="2.6732">
        <ele>85</ele>
        <time>2021-05-30T09:17:37Z</time>
      </trkpt>
      <trkpt lat="48.4865" lon="2.67316">
        <ele>86.1</ele>
        <time>2021-05-30T09:17:47Z</time>
      </trkpt>
      <trkpt lat="48.48645" lon="2.67315">
        <ele>86.7</ele>
        <time>2021-05-30T09:17:49Z</time>
      </trkpt>
      <trkpt lat="48.48639" lon="2.67303">
        <ele>88.7</ele>
        <time>2021-05-30T09:17:55Z</time>
      </trkpt>
      <trkpt lat="48.48635" lon="2.67287">
        <ele>91.3</ele>
        <time>2021-05-30T09:18:04Z</time>
      </trkpt>
      <trkpt lat="48.48631" lon="2.67274">
        <ele>93.5</ele>
        <time>2021-05-30T09:18:10Z</time>
      </trkpt>
      <trkpt lat="48.48629" lon="2.67268">
        <ele>94.4</ele>
        <time>2021-05-30T09:18:13Z</time>
      </trkpt>
      <trkpt lat="48.48612" lon="2.67242">
        <ele>97.9</ele>
        <time>2021-05-30T09:18:28Z</time>
      </trkpt>
      <trkpt lat="48.48601" lon="2.67214">
        <ele>100.1</ele>
        <time>2021-05-30T09:18:41Z</time>
      </trkpt>
      <trkpt lat="48.48595" lon="2.67203">
        <ele>100.8</ele>
        <time>2021-05-30T09:18:48Z</time>
      </trkpt>
      <trkpt lat="48.48592" lon="2.67192">
        <ele>101.6</ele>
        <time>2021-05-30T09:18:52Z</time>
      </trkpt>
      <trkpt lat="48.48577" lon="2.67158">
        <ele>102.6</ele>
        <time>2021-05-30T09:19:05Z</time>
      </trkpt>
      <trkpt lat="48.48567" lon="2.67125">
        <ele>102.3</ele>
        <time>2021-05-30T09:19:17Z</time>
      </trkpt>
      <trkpt lat="48.48558" lon="2.67109">
        <ele>102.1</ele>
        <time>2021-05-30T09:19:21Z</time>
      </trkpt>
      <trkpt lat="48.48557" lon="2.67085">
        <ele>102.4</ele>
        <time>2021-05-30T09:19:30Z</time>
      </trkpt>
      <trkpt lat="48.4857" lon="2.67057">
        <ele>103</ele>
        <time>2021-05-30T09:19:43Z</time>
      </trkpt>
      <trkpt lat="48.48587" lon="2.67036">
        <ele>103.8</ele>
        <time>2021-05-30T09:19:56Z</time>
      </trkpt>
      <trkpt lat="48.48614" lon="2.6701">
        <ele>105.1</ele>
        <time>2021-05-30T09:20:07Z</time>
      </trkpt>
      <trkpt lat="48.48637" lon="2.66988">
        <ele>105.9</ele>
        <time>2021-05-30T09:20:16Z</time>
      </trkpt>
      <trkpt lat="48.48677" lon="2.66958">
        <ele>106</ele>
        <time>2021-05-30T09:20:28Z</time>
      </trkpt>
      <trkpt lat="48.4871" lon="2.6693">
        <ele>105.3</ele>
        <time>2021-05-30T09:20:38Z</time>
      </trkpt>
      <trkpt lat="48.48746" lon="2.66894">
        <ele>105.3</ele>
        <time>2021-05-30T09:20:51Z</time>
      </trkpt>
      <trkpt lat="48.48781" lon="2.66862">
        <ele>104.7</ele>
        <time>2021-05-30T09:21:05Z</time>
      </trkpt>
      <trkpt lat="48.48802" lon="2.66852">
        <ele>104.1</ele>
        <time>2021-05-30T09:21:13Z</time>
      </trkpt>
      <trkpt lat="48.4881" lon="2.66847">
        <ele>103.8</ele>
        <time>2021-05-30T09:21:17Z</time>
      </trkpt>
      <trkpt lat="48.48828" lon="2.66834">
        <ele>103.2</ele>
        <time>2021-05-30T09:21:29Z</time>
      </trkpt>
      <trkpt lat="48.48846" lon="2.66816">
        <ele>103.6</ele>
        <time>2021-05-30T09:21:43Z</time>
      </trkpt>
      <trkpt lat="48.48853" lon="2.66815">
        <ele>103.7</ele>
        <time>2021-05-30T09:21:47Z</time>
      </trkpt>
      <trkpt lat="48.48878" lon="2.66795">
        <ele>104.4</ele>
        <time>2021-05-30T09:22:01Z</time>
      </trkpt>
      <trkpt lat="48.48901" lon="2.6678">
        <ele>104.9</ele>
        <time>2021-05-30T09:22:13Z</time>
      </trkpt>
      <trkpt lat="48.48912" lon="2.66755">
        <ele>105.8</ele>
        <time>2021-05-30T09:22:23Z</time>
      </trkpt>
      <trkpt lat="48.48948" lon="2.66726">
        <ele>104.6</ele>
        <time>2021-05-30T09:22:34Z</time>
      </trkpt>
      <trkpt lat="48.48982" lon="2.66687">
        <ele>104.5</ele>
        <time>2021-05-30T09:22:46Z</time>
      </trkpt>
      <trkpt lat="48.48988" lon="2.66675">
        <ele>104.8</ele>
        <time>2021-05-30T09:22:49Z</time>
      </trkpt>
      <trkpt lat="48.49033" lon="2.66643">
        <ele>104.6</ele>
        <time>2021-05-30T09:23:01Z</time>
      </trkpt>
      <trkpt lat="48.49055" lon="2.6663">
        <ele>104.5</ele>
        <time>2021-05-30T09:23:06Z</time>
      </trkpt>
      <trkpt lat="48.49098" lon="2.66602">
        <ele>104.1</ele>
        <time>2021-05-30T09:23:18Z</time>
      </trkpt>
      <trkpt lat="48.49136" lon="2.6658">
        <ele>102.3</ele>
        <time>2021-05-30T09:23:28Z</time>
      </trkpt>
      <trkpt lat="48.49148" lon="2.66573">
        <ele>101.7</ele>
        <time>2021-05-30T09:23:32Z</time>
      </trkpt>
      <trkpt lat="48.49157" lon="2.66601">
        <ele>100.2</ele>
        <time>2021-05-30T09:23:41Z</time>
      </trkpt>
      <trkpt lat="48.49163" lon="2.66643">
        <ele>98.8</ele>
        <time>2021-05-30T09:23:50Z</time>
      </trkpt>
      <trkpt lat="48.49176" lon="2.66667">
        <ele>97.8</ele>
        <time>2021-05-30T09:23:57Z</time>
      </trkpt>
      <trkpt lat="48.49181" lon="2.66661">
        <ele>97.8</ele>
        <time>2021-05-30T09:24:01Z</time>
      </trkpt>
      <trkpt lat="48.49205" lon="2.66659">
        <ele>97.2</ele>
        <time>2021-05-30T09:24:08Z</time>
      </trkpt>
      <trkpt lat="48.49223" lon="2.66661">
        <ele>96.7</ele>
        <time>2021-05-30T09:24:15Z</time>
      </trkpt>
      <trkpt lat="48.49233" lon="2.66673">
        <ele>96.4</ele>
        <time>2021-05-30T09:24:18Z</time>
      </trkpt>
      <trkpt lat="48.49267" lon="2.66726">
        <ele>96.1</ele>
        <time>2021-05-30T09:24:29Z</time>
      </trkpt>
      <trkpt lat="48.49268" lon="2.66772">
        <ele>94</ele>
        <time>2021-05-30T09:24:38Z</time>
      </trkpt>
      <trkpt lat="48.49289" lon="2.6679">
        <ele>90.9</ele>
        <time>2021-05-30T09:24:48Z</time>
      </trkpt>
      <trkpt lat="48.49299" lon="2.66808">
        <ele>88.1</ele>
        <time>2021-05-30T09:24:58Z</time>
      </trkpt>
      <trkpt lat="48.49299" lon="2.66813">
        <ele>87.5</ele>
        <time>2021-05-30T09:25:01Z</time>
      </trkpt>
      <trkpt lat="48.49295" lon="2.66822">
        <ele>86.9</ele>
        <time>2021-05-30T09:25:07Z</time>
      </trkpt>
      <trkpt lat="48.4929" lon="2.66826">
        <ele>86.9</ele>
        <time>2021-05-30T09:25:24Z</time>
      </trkpt>
      <trkpt lat="48.49289" lon="2.6683">
        <ele>86.7</ele>
        <time>2021-05-30T09:25:31Z</time>
      </trkpt>
      <trkpt lat="48.4931" lon="2.66845">
        <ele>82.7</ele>
        <time>2021-05-30T09:25:40Z</time>
      </trkpt>
      <trkpt lat="48.49329" lon="2.6685">
        <ele>80.3</ele>
        <time>2021-05-30T09:25:47Z</time>
      </trkpt>
      <trkpt lat="48.49336" lon="2.66848">
        <ele>80.1</ele>
        <time>2021-05-30T09:25:49Z</time>
      </trkpt>
      <trkpt lat="48.4935" lon="2.66844">
        <ele>80.3</ele>
        <time>2021-05-30T09:25:56Z</time>
      </trkpt>
      <trkpt lat="48.49364" lon="2.66827">
        <ele>81.7</ele>
        <time>2021-05-30T09:26:04Z</time>
      </trkpt>
      <trkpt lat="48.4937" lon="2.66821">
        <ele>82.1</ele>
        <time>2021-05-30T09:26:08Z</time>
      </trkpt>
      <trkpt lat="48.49389" lon="2.6681">
        <ele>82.7</ele>
        <time>2021-05-30T09:26:22Z</time>
      </trkpt>
      <trkpt lat="48.49394" lon="2.66806">
        <ele>83</ele>
        <time>2021-05-30T09:26:41Z</time>
      </trkpt>
      <trkpt lat="48.49399" lon="2.66808">
        <ele>82.5</ele>
        <time>2021-05-30T09:26:52Z</time>
      </trkpt>
      <trkpt lat="48.49404" lon="2.66809">
        <ele>82.1</ele>
        <time>2021-05-30T09:26:59Z</time>
      </trkpt>
      <trkpt lat="48.49408" lon="2.66812">
        <ele>81.7</ele>
        <time>2021-05-30T09:27:13Z</time>
      </trkpt>
      <trkpt lat="48.49409" lon="2.66812">
        <ele>81.7</ele>
        <time>2021-05-30T09:27:25Z</time>
      </trkpt>
      <trkpt lat="48.4941" lon="2.66813">
        <ele>81.4</ele>
        <time>2021-05-30T09:27:27Z</time>
      </trkpt>
      <trkpt lat="48.49419" lon="2.66816">
        <ele>80.8</ele>
        <time>2021-05-30T09:27:41Z</time>
      </trkpt>
      <trkpt lat="48.49422" lon="2.66818">
        <ele>80.6</ele>
        <time>2021-05-30T09:27:48Z</time>
      </trkpt>
      <trkpt lat="48.49426" lon="2.6682">
        <ele>80.3</ele>
        <time>2021-05-30T09:27:51Z</time>
      </trkpt>
      <trkpt lat="48.49435" lon="2.6681">
        <ele>81.1</ele>
        <time>2021-05-30T09:27:59Z</time>
      </trkpt>
      <trkpt lat="48.49435" lon="2.66801">
        <ele>82.1</ele>
        <time>2021-05-30T09:28:11Z</time>
      </trkpt>
      <trkpt lat="48.49437" lon="2.66801">
        <ele>82.1</ele>
        <time>2021-05-30T09:28:22Z</time>
      </trkpt>
      <trkpt lat="48.4944" lon="2.66799">
        <ele>82.2</ele>
        <time>2021-05-30T09:28:25Z</time>
      </trkpt>
      <trkpt lat="48.49452" lon="2.66787">
        <ele>83.4</ele>
        <time>2021-05-30T09:28:35Z</time>
      </trkpt>
      <trkpt lat="48.49463" lon="2.66786">
        <ele>83.3</ele>
        <time>2021-05-30T09:28:40Z</time>
      </trkpt>
      <trkpt lat="48.49477" lon="2.66774">
        <ele>84.5</ele>
        <time>2021-05-30T09:28:51Z</time>
      </trkpt>
      <trkpt lat="48.49479" lon="2.66771">
        <ele>84.8</ele>
        <time>2021-05-30T09:28:53Z</time>
      </trkpt>
      <trkpt lat="48.49496" lon="2.66761">
        <ele>85.8</ele>
        <time>2021-05-30T09:29:09Z</time>
      </trkpt>
      <trkpt lat="48.49504" lon="2.66753">
        <ele>86.7</ele>
        <time>2021-05-30T09:29:25Z</time>
      </trkpt>
      <trkpt lat="48.49506" lon="2.66747">
        <ele>87.2</ele>
        <time>2021-05-30T09:29:37Z</time>
      </trkpt>
      <trkpt lat="48.49511" lon="2.66739">
        <ele>87.6</ele>
        <time>2021-05-30T09:29:44Z</time>
      </trkpt>
      <trkpt lat="48.4953" lon="2.66726">
        <ele>88.4</ele>
        <time>2021-05-30T09:29:56Z</time>
      </trkpt>
      <trkpt lat="48.49531" lon="2.66725">
        <ele>88.5</ele>
        <time>2021-05-30T09:29:57Z</time>
      </trkpt>
      <trkpt lat="48.49544" lon="2.66711">
        <ele>89.2</ele>
        <time>2021-05-30T09:30:07Z</time>
      </trkpt>
      <trkpt lat="48.49564" lon="2.6671">
        <ele>89.3</ele>
        <time>2021-05-30T09:30:18Z</time>
      </trkpt>
      <trkpt lat="48.4957" lon="2.66699">
        <ele>89.8</ele>
        <time>2021-05-30T09:30:23Z</time>
      </trkpt>
      <trkpt lat="48.49587" lon="2.66698">
        <ele>89.8</ele>
        <time>2021-05-30T09:30:27Z</time>
      </trkpt>
      <trkpt lat="48.49627" lon="2.66703">
        <ele>89.1</ele>
        <time>2021-05-30T09:30:38Z</time>
      </trkpt>
      <trkpt lat="48.49629" lon="2.66703">
        <ele>89</ele>
        <time>2021-05-30T09:30:39Z</time>
      </trkpt>
      <trkpt lat="48.49647" lon="2.66697">
        <ele>89.3</ele>
        <time>2021-05-30T09:30:48Z</time>
      </trkpt>
      <trkpt lat="48.49653" lon="2.66692">
        <ele>89.6</ele>
        <time>2021-05-30T09:30:52Z</time>
      </trkpt>
      <trkpt lat="48.49657" lon="2.66691">
        <ele>89.8</ele>
        <time>2021-05-30T09:30:54Z</time>
      </trkpt>
      <trkpt lat="48.49671" lon="2.66687">
        <ele>90.1</ele>
        <time>2021-05-30T09:31:00Z</time>
      </trkpt>
      <trkpt lat="48.49679" lon="2.66684">
        <ele>90.6</ele>
        <time>2021-05-30T09:31:04Z</time>
      </trkpt>
      <trkpt lat="48.49687" lon="2.6668">
        <ele>91.2</ele>
        <time>2021-05-30T09:31:09Z</time>
      </trkpt>
      <trkpt lat="48.49695" lon="2.6668">
        <ele>91.3</ele>
        <time>2021-05-30T09:31:13Z</time>
      </trkpt>
      <trkpt lat="48.49708" lon="2.66677">
        <ele>91.9</ele>
        <time>2021-05-30T09:31:18Z</time>
      </trkpt>
      <trkpt lat="48.49713" lon="2.66673">
        <ele>92.5</ele>
        <time>2021-05-30T09:31:22Z</time>
      </trkpt>
      <trkpt lat="48.4973" lon="2.66667">
        <ele>93.5</ele>
        <time>2021-05-30T09:31:32Z</time>
      </trkpt>
      <trkpt lat="48.4974" lon="2.66669">
        <ele>93.6</ele>
        <time>2021-05-30T09:31:37Z</time>
      </trkpt>
      <trkpt lat="48.49745" lon="2.66668">
        <ele>93.7</ele>
        <time>2021-05-30T09:31:39Z</time>
      </trkpt>
      <trkpt lat="48.49757" lon="2.66659">
        <ele>94</ele>
        <time>2021-05-30T09:31:44Z</time>
      </trkpt>
      <trkpt lat="48.49774" lon="2.66652">
        <ele>93.5</ele>
        <time>2021-05-30T09:31:50Z</time>
      </trkpt>
      <trkpt lat="48.49788" lon="2.66646">
        <ele>93</ele>
        <time>2021-05-30T09:31:54Z</time>
      </trkpt>
      <trkpt lat="48.49812" lon="2.66649">
        <ele>91.8</ele>
        <time>2021-05-30T09:32:02Z</time>
      </trkpt>
      <trkpt lat="48.49821" lon="2.66651">
        <ele>91.3</ele>
        <time>2021-05-30T09:32:06Z</time>
      </trkpt>
      <trkpt lat="48.49834" lon="2.66651">
        <ele>90.8</ele>
        <time>2021-05-30T09:32:16Z</time>
      </trkpt>
      <trkpt lat="48.4984" lon="2.66647">
        <ele>91.2</ele>
        <time>2021-05-30T09:32:20Z</time>
      </trkpt>
      <trkpt lat="48.49856" lon="2.66646">
        <ele>91.8</ele>
        <time>2021-05-30T09:32:26Z</time>
      </trkpt>
      <trkpt lat="48.49876" lon="2.66656">
        <ele>92.1</ele>
        <time>2021-05-30T09:32:34Z</time>
      </trkpt>
      <trkpt lat="48.49886" lon="2.6666">
        <ele>92.2</ele>
        <time>2021-05-30T09:32:38Z</time>
      </trkpt>
      <trkpt lat="48.49899" lon="2.66663">
        <ele>92.5</ele>
        <time>2021-05-30T09:32:42Z</time>
      </trkpt>
      <trkpt lat="48.49919" lon="2.66669">
        <ele>92.8</ele>
        <time>2021-05-30T09:32:48Z</time>
      </trkpt>
      <trkpt lat="48.49942" lon="2.66661">
        <ele>94.2</ele>
        <time>2021-05-30T09:32:56Z</time>
      </trkpt>
      <trkpt lat="48.49952" lon="2.66661">
        <ele>94.6</ele>
        <time>2021-05-30T09:32:59Z</time>
      </trkpt>
      <trkpt lat="48.49984" lon="2.66644">
        <ele>97</ele>
        <time>2021-05-30T09:33:10Z</time>
      </trkpt>
      <trkpt lat="48.49994" lon="2.66637">
        <ele>97.9</ele>
        <time>2021-05-30T09:33:15Z</time>
      </trkpt>
      <trkpt lat="48.50005" lon="2.66628">
        <ele>98.7</ele>
        <time>2021-05-30T09:33:20Z</time>
      </trkpt>
      <trkpt lat="48.50013" lon="2.66616">
        <ele>99.4</ele>
        <time>2021-05-30T09:33:26Z</time>
      </trkpt>
      <trkpt lat="48.50028" lon="2.66603">
        <ele>100.2</ele>
        <time>2021-05-30T09:33:33Z</time>
      </trkpt>
      <trkpt lat="48.5004" lon="2.66601">
        <ele>100.2</ele>
        <time>2021-05-30T09:33:37Z</time>
      </trkpt>
      <trkpt lat="48.5005" lon="2.66593">
        <ele>100.7</ele>
        <time>2021-05-30T09:33:40Z</time>
      </trkpt>
      <trkpt lat="48.50079" lon="2.66597">
        <ele>99.9</ele>
        <time>2021-05-30T09:33:49Z</time>
      </trkpt>
      <trkpt lat="48.50101" lon="2.66611">
        <ele>98.7</ele>
        <time>2021-05-30T09:33:56Z</time>
      </trkpt>
      <trkpt lat="48.50113" lon="2.66607">
        <ele>99</ele>
        <time>2021-05-30T09:34:01Z</time>
      </trkpt>
      <trkpt lat="48.50146" lon="2.66607">
        <ele>99</ele>
        <time>2021-05-30T09:34:12Z</time>
      </trkpt>
      <trkpt lat="48.50171" lon="2.66594">
        <ele>100.1</ele>
        <time>2021-05-30T09:34:22Z</time>
      </trkpt>
      <trkpt lat="48.50178" lon="2.66593">
        <ele>100.3</ele>
        <time>2021-05-30T09:34:25Z</time>
      </trkpt>
      <trkpt lat="48.50184" lon="2.66572">
        <ele>101.3</ele>
        <time>2021-05-30T09:34:30Z</time>
      </trkpt>
      <trkpt lat="48.50183" lon="2.66541">
        <ele>101.4</ele>
        <time>2021-05-30T09:34:37Z</time>
      </trkpt>
      <trkpt lat="48.50182" lon="2.66506">
        <ele>101.5</ele>
        <time>2021-05-30T09:34:46Z</time>
      </trkpt>
      <trkpt lat="48.50185" lon="2.66477">
        <ele>101.3</ele>
        <time>2021-05-30T09:34:51Z</time>
      </trkpt>
      <trkpt lat="48.50197" lon="2.66464">
        <ele>101.7</ele>
        <time>2021-05-30T09:34:56Z</time>
      </trkpt>
      <trkpt lat="48.50203" lon="2.66458">
        <ele>101.9</ele>
        <time>2021-05-30T09:34:58Z</time>
      </trkpt>
      <trkpt lat="48.50232" lon="2.66424">
        <ele>103.7</ele>
        <time>2021-05-30T09:35:08Z</time>
      </trkpt>
      <trkpt lat="48.50264" lon="2.66398">
        <ele>104.6</ele>
        <time>2021-05-30T09:35:17Z</time>
      </trkpt>
      <trkpt lat="48.50289" lon="2.66382">
        <ele>104.4</ele>
        <time>2021-05-30T09:35:24Z</time>
      </trkpt>
      <trkpt lat="48.50319" lon="2.6636">
        <ele>104.2</ele>
        <time>2021-05-30T09:35:35Z</time>
      </trkpt>
      <trkpt lat="48.50329" lon="2.66351">
        <ele>104.2</ele>
        <time>2021-05-30T09:35:39Z</time>
      </trkpt>
      <trkpt lat="48.50378" lon="2.66328">
        <ele>101.7</ele>
        <time>2021-05-30T09:35:52Z</time>
      </trkpt>
      <trkpt lat="48.50422" lon="2.66302">
        <ele>98</ele>
        <time>2021-05-30T09:36:04Z</time>
      </trkpt>
      <trkpt lat="48.50488" lon="2.66265">
        <ele>94</ele>
        <time>2021-05-30T09:36:19Z</time>
      </trkpt>
      <trkpt lat="48.50545" lon="2.66219">
        <ele>93.1</ele>
        <time>2021-05-30T09:36:31Z</time>
      </trkpt>
      <trkpt lat="48.50569" lon="2.66199">
        <ele>92.9</ele>
        <time>2021-05-30T09:36:36Z</time>
      </trkpt>
      <trkpt lat="48.50578" lon="2.66189">
        <ele>92.7</ele>
        <time>2021-05-30T09:36:38Z</time>
      </trkpt>
      <trkpt lat="48.50587" lon="2.6618">
        <ele>92.4</ele>
        <time>2021-05-30T09:36:40Z</time>
      </trkpt>
      <trkpt lat="48.50629" lon="2.66132">
        <ele>90.5</ele>
        <time>2021-05-30T09:36:51Z</time>
      </trkpt>
      <trkpt lat="48.50632" lon="2.66128">
        <ele>90.4</ele>
        <time>2021-05-30T09:36:52Z</time>
      </trkpt>
      <trkpt lat="48.50646" lon="2.66115">
        <ele>90.2</ele>
        <time>2021-05-30T09:36:56Z</time>
      </trkpt>
      <trkpt lat="48.5065" lon="2.66114">
        <ele>90.1</ele>
        <time>2021-05-30T09:36:57Z</time>
      </trkpt>
      <trkpt lat="48.50655" lon="2.66116">
        <ele>90.1</ele>
        <time>2021-05-30T09:36:58Z</time>
      </trkpt>
      <trkpt lat="48.50659" lon="2.66118">
        <ele>90.1</ele>
        <time>2021-05-30T09:36:59Z</time>
      </trkpt>
      <trkpt lat="48.50663" lon="2.66122">
        <ele>90</ele>
        <time>2021-05-30T09:37:00Z</time>
      </trkpt>
      <trkpt lat="48.50667" lon="2.66126">
        <ele>90</ele>
        <time>2021-05-30T09:37:01Z</time>
      </trkpt>
      <trkpt lat="48.50671" lon="2.6613">
        <ele>89.8</ele>
        <time>2021-05-30T09:37:02Z</time>
      </trkpt>
      <trkpt lat="48.50675" lon="2.66134">
        <ele>89.6</ele>
        <time>2021-05-30T09:37:03Z</time>
      </trkpt>
      <trkpt lat="48.50679" lon="2.66139">
        <ele>89.4</ele>
        <time>2021-05-30T09:37:04Z</time>
      </trkpt>
      <trkpt lat="48.50719" lon="2.66184">
        <ele>87.6</ele>
        <time>2021-05-30T09:37:14Z</time>
      </trkpt>
      <trkpt lat="48.50727" lon="2.66195">
        <ele>87.2</ele>
        <time>2021-05-30T09:37:16Z</time>
      </trkpt>
      <trkpt lat="48.5075" lon="2.66225">
        <ele>86</ele>
        <time>2021-05-30T09:37:22Z</time>
      </trkpt>
      <trkpt lat="48.50755" lon="2.6623">
        <ele>85.7</ele>
        <time>2021-05-30T09:37:23Z</time>
      </trkpt>
      <trkpt lat="48.5076" lon="2.66233">
        <ele>85.4</ele>
        <time>2021-05-30T09:37:24Z</time>
      </trkpt>
      <trkpt lat="48.5079" lon="2.66245">
        <ele>83.6</ele>
        <time>2021-05-30T09:37:29Z</time>
      </trkpt>
      <trkpt lat="48.50796" lon="2.6625">
        <ele>83.3</ele>
        <time>2021-05-30T09:37:30Z</time>
      </trkpt>
      <trkpt lat="48.50857" lon="2.663">
        <ele>80.4</ele>
        <time>2021-05-30T09:37:41Z</time>
      </trkpt>
      <trkpt lat="48.5089" lon="2.66319">
        <ele>78.7</ele>
        <time>2021-05-30T09:37:46Z</time>
      </trkpt>
      <trkpt lat="48.50897" lon="2.66321">
        <ele>78.3</ele>
        <time>2021-05-30T09:37:47Z</time>
      </trkpt>
      <trkpt lat="48.50917" lon="2.6633">
        <ele>77</ele>
        <time>2021-05-30T09:37:50Z</time>
      </trkpt>
      <trkpt lat="48.50923" lon="2.66335">
        <ele>76.7</ele>
        <time>2021-05-30T09:37:51Z</time>
      </trkpt>
      <trkpt lat="48.50985" lon="2.66383">
        <ele>74.2</ele>
        <time>2021-05-30T09:38:01Z</time>
      </trkpt>
      <trkpt lat="48.50991" lon="2.66385">
        <ele>74</ele>
        <time>2021-05-30T09:38:02Z</time>
      </trkpt>
      <trkpt lat="48.51026" lon="2.664">
        <ele>73.2</ele>
        <time>2021-05-30T09:38:08Z</time>
      </trkpt>
      <trkpt lat="48.51044" lon="2.6641">
        <ele>72.9</ele>
        <time>2021-05-30T09:38:11Z</time>
      </trkpt>
      <trkpt lat="48.51049" lon="2.66415">
        <ele>72.8</ele>
        <time>2021-05-30T09:38:12Z</time>
      </trkpt>
      <trkpt lat="48.51059" lon="2.66424">
        <ele>72.5</ele>
        <time>2021-05-30T09:38:14Z</time>
      </trkpt>
      <trkpt lat="48.51064" lon="2.66425">
        <ele>72.4</ele>
        <time>2021-05-30T09:38:15Z</time>
      </trkpt>
      <trkpt lat="48.5107" lon="2.66422">
        <ele>72.3</ele>
        <time>2021-05-30T09:38:16Z</time>
      </trkpt>
      <trkpt lat="48.51073" lon="2.66416">
        <ele>72.2</ele>
        <time>2021-05-30T09:38:17Z</time>
      </trkpt>
      <trkpt lat="48.51076" lon="2.66408">
        <ele>72.2</ele>
        <time>2021-05-30T09:38:18Z</time>
      </trkpt>
      <trkpt lat="48.51077" lon="2.664">
        <ele>72.1</ele>
        <time>2021-05-30T09:38:19Z</time>
      </trkpt>
      <trkpt lat="48.51079" lon="2.66391">
        <ele>72.1</ele>
        <time>2021-05-30T09:38:20Z</time>
      </trkpt>
      <trkpt lat="48.51092" lon="2.66277">
        <ele>73.1</ele>
        <time>2021-05-30T09:38:34Z</time>
      </trkpt>
      <trkpt lat="48.511" lon="2.66205">
        <ele>73.9</ele>
        <time>2021-05-30T09:38:44Z</time>
      </trkpt>
      <trkpt lat="48.51102" lon="2.66198">
        <ele>74</ele>
        <time>2021-05-30T09:38:45Z</time>
      </trkpt>
      <trkpt lat="48.51103" lon="2.66192">
        <ele>74</ele>
        <time>2021-05-30T09:38:46Z</time>
      </trkpt>
      <trkpt lat="48.51106" lon="2.66186">
        <ele>74</ele>
        <time>2021-05-30T09:38:47Z</time>
      </trkpt>
      <trkpt lat="48.51109" lon="2.66181">
        <ele>73.9</ele>
        <time>2021-05-30T09:38:48Z</time>
      </trkpt>
      <trkpt lat="48.51113" lon="2.66178">
        <ele>73.8</ele>
        <time>2021-05-30T09:38:49Z</time>
      </trkpt>
      <trkpt lat="48.51117" lon="2.66176">
        <ele>73.7</ele>
        <time>2021-05-30T09:38:50Z</time>
      </trkpt>
      <trkpt lat="48.51122" lon="2.66176">
        <ele>73.5</ele>
        <time>2021-05-30T09:38:51Z</time>
      </trkpt>
      <trkpt lat="48.51127" lon="2.66176">
        <ele>73.3</ele>
        <time>2021-05-30T09:38:52Z</time>
      </trkpt>
      <trkpt lat="48.51132" lon="2.66175">
        <ele>73.2</ele>
        <time>2021-05-30T09:38:53Z</time>
      </trkpt>
      <trkpt lat="48.51137" lon="2.66174">
        <ele>73</ele>
        <time>2021-05-30T09:38:54Z</time>
      </trkpt>
      <trkpt lat="48.51142" lon="2.66174">
        <ele>72.8</ele>
        <time>2021-05-30T09:38:55Z</time>
      </trkpt>
      <trkpt lat="48.5118" lon="2.66172">
        <ele>71.6</ele>
        <time>2021-05-30T09:39:02Z</time>
      </trkpt>
      <trkpt lat="48.51186" lon="2.66172">
        <ele>71.5</ele>
        <time>2021-05-30T09:39:03Z</time>
      </trkpt>
      <trkpt lat="48.51206" lon="2.66171">
        <ele>71</ele>
        <time>2021-05-30T09:39:07Z</time>
      </trkpt>
      <trkpt lat="48.5121" lon="2.66171">
        <ele>71</ele>
        <time>2021-05-30T09:39:08Z</time>
      </trkpt>
      <trkpt lat="48.51214" lon="2.66171">
        <ele>70.9</ele>
        <time>2021-05-30T09:39:09Z</time>
      </trkpt>
      <trkpt lat="48.51221" lon="2.66169">
        <ele>70.7</ele>
        <time>2021-05-30T09:39:11Z</time>
      </trkpt>
      <trkpt lat="48.51223" lon="2.66165">
        <ele>70.7</ele>
        <time>2021-05-30T09:39:12Z</time>
      </trkpt>
      <trkpt lat="48.51224" lon="2.66159">
        <ele>70.8</ele>
        <time>2021-05-30T09:39:13Z</time>
      </trkpt>
      <trkpt lat="48.51225" lon="2.66154">
        <ele>71</ele>
        <time>2021-05-30T09:39:14Z</time>
      </trkpt>
      <trkpt lat="48.51224" lon="2.66148">
        <ele>71.2</ele>
        <time>2021-05-30T09:39:15Z</time>
      </trkpt>
      <trkpt lat="48.51224" lon="2.66141">
        <ele>71.4</ele>
        <time>2021-05-30T09:39:16Z</time>
      </trkpt>
      <trkpt lat="48.51224" lon="2.66085">
        <ele>73.2</ele>
        <time>2021-05-30T09:39:28Z</time>
      </trkpt>
      <trkpt lat="48.51225" lon="2.66083">
        <ele>73.2</ele>
        <time>2021-05-30T09:39:29Z</time>
      </trkpt>
      <trkpt lat="48.51225" lon="2.66079">
        <ele>73.3</ele>
        <time>2021-05-30T09:39:30Z</time>
      </trkpt>
      <trkpt lat="48.51225" lon="2.66073">
        <ele>73.5</ele>
        <time>2021-05-30T09:39:32Z</time>
      </trkpt>
      <trkpt lat="48.51226" lon="2.66072">
        <ele>73.5</ele>
        <time>2021-05-30T09:39:33Z</time>
      </trkpt>
      <trkpt lat="48.51247" lon="2.66055">
        <ele>73.1</ele>
        <time>2021-05-30T09:39:43Z</time>
      </trkpt>
      <trkpt lat="48.51256" lon="2.66047">
        <ele>73.4</ele>
        <time>2021-05-30T09:39:46Z</time>
      </trkpt>
      <trkpt lat="48.51271" lon="2.66056">
        <ele>73.2</ele>
        <time>2021-05-30T09:39:50Z</time>
      </trkpt>
      <trkpt lat="48.51278" lon="2.66064">
        <ele>73</ele>
        <time>2021-05-30T09:39:52Z</time>
      </trkpt>
      <trkpt lat="48.51289" lon="2.66062">
        <ele>73.2</ele>
        <time>2021-05-30T09:39:55Z</time>
      </trkpt>
      <trkpt lat="48.51305" lon="2.6606">
        <ele>73.5</ele>
        <time>2021-05-30T09:39:59Z</time>
      </trkpt>
      <trkpt lat="48.51323" lon="2.66049">
        <ele>74.1</ele>
        <time>2021-05-30T09:40:03Z</time>
      </trkpt>
      <trkpt lat="48.51362" lon="2.66051">
        <ele>73.3</ele>
        <time>2021-05-30T09:40:10Z</time>
      </trkpt>
      <trkpt lat="48.51385" lon="2.66021">
        <ele>73.8</ele>
        <time>2021-05-30T09:40:17Z</time>
      </trkpt>
      <trkpt lat="48.51396" lon="2.66003">
        <ele>74.4</ele>
        <time>2021-05-30T09:40:20Z</time>
      </trkpt>
      <trkpt lat="48.51413" lon="2.65992">
        <ele>74.2</ele>
        <time>2021-05-30T09:40:24Z</time>
      </trkpt>
      <trkpt lat="48.51444" lon="2.65975">
        <ele>73.6</ele>
        <time>2021-05-30T09:40:32Z</time>
      </trkpt>
      <trkpt lat="48.51454" lon="2.65961">
        <ele>73.4</ele>
        <time>2021-05-30T09:40:36Z</time>
      </trkpt>
      <trkpt lat="48.51468" lon="2.65924">
        <ele>73.1</ele>
        <time>2021-05-30T09:40:42Z</time>
      </trkpt>
      <trkpt lat="48.51478" lon="2.65914">
        <ele>72.7</ele>
        <time>2021-05-30T09:40:45Z</time>
      </trkpt>
      <trkpt lat="48.51486" lon="2.65926">
        <ele>72.5</ele>
        <time>2021-05-30T09:40:50Z</time>
      </trkpt>
      <trkpt lat="48.5147" lon="2.65989">
        <ele>72.8</ele>
        <time>2021-05-30T09:41:02Z</time>
      </trkpt>
      <trkpt lat="48.51475" lon="2.66046">
        <ele>71.2</ele>
        <time>2021-05-30T09:41:11Z</time>
      </trkpt>
      <trkpt lat="48.5149" lon="2.66103">
        <ele>69.5</ele>
        <time>2021-05-30T09:41:20Z</time>
      </trkpt>
      <trkpt lat="48.51507" lon="2.66145">
        <ele>68.3</ele>
        <time>2021-05-30T09:41:29Z</time>
      </trkpt>
      <trkpt lat="48.51505" lon="2.66154">
        <ele>68.1</ele>
        <time>2021-05-30T09:41:31Z</time>
      </trkpt>
      <trkpt lat="48.51491" lon="2.66214">
        <ele>70.7</ele>
        <time>2021-05-30T09:41:42Z</time>
      </trkpt>
      <trkpt lat="48.51491" lon="2.66226">
        <ele>71.4</ele>
        <time>2021-05-30T09:41:44Z</time>
      </trkpt>
      <trkpt lat="48.51493" lon="2.66232">
        <ele>71.8</ele>
        <time>2021-05-30T09:41:45Z</time>
      </trkpt>
      <trkpt lat="48.51497" lon="2.66235">
        <ele>72</ele>
        <time>2021-05-30T09:41:46Z</time>
      </trkpt>
      <trkpt lat="48.515" lon="2.66235">
        <ele>72.1</ele>
        <time>2021-05-30T09:41:47Z</time>
      </trkpt>
      <trkpt lat="48.51503" lon="2.66234">
        <ele>71.9</ele>
        <time>2021-05-30T09:41:48Z</time>
      </trkpt>
      <trkpt lat="48.51505" lon="2.66233">
        <ele>71.7</ele>
        <time>2021-05-30T09:41:49Z</time>
      </trkpt>
      <trkpt lat="48.51509" lon="2.66233">
        <ele>71.6</ele>
        <time>2021-05-30T09:41:50Z</time>
      </trkpt>
      <trkpt lat="48.51513" lon="2.66233">
        <ele>71.4</ele>
        <time>2021-05-30T09:41:51Z</time>
      </trkpt>
      <trkpt lat="48.51518" lon="2.66234">
        <ele>71.2</ele>
        <time>2021-05-30T09:41:52Z</time>
      </trkpt>
      <trkpt lat="48.51521" lon="2.66235">
        <ele>71.1</ele>
        <time>2021-05-30T09:41:53Z</time>
      </trkpt>
      <trkpt lat="48.51525" lon="2.66235">
        <ele>70.9</ele>
        <time>2021-05-30T09:41:54Z</time>
      </trkpt>
      <trkpt lat="48.5153" lon="2.66234">
        <ele>70.7</ele>
        <time>2021-05-30T09:41:55Z</time>
      </trkpt>
      <trkpt lat="48.51534" lon="2.66233">
        <ele>70.4</ele>
        <time>2021-05-30T09:41:56Z</time>
      </trkpt>
      <trkpt lat="48.51539" lon="2.66234">
        <ele>70.3</ele>
        <time>2021-05-30T09:41:57Z</time>
      </trkpt>
      <trkpt lat="48.51543" lon="2.66238">
        <ele>70.3</ele>
        <time>2021-05-30T09:41:58Z</time>
      </trkpt>
      <trkpt lat="48.51546" lon="2.66242">
        <ele>70.4</ele>
        <time>2021-05-30T09:41:59Z</time>
      </trkpt>
      <trkpt lat="48.51547" lon="2.66245">
        <ele>70.5</ele>
        <time>2021-05-30T09:42:00Z</time>
      </trkpt>
      <trkpt lat="48.51548" lon="2.6625">
        <ele>70.7</ele>
        <time>2021-05-30T09:42:01Z</time>
      </trkpt>
      <trkpt lat="48.51577" lon="2.663">
        <ele>70.5</ele>
        <time>2021-05-30T09:42:12Z</time>
      </trkpt>
      <trkpt lat="48.51595" lon="2.66317">
        <ele>70.2</ele>
        <time>2021-05-30T09:42:20Z</time>
      </trkpt>
      <trkpt lat="48.516" lon="2.66318">
        <ele>70</ele>
        <time>2021-05-30T09:42:21Z</time>
      </trkpt>
      <trkpt lat="48.51604" lon="2.66318">
        <ele>69.9</ele>
        <time>2021-05-30T09:42:22Z</time>
      </trkpt>
      <trkpt lat="48.51608" lon="2.66317">
        <ele>69.7</ele>
        <time>2021-05-30T09:42:23Z</time>
      </trkpt>
      <trkpt lat="48.51612" lon="2.66317">
        <ele>69.6</ele>
        <time>2021-05-30T09:42:24Z</time>
      </trkpt>
      <trkpt lat="48.51617" lon="2.66317">
        <ele>69.4</ele>
        <time>2021-05-30T09:42:25Z</time>
      </trkpt>
      <trkpt lat="48.51621" lon="2.66317">
        <ele>69.3</ele>
        <time>2021-05-30T09:42:26Z</time>
      </trkpt>
      <trkpt lat="48.51628" lon="2.66318">
        <ele>69</ele>
        <time>2021-05-30T09:42:28Z</time>
      </trkpt>
      <trkpt lat="48.51632" lon="2.6632">
        <ele>68.9</ele>
        <time>2021-05-30T09:42:29Z</time>
      </trkpt>
      <trkpt lat="48.51637" lon="2.6632">
        <ele>68.8</ele>
        <time>2021-05-30T09:42:30Z</time>
      </trkpt>
      <trkpt lat="48.51645" lon="2.66317">
        <ele>68.4</ele>
        <time>2021-05-30T09:42:33Z</time>
      </trkpt>
      <trkpt lat="48.51647" lon="2.66313">
        <ele>68.2</ele>
        <time>2021-05-30T09:42:34Z</time>
      </trkpt>
      <trkpt lat="48.51649" lon="2.66309">
        <ele>68</ele>
        <time>2021-05-30T09:42:35Z</time>
      </trkpt>
      <trkpt lat="48.51652" lon="2.66304">
        <ele>67.8</ele>
        <time>2021-05-30T09:42:36Z</time>
      </trkpt>
      <trkpt lat="48.51653" lon="2.663">
        <ele>67.7</ele>
        <time>2021-05-30T09:42:37Z</time>
      </trkpt>
      <trkpt lat="48.51664" lon="2.66276">
        <ele>66.7</ele>
        <time>2021-05-30T09:42:42Z</time>
      </trkpt>
      <trkpt lat="48.51665" lon="2.66272">
        <ele>66.6</ele>
        <time>2021-05-30T09:42:43Z</time>
      </trkpt>
      <trkpt lat="48.51667" lon="2.66269">
        <ele>66.5</ele>
        <time>2021-05-30T09:42:44Z</time>
      </trkpt>
      <trkpt lat="48.51674" lon="2.66266">
        <ele>66</ele>
        <time>2021-05-30T09:42:46Z</time>
      </trkpt>
      <trkpt lat="48.5168" lon="2.66264">
        <ele>65.5</ele>
        <time>2021-05-30T09:42:47Z</time>
      </trkpt>
      <trkpt lat="48.51686" lon="2.66264">
        <ele>65.1</ele>
        <time>2021-05-30T09:42:48Z</time>
      </trkpt>
      <trkpt lat="48.51694" lon="2.66264">
        <ele>64.7</ele>
        <time>2021-05-30T09:42:49Z</time>
      </trkpt>
      <trkpt lat="48.517" lon="2.66265">
        <ele>64.4</ele>
        <time>2021-05-30T09:42:50Z</time>
      </trkpt>
      <trkpt lat="48.51706" lon="2.66267">
        <ele>64</ele>
        <time>2021-05-30T09:42:51Z</time>
      </trkpt>
      <trkpt lat="48.51709" lon="2.6627">
        <ele>63.9</ele>
        <time>2021-05-30T09:42:52Z</time>
      </trkpt>
      <trkpt lat="48.51712" lon="2.66272">
        <ele>63.8</ele>
        <time>2021-05-30T09:42:53Z</time>
      </trkpt>
      <trkpt lat="48.51715" lon="2.66275">
        <ele>63.7</ele>
        <time>2021-05-30T09:42:54Z</time>
      </trkpt>
      <trkpt lat="48.51717" lon="2.66277">
        <ele>63.6</ele>
        <time>2021-05-30T09:42:55Z</time>
      </trkpt>
      <trkpt lat="48.5172" lon="2.6628">
        <ele>63.5</ele>
        <time>2021-05-30T09:42:56Z</time>
      </trkpt>
      <trkpt lat="48.51723" lon="2.66283">
        <ele>63.4</ele>
        <time>2021-05-30T09:42:57Z</time>
      </trkpt>
      <trkpt lat="48.51727" lon="2.66284">
        <ele>63.2</ele>
        <time>2021-05-30T09:42:58Z</time>
      </trkpt>
      <trkpt lat="48.51729" lon="2.66284">
        <ele>63.1</ele>
        <time>2021-05-30T09:42:59Z</time>
      </trkpt>
      <trkpt lat="48.51733" lon="2.66284">
        <ele>62.8</ele>
        <time>2021-05-30T09:43:00Z</time>
      </trkpt>
      <trkpt lat="48.51736" lon="2.66285">
        <ele>62.7</ele>
        <time>2021-05-30T09:43:01Z</time>
      </trkpt>
      <trkpt lat="48.51741" lon="2.66287">
        <ele>62.4</ele>
        <time>2021-05-30T09:43:02Z</time>
      </trkpt>
      <trkpt lat="48.51742" lon="2.6629">
        <ele>62.4</ele>
        <time>2021-05-30T09:43:03Z</time>
      </trkpt>
      <trkpt lat="48.51743" lon="2.66294">
        <ele>62.5</ele>
        <time>2021-05-30T09:43:04Z</time>
      </trkpt>
      <trkpt lat="48.51744" lon="2.66298">
        <ele>62.5</ele>
        <time>2021-05-30T09:43:05Z</time>
      </trkpt>
      <trkpt lat="48.51749" lon="2.66344">
        <ele>63.1</ele>
        <time>2021-05-30T09:43:16Z</time>
      </trkpt>
      <trkpt lat="48.51751" lon="2.66383">
        <ele>62.9</ele>
        <time>2021-05-30T09:43:26Z</time>
      </trkpt>
      <trkpt lat="48.51744" lon="2.66451">
        <ele>62.5</ele>
        <time>2021-05-30T09:43:39Z</time>
      </trkpt>
      <trkpt lat="48.51744" lon="2.66463">
        <ele>62.2</ele>
        <time>2021-05-30T09:43:41Z</time>
      </trkpt>
      <trkpt lat="48.51744" lon="2.66469">
        <ele>62</ele>
        <time>2021-05-30T09:43:42Z</time>
      </trkpt>
      <trkpt lat="48.51744" lon="2.66475">
        <ele>61.8</ele>
        <time>2021-05-30T09:43:43Z</time>
      </trkpt>
      <trkpt lat="48.51744" lon="2.66481">
        <ele>61.7</ele>
        <time>2021-05-30T09:43:44Z</time>
      </trkpt>
      <trkpt lat="48.51743" lon="2.66486">
        <ele>61.5</ele>
        <time>2021-05-30T09:43:45Z</time>
      </trkpt>
      <trkpt lat="48.51742" lon="2.66492">
        <ele>61.4</ele>
        <time>2021-05-30T09:43:46Z</time>
      </trkpt>
      <trkpt lat="48.51742" lon="2.66498">
        <ele>61.2</ele>
        <time>2021-05-30T09:43:47Z</time>
      </trkpt>
      <trkpt lat="48.51742" lon="2.66505">
        <ele>61</ele>
        <time>2021-05-30T09:43:48Z</time>
      </trkpt>
      <trkpt lat="48.51741" lon="2.66553">
        <ele>58.7</ele>
        <time>2021-05-30T09:43:58Z</time>
      </trkpt>
      <trkpt lat="48.51747" lon="2.66559">
        <ele>58.3</ele>
        <time>2021-05-30T09:44:12Z</time>
      </trkpt>
      <trkpt lat="48.51753" lon="2.66567">
        <ele>57.7</ele>
        <time>2021-05-30T09:44:29Z</time>
      </trkpt>
      <trkpt lat="48.51754" lon="2.6657">
        <ele>57.5</ele>
        <time>2021-05-30T09:44:30Z</time>
      </trkpt>
      <trkpt lat="48.51754" lon="2.66574">
        <ele>57.4</ele>
        <time>2021-05-30T09:44:31Z</time>
      </trkpt>
      <trkpt lat="48.51753" lon="2.66584">
        <ele>56.9</ele>
        <time>2021-05-30T09:44:33Z</time>
      </trkpt>
      <trkpt lat="48.51755" lon="2.6659">
        <ele>56.6</ele>
        <time>2021-05-30T09:44:34Z</time>
      </trkpt>
      <trkpt lat="48.51756" lon="2.66597">
        <ele>56.4</ele>
        <time>2021-05-30T09:44:35Z</time>
      </trkpt>
      <trkpt lat="48.51758" lon="2.6661">
        <ele>55.9</ele>
        <time>2021-05-30T09:44:37Z</time>
      </trkpt>
      <trkpt lat="48.51759" lon="2.6662">
        <ele>55.4</ele>
        <time>2021-05-30T09:44:38Z</time>
      </trkpt>
      <trkpt lat="48.51762" lon="2.66628">
        <ele>55.1</ele>
        <time>2021-05-30T09:44:39Z</time>
      </trkpt>
      <trkpt lat="48.51764" lon="2.66635">
        <ele>54.8</ele>
        <time>2021-05-30T09:44:40Z</time>
      </trkpt>
      <trkpt lat="48.51767" lon="2.6664">
        <ele>54.5</ele>
        <time>2021-05-30T09:44:41Z</time>
      </trkpt>
      <trkpt lat="48.51772" lon="2.66644">
        <ele>54.3</ele>
        <time>2021-05-30T09:44:42Z</time>
      </trkpt>
      <trkpt lat="48.51778" lon="2.66647">
        <ele>54</ele>
        <time>2021-05-30T09:44:43Z</time>
      </trkpt>
      <trkpt lat="48.51784" lon="2.66648">
        <ele>53.8</ele>
        <time>2021-05-30T09:44:44Z</time>
      </trkpt>
      <trkpt lat="48.5179" lon="2.6665">
        <ele>53.6</ele>
        <time>2021-05-30T09:44:45Z</time>
      </trkpt>
      <trkpt lat="48.51795" lon="2.66652">
        <ele>53.4</ele>
        <time>2021-05-30T09:44:46Z</time>
      </trkpt>
      <trkpt lat="48.5183" lon="2.66662">
        <ele>52.2</ele>
        <time>2021-05-30T09:44:52Z</time>
      </trkpt>
      <trkpt lat="48.51836" lon="2.66666">
        <ele>51.9</ele>
        <time>2021-05-30T09:44:53Z</time>
      </trkpt>
      <trkpt lat="48.5184" lon="2.66672">
        <ele>51.4</ele>
        <time>2021-05-30T09:44:54Z</time>
      </trkpt>
      <trkpt lat="48.51842" lon="2.6668">
        <ele>50.8</ele>
        <time>2021-05-30T09:44:55Z</time>
      </trkpt>
      <trkpt lat="48.51844" lon="2.66687">
        <ele>50.2</ele>
        <time>2021-05-30T09:44:56Z</time>
      </trkpt>
      <trkpt lat="48.51845" lon="2.66695">
        <ele>49.7</ele>
        <time>2021-05-30T09:44:57Z</time>
      </trkpt>
      <trkpt lat="48.51846" lon="2.6671">
        <ele>48.6</ele>
        <time>2021-05-30T09:44:59Z</time>
      </trkpt>
      <trkpt lat="48.51844" lon="2.66717">
        <ele>48.2</ele>
        <time>2021-05-30T09:45:00Z</time>
      </trkpt>
      <trkpt lat="48.51842" lon="2.66723">
        <ele>47.8</ele>
        <time>2021-05-30T09:45:01Z</time>
      </trkpt>
      <trkpt lat="48.51838" lon="2.66728">
        <ele>47.5</ele>
        <time>2021-05-30T09:45:02Z</time>
      </trkpt>
      <trkpt lat="48.51833" lon="2.66732">
        <ele>47.3</ele>
        <time>2021-05-30T09:45:03Z</time>
      </trkpt>
      <trkpt lat="48.51827" lon="2.66734">
        <ele>47.2</ele>
        <time>2021-05-30T09:45:04Z</time>
      </trkpt>
      <trkpt lat="48.51821" lon="2.66736">
        <ele>47.2</ele>
        <time>2021-05-30T09:45:05Z</time>
      </trkpt>
      <trkpt lat="48.51789" lon="2.66751">
        <ele>46.5</ele>
        <time>2021-05-30T09:45:10Z</time>
      </trkpt>
      <trkpt lat="48.51782" lon="2.66757">
        <ele>46.3</ele>
        <time>2021-05-30T09:45:11Z</time>
      </trkpt>
      <trkpt lat="48.51775" lon="2.66764">
        <ele>46.1</ele>
        <time>2021-05-30T09:45:12Z</time>
      </trkpt>
      <trkpt lat="48.5177" lon="2.66773">
        <ele>45.7</ele>
        <time>2021-05-30T09:45:13Z</time>
      </trkpt>
      <trkpt lat="48.51767" lon="2.66783">
        <ele>45.3</ele>
        <time>2021-05-30T09:45:14Z</time>
      </trkpt>
      <trkpt lat="48.51765" lon="2.66795">
        <ele>44.8</ele>
        <time>2021-05-30T09:45:15Z</time>
      </trkpt>
      <trkpt lat="48.51764" lon="2.66807">
        <ele>44.2</ele>
        <time>2021-05-30T09:45:16Z</time>
      </trkpt>
      <trkpt lat="48.51764" lon="2.6682">
        <ele>43.6</ele>
        <time>2021-05-30T09:45:17Z</time>
      </trkpt>
      <trkpt lat="48.51763" lon="2.66909">
        <ele>40.1</ele>
        <time>2021-05-30T09:45:24Z</time>
      </trkpt>
      <trkpt lat="48.51766" lon="2.66918">
        <ele>39.8</ele>
        <time>2021-05-30T09:45:25Z</time>
      </trkpt>
      <trkpt lat="48.51771" lon="2.66925">
        <ele>39.7</ele>
        <time>2021-05-30T09:45:26Z</time>
      </trkpt>
      <trkpt lat="48.51777" lon="2.66928">
        <ele>39.5</ele>
        <time>2021-05-30T09:45:27Z</time>
      </trkpt>
      <trkpt lat="48.51784" lon="2.6693">
        <ele>39.4</ele>
        <time>2021-05-30T09:45:28Z</time>
      </trkpt>
      <trkpt lat="48.51791" lon="2.66931">
        <ele>39.3</ele>
        <time>2021-05-30T09:45:29Z</time>
      </trkpt>
      <trkpt lat="48.51797" lon="2.66932">
        <ele>39.3</ele>
        <time>2021-05-30T09:45:30Z</time>
      </trkpt>
      <trkpt lat="48.51885" lon="2.66936">
        <ele>40.1</ele>
        <time>2021-05-30T09:45:44Z</time>
      </trkpt>
      <trkpt lat="48.5193" lon="2.66939">
        <ele>41</ele>
        <time>2021-05-30T09:45:51Z</time>
      </trkpt>
      <trkpt lat="48.52021" lon="2.66944">
        <ele>40.8</ele>
        <time>2021-05-30T09:46:06Z</time>
      </trkpt>
      <trkpt lat="48.52108" lon="2.66945">
        <ele>40.8</ele>
        <time>2021-05-30T09:46:22Z</time>
      </trkpt>
      <trkpt lat="48.52193" lon="2.66945">
        <ele>42.3</ele>
        <time>2021-05-30T09:46:37Z</time>
      </trkpt>
      <trkpt lat="48.52275" lon="2.66946">
        <ele>42.7</ele>
        <time>2021-05-30T09:46:52Z</time>
      </trkpt>
      <trkpt lat="48.52315" lon="2.66945">
        <ele>42.2</ele>
        <time>2021-05-30T09:46:59Z</time>
      </trkpt>
      <trkpt lat="48.52392" lon="2.66945">
        <ele>42</ele>
        <time>2021-05-30T09:47:13Z</time>
      </trkpt>
      <trkpt lat="48.52476" lon="2.66946">
        <ele>41.1</ele>
        <time>2021-05-30T09:47:28Z</time>
      </trkpt>
      <trkpt lat="48.52563" lon="2.6693">
        <ele>39.3</ele>
        <time>2021-05-30T09:47:43Z</time>
      </trkpt>
      <trkpt lat="48.52655" lon="2.66893">
        <ele>40.2</ele>
        <time>2021-05-30T09:47:59Z</time>
      </trkpt>
      <trkpt lat="48.52734" lon="2.66861">
        <ele>39.6</ele>
        <time>2021-05-30T09:48:13Z</time>
      </trkpt>
      <trkpt lat="48.52778" lon="2.66843">
        <ele>39.3</ele>
        <time>2021-05-30T09:48:21Z</time>
      </trkpt>
      <trkpt lat="48.52783" lon="2.6684">
        <ele>39.4</ele>
        <time>2021-05-30T09:48:22Z</time>
      </trkpt>
      <trkpt lat="48.52789" lon="2.66838">
        <ele>39.5</ele>
        <time>2021-05-30T09:48:23Z</time>
      </trkpt>
      <trkpt lat="48.5287" lon="2.66806">
        <ele>40.6</ele>
        <time>2021-05-30T09:48:38Z</time>
      </trkpt>
      <trkpt lat="48.52934" lon="2.66781">
        <ele>41.4</ele>
        <time>2021-05-30T09:48:50Z</time>
      </trkpt>
      <trkpt lat="48.52939" lon="2.66778">
        <ele>41.8</ele>
        <time>2021-05-30T09:48:51Z</time>
      </trkpt>
      <trkpt lat="48.53017" lon="2.66726">
        <ele>43.9</ele>
        <time>2021-05-30T09:49:06Z</time>
      </trkpt>
      <trkpt lat="48.53038" lon="2.66711">
        <ele>43.1</ele>
        <time>2021-05-30T09:49:10Z</time>
      </trkpt>
      <trkpt lat="48.53044" lon="2.66707">
        <ele>42.9</ele>
        <time>2021-05-30T09:49:11Z</time>
      </trkpt>
      <trkpt lat="48.53123" lon="2.66643">
        <ele>41.7</ele>
        <time>2021-05-30T09:49:26Z</time>
      </trkpt>
      <trkpt lat="48.53184" lon="2.66561">
        <ele>42.2</ele>
        <time>2021-05-30T09:49:40Z</time>
      </trkpt>
      <trkpt lat="48.5324" lon="2.66455">
        <ele>42.2</ele>
        <time>2021-05-30T09:49:55Z</time>
      </trkpt>
      <trkpt lat="48.533" lon="2.66341">
        <ele>43</ele>
        <time>2021-05-30T09:50:11Z</time>
      </trkpt>
      <trkpt lat="48.53318" lon="2.66305">
        <ele>43.6</ele>
        <time>2021-05-30T09:50:16Z</time>
      </trkpt>
      <trkpt lat="48.53343" lon="2.66235">
        <ele>44.8</ele>
        <time>2021-05-30T09:50:25Z</time>
      </trkpt>
      <trkpt lat="48.53345" lon="2.66227">
        <ele>44.9</ele>
        <time>2021-05-30T09:50:26Z</time>
      </trkpt>
      <trkpt lat="48.53347" lon="2.66219">
        <ele>44.9</ele>
        <time>2021-05-30T09:50:27Z</time>
      </trkpt>
      <trkpt lat="48.53349" lon="2.66212">
        <ele>44.9</ele>
        <time>2021-05-30T09:50:28Z</time>
      </trkpt>
      <trkpt lat="48.53351" lon="2.66204">
        <ele>44.9</ele>
        <time>2021-05-30T09:50:29Z</time>
      </trkpt>
      <trkpt lat="48.5338" lon="2.66094">
        <ele>44.2</ele>
        <time>2021-05-30T09:50:43Z</time>
      </trkpt>
      <trkpt lat="48.53391" lon="2.66055">
        <ele>44</ele>
        <time>2021-05-30T09:50:48Z</time>
      </trkpt>
      <trkpt lat="48.53392" lon="2.66048">
        <ele>44.1</ele>
        <time>2021-05-30T09:50:49Z</time>
      </trkpt>
      <trkpt lat="48.53391" lon="2.6604">
        <ele>44.2</ele>
        <time>2021-05-30T09:50:50Z</time>
      </trkpt>
      <trkpt lat="48.5339" lon="2.66032">
        <ele>44.4</ele>
        <time>2021-05-30T09:50:51Z</time>
      </trkpt>
      <trkpt lat="48.53388" lon="2.66024">
        <ele>44.7</ele>
        <time>2021-05-30T09:50:52Z</time>
      </trkpt>
      <trkpt lat="48.53385" lon="2.66017">
        <ele>44.9</ele>
        <time>2021-05-30T09:50:53Z</time>
      </trkpt>
      <trkpt lat="48.5335" lon="2.65925">
        <ele>46.6</ele>
        <time>2021-05-30T09:51:07Z</time>
      </trkpt>
      <trkpt lat="48.5335" lon="2.6591">
        <ele>46.6</ele>
        <time>2021-05-30T09:51:10Z</time>
      </trkpt>
      <trkpt lat="48.53352" lon="2.65906">
        <ele>46.6</ele>
        <time>2021-05-30T09:51:11Z</time>
      </trkpt>
      <trkpt lat="48.53355" lon="2.65903">
        <ele>46.5</ele>
        <time>2021-05-30T09:51:12Z</time>
      </trkpt>
      <trkpt lat="48.53358" lon="2.659">
        <ele>46.5</ele>
        <time>2021-05-30T09:51:13Z</time>
      </trkpt>
      <trkpt lat="48.53361" lon="2.65897">
        <ele>46.4</ele>
        <time>2021-05-30T09:51:14Z</time>
      </trkpt>
      <trkpt lat="48.53364" lon="2.65897">
        <ele>46.4</ele>
        <time>2021-05-30T09:51:15Z</time>
      </trkpt>
      <trkpt lat="48.53367" lon="2.65897">
        <ele>46.3</ele>
        <time>2021-05-30T09:51:16Z</time>
      </trkpt>
      <trkpt lat="48.53371" lon="2.65898">
        <ele>46.2</ele>
        <time>2021-05-30T09:51:17Z</time>
      </trkpt>
      <trkpt lat="48.53414" lon="2.65921">
        <ele>45</ele>
        <time>2021-05-30T09:51:29Z</time>
      </trkpt>
      <trkpt lat="48.53422" lon="2.65925">
        <ele>44.8</ele>
        <time>2021-05-30T09:51:31Z</time>
      </trkpt>
      <trkpt lat="48.53426" lon="2.65926">
        <ele>44.7</ele>
        <time>2021-05-30T09:51:32Z</time>
      </trkpt>
      <trkpt lat="48.53431" lon="2.65925">
        <ele>44.6</ele>
        <time>2021-05-30T09:51:33Z</time>
      </trkpt>
      <trkpt lat="48.53439" lon="2.65921">
        <ele>44.4</ele>
        <time>2021-05-30T09:51:35Z</time>
      </trkpt>
      <trkpt lat="48.53443" lon="2.6592">
        <ele>44.3</ele>
        <time>2021-05-30T09:51:36Z</time>
      </trkpt>
      <trkpt lat="48.53447" lon="2.65922">
        <ele>44.2</ele>
        <time>2021-05-30T09:51:37Z</time>
      </trkpt>
      <trkpt lat="48.53508" lon="2.65949">
        <ele>43</ele>
        <time>2021-05-30T09:51:52Z</time>
      </trkpt>
      <trkpt lat="48.53545" lon="2.65964">
        <ele>44.6</ele>
        <time>2021-05-30T09:51:59Z</time>
      </trkpt>
      <trkpt lat="48.53606" lon="2.66005">
        <ele>45.6</ele>
        <time>2021-05-30T09:52:11Z</time>
      </trkpt>
      <trkpt lat="48.5363" lon="2.66019">
        <ele>44.9</ele>
        <time>2021-05-30T09:52:21Z</time>
      </trkpt>
      <trkpt lat="48.53649" lon="2.66031">
        <ele>44.4</ele>
        <time>2021-05-30T09:52:26Z</time>
      </trkpt>
      <trkpt lat="48.53704" lon="2.66062">
        <ele>44.2</ele>
        <time>2021-05-30T09:52:40Z</time>
      </trkpt>
      <trkpt lat="48.53707" lon="2.6606">
        <ele>44.3</ele>
        <time>2021-05-30T09:52:41Z</time>
      </trkpt>
      <trkpt lat="48.5371" lon="2.66057">
        <ele>44.3</ele>
        <time>2021-05-30T09:52:42Z</time>
      </trkpt>
      <trkpt lat="48.53713" lon="2.66053">
        <ele>44.4</ele>
        <time>2021-05-30T09:52:43Z</time>
      </trkpt>
      <trkpt lat="48.53716" lon="2.66048">
        <ele>44.5</ele>
        <time>2021-05-30T09:52:44Z</time>
      </trkpt>
      <trkpt lat="48.53719" lon="2.66043">
        <ele>44.6</ele>
        <time>2021-05-30T09:52:45Z</time>
      </trkpt>
      <trkpt lat="48.53722" lon="2.66037">
        <ele>44.7</ele>
        <time>2021-05-30T09:52:46Z</time>
      </trkpt>
      <trkpt lat="48.53727" lon="2.66025">
        <ele>44.8</ele>
        <time>2021-05-30T09:52:48Z</time>
      </trkpt>
      <trkpt lat="48.53734" lon="2.66004">
        <ele>45</ele>
        <time>2021-05-30T09:52:51Z</time>
      </trkpt>
      <trkpt lat="48.53736" lon="2.65998">
        <ele>45</ele>
        <time>2021-05-30T09:52:52Z</time>
      </trkpt>
      <trkpt lat="48.53738" lon="2.65992">
        <ele>44.8</ele>
        <time>2021-05-30T09:52:53Z</time>
      </trkpt>
      <trkpt lat="48.53756" lon="2.65931">
        <ele>43.7</ele>
        <time>2021-05-30T09:53:05Z</time>
      </trkpt>
      <trkpt lat="48.53761" lon="2.65923">
        <ele>43.9</ele>
        <time>2021-05-30T09:53:16Z</time>
      </trkpt>
      <trkpt lat="48.53764" lon="2.65917">
        <ele>44</ele>
        <time>2021-05-30T09:53:20Z</time>
      </trkpt>
      <trkpt lat="48.53763" lon="2.6591">
        <ele>43.8</ele>
        <time>2021-05-30T09:53:28Z</time>
      </trkpt>
      <trkpt lat="48.53764" lon="2.65906">
        <ele>43.7</ele>
        <time>2021-05-30T09:53:30Z</time>
      </trkpt>
      <trkpt lat="48.53765" lon="2.65903">
        <ele>43.7</ele>
        <time>2021-05-30T09:53:31Z</time>
      </trkpt>
      <trkpt lat="48.53769" lon="2.65881">
        <ele>43.3</ele>
        <time>2021-05-30T09:53:35Z</time>
      </trkpt>
      <trkpt lat="48.53771" lon="2.65875">
        <ele>43.3</ele>
        <time>2021-05-30T09:53:36Z</time>
      </trkpt>
      <trkpt lat="48.53774" lon="2.65869">
        <ele>43.2</ele>
        <time>2021-05-30T09:53:37Z</time>
      </trkpt>
      <trkpt lat="48.53776" lon="2.65862">
        <ele>43.1</ele>
        <time>2021-05-30T09:53:38Z</time>
      </trkpt>
      <trkpt lat="48.53778" lon="2.65855">
        <ele>43</ele>
        <time>2021-05-30T09:53:39Z</time>
      </trkpt>
      <trkpt lat="48.53785" lon="2.65826">
        <ele>42.7</ele>
        <time>2021-05-30T09:53:43Z</time>
      </trkpt>
      <trkpt lat="48.53787" lon="2.65819">
        <ele>42.7</ele>
        <time>2021-05-30T09:53:44Z</time>
      </trkpt>
      <trkpt lat="48.53789" lon="2.65813">
        <ele>42.8</ele>
        <time>2021-05-30T09:53:45Z</time>
      </trkpt>
      <trkpt lat="48.53791" lon="2.65806">
        <ele>42.8</ele>
        <time>2021-05-30T09:53:46Z</time>
      </trkpt>
      <trkpt lat="48.53793" lon="2.65799">
        <ele>42.8</ele>
        <time>2021-05-30T09:53:47Z</time>
      </trkpt>
      <trkpt lat="48.53817" lon="2.65711">
        <ele>43.1</ele>
        <time>2021-05-30T09:54:00Z</time>
      </trkpt>
      <trkpt lat="48.53819" lon="2.65703">
        <ele>43.1</ele>
        <time>2021-05-30T09:54:01Z</time>
      </trkpt>
      <trkpt lat="48.53821" lon="2.65696">
        <ele>43.1</ele>
        <time>2021-05-30T09:54:02Z</time>
      </trkpt>
      <trkpt lat="48.53837" lon="2.65632">
        <ele>43.3</ele>
        <time>2021-05-30T09:54:11Z</time>
      </trkpt>
      <trkpt lat="48.53837" lon="2.65625">
        <ele>43.3</ele>
        <time>2021-05-30T09:54:12Z</time>
      </trkpt>
      <trkpt lat="48.53838" lon="2.65617">
        <ele>43.3</ele>
        <time>2021-05-30T09:54:13Z</time>
      </trkpt>
      <trkpt lat="48.53838" lon="2.65603">
        <ele>43.4</ele>
        <time>2021-05-30T09:54:15Z</time>
      </trkpt>
      <trkpt lat="48.53838" lon="2.65596">
        <ele>43.4</ele>
        <time>2021-05-30T09:54:16Z</time>
      </trkpt>
      <trkpt lat="48.53839" lon="2.65557">
        <ele>43.5</ele>
        <time>2021-05-30T09:54:21Z</time>
      </trkpt>
      <trkpt lat="48.53841" lon="2.65532">
        <ele>43.8</ele>
        <time>2021-05-30T09:54:24Z</time>
      </trkpt>
      <trkpt lat="48.53841" lon="2.65523">
        <ele>43.8</ele>
        <time>2021-05-30T09:54:25Z</time>
      </trkpt>
      <trkpt lat="48.53844" lon="2.6549">
        <ele>44.3</ele>
        <time>2021-05-30T09:54:29Z</time>
      </trkpt>
      <trkpt lat="48.53851" lon="2.65445">
        <ele>45.1</ele>
        <time>2021-05-30T09:54:35Z</time>
      </trkpt>
      <trkpt lat="48.53855" lon="2.65401">
        <ele>45.3</ele>
        <time>2021-05-30T09:54:40Z</time>
      </trkpt>
      <trkpt lat="48.53855" lon="2.65384">
        <ele>44.9</ele>
        <time>2021-05-30T09:54:42Z</time>
      </trkpt>
      <trkpt lat="48.53855" lon="2.65357">
        <ele>44.3</ele>
        <time>2021-05-30T09:54:45Z</time>
      </trkpt>
      <trkpt lat="48.53857" lon="2.65339">
        <ele>44.1</ele>
        <time>2021-05-30T09:54:47Z</time>
      </trkpt>
      <trkpt lat="48.53858" lon="2.65331">
        <ele>44.1</ele>
        <time>2021-05-30T09:54:48Z</time>
      </trkpt>
      <trkpt lat="48.53861" lon="2.65324">
        <ele>44.3</ele>
        <time>2021-05-30T09:54:49Z</time>
      </trkpt>
      <trkpt lat="48.53864" lon="2.65318">
        <ele>44.5</ele>
        <time>2021-05-30T09:54:50Z</time>
      </trkpt>
      <trkpt lat="48.53867" lon="2.65313">
        <ele>44.8</ele>
        <time>2021-05-30T09:54:51Z</time>
      </trkpt>
      <trkpt lat="48.53871" lon="2.65308">
        <ele>45.1</ele>
        <time>2021-05-30T09:54:52Z</time>
      </trkpt>
      <trkpt lat="48.53874" lon="2.65304">
        <ele>45.4</ele>
        <time>2021-05-30T09:54:53Z</time>
      </trkpt>
      <trkpt lat="48.53898" lon="2.65256">
        <ele>48</ele>
        <time>2021-05-30T09:55:05Z</time>
      </trkpt>
      <trkpt lat="48.53909" lon="2.65205">
        <ele>51.3</ele>
        <time>2021-05-30T09:55:15Z</time>
      </trkpt>
      <trkpt lat="48.5391" lon="2.65202">
        <ele>51.6</ele>
        <time>2021-05-30T09:55:16Z</time>
      </trkpt>
      <trkpt lat="48.53925" lon="2.65179">
        <ele>53.4</ele>
        <time>2021-05-30T09:55:25Z</time>
      </trkpt>
      <trkpt lat="48.53926" lon="2.65177">
        <ele>53.6</ele>
        <time>2021-05-30T09:55:26Z</time>
      </trkpt>
      <trkpt lat="48.53929" lon="2.65158">
        <ele>54.4</ele>
        <time>2021-05-30T09:55:34Z</time>
      </trkpt>
      <trkpt lat="48.53931" lon="2.65155">
        <ele>54.5</ele>
        <time>2021-05-30T09:55:35Z</time>
      </trkpt>
      <trkpt lat="48.53933" lon="2.65151">
        <ele>54.7</ele>
        <time>2021-05-30T09:55:36Z</time>
      </trkpt>
      <trkpt lat="48.53935" lon="2.65147">
        <ele>54.8</ele>
        <time>2021-05-30T09:55:37Z</time>
      </trkpt>
      <trkpt lat="48.53937" lon="2.65143">
        <ele>55</ele>
        <time>2021-05-30T09:55:38Z</time>
      </trkpt>
      <trkpt lat="48.53938" lon="2.65137">
        <ele>55.2</ele>
        <time>2021-05-30T09:55:39Z</time>
      </trkpt>
      <trkpt lat="48.53939" lon="2.65132">
        <ele>55.4</ele>
        <time>2021-05-30T09:55:40Z</time>
      </trkpt>
      <trkpt lat="48.5394" lon="2.65127">
        <ele>55.6</ele>
        <time>2021-05-30T09:55:41Z</time>
      </trkpt>
      <trkpt lat="48.53963" lon="2.65079">
        <ele>57.1</ele>
        <time>2021-05-30T09:55:51Z</time>
      </trkpt>
      <trkpt lat="48.53987" lon="2.65037">
        <ele>59</ele>
        <time>2021-05-30T09:56:00Z</time>
      </trkpt>
      <trkpt lat="48.54" lon="2.65018">
        <ele>59.9</ele>
        <time>2021-05-30T09:56:05Z</time>
      </trkpt>
      <trkpt lat="48.54008" lon="2.65007">
        <ele>60.2</ele>
        <time>2021-05-30T09:56:07Z</time>
      </trkpt>
      <trkpt lat="48.54015" lon="2.65">
        <ele>60.3</ele>
        <time>2021-05-30T09:56:08Z</time>
      </trkpt>
      <trkpt lat="48.54021" lon="2.64993">
        <ele>60.2</ele>
        <time>2021-05-30T09:56:09Z</time>
      </trkpt>
      <trkpt lat="48.54027" lon="2.64987">
        <ele>60.1</ele>
        <time>2021-05-30T09:56:10Z</time>
      </trkpt>
      <trkpt lat="48.54033" lon="2.64983">
        <ele>60.1</ele>
        <time>2021-05-30T09:56:11Z</time>
      </trkpt>
      <trkpt lat="48.54044" lon="2.64974">
        <ele>60</ele>
        <time>2021-05-30T09:56:13Z</time>
      </trkpt>
      <trkpt lat="48.54049" lon="2.64971">
        <ele>60</ele>
        <time>2021-05-30T09:56:14Z</time>
      </trkpt>
      <trkpt lat="48.54063" lon="2.64959">
        <ele>60.1</ele>
        <time>2021-05-30T09:56:16Z</time>
      </trkpt>
      <trkpt lat="48.54068" lon="2.64953">
        <ele>60.2</ele>
        <time>2021-05-30T09:56:17Z</time>
      </trkpt>
      <trkpt lat="48.54073" lon="2.64947">
        <ele>60.4</ele>
        <time>2021-05-30T09:56:18Z</time>
      </trkpt>
      <trkpt lat="48.54083" lon="2.64935">
        <ele>60.9</ele>
        <time>2021-05-30T09:56:20Z</time>
      </trkpt>
      <trkpt lat="48.54086" lon="2.64929">
        <ele>61.1</ele>
        <time>2021-05-30T09:56:21Z</time>
      </trkpt>
      <trkpt lat="48.54089" lon="2.64924">
        <ele>61.3</ele>
        <time>2021-05-30T09:56:22Z</time>
      </trkpt>
      <trkpt lat="48.54092" lon="2.64918">
        <ele>61.5</ele>
        <time>2021-05-30T09:56:23Z</time>
      </trkpt>
      <trkpt lat="48.54095" lon="2.64912">
        <ele>61.7</ele>
        <time>2021-05-30T09:56:24Z</time>
      </trkpt>
      <trkpt lat="48.54099" lon="2.64905">
        <ele>62</ele>
        <time>2021-05-30T09:56:25Z</time>
      </trkpt>
      <trkpt lat="48.54127" lon="2.64845">
        <ele>64.7</ele>
        <time>2021-05-30T09:56:36Z</time>
      </trkpt>
      <trkpt lat="48.54151" lon="2.64805">
        <ele>65.6</ele>
        <time>2021-05-30T09:56:46Z</time>
      </trkpt>
      <trkpt lat="48.54176" lon="2.64779">
        <ele>66.4</ele>
        <time>2021-05-30T09:56:57Z</time>
      </trkpt>
      <trkpt lat="48.54178" lon="2.64739">
        <ele>67.8</ele>
        <time>2021-05-30T09:57:07Z</time>
      </trkpt>
      <trkpt lat="48.5418" lon="2.64721">
        <ele>67.8</ele>
        <time>2021-05-30T09:57:10Z</time>
      </trkpt>
      <trkpt lat="48.54182" lon="2.64713">
        <ele>67.8</ele>
        <time>2021-05-30T09:57:11Z</time>
      </trkpt>
      <trkpt lat="48.54185" lon="2.64708">
        <ele>67.8</ele>
        <time>2021-05-30T09:57:12Z</time>
      </trkpt>
      <trkpt lat="48.54187" lon="2.64702">
        <ele>67.8</ele>
        <time>2021-05-30T09:57:13Z</time>
      </trkpt>
      <trkpt lat="48.54188" lon="2.64697">
        <ele>67.8</ele>
        <time>2021-05-30T09:57:14Z</time>
      </trkpt>
      <trkpt lat="48.54189" lon="2.64691">
        <ele>67.8</ele>
        <time>2021-05-30T09:57:15Z</time>
      </trkpt>
      <trkpt lat="48.54189" lon="2.64686">
        <ele>67.9</ele>
        <time>2021-05-30T09:57:16Z</time>
      </trkpt>
      <trkpt lat="48.54197" lon="2.64649">
        <ele>67.9</ele>
        <time>2021-05-30T09:57:22Z</time>
      </trkpt>
      <trkpt lat="48.54199" lon="2.64646">
        <ele>67.9</ele>
        <time>2021-05-30T09:57:23Z</time>
      </trkpt>
      <trkpt lat="48.54218" lon="2.6461">
        <ele>68.3</ele>
        <time>2021-05-30T09:57:34Z</time>
      </trkpt>
      <trkpt lat="48.54221" lon="2.64599">
        <ele>68.5</ele>
        <time>2021-05-30T09:57:38Z</time>
      </trkpt>
      <trkpt lat="48.54223" lon="2.64598">
        <ele>68.6</ele>
        <time>2021-05-30T09:57:39Z</time>
      </trkpt>
      <trkpt lat="48.54257" lon="2.64563">
        <ele>69.8</ele>
        <time>2021-05-30T09:57:52Z</time>
      </trkpt>
      <trkpt lat="48.5428" lon="2.64513">
        <ele>69.2</ele>
        <time>2021-05-30T09:58:04Z</time>
      </trkpt>
      <trkpt lat="48.54305" lon="2.64454">
        <ele>69.6</ele>
        <time>2021-05-30T09:58:18Z</time>
      </trkpt>
      <trkpt lat="48.54325" lon="2.64414">
        <ele>70.1</ele>
        <time>2021-05-30T09:58:29Z</time>
      </trkpt>
      <trkpt lat="48.54328" lon="2.64412">
        <ele>70</ele>
        <time>2021-05-30T09:58:30Z</time>
      </trkpt>
      <trkpt lat="48.54331" lon="2.6441">
        <ele>69.9</ele>
        <time>2021-05-30T09:58:31Z</time>
      </trkpt>
      <trkpt lat="48.54334" lon="2.64408">
        <ele>69.9</ele>
        <time>2021-05-30T09:58:32Z</time>
      </trkpt>
      <trkpt lat="48.54337" lon="2.64407">
        <ele>69.9</ele>
        <time>2021-05-30T09:58:33Z</time>
      </trkpt>
      <trkpt lat="48.5434" lon="2.64406">
        <ele>69.9</ele>
        <time>2021-05-30T09:58:34Z</time>
      </trkpt>
      <trkpt lat="48.54343" lon="2.64404">
        <ele>69.9</ele>
        <time>2021-05-30T09:58:35Z</time>
      </trkpt>
      <trkpt lat="48.54346" lon="2.64403">
        <ele>69.9</ele>
        <time>2021-05-30T09:58:36Z</time>
      </trkpt>
      <trkpt lat="48.5435" lon="2.64403">
        <ele>69.9</ele>
        <time>2021-05-30T09:58:37Z</time>
      </trkpt>
      <trkpt lat="48.54353" lon="2.64402">
        <ele>69.9</ele>
        <time>2021-05-30T09:58:38Z</time>
      </trkpt>
      <trkpt lat="48.54356" lon="2.64402">
        <ele>70</ele>
        <time>2021-05-30T09:58:39Z</time>
      </trkpt>
      <trkpt lat="48.54359" lon="2.64401">
        <ele>70</ele>
        <time>2021-05-30T09:58:40Z</time>
      </trkpt>
      <trkpt lat="48.54398" lon="2.64392">
        <ele>70.4</ele>
        <time>2021-05-30T09:58:55Z</time>
      </trkpt>
      <trkpt lat="48.54411" lon="2.64392">
        <ele>70.5</ele>
        <time>2021-05-30T09:59:07Z</time>
      </trkpt>
      <trkpt lat="48.54412" lon="2.64392">
        <ele>70.5</ele>
        <time>2021-05-30T09:59:28Z</time>
      </trkpt>
      <trkpt lat="48.5444" lon="2.64383">
        <ele>70.8</ele>
        <time>2021-05-30T09:59:38Z</time>
      </trkpt>
      <trkpt lat="48.54491" lon="2.64335">
        <ele>72</ele>
        <time>2021-05-30T09:59:53Z</time>
      </trkpt>
      <trkpt lat="48.54521" lon="2.643">
        <ele>72.7</ele>
        <time>2021-05-30T10:00:02Z</time>
      </trkpt>
      <trkpt lat="48.5458" lon="2.64215">
        <ele>73</ele>
        <time>2021-05-30T10:00:20Z</time>
      </trkpt>
      <trkpt lat="48.54602" lon="2.64178">
        <ele>72.8</ele>
        <time>2021-05-30T10:00:27Z</time>
      </trkpt>
      <trkpt lat="48.54662" lon="2.6409">
        <ele>73.8</ele>
        <time>2021-05-30T10:00:44Z</time>
      </trkpt>
      <trkpt lat="48.54665" lon="2.64084">
        <ele>74</ele>
        <time>2021-05-30T10:00:45Z</time>
      </trkpt>
      <trkpt lat="48.54667" lon="2.64077">
        <ele>74.1</ele>
        <time>2021-05-30T10:00:46Z</time>
      </trkpt>
      <trkpt lat="48.54668" lon="2.6407">
        <ele>74.2</ele>
        <time>2021-05-30T10:00:47Z</time>
      </trkpt>
      <trkpt lat="48.54668" lon="2.64063">
        <ele>74.3</ele>
        <time>2021-05-30T10:00:48Z</time>
      </trkpt>
      <trkpt lat="48.54668" lon="2.64055">
        <ele>74.4</ele>
        <time>2021-05-30T10:00:49Z</time>
      </trkpt>
      <trkpt lat="48.54661" lon="2.63978">
        <ele>74.2</ele>
        <time>2021-05-30T10:01:03Z</time>
      </trkpt>
      <trkpt lat="48.5466" lon="2.63975">
        <ele>74.1</ele>
        <time>2021-05-30T10:01:15Z</time>
      </trkpt>
      <trkpt lat="48.54659" lon="2.63971">
        <ele>74</ele>
        <time>2021-05-30T10:01:28Z</time>
      </trkpt>
      <trkpt lat="48.54658" lon="2.6397">
        <ele>73.9</ele>
        <time>2021-05-30T10:01:29Z</time>
      </trkpt>
      <trkpt lat="48.54657" lon="2.63968">
        <ele>73.9</ele>
        <time>2021-05-30T10:01:30Z</time>
      </trkpt>
      <trkpt lat="48.54657" lon="2.63965">
        <ele>73.8</ele>
        <time>2021-05-30T10:01:31Z</time>
      </trkpt>
      <trkpt lat="48.54657" lon="2.63961">
        <ele>73.6</ele>
        <time>2021-05-30T10:01:32Z</time>
      </trkpt>
      <trkpt lat="48.54658" lon="2.63956">
        <ele>73.5</ele>
        <time>2021-05-30T10:01:33Z</time>
      </trkpt>
      <trkpt lat="48.54658" lon="2.6395">
        <ele>73.3</ele>
        <time>2021-05-30T10:01:34Z</time>
      </trkpt>
      <trkpt lat="48.54658" lon="2.63944">
        <ele>73.1</ele>
        <time>2021-05-30T10:01:35Z</time>
      </trkpt>
      <trkpt lat="48.54657" lon="2.63938">
        <ele>72.9</ele>
        <time>2021-05-30T10:01:36Z</time>
      </trkpt>
      <trkpt lat="48.54659" lon="2.63897">
        <ele>72.4</ele>
        <time>2021-05-30T10:01:43Z</time>
      </trkpt>
      <trkpt lat="48.54662" lon="2.63891">
        <ele>72.4</ele>
        <time>2021-05-30T10:01:44Z</time>
      </trkpt>
      <trkpt lat="48.54664" lon="2.63886">
        <ele>72.4</ele>
        <time>2021-05-30T10:01:45Z</time>
      </trkpt>
      <trkpt lat="48.54682" lon="2.63852">
        <ele>73</ele>
        <time>2021-05-30T10:01:51Z</time>
      </trkpt>
      <trkpt lat="48.54683" lon="2.63845">
        <ele>73.1</ele>
        <time>2021-05-30T10:01:52Z</time>
      </trkpt>
      <trkpt lat="48.54685" lon="2.63838">
        <ele>73.2</ele>
        <time>2021-05-30T10:01:53Z</time>
      </trkpt>
      <trkpt lat="48.54685" lon="2.6383">
        <ele>73.3</ele>
        <time>2021-05-30T10:01:54Z</time>
      </trkpt>
      <trkpt lat="48.54685" lon="2.63822">
        <ele>73.3</ele>
        <time>2021-05-30T10:01:55Z</time>
      </trkpt>
      <trkpt lat="48.54684" lon="2.63814">
        <ele>73.4</ele>
        <time>2021-05-30T10:01:56Z</time>
      </trkpt>
      <trkpt lat="48.54683" lon="2.63806">
        <ele>73.5</ele>
        <time>2021-05-30T10:01:57Z</time>
      </trkpt>
      <trkpt lat="48.54679" lon="2.63781">
        <ele>73.7</ele>
        <time>2021-05-30T10:02:00Z</time>
      </trkpt>
      <trkpt lat="48.54678" lon="2.63773">
        <ele>73.8</ele>
        <time>2021-05-30T10:02:01Z</time>
      </trkpt>
      <trkpt lat="48.54677" lon="2.63765">
        <ele>73.8</ele>
        <time>2021-05-30T10:02:02Z</time>
      </trkpt>
      <trkpt lat="48.54676" lon="2.63758">
        <ele>73.9</ele>
        <time>2021-05-30T10:02:03Z</time>
      </trkpt>
      <trkpt lat="48.54677" lon="2.6375">
        <ele>74</ele>
        <time>2021-05-30T10:02:04Z</time>
      </trkpt>
      <trkpt lat="48.5468" lon="2.63745">
        <ele>74</ele>
        <time>2021-05-30T10:02:05Z</time>
      </trkpt>
      <trkpt lat="48.54684" lon="2.63741">
        <ele>74</ele>
        <time>2021-05-30T10:02:06Z</time>
      </trkpt>
      <trkpt lat="48.54689" lon="2.63739">
        <ele>74</ele>
        <time>2021-05-30T10:02:07Z</time>
      </trkpt>
      <trkpt lat="48.54694" lon="2.6374">
        <ele>74</ele>
        <time>2021-05-30T10:02:08Z</time>
      </trkpt>
      <trkpt lat="48.54699" lon="2.6374">
        <ele>74</ele>
        <time>2021-05-30T10:02:09Z</time>
      </trkpt>
      <trkpt lat="48.54718" lon="2.63745">
        <ele>74</ele>
        <time>2021-05-30T10:02:13Z</time>
      </trkpt>
      <trkpt lat="48.54757" lon="2.63757">
        <ele>74.1</ele>
        <time>2021-05-30T10:02:21Z</time>
      </trkpt>
      <trkpt lat="48.54762" lon="2.63756">
        <ele>74.1</ele>
        <time>2021-05-30T10:02:22Z</time>
      </trkpt>
      <trkpt lat="48.54766" lon="2.63752">
        <ele>74.2</ele>
        <time>2021-05-30T10:02:23Z</time>
      </trkpt>
      <trkpt lat="48.5477" lon="2.63747">
        <ele>74.2</ele>
        <time>2021-05-30T10:02:24Z</time>
      </trkpt>
      <trkpt lat="48.54772" lon="2.63741">
        <ele>74.2</ele>
        <time>2021-05-30T10:02:25Z</time>
      </trkpt>
      <trkpt lat="48.54773" lon="2.63734">
        <ele>74.3</ele>
        <time>2021-05-30T10:02:26Z</time>
      </trkpt>
      <trkpt lat="48.54773" lon="2.63726">
        <ele>74.2</ele>
        <time>2021-05-30T10:02:27Z</time>
      </trkpt>
      <trkpt lat="48.54773" lon="2.63719">
        <ele>74.2</ele>
        <time>2021-05-30T10:02:28Z</time>
      </trkpt>
      <trkpt lat="48.54772" lon="2.63713">
        <ele>74.2</ele>
        <time>2021-05-30T10:02:29Z</time>
      </trkpt>
      <trkpt lat="48.5477" lon="2.63707">
        <ele>74.1</ele>
        <time>2021-05-30T10:02:30Z</time>
      </trkpt>
      <trkpt lat="48.54769" lon="2.6369">
        <ele>74</ele>
        <time>2021-05-30T10:02:33Z</time>
      </trkpt>
      <trkpt lat="48.5477" lon="2.63685">
        <ele>74</ele>
        <time>2021-05-30T10:02:34Z</time>
      </trkpt>
      <trkpt lat="48.54773" lon="2.63678">
        <ele>74.1</ele>
        <time>2021-05-30T10:02:36Z</time>
      </trkpt>
      <trkpt lat="48.54776" lon="2.63677">
        <ele>74.2</ele>
        <time>2021-05-30T10:02:37Z</time>
      </trkpt>
      <trkpt lat="48.54815" lon="2.63662">
        <ele>76.3</ele>
        <time>2021-05-30T10:02:47Z</time>
      </trkpt>
      <trkpt lat="48.54822" lon="2.6366">
        <ele>76.6</ele>
        <time>2021-05-30T10:02:48Z</time>
      </trkpt>
      <trkpt lat="48.5483" lon="2.63659">
        <ele>77</ele>
        <time>2021-05-30T10:02:49Z</time>
      </trkpt>
      <trkpt lat="48.54836" lon="2.63656">
        <ele>77.3</ele>
        <time>2021-05-30T10:02:50Z</time>
      </trkpt>
      <trkpt lat="48.54843" lon="2.63651">
        <ele>77.7</ele>
        <time>2021-05-30T10:02:52Z</time>
      </trkpt>
      <trkpt lat="48.54845" lon="2.63648">
        <ele>77.9</ele>
        <time>2021-05-30T10:02:53Z</time>
      </trkpt>
      <trkpt lat="48.54848" lon="2.63647">
        <ele>78</ele>
        <time>2021-05-30T10:02:54Z</time>
      </trkpt>
      <trkpt lat="48.5485" lon="2.63646">
        <ele>78.1</ele>
        <time>2021-05-30T10:02:55Z</time>
      </trkpt>
      <trkpt lat="48.54853" lon="2.63643">
        <ele>78.3</ele>
        <time>2021-05-30T10:02:56Z</time>
      </trkpt>
      <trkpt lat="48.54854" lon="2.63639">
        <ele>78.5</ele>
        <time>2021-05-30T10:02:57Z</time>
      </trkpt>
      <trkpt lat="48.54852" lon="2.63636">
        <ele>78.5</ele>
        <time>2021-05-30T10:02:58Z</time>
      </trkpt>
      <trkpt lat="48.5485" lon="2.63633">
        <ele>78.5</ele>
        <time>2021-05-30T10:02:59Z</time>
      </trkpt>
      <trkpt lat="48.54846" lon="2.63632">
        <ele>78.4</ele>
        <time>2021-05-30T10:03:00Z</time>
      </trkpt>
      <trkpt lat="48.54842" lon="2.63631">
        <ele>78.2</ele>
        <time>2021-05-30T10:03:01Z</time>
      </trkpt>
      <trkpt lat="48.54837" lon="2.63631">
        <ele>78</ele>
        <time>2021-05-30T10:03:02Z</time>
      </trkpt>
      <trkpt lat="48.54829" lon="2.63626">
        <ele>77.8</ele>
        <time>2021-05-30T10:03:04Z</time>
      </trkpt>
      <trkpt lat="48.54828" lon="2.63621">
        <ele>77.8</ele>
        <time>2021-05-30T10:03:05Z</time>
      </trkpt>
      <trkpt lat="48.54829" lon="2.63616">
        <ele>78</ele>
        <time>2021-05-30T10:03:06Z</time>
      </trkpt>
      <trkpt lat="48.54831" lon="2.63603">
        <ele>78.4</ele>
        <time>2021-05-30T10:03:09Z</time>
      </trkpt>
      <trkpt lat="48.5483" lon="2.63594">
        <ele>78.6</ele>
        <time>2021-05-30T10:03:11Z</time>
      </trkpt>
      <trkpt lat="48.54831" lon="2.6359">
        <ele>78.7</ele>
        <time>2021-05-30T10:03:12Z</time>
      </trkpt>
      <trkpt lat="48.54832" lon="2.63586">
        <ele>78.9</ele>
        <time>2021-05-30T10:03:13Z</time>
      </trkpt>
      <trkpt lat="48.54832" lon="2.63581">
        <ele>79</ele>
        <time>2021-05-30T10:03:14Z</time>
      </trkpt>
      <trkpt lat="48.54832" lon="2.63575">
        <ele>79.2</ele>
        <time>2021-05-30T10:03:15Z</time>
      </trkpt>
      <trkpt lat="48.54833" lon="2.6357">
        <ele>79.5</ele>
        <time>2021-05-30T10:03:16Z</time>
      </trkpt>
      <trkpt lat="48.54833" lon="2.63564">
        <ele>79.7</ele>
        <time>2021-05-30T10:03:17Z</time>
      </trkpt>
      <trkpt lat="48.54839" lon="2.63499">
        <ele>82.3</ele>
        <time>2021-05-30T10:03:28Z</time>
      </trkpt>
      <trkpt lat="48.54846" lon="2.6344">
        <ele>84.7</ele>
        <time>2021-05-30T10:03:38Z</time>
      </trkpt>
      <trkpt lat="48.54855" lon="2.63382">
        <ele>86.3</ele>
        <time>2021-05-30T10:03:48Z</time>
      </trkpt>
      <trkpt lat="48.54862" lon="2.63324">
        <ele>87.1</ele>
        <time>2021-05-30T10:03:58Z</time>
      </trkpt>
      <trkpt lat="48.54869" lon="2.63265">
        <ele>87.5</ele>
        <time>2021-05-30T10:04:08Z</time>
      </trkpt>
      <trkpt lat="48.54876" lon="2.63213">
        <ele>87.9</ele>
        <time>2021-05-30T10:04:17Z</time>
      </trkpt>
      <trkpt lat="48.54877" lon="2.63207">
        <ele>88</ele>
        <time>2021-05-30T10:04:18Z</time>
      </trkpt>
      <trkpt lat="48.54888" lon="2.63136">
        <ele>88.4</ele>
        <time>2021-05-30T10:04:28Z</time>
      </trkpt>
      <trkpt lat="48.5489" lon="2.63121">
        <ele>88.3</ele>
        <time>2021-05-30T10:04:30Z</time>
      </trkpt>
      <trkpt lat="48.54892" lon="2.63088">
        <ele>88</ele>
        <time>2021-05-30T10:04:35Z</time>
      </trkpt>
      <trkpt lat="48.54893" lon="2.63084">
        <ele>88</ele>
        <time>2021-05-30T10:04:36Z</time>
      </trkpt>
      <trkpt lat="48.54893" lon="2.63079">
        <ele>87.9</ele>
        <time>2021-05-30T10:04:37Z</time>
      </trkpt>
      <trkpt lat="48.54894" lon="2.63074">
        <ele>87.8</ele>
        <time>2021-05-30T10:04:38Z</time>
      </trkpt>
      <trkpt lat="48.54894" lon="2.63068">
        <ele>87.7</ele>
        <time>2021-05-30T10:04:39Z</time>
      </trkpt>
      <trkpt lat="48.54894" lon="2.63061">
        <ele>87.5</ele>
        <time>2021-05-30T10:04:40Z</time>
      </trkpt>
      <trkpt lat="48.54895" lon="2.63055">
        <ele>87.4</ele>
        <time>2021-05-30T10:04:41Z</time>
      </trkpt>
      <trkpt lat="48.54896" lon="2.63048">
        <ele>87.3</ele>
        <time>2021-05-30T10:04:42Z</time>
      </trkpt>
      <trkpt lat="48.54898" lon="2.63041">
        <ele>87.1</ele>
        <time>2021-05-30T10:04:43Z</time>
      </trkpt>
      <trkpt lat="48.54901" lon="2.63035">
        <ele>86.9</ele>
        <time>2021-05-30T10:04:44Z</time>
      </trkpt>
      <trkpt lat="48.54904" lon="2.6303">
        <ele>86.8</ele>
        <time>2021-05-30T10:04:45Z</time>
      </trkpt>
      <trkpt lat="48.54908" lon="2.63028">
        <ele>86.7</ele>
        <time>2021-05-30T10:04:46Z</time>
      </trkpt>
      <trkpt lat="48.54912" lon="2.63026">
        <ele>86.7</ele>
        <time>2021-05-30T10:04:47Z</time>
      </trkpt>
      <trkpt lat="48.54916" lon="2.63026">
        <ele>86.6</ele>
        <time>2021-05-30T10:04:48Z</time>
      </trkpt>
      <trkpt lat="48.54919" lon="2.63026">
        <ele>86.6</ele>
        <time>2021-05-30T10:04:49Z</time>
      </trkpt>
      <trkpt lat="48.54923" lon="2.63027">
        <ele>86.7</ele>
        <time>2021-05-30T10:04:50Z</time>
      </trkpt>
      <trkpt lat="48.5498" lon="2.63033">
        <ele>87.1</ele>
        <time>2021-05-30T10:05:03Z</time>
      </trkpt>
      <trkpt lat="48.5499" lon="2.63031">
        <ele>87.1</ele>
        <time>2021-05-30T10:05:06Z</time>
      </trkpt>
      <trkpt lat="48.54992" lon="2.63028">
        <ele>87</ele>
        <time>2021-05-30T10:05:07Z</time>
      </trkpt>
      <trkpt lat="48.54995" lon="2.63024">
        <ele>86.8</ele>
        <time>2021-05-30T10:05:08Z</time>
      </trkpt>
      <trkpt lat="48.54999" lon="2.63012">
        <ele>86.4</ele>
        <time>2021-05-30T10:05:10Z</time>
      </trkpt>
      <trkpt lat="48.55003" lon="2.62998">
        <ele>86</ele>
        <time>2021-05-30T10:05:12Z</time>
      </trkpt>
      <trkpt lat="48.55005" lon="2.62991">
        <ele>86.1</ele>
        <time>2021-05-30T10:05:13Z</time>
      </trkpt>
      <trkpt lat="48.5502" lon="2.62944">
        <ele>86.6</ele>
        <time>2021-05-30T10:05:21Z</time>
      </trkpt>
      <trkpt lat="48.55026" lon="2.62934">
        <ele>86.7</ele>
        <time>2021-05-30T10:05:23Z</time>
      </trkpt>
      <trkpt lat="48.5503" lon="2.62931">
        <ele>86.8</ele>
        <time>2021-05-30T10:05:24Z</time>
      </trkpt>
      <trkpt lat="48.55034" lon="2.62927">
        <ele>86.8</ele>
        <time>2021-05-30T10:05:25Z</time>
      </trkpt>
      <trkpt lat="48.55038" lon="2.62924">
        <ele>86.9</ele>
        <time>2021-05-30T10:05:26Z</time>
      </trkpt>
      <trkpt lat="48.55041" lon="2.62922">
        <ele>86.9</ele>
        <time>2021-05-30T10:05:27Z</time>
      </trkpt>
      <trkpt lat="48.55045" lon="2.62919">
        <ele>87</ele>
        <time>2021-05-30T10:05:28Z</time>
      </trkpt>
      <trkpt lat="48.55048" lon="2.62915">
        <ele>87</ele>
        <time>2021-05-30T10:05:29Z</time>
      </trkpt>
      <trkpt lat="48.55051" lon="2.62911">
        <ele>87.1</ele>
        <time>2021-05-30T10:05:30Z</time>
      </trkpt>
      <trkpt lat="48.55054" lon="2.62907">
        <ele>87.2</ele>
        <time>2021-05-30T10:05:31Z</time>
      </trkpt>
      <trkpt lat="48.55056" lon="2.62901">
        <ele>87.3</ele>
        <time>2021-05-30T10:05:32Z</time>
      </trkpt>
      <trkpt lat="48.55059" lon="2.62896">
        <ele>87.4</ele>
        <time>2021-05-30T10:05:33Z</time>
      </trkpt>
      <trkpt lat="48.55062" lon="2.6289">
        <ele>87.6</ele>
        <time>2021-05-30T10:05:34Z</time>
      </trkpt>
      <trkpt lat="48.55064" lon="2.62885">
        <ele>87.7</ele>
        <time>2021-05-30T10:05:35Z</time>
      </trkpt>
      <trkpt lat="48.55066" lon="2.6288">
        <ele>87.8</ele>
        <time>2021-05-30T10:05:36Z</time>
      </trkpt>
      <trkpt lat="48.55069" lon="2.62877">
        <ele>87.9</ele>
        <time>2021-05-30T10:05:37Z</time>
      </trkpt>
      <trkpt lat="48.55072" lon="2.62873">
        <ele>88</ele>
        <time>2021-05-30T10:05:38Z</time>
      </trkpt>
      <trkpt lat="48.55074" lon="2.6287">
        <ele>88.1</ele>
        <time>2021-05-30T10:05:39Z</time>
      </trkpt>
      <trkpt lat="48.55076" lon="2.62864">
        <ele>88.2</ele>
        <time>2021-05-30T10:05:40Z</time>
      </trkpt>
      <trkpt lat="48.55077" lon="2.6286">
        <ele>88.3</ele>
        <time>2021-05-30T10:05:41Z</time>
      </trkpt>
      <trkpt lat="48.55079" lon="2.6283">
        <ele>88.9</ele>
        <time>2021-05-30T10:05:45Z</time>
      </trkpt>
      <trkpt lat="48.55079" lon="2.62821">
        <ele>88.8</ele>
        <time>2021-05-30T10:05:46Z</time>
      </trkpt>
      <trkpt lat="48.55079" lon="2.62812">
        <ele>88.7</ele>
        <time>2021-05-30T10:05:47Z</time>
      </trkpt>
      <trkpt lat="48.55078" lon="2.62785">
        <ele>88.4</ele>
        <time>2021-05-30T10:05:50Z</time>
      </trkpt>
      <trkpt lat="48.55078" lon="2.62778">
        <ele>88.3</ele>
        <time>2021-05-30T10:05:51Z</time>
      </trkpt>
      <trkpt lat="48.55077" lon="2.6277">
        <ele>88.2</ele>
        <time>2021-05-30T10:05:52Z</time>
      </trkpt>
      <trkpt lat="48.55077" lon="2.62761">
        <ele>88.1</ele>
        <time>2021-05-30T10:05:53Z</time>
      </trkpt>
      <trkpt lat="48.55077" lon="2.62754">
        <ele>88</ele>
        <time>2021-05-30T10:05:54Z</time>
      </trkpt>
      <trkpt lat="48.55077" lon="2.62747">
        <ele>87.9</ele>
        <time>2021-05-30T10:05:55Z</time>
      </trkpt>
      <trkpt lat="48.55082" lon="2.62718">
        <ele>86.9</ele>
        <time>2021-05-30T10:06:00Z</time>
      </trkpt>
      <trkpt lat="48.55083" lon="2.62699">
        <ele>86.2</ele>
        <time>2021-05-30T10:06:03Z</time>
      </trkpt>
      <trkpt lat="48.55082" lon="2.62692">
        <ele>85.9</ele>
        <time>2021-05-30T10:06:04Z</time>
      </trkpt>
      <trkpt lat="48.55083" lon="2.62686">
        <ele>85.7</ele>
        <time>2021-05-30T10:06:05Z</time>
      </trkpt>
      <trkpt lat="48.55083" lon="2.62679">
        <ele>85.5</ele>
        <time>2021-05-30T10:06:06Z</time>
      </trkpt>
      <trkpt lat="48.55084" lon="2.62673">
        <ele>85.2</ele>
        <time>2021-05-30T10:06:07Z</time>
      </trkpt>
      <trkpt lat="48.55084" lon="2.62647">
        <ele>83.8</ele>
        <time>2021-05-30T10:06:10Z</time>
      </trkpt>
      <trkpt lat="48.55085" lon="2.62583">
        <ele>80.1</ele>
        <time>2021-05-30T10:06:18Z</time>
      </trkpt>
      <trkpt lat="48.55088" lon="2.62569">
        <ele>80.6</ele>
        <time>2021-05-30T10:06:20Z</time>
      </trkpt>
      <trkpt lat="48.55091" lon="2.62549">
        <ele>81.5</ele>
        <time>2021-05-30T10:06:23Z</time>
      </trkpt>
      <trkpt lat="48.55086" lon="2.62455">
        <ele>85.2</ele>
        <time>2021-05-30T10:06:36Z</time>
      </trkpt>
      <trkpt lat="48.55086" lon="2.62448">
        <ele>85.6</ele>
        <time>2021-05-30T10:06:37Z</time>
      </trkpt>
      <trkpt lat="48.55082" lon="2.62372">
        <ele>87</ele>
        <time>2021-05-30T10:06:48Z</time>
      </trkpt>
      <trkpt lat="48.55081" lon="2.62366">
        <ele>87</ele>
        <time>2021-05-30T10:06:49Z</time>
      </trkpt>
      <trkpt lat="48.5508" lon="2.62359">
        <ele>87</ele>
        <time>2021-05-30T10:06:50Z</time>
      </trkpt>
      <trkpt lat="48.55073" lon="2.62326">
        <ele>86.6</ele>
        <time>2021-05-30T10:06:55Z</time>
      </trkpt>
      <trkpt lat="48.55069" lon="2.62311">
        <ele>86</ele>
        <time>2021-05-30T10:06:57Z</time>
      </trkpt>
      <trkpt lat="48.55066" lon="2.62296">
        <ele>85.3</ele>
        <time>2021-05-30T10:06:59Z</time>
      </trkpt>
      <trkpt lat="48.55063" lon="2.6229">
        <ele>85.1</ele>
        <time>2021-05-30T10:07:00Z</time>
      </trkpt>
      <trkpt lat="48.55059" lon="2.62286">
        <ele>84.8</ele>
        <time>2021-05-30T10:07:01Z</time>
      </trkpt>
      <trkpt lat="48.55057" lon="2.62282">
        <ele>84.6</ele>
        <time>2021-05-30T10:07:02Z</time>
      </trkpt>
      <trkpt lat="48.55055" lon="2.62278">
        <ele>84.4</ele>
        <time>2021-05-30T10:07:03Z</time>
      </trkpt>
      <trkpt lat="48.55055" lon="2.62275">
        <ele>84.3</ele>
        <time>2021-05-30T10:07:04Z</time>
      </trkpt>
      <trkpt lat="48.55051" lon="2.62263">
        <ele>83.8</ele>
        <time>2021-05-30T10:07:08Z</time>
      </trkpt>
      <trkpt lat="48.55054" lon="2.62261">
        <ele>83.7</ele>
        <time>2021-05-30T10:07:09Z</time>
      </trkpt>
      <trkpt lat="48.55056" lon="2.62257">
        <ele>83.6</ele>
        <time>2021-05-30T10:07:10Z</time>
      </trkpt>
      <trkpt lat="48.55057" lon="2.62251">
        <ele>83.4</ele>
        <time>2021-05-30T10:07:11Z</time>
      </trkpt>
      <trkpt lat="48.55057" lon="2.62245">
        <ele>83.4</ele>
        <time>2021-05-30T10:07:12Z</time>
      </trkpt>
      <trkpt lat="48.55056" lon="2.62239">
        <ele>83.5</ele>
        <time>2021-05-30T10:07:13Z</time>
      </trkpt>
      <trkpt lat="48.55054" lon="2.62233">
        <ele>83.5</ele>
        <time>2021-05-30T10:07:14Z</time>
      </trkpt>
      <trkpt lat="48.55054" lon="2.62228">
        <ele>83.5</ele>
        <time>2021-05-30T10:07:15Z</time>
      </trkpt>
      <trkpt lat="48.55055" lon="2.62222">
        <ele>83.6</ele>
        <time>2021-05-30T10:07:16Z</time>
      </trkpt>
      <trkpt lat="48.55052" lon="2.62198">
        <ele>83.8</ele>
        <time>2021-05-30T10:07:20Z</time>
      </trkpt>
      <trkpt lat="48.5505" lon="2.62191">
        <ele>83.8</ele>
        <time>2021-05-30T10:07:21Z</time>
      </trkpt>
      <trkpt lat="48.55049" lon="2.62185">
        <ele>83.8</ele>
        <time>2021-05-30T10:07:22Z</time>
      </trkpt>
      <trkpt lat="48.55048" lon="2.62178">
        <ele>83.8</ele>
        <time>2021-05-30T10:07:23Z</time>
      </trkpt>
      <trkpt lat="48.55047" lon="2.62171">
        <ele>83.8</ele>
        <time>2021-05-30T10:07:24Z</time>
      </trkpt>
      <trkpt lat="48.55045" lon="2.62156">
        <ele>83.8</ele>
        <time>2021-05-30T10:07:26Z</time>
      </trkpt>
      <trkpt lat="48.55044" lon="2.62148">
        <ele>83.8</ele>
        <time>2021-05-30T10:07:27Z</time>
      </trkpt>
      <trkpt lat="48.55043" lon="2.6214">
        <ele>83.8</ele>
        <time>2021-05-30T10:07:28Z</time>
      </trkpt>
      <trkpt lat="48.55041" lon="2.62126">
        <ele>83.7</ele>
        <time>2021-05-30T10:07:30Z</time>
      </trkpt>
      <trkpt lat="48.5504" lon="2.62119">
        <ele>83.7</ele>
        <time>2021-05-30T10:07:31Z</time>
      </trkpt>
      <trkpt lat="48.55039" lon="2.62112">
        <ele>83.7</ele>
        <time>2021-05-30T10:07:32Z</time>
      </trkpt>
      <trkpt lat="48.55036" lon="2.6209">
        <ele>83.6</ele>
        <time>2021-05-30T10:07:35Z</time>
      </trkpt>
      <trkpt lat="48.55036" lon="2.62082">
        <ele>83.6</ele>
        <time>2021-05-30T10:07:36Z</time>
      </trkpt>
      <trkpt lat="48.55035" lon="2.62067">
        <ele>83.9</ele>
        <time>2021-05-30T10:07:38Z</time>
      </trkpt>
      <trkpt lat="48.55033" lon="2.6206">
        <ele>83.9</ele>
        <time>2021-05-30T10:07:39Z</time>
      </trkpt>
      <trkpt lat="48.55029" lon="2.62038">
        <ele>84</ele>
        <time>2021-05-30T10:07:42Z</time>
      </trkpt>
      <trkpt lat="48.55028" lon="2.62031">
        <ele>84.1</ele>
        <time>2021-05-30T10:07:43Z</time>
      </trkpt>
      <trkpt lat="48.55027" lon="2.62025">
        <ele>84.1</ele>
        <time>2021-05-30T10:07:44Z</time>
      </trkpt>
      <trkpt lat="48.55026" lon="2.62018">
        <ele>84.2</ele>
        <time>2021-05-30T10:07:45Z</time>
      </trkpt>
      <trkpt lat="48.55025" lon="2.62012">
        <ele>84.2</ele>
        <time>2021-05-30T10:07:46Z</time>
      </trkpt>
      <trkpt lat="48.55024" lon="2.61994">
        <ele>84.5</ele>
        <time>2021-05-30T10:07:49Z</time>
      </trkpt>
      <trkpt lat="48.55024" lon="2.6198">
        <ele>85</ele>
        <time>2021-05-30T10:07:51Z</time>
      </trkpt>
      <trkpt lat="48.55023" lon="2.61965">
        <ele>85.4</ele>
        <time>2021-05-30T10:07:53Z</time>
      </trkpt>
      <trkpt lat="48.55023" lon="2.61936">
        <ele>86.5</ele>
        <time>2021-05-30T10:07:57Z</time>
      </trkpt>
      <trkpt lat="48.55023" lon="2.6193">
        <ele>86.8</ele>
        <time>2021-05-30T10:07:58Z</time>
      </trkpt>
      <trkpt lat="48.55026" lon="2.61878">
        <ele>88</ele>
        <time>2021-05-30T10:08:06Z</time>
      </trkpt>
      <trkpt lat="48.55025" lon="2.6187">
        <ele>87.9</ele>
        <time>2021-05-30T10:08:07Z</time>
      </trkpt>
      <trkpt lat="48.55024" lon="2.61864">
        <ele>87.9</ele>
        <time>2021-05-30T10:08:08Z</time>
      </trkpt>
      <trkpt lat="48.55024" lon="2.61857">
        <ele>88</ele>
        <time>2021-05-30T10:08:09Z</time>
      </trkpt>
      <trkpt lat="48.55025" lon="2.61849">
        <ele>88.2</ele>
        <time>2021-05-30T10:08:10Z</time>
      </trkpt>
      <trkpt lat="48.55024" lon="2.61841">
        <ele>88.2</ele>
        <time>2021-05-30T10:08:11Z</time>
      </trkpt>
      <trkpt lat="48.55024" lon="2.61834">
        <ele>88.3</ele>
        <time>2021-05-30T10:08:12Z</time>
      </trkpt>
      <trkpt lat="48.55023" lon="2.6183">
        <ele>88.2</ele>
        <time>2021-05-30T10:08:13Z</time>
      </trkpt>
      <trkpt lat="48.55024" lon="2.61824">
        <ele>88.2</ele>
        <time>2021-05-30T10:08:14Z</time>
      </trkpt>
      <trkpt lat="48.55027" lon="2.61818">
        <ele>88.3</ele>
        <time>2021-05-30T10:08:15Z</time>
      </trkpt>
      <trkpt lat="48.5503" lon="2.61813">
        <ele>88.5</ele>
        <time>2021-05-30T10:08:16Z</time>
      </trkpt>
      <trkpt lat="48.55032" lon="2.61808">
        <ele>88.7</ele>
        <time>2021-05-30T10:08:17Z</time>
      </trkpt>
      <trkpt lat="48.55034" lon="2.61803">
        <ele>88.8</ele>
        <time>2021-05-30T10:08:18Z</time>
      </trkpt>
      <trkpt lat="48.55034" lon="2.61798">
        <ele>88.8</ele>
        <time>2021-05-30T10:08:19Z</time>
      </trkpt>
      <trkpt lat="48.55034" lon="2.61794">
        <ele>88.7</ele>
        <time>2021-05-30T10:08:20Z</time>
      </trkpt>
      <trkpt lat="48.55034" lon="2.6179">
        <ele>88.6</ele>
        <time>2021-05-30T10:08:21Z</time>
      </trkpt>
      <trkpt lat="48.55033" lon="2.61786">
        <ele>88.5</ele>
        <time>2021-05-30T10:08:22Z</time>
      </trkpt>
      <trkpt lat="48.55033" lon="2.61781">
        <ele>88.4</ele>
        <time>2021-05-30T10:08:23Z</time>
      </trkpt>
      <trkpt lat="48.5503" lon="2.6174">
        <ele>87</ele>
        <time>2021-05-30T10:08:28Z</time>
      </trkpt>
      <trkpt lat="48.5503" lon="2.61733">
        <ele>86.7</ele>
        <time>2021-05-30T10:08:29Z</time>
      </trkpt>
      <trkpt lat="48.55031" lon="2.61726">
        <ele>86.4</ele>
        <time>2021-05-30T10:08:30Z</time>
      </trkpt>
      <trkpt lat="48.55033" lon="2.6172">
        <ele>86.2</ele>
        <time>2021-05-30T10:08:31Z</time>
      </trkpt>
      <trkpt lat="48.55034" lon="2.61714">
        <ele>86</ele>
        <time>2021-05-30T10:08:32Z</time>
      </trkpt>
      <trkpt lat="48.55035" lon="2.61709">
        <ele>85.7</ele>
        <time>2021-05-30T10:08:33Z</time>
      </trkpt>
      <trkpt lat="48.55041" lon="2.6169">
        <ele>85.4</ele>
        <time>2021-05-30T10:08:37Z</time>
      </trkpt>
      <trkpt lat="48.55043" lon="2.61682">
        <ele>85</ele>
        <time>2021-05-30T10:08:38Z</time>
      </trkpt>
      <trkpt lat="48.55043" lon="2.61667">
        <ele>84.1</ele>
        <time>2021-05-30T10:08:40Z</time>
      </trkpt>
      <trkpt lat="48.55042" lon="2.6166">
        <ele>83.9</ele>
        <time>2021-05-30T10:08:41Z</time>
      </trkpt>
      <trkpt lat="48.5504" lon="2.61652">
        <ele>83.4</ele>
        <time>2021-05-30T10:08:42Z</time>
      </trkpt>
      <trkpt lat="48.55037" lon="2.61643">
        <ele>83</ele>
        <time>2021-05-30T10:08:43Z</time>
      </trkpt>
      <trkpt lat="48.55035" lon="2.61634">
        <ele>82.6</ele>
        <time>2021-05-30T10:08:44Z</time>
      </trkpt>
      <trkpt lat="48.55034" lon="2.61625">
        <ele>82.4</ele>
        <time>2021-05-30T10:08:45Z</time>
      </trkpt>
      <trkpt lat="48.55035" lon="2.61616">
        <ele>82.2</ele>
        <time>2021-05-30T10:08:46Z</time>
      </trkpt>
      <trkpt lat="48.55035" lon="2.61607">
        <ele>82.1</ele>
        <time>2021-05-30T10:08:47Z</time>
      </trkpt>
      <trkpt lat="48.55035" lon="2.61599">
        <ele>81.9</ele>
        <time>2021-05-30T10:08:48Z</time>
      </trkpt>
      <trkpt lat="48.55035" lon="2.6159">
        <ele>81.7</ele>
        <time>2021-05-30T10:08:49Z</time>
      </trkpt>
      <trkpt lat="48.55036" lon="2.61581">
        <ele>81.6</ele>
        <time>2021-05-30T10:08:50Z</time>
      </trkpt>
      <trkpt lat="48.55036" lon="2.61562">
        <ele>81.7</ele>
        <time>2021-05-30T10:08:53Z</time>
      </trkpt>
      <trkpt lat="48.55035" lon="2.61557">
        <ele>81.7</ele>
        <time>2021-05-30T10:08:54Z</time>
      </trkpt>
      <trkpt lat="48.55035" lon="2.61552">
        <ele>81.8</ele>
        <time>2021-05-30T10:08:55Z</time>
      </trkpt>
      <trkpt lat="48.55034" lon="2.61546">
        <ele>81.7</ele>
        <time>2021-05-30T10:08:56Z</time>
      </trkpt>
      <trkpt lat="48.55033" lon="2.6154">
        <ele>81.7</ele>
        <time>2021-05-30T10:08:57Z</time>
      </trkpt>
      <trkpt lat="48.55032" lon="2.61533">
        <ele>81.7</ele>
        <time>2021-05-30T10:08:58Z</time>
      </trkpt>
      <trkpt lat="48.55032" lon="2.61526">
        <ele>81.8</ele>
        <time>2021-05-30T10:08:59Z</time>
      </trkpt>
      <trkpt lat="48.55032" lon="2.61519">
        <ele>81.8</ele>
        <time>2021-05-30T10:09:00Z</time>
      </trkpt>
      <trkpt lat="48.55032" lon="2.61513">
        <ele>81.9</ele>
        <time>2021-05-30T10:09:01Z</time>
      </trkpt>
      <trkpt lat="48.55033" lon="2.61507">
        <ele>81.9</ele>
        <time>2021-05-30T10:09:02Z</time>
      </trkpt>
      <trkpt lat="48.55034" lon="2.615">
        <ele>82</ele>
        <time>2021-05-30T10:09:03Z</time>
      </trkpt>
      <trkpt lat="48.55034" lon="2.61493">
        <ele>81.8</ele>
        <time>2021-05-30T10:09:04Z</time>
      </trkpt>
      <trkpt lat="48.55035" lon="2.61486">
        <ele>81.7</ele>
        <time>2021-05-30T10:09:05Z</time>
      </trkpt>
      <trkpt lat="48.55036" lon="2.6148">
        <ele>81.5</ele>
        <time>2021-05-30T10:09:06Z</time>
      </trkpt>
      <trkpt lat="48.55036" lon="2.61474">
        <ele>81.4</ele>
        <time>2021-05-30T10:09:07Z</time>
      </trkpt>
      <trkpt lat="48.55037" lon="2.61468">
        <ele>81.3</ele>
        <time>2021-05-30T10:09:08Z</time>
      </trkpt>
      <trkpt lat="48.5504" lon="2.61462">
        <ele>81.2</ele>
        <time>2021-05-30T10:09:09Z</time>
      </trkpt>
      <trkpt lat="48.55043" lon="2.61445">
        <ele>81</ele>
        <time>2021-05-30T10:09:12Z</time>
      </trkpt>
      <trkpt lat="48.55042" lon="2.61438">
        <ele>80.6</ele>
        <time>2021-05-30T10:09:13Z</time>
      </trkpt>
      <trkpt lat="48.5504" lon="2.61432">
        <ele>80.3</ele>
        <time>2021-05-30T10:09:14Z</time>
      </trkpt>
      <trkpt lat="48.55038" lon="2.61424">
        <ele>80</ele>
        <time>2021-05-30T10:09:15Z</time>
      </trkpt>
      <trkpt lat="48.55037" lon="2.61417">
        <ele>79.7</ele>
        <time>2021-05-30T10:09:16Z</time>
      </trkpt>
      <trkpt lat="48.55036" lon="2.6141">
        <ele>79.6</ele>
        <time>2021-05-30T10:09:17Z</time>
      </trkpt>
      <trkpt lat="48.55035" lon="2.61403">
        <ele>79.5</ele>
        <time>2021-05-30T10:09:18Z</time>
      </trkpt>
      <trkpt lat="48.55034" lon="2.61396">
        <ele>79.5</ele>
        <time>2021-05-30T10:09:19Z</time>
      </trkpt>
      <trkpt lat="48.55035" lon="2.6139">
        <ele>79.5</ele>
        <time>2021-05-30T10:09:20Z</time>
      </trkpt>
      <trkpt lat="48.55036" lon="2.61384">
        <ele>79.6</ele>
        <time>2021-05-30T10:09:21Z</time>
      </trkpt>
      <trkpt lat="48.55038" lon="2.61371">
        <ele>79.7</ele>
        <time>2021-05-30T10:09:23Z</time>
      </trkpt>
      <trkpt lat="48.55038" lon="2.61364">
        <ele>79.7</ele>
        <time>2021-05-30T10:09:24Z</time>
      </trkpt>
      <trkpt lat="48.55039" lon="2.61359">
        <ele>79.8</ele>
        <time>2021-05-30T10:09:25Z</time>
      </trkpt>
      <trkpt lat="48.55039" lon="2.61353">
        <ele>79.8</ele>
        <time>2021-05-30T10:09:26Z</time>
      </trkpt>
      <trkpt lat="48.55039" lon="2.61347">
        <ele>79.8</ele>
        <time>2021-05-30T10:09:27Z</time>
      </trkpt>
      <trkpt lat="48.55038" lon="2.61341">
        <ele>79.8</ele>
        <time>2021-05-30T10:09:28Z</time>
      </trkpt>
      <trkpt lat="48.55039" lon="2.61335">
        <ele>79.8</ele>
        <time>2021-05-30T10:09:29Z</time>
      </trkpt>
      <trkpt lat="48.5504" lon="2.61331">
        <ele>79.8</ele>
        <time>2021-05-30T10:09:30Z</time>
      </trkpt>
      <trkpt lat="48.55041" lon="2.61326">
        <ele>79.9</ele>
        <time>2021-05-30T10:09:31Z</time>
      </trkpt>
      <trkpt lat="48.55042" lon="2.61305">
        <ele>79.7</ele>
        <time>2021-05-30T10:09:35Z</time>
      </trkpt>
      <trkpt lat="48.55043" lon="2.613">
        <ele>79.7</ele>
        <time>2021-05-30T10:09:36Z</time>
      </trkpt>
      <trkpt lat="48.55044" lon="2.6129">
        <ele>79.6</ele>
        <time>2021-05-30T10:09:38Z</time>
      </trkpt>
      <trkpt lat="48.55043" lon="2.61286">
        <ele>79.5</ele>
        <time>2021-05-30T10:09:39Z</time>
      </trkpt>
      <trkpt lat="48.55041" lon="2.61284">
        <ele>79.4</ele>
        <time>2021-05-30T10:09:40Z</time>
      </trkpt>
      <trkpt lat="48.55039" lon="2.61281">
        <ele>79.2</ele>
        <time>2021-05-30T10:09:41Z</time>
      </trkpt>
      <trkpt lat="48.55037" lon="2.61278">
        <ele>79</ele>
        <time>2021-05-30T10:09:42Z</time>
      </trkpt>
      <trkpt lat="48.55036" lon="2.61276">
        <ele>78.9</ele>
        <time>2021-05-30T10:09:43Z</time>
      </trkpt>
      <trkpt lat="48.55032" lon="2.61269">
        <ele>78.5</ele>
        <time>2021-05-30T10:09:45Z</time>
      </trkpt>
      <trkpt lat="48.5503" lon="2.61263">
        <ele>78.3</ele>
        <time>2021-05-30T10:09:46Z</time>
      </trkpt>
      <trkpt lat="48.55029" lon="2.61256">
        <ele>78.2</ele>
        <time>2021-05-30T10:09:47Z</time>
      </trkpt>
      <trkpt lat="48.5503" lon="2.61249">
        <ele>78.2</ele>
        <time>2021-05-30T10:09:48Z</time>
      </trkpt>
      <trkpt lat="48.5503" lon="2.61243">
        <ele>78.2</ele>
        <time>2021-05-30T10:09:49Z</time>
      </trkpt>
      <trkpt lat="48.55038" lon="2.61184">
        <ele>78.8</ele>
        <time>2021-05-30T10:10:00Z</time>
      </trkpt>
      <trkpt lat="48.55051" lon="2.61122">
        <ele>79.5</ele>
        <time>2021-05-30T10:10:12Z</time>
      </trkpt>
      <trkpt lat="48.55067" lon="2.61071">
        <ele>80.4</ele>
        <time>2021-05-30T10:10:22Z</time>
      </trkpt>
      <trkpt lat="48.55076" lon="2.61028">
        <ele>80.2</ele>
        <time>2021-05-30T10:10:31Z</time>
      </trkpt>
      <trkpt lat="48.55094" lon="2.6096">
        <ele>79.2</ele>
        <time>2021-05-30T10:10:43Z</time>
      </trkpt>
      <trkpt lat="48.55098" lon="2.60941">
        <ele>78.7</ele>
        <time>2021-05-30T10:10:46Z</time>
      </trkpt>
      <trkpt lat="48.551" lon="2.60935">
        <ele>78.7</ele>
        <time>2021-05-30T10:10:47Z</time>
      </trkpt>
      <trkpt lat="48.55105" lon="2.60923">
        <ele>78.5</ele>
        <time>2021-05-30T10:10:49Z</time>
      </trkpt>
      <trkpt lat="48.55108" lon="2.60917">
        <ele>78.5</ele>
        <time>2021-05-30T10:10:50Z</time>
      </trkpt>
      <trkpt lat="48.5515" lon="2.60865">
        <ele>79.3</ele>
        <time>2021-05-30T10:11:03Z</time>
      </trkpt>
      <trkpt lat="48.55175" lon="2.60835">
        <ele>79.2</ele>
        <time>2021-05-30T10:11:13Z</time>
      </trkpt>
      <trkpt lat="48.55209" lon="2.60788">
        <ele>78.4</ele>
        <time>2021-05-30T10:11:27Z</time>
      </trkpt>
      <trkpt lat="48.55216" lon="2.6077">
        <ele>77.9</ele>
        <time>2021-05-30T10:11:40Z</time>
      </trkpt>
      <trkpt lat="48.55217" lon="2.6077">
        <ele>77.9</ele>
        <time>2021-05-30T10:12:03Z</time>
      </trkpt>
      <trkpt lat="48.55218" lon="2.60768">
        <ele>77.9</ele>
        <time>2021-05-30T10:12:06Z</time>
      </trkpt>
      <trkpt lat="48.55219" lon="2.60768">
        <ele>77.9</ele>
        <time>2021-05-30T10:12:07Z</time>
      </trkpt>
      <trkpt lat="48.55221" lon="2.60769">
        <ele>77.9</ele>
        <time>2021-05-30T10:12:09Z</time>
      </trkpt>
      <trkpt lat="48.55223" lon="2.6077">
        <ele>77.9</ele>
        <time>2021-05-30T10:12:10Z</time>
      </trkpt>
      <trkpt lat="48.55224" lon="2.60771">
        <ele>77.9</ele>
        <time>2021-05-30T10:12:11Z</time>
      </trkpt>
      <trkpt lat="48.55261" lon="2.60793">
        <ele>78.5</ele>
        <time>2021-05-30T10:12:24Z</time>
      </trkpt>
      <trkpt lat="48.55307" lon="2.60817">
        <ele>78.9</ele>
        <time>2021-05-30T10:12:35Z</time>
      </trkpt>
      <trkpt lat="48.55311" lon="2.60818">
        <ele>78.9</ele>
        <time>2021-05-30T10:12:36Z</time>
      </trkpt>
      <trkpt lat="48.55376" lon="2.60853">
        <ele>79.7</ele>
        <time>2021-05-30T10:12:53Z</time>
      </trkpt>
      <trkpt lat="48.5542" lon="2.60874">
        <ele>80</ele>
        <time>2021-05-30T10:13:05Z</time>
      </trkpt>
      <trkpt lat="48.55429" lon="2.60877">
        <ele>80.1</ele>
        <time>2021-05-30T10:13:07Z</time>
      </trkpt>
      <trkpt lat="48.55433" lon="2.60879">
        <ele>80.2</ele>
        <time>2021-05-30T10:13:08Z</time>
      </trkpt>
      <trkpt lat="48.55436" lon="2.60881">
        <ele>80.2</ele>
        <time>2021-05-30T10:13:09Z</time>
      </trkpt>
      <trkpt lat="48.5544" lon="2.60884">
        <ele>80.3</ele>
        <time>2021-05-30T10:13:10Z</time>
      </trkpt>
      <trkpt lat="48.55444" lon="2.60885">
        <ele>80.3</ele>
        <time>2021-05-30T10:13:11Z</time>
      </trkpt>
      <trkpt lat="48.55463" lon="2.60896">
        <ele>80.6</ele>
        <time>2021-05-30T10:13:16Z</time>
      </trkpt>
      <trkpt lat="48.55467" lon="2.60898">
        <ele>80.6</ele>
        <time>2021-05-30T10:13:17Z</time>
      </trkpt>
      <trkpt lat="48.55471" lon="2.60899">
        <ele>80.7</ele>
        <time>2021-05-30T10:13:18Z</time>
      </trkpt>
      <trkpt lat="48.55475" lon="2.60901">
        <ele>80.7</ele>
        <time>2021-05-30T10:13:19Z</time>
      </trkpt>
      <trkpt lat="48.55479" lon="2.60903">
        <ele>80.8</ele>
        <time>2021-05-30T10:13:20Z</time>
      </trkpt>
      <trkpt lat="48.55531" lon="2.6093">
        <ele>80.8</ele>
        <time>2021-05-30T10:13:33Z</time>
      </trkpt>
      <trkpt lat="48.5559" lon="2.60959">
        <ele>80.5</ele>
        <time>2021-05-30T10:13:49Z</time>
      </trkpt>
      <trkpt lat="48.55614" lon="2.60966">
        <ele>80.5</ele>
        <time>2021-05-30T10:14:00Z</time>
      </trkpt>
      <trkpt lat="48.55622" lon="2.60967">
        <ele>80.5</ele>
        <time>2021-05-30T10:14:02Z</time>
      </trkpt>
      <trkpt lat="48.55626" lon="2.60968">
        <ele>80.5</ele>
        <time>2021-05-30T10:14:03Z</time>
      </trkpt>
      <trkpt lat="48.5563" lon="2.60971">
        <ele>80.5</ele>
        <time>2021-05-30T10:14:04Z</time>
      </trkpt>
      <trkpt lat="48.55633" lon="2.60975">
        <ele>80.5</ele>
        <time>2021-05-30T10:14:05Z</time>
      </trkpt>
      <trkpt lat="48.55637" lon="2.60977">
        <ele>80.4</ele>
        <time>2021-05-30T10:14:06Z</time>
      </trkpt>
      <trkpt lat="48.55641" lon="2.60978">
        <ele>80.4</ele>
        <time>2021-05-30T10:14:07Z</time>
      </trkpt>
      <trkpt lat="48.55645" lon="2.60979">
        <ele>80.4</ele>
        <time>2021-05-30T10:14:08Z</time>
      </trkpt>
      <trkpt lat="48.55649" lon="2.60981">
        <ele>80.3</ele>
        <time>2021-05-30T10:14:09Z</time>
      </trkpt>
      <trkpt lat="48.55653" lon="2.60981">
        <ele>80.3</ele>
        <time>2021-05-30T10:14:10Z</time>
      </trkpt>
      <trkpt lat="48.55692" lon="2.60991">
        <ele>80.1</ele>
        <time>2021-05-30T10:14:21Z</time>
      </trkpt>
      <trkpt lat="48.55712" lon="2.60995">
        <ele>80</ele>
        <time>2021-05-30T10:14:31Z</time>
      </trkpt>
      <trkpt lat="48.55714" lon="2.60995">
        <ele>80</ele>
        <time>2021-05-30T10:14:32Z</time>
      </trkpt>
      <trkpt lat="48.55716" lon="2.60995">
        <ele>80</ele>
        <time>2021-05-30T10:14:33Z</time>
      </trkpt>
      <trkpt lat="48.55719" lon="2.60995">
        <ele>80</ele>
        <time>2021-05-30T10:14:34Z</time>
      </trkpt>
      <trkpt lat="48.55721" lon="2.60995">
        <ele>80</ele>
        <time>2021-05-30T10:14:35Z</time>
      </trkpt>
      <trkpt lat="48.55764" lon="2.61006">
        <ele>80.7</ele>
        <time>2021-05-30T10:14:47Z</time>
      </trkpt>
      <trkpt lat="48.55806" lon="2.61016">
        <ele>82.3</ele>
        <time>2021-05-30T10:14:58Z</time>
      </trkpt>
      <trkpt lat="48.55862" lon="2.61028">
        <ele>83.8</ele>
        <time>2021-05-30T10:15:12Z</time>
      </trkpt>
      <trkpt lat="48.55866" lon="2.61029">
        <ele>83.9</ele>
        <time>2021-05-30T10:15:13Z</time>
      </trkpt>
      <trkpt lat="48.5587" lon="2.6103">
        <ele>84</ele>
        <time>2021-05-30T10:15:14Z</time>
      </trkpt>
      <trkpt lat="48.55874" lon="2.61032">
        <ele>84.1</ele>
        <time>2021-05-30T10:15:15Z</time>
      </trkpt>
      <trkpt lat="48.55878" lon="2.61032">
        <ele>84.1</ele>
        <time>2021-05-30T10:15:16Z</time>
      </trkpt>
      <trkpt lat="48.55882" lon="2.61034">
        <ele>84.2</ele>
        <time>2021-05-30T10:15:17Z</time>
      </trkpt>
      <trkpt lat="48.55909" lon="2.61039">
        <ele>84.8</ele>
        <time>2021-05-30T10:15:23Z</time>
      </trkpt>
      <trkpt lat="48.55914" lon="2.6104">
        <ele>84.9</ele>
        <time>2021-05-30T10:15:24Z</time>
      </trkpt>
      <trkpt lat="48.55918" lon="2.61041">
        <ele>84.9</ele>
        <time>2021-05-30T10:15:25Z</time>
      </trkpt>
      <trkpt lat="48.55922" lon="2.61042">
        <ele>85</ele>
        <time>2021-05-30T10:15:26Z</time>
      </trkpt>
      <trkpt lat="48.55926" lon="2.61043">
        <ele>84.9</ele>
        <time>2021-05-30T10:15:27Z</time>
      </trkpt>
      <trkpt lat="48.55987" lon="2.61057">
        <ele>84.7</ele>
        <time>2021-05-30T10:15:41Z</time>
      </trkpt>
      <trkpt lat="48.56049" lon="2.61072">
        <ele>86.1</ele>
        <time>2021-05-30T10:15:56Z</time>
      </trkpt>
      <trkpt lat="48.56058" lon="2.61073">
        <ele>86.3</ele>
        <time>2021-05-30T10:15:58Z</time>
      </trkpt>
      <trkpt lat="48.56074" lon="2.61077">
        <ele>86.6</ele>
        <time>2021-05-30T10:16:02Z</time>
      </trkpt>
      <trkpt lat="48.56094" lon="2.61081">
        <ele>86.9</ele>
        <time>2021-05-30T10:16:07Z</time>
      </trkpt>
      <trkpt lat="48.56099" lon="2.61082">
        <ele>87</ele>
        <time>2021-05-30T10:16:08Z</time>
      </trkpt>
      <trkpt lat="48.56144" lon="2.61092">
        <ele>87.2</ele>
        <time>2021-05-30T10:16:20Z</time>
      </trkpt>
      <trkpt lat="48.56161" lon="2.61103">
        <ele>87.3</ele>
        <time>2021-05-30T10:16:26Z</time>
      </trkpt>
      <trkpt lat="48.56162" lon="2.61106">
        <ele>87.3</ele>
        <time>2021-05-30T10:16:27Z</time>
      </trkpt>
      <trkpt lat="48.56162" lon="2.61111">
        <ele>87.4</ele>
        <time>2021-05-30T10:16:28Z</time>
      </trkpt>
      <trkpt lat="48.56162" lon="2.61115">
        <ele>87.4</ele>
        <time>2021-05-30T10:16:29Z</time>
      </trkpt>
      <trkpt lat="48.5616" lon="2.6112">
        <ele>87.5</ele>
        <time>2021-05-30T10:16:30Z</time>
      </trkpt>
      <trkpt lat="48.56159" lon="2.61125">
        <ele>87.6</ele>
        <time>2021-05-30T10:16:31Z</time>
      </trkpt>
      <trkpt lat="48.56149" lon="2.61152">
        <ele>88.2</ele>
        <time>2021-05-30T10:16:36Z</time>
      </trkpt>
      <trkpt lat="48.56147" lon="2.61157">
        <ele>88.3</ele>
        <time>2021-05-30T10:16:37Z</time>
      </trkpt>
      <trkpt lat="48.56134" lon="2.61191">
        <ele>88.8</ele>
        <time>2021-05-30T10:16:43Z</time>
      </trkpt>
      <trkpt lat="48.5613" lon="2.61196">
        <ele>88.9</ele>
        <time>2021-05-30T10:16:44Z</time>
      </trkpt>
      <trkpt lat="48.56121" lon="2.61212">
        <ele>89.1</ele>
        <time>2021-05-30T10:16:47Z</time>
      </trkpt>
      <trkpt lat="48.56087" lon="2.61274">
        <ele>89.1</ele>
        <time>2021-05-30T10:16:58Z</time>
      </trkpt>
      <trkpt lat="48.56075" lon="2.61297">
        <ele>88.4</ele>
        <time>2021-05-30T10:17:02Z</time>
      </trkpt>
      <trkpt lat="48.56073" lon="2.61303">
        <ele>88.3</ele>
        <time>2021-05-30T10:17:03Z</time>
      </trkpt>
      <trkpt lat="48.56072" lon="2.6131">
        <ele>88.1</ele>
        <time>2021-05-30T10:17:04Z</time>
      </trkpt>
      <trkpt lat="48.56072" lon="2.61317">
        <ele>87.9</ele>
        <time>2021-05-30T10:17:05Z</time>
      </trkpt>
      <trkpt lat="48.56074" lon="2.61322">
        <ele>87.7</ele>
        <time>2021-05-30T10:17:06Z</time>
      </trkpt>
      <trkpt lat="48.56077" lon="2.61325">
        <ele>87.5</ele>
        <time>2021-05-30T10:17:07Z</time>
      </trkpt>
      <trkpt lat="48.56081" lon="2.61326">
        <ele>87.3</ele>
        <time>2021-05-30T10:17:08Z</time>
      </trkpt>
      <trkpt lat="48.56085" lon="2.61326">
        <ele>87.3</ele>
        <time>2021-05-30T10:17:09Z</time>
      </trkpt>
      <trkpt lat="48.5609" lon="2.61326">
        <ele>87.3</ele>
        <time>2021-05-30T10:17:10Z</time>
      </trkpt>
      <trkpt lat="48.56095" lon="2.61326">
        <ele>87.4</ele>
        <time>2021-05-30T10:17:11Z</time>
      </trkpt>
      <trkpt lat="48.561" lon="2.61326">
        <ele>87.4</ele>
        <time>2021-05-30T10:17:12Z</time>
      </trkpt>
      <trkpt lat="48.56104" lon="2.61326">
        <ele>87.5</ele>
        <time>2021-05-30T10:17:13Z</time>
      </trkpt>
      <trkpt lat="48.56167" lon="2.61328">
        <ele>88</ele>
        <time>2021-05-30T10:17:27Z</time>
      </trkpt>
      <trkpt lat="48.56186" lon="2.61329">
        <ele>87.3</ele>
        <time>2021-05-30T10:17:31Z</time>
      </trkpt>
      <trkpt lat="48.56213" lon="2.61328">
        <ele>86.3</ele>
        <time>2021-05-30T10:17:36Z</time>
      </trkpt>
      <trkpt lat="48.56293" lon="2.61314">
        <ele>82</ele>
        <time>2021-05-30T10:17:49Z</time>
      </trkpt>
      <trkpt lat="48.5632" lon="2.61317">
        <ele>80.1</ele>
        <time>2021-05-30T10:17:53Z</time>
      </trkpt>
      <trkpt lat="48.56326" lon="2.61319">
        <ele>79.7</ele>
        <time>2021-05-30T10:17:54Z</time>
      </trkpt>
      <trkpt lat="48.56333" lon="2.61319">
        <ele>79.2</ele>
        <time>2021-05-30T10:17:55Z</time>
      </trkpt>
      <trkpt lat="48.56345" lon="2.6132">
        <ele>79</ele>
        <time>2021-05-30T10:17:57Z</time>
      </trkpt>
      <trkpt lat="48.56351" lon="2.61318">
        <ele>78.9</ele>
        <time>2021-05-30T10:17:58Z</time>
      </trkpt>
      <trkpt lat="48.56357" lon="2.61316">
        <ele>78.8</ele>
        <time>2021-05-30T10:17:59Z</time>
      </trkpt>
      <trkpt lat="48.56408" lon="2.61302">
        <ele>77.8</ele>
        <time>2021-05-30T10:18:10Z</time>
      </trkpt>
      <trkpt lat="48.56458" lon="2.61292">
        <ele>76.5</ele>
        <time>2021-05-30T10:18:21Z</time>
      </trkpt>
      <trkpt lat="48.56501" lon="2.61279">
        <ele>75.3</ele>
        <time>2021-05-30T10:18:32Z</time>
      </trkpt>
      <trkpt lat="48.56501" lon="2.61274">
        <ele>75.3</ele>
        <time>2021-05-30T10:18:33Z</time>
      </trkpt>
      <trkpt lat="48.56502" lon="2.61269">
        <ele>75.2</ele>
        <time>2021-05-30T10:18:34Z</time>
      </trkpt>
      <trkpt lat="48.56504" lon="2.61265">
        <ele>75.1</ele>
        <time>2021-05-30T10:18:35Z</time>
      </trkpt>
      <trkpt lat="48.56508" lon="2.61262">
        <ele>75</ele>
        <time>2021-05-30T10:18:36Z</time>
      </trkpt>
      <trkpt lat="48.5651" lon="2.61258">
        <ele>75</ele>
        <time>2021-05-30T10:18:37Z</time>
      </trkpt>
      <trkpt lat="48.5651" lon="2.61252">
        <ele>74.9</ele>
        <time>2021-05-30T10:18:38Z</time>
      </trkpt>
      <trkpt lat="48.5651" lon="2.61247">
        <ele>74.9</ele>
        <time>2021-05-30T10:18:39Z</time>
      </trkpt>
      <trkpt lat="48.5651" lon="2.61242">
        <ele>74.9</ele>
        <time>2021-05-30T10:18:40Z</time>
      </trkpt>
      <trkpt lat="48.56509" lon="2.61237">
        <ele>74.9</ele>
        <time>2021-05-30T10:18:41Z</time>
      </trkpt>
      <trkpt lat="48.56502" lon="2.61173">
        <ele>75</ele>
        <time>2021-05-30T10:18:57Z</time>
      </trkpt>
      <trkpt lat="48.565" lon="2.61163">
        <ele>75</ele>
        <time>2021-05-30T10:19:01Z</time>
      </trkpt>
      <trkpt lat="48.56499" lon="2.61165">
        <ele>75</ele>
        <time>2021-05-30T10:19:02Z</time>
      </trkpt>
      <trkpt lat="48.56498" lon="2.61166">
        <ele>75</ele>
        <time>2021-05-30T10:19:03Z</time>
      </trkpt>
      <trkpt lat="48.56496" lon="2.61166">
        <ele>75</ele>
        <time>2021-05-30T10:19:04Z</time>
      </trkpt>
      <trkpt lat="48.56494" lon="2.61165">
        <ele>75.1</ele>
        <time>2021-05-30T10:19:05Z</time>
      </trkpt>
      <trkpt lat="48.56493" lon="2.61163">
        <ele>75.1</ele>
        <time>2021-05-30T10:19:06Z</time>
      </trkpt>
      <trkpt lat="48.56492" lon="2.6116">
        <ele>75.1</ele>
        <time>2021-05-30T10:19:07Z</time>
      </trkpt>
      <trkpt lat="48.56491" lon="2.61156">
        <ele>75.1</ele>
        <time>2021-05-30T10:19:08Z</time>
      </trkpt>
      <trkpt lat="48.56491" lon="2.61151">
        <ele>75.1</ele>
        <time>2021-05-30T10:19:09Z</time>
      </trkpt>
      <trkpt lat="48.5649" lon="2.61147">
        <ele>75.1</ele>
        <time>2021-05-30T10:19:10Z</time>
      </trkpt>
      <trkpt lat="48.56489" lon="2.61143">
        <ele>75.2</ele>
        <time>2021-05-30T10:19:11Z</time>
      </trkpt>
      <trkpt lat="48.56488" lon="2.61139">
        <ele>75.2</ele>
        <time>2021-05-30T10:19:12Z</time>
      </trkpt>
      <trkpt lat="48.56488" lon="2.61134">
        <ele>75.2</ele>
        <time>2021-05-30T10:19:13Z</time>
      </trkpt>
      <trkpt lat="48.56488" lon="2.6113">
        <ele>75.2</ele>
        <time>2021-05-30T10:19:14Z</time>
      </trkpt>
      <trkpt lat="48.56487" lon="2.61126">
        <ele>75.2</ele>
        <time>2021-05-30T10:19:15Z</time>
      </trkpt>
      <trkpt lat="48.56483" lon="2.611">
        <ele>75.4</ele>
        <time>2021-05-30T10:19:21Z</time>
      </trkpt>
      <trkpt lat="48.56465" lon="2.61031">
        <ele>75.5</ele>
        <time>2021-05-30T10:19:35Z</time>
      </trkpt>
      <trkpt lat="48.56459" lon="2.60998">
        <ele>75.5</ele>
        <time>2021-05-30T10:19:43Z</time>
      </trkpt>
      <trkpt lat="48.56462" lon="2.60995">
        <ele>75.4</ele>
        <time>2021-05-30T10:19:44Z</time>
      </trkpt>
      <trkpt lat="48.56465" lon="2.60993">
        <ele>75.3</ele>
        <time>2021-05-30T10:19:45Z</time>
      </trkpt>
      <trkpt lat="48.56469" lon="2.60992">
        <ele>75.1</ele>
        <time>2021-05-30T10:19:46Z</time>
      </trkpt>
      <trkpt lat="48.56472" lon="2.60991">
        <ele>75</ele>
        <time>2021-05-30T10:19:47Z</time>
      </trkpt>
      <trkpt lat="48.56505" lon="2.6099">
        <ele>73.9</ele>
        <time>2021-05-30T10:19:55Z</time>
      </trkpt>
      <trkpt lat="48.56509" lon="2.60988">
        <ele>73.9</ele>
        <time>2021-05-30T10:19:56Z</time>
      </trkpt>
      <trkpt lat="48.56518" lon="2.60985">
        <ele>73.8</ele>
        <time>2021-05-30T10:19:58Z</time>
      </trkpt>
      <trkpt lat="48.56528" lon="2.60983">
        <ele>73.7</ele>
        <time>2021-05-30T10:20:00Z</time>
      </trkpt>
      <trkpt lat="48.56575" lon="2.60961">
        <ele>73.1</ele>
        <time>2021-05-30T10:20:09Z</time>
      </trkpt>
      <trkpt lat="48.56579" lon="2.60958">
        <ele>73.1</ele>
        <time>2021-05-30T10:20:10Z</time>
      </trkpt>
      <trkpt lat="48.56586" lon="2.60952">
        <ele>73</ele>
        <time>2021-05-30T10:20:12Z</time>
      </trkpt>
      <trkpt lat="48.56609" lon="2.6093">
        <ele>73</ele>
        <time>2021-05-30T10:20:19Z</time>
      </trkpt>
      <trkpt lat="48.56612" lon="2.60928">
        <ele>73</ele>
        <time>2021-05-30T10:20:20Z</time>
      </trkpt>
      <trkpt lat="48.56616" lon="2.60926">
        <ele>73</ele>
        <time>2021-05-30T10:20:21Z</time>
      </trkpt>
      <trkpt lat="48.56618" lon="2.60926">
        <ele>73</ele>
        <time>2021-05-30T10:20:22Z</time>
      </trkpt>
      <trkpt lat="48.56621" lon="2.60929">
        <ele>72.9</ele>
        <time>2021-05-30T10:20:23Z</time>
      </trkpt>
      <trkpt lat="48.56624" lon="2.60932">
        <ele>72.9</ele>
        <time>2021-05-30T10:20:24Z</time>
      </trkpt>
      <trkpt lat="48.56627" lon="2.60937">
        <ele>72.9</ele>
        <time>2021-05-30T10:20:25Z</time>
      </trkpt>
      <trkpt lat="48.56631" lon="2.60947">
        <ele>72.8</ele>
        <time>2021-05-30T10:20:27Z</time>
      </trkpt>
      <trkpt lat="48.56632" lon="2.60954">
        <ele>72.7</ele>
        <time>2021-05-30T10:20:28Z</time>
      </trkpt>
      <trkpt lat="48.56643" lon="2.60997">
        <ele>72.3</ele>
        <time>2021-05-30T10:20:34Z</time>
      </trkpt>
      <trkpt lat="48.56646" lon="2.61003">
        <ele>72.2</ele>
        <time>2021-05-30T10:20:35Z</time>
      </trkpt>
      <trkpt lat="48.56651" lon="2.61015">
        <ele>72.2</ele>
        <time>2021-05-30T10:20:37Z</time>
      </trkpt>
      <trkpt lat="48.56654" lon="2.6102">
        <ele>72.1</ele>
        <time>2021-05-30T10:20:38Z</time>
      </trkpt>
      <trkpt lat="48.56661" lon="2.6103">
        <ele>72</ele>
        <time>2021-05-30T10:20:40Z</time>
      </trkpt>
      <trkpt lat="48.56665" lon="2.61035">
        <ele>72</ele>
        <time>2021-05-30T10:20:41Z</time>
      </trkpt>
      <trkpt lat="48.56681" lon="2.61053">
        <ele>72.3</ele>
        <time>2021-05-30T10:20:47Z</time>
      </trkpt>
      <trkpt lat="48.56683" lon="2.61055">
        <ele>72.4</ele>
        <time>2021-05-30T10:20:48Z</time>
      </trkpt>
      <trkpt lat="48.56684" lon="2.61056">
        <ele>72.4</ele>
        <time>2021-05-30T10:20:49Z</time>
      </trkpt>
      <trkpt lat="48.56685" lon="2.61057">
        <ele>72.4</ele>
        <time>2021-05-30T10:20:50Z</time>
      </trkpt>
      <trkpt lat="48.56688" lon="2.61058">
        <ele>72.5</ele>
        <time>2021-05-30T10:20:51Z</time>
      </trkpt>
      <trkpt lat="48.5669" lon="2.61058">
        <ele>72.5</ele>
        <time>2021-05-30T10:20:52Z</time>
      </trkpt>
      <trkpt lat="48.56693" lon="2.61063">
        <ele>72.6</ele>
        <time>2021-05-30T10:20:57Z</time>
      </trkpt>
      <trkpt lat="48.56698" lon="2.61064">
        <ele>72.8</ele>
        <time>2021-05-30T10:21:02Z</time>
      </trkpt>
      <trkpt lat="48.567" lon="2.61064">
        <ele>72.8</ele>
        <time>2021-05-30T10:21:03Z</time>
      </trkpt>
      <trkpt lat="48.56707" lon="2.61069">
        <ele>73</ele>
        <time>2021-05-30T10:21:06Z</time>
      </trkpt>
      <trkpt lat="48.56726" lon="2.61131">
        <ele>72.6</ele>
        <time>2021-05-30T10:21:18Z</time>
      </trkpt>
      <trkpt lat="48.5673" lon="2.61146">
        <ele>72.4</ele>
        <time>2021-05-30T10:21:24Z</time>
      </trkpt>
      <trkpt lat="48.56732" lon="2.61147">
        <ele>72.4</ele>
        <time>2021-05-30T10:21:25Z</time>
      </trkpt>
      <trkpt lat="48.56733" lon="2.61146">
        <ele>72.4</ele>
        <time>2021-05-30T10:21:26Z</time>
      </trkpt>
      <trkpt lat="48.56776" lon="2.61125">
        <ele>73.8</ele>
        <time>2021-05-30T10:21:40Z</time>
      </trkpt>
      <trkpt lat="48.56805" lon="2.61103">
        <ele>75</ele>
        <time>2021-05-30T10:21:54Z</time>
      </trkpt>
      <trkpt lat="48.56809" lon="2.611">
        <ele>75.2</ele>
        <time>2021-05-30T10:22:02Z</time>
      </trkpt>
      <trkpt lat="48.56811" lon="2.61101">
        <ele>75.2</ele>
        <time>2021-05-30T10:22:03Z</time>
      </trkpt>
      <trkpt lat="48.56817" lon="2.61103">
        <ele>75.3</ele>
        <time>2021-05-30T10:22:10Z</time>
      </trkpt>
      <trkpt lat="48.56818" lon="2.61101">
        <ele>75.4</ele>
        <time>2021-05-30T10:22:11Z</time>
      </trkpt>
      <trkpt lat="48.56818" lon="2.61099">
        <ele>75.4</ele>
        <time>2021-05-30T10:22:13Z</time>
      </trkpt>
      <trkpt lat="48.56818" lon="2.61097">
        <ele>75.4</ele>
        <time>2021-05-30T10:22:14Z</time>
      </trkpt>
      <trkpt lat="48.56819" lon="2.61095">
        <ele>75.5</ele>
        <time>2021-05-30T10:22:15Z</time>
      </trkpt>
      <trkpt lat="48.56818" lon="2.61089">
        <ele>75.6</ele>
        <time>2021-05-30T10:22:17Z</time>
      </trkpt>
      <trkpt lat="48.56817" lon="2.61085">
        <ele>75.6</ele>
        <time>2021-05-30T10:22:18Z</time>
      </trkpt>
      <trkpt lat="48.56817" lon="2.61081">
        <ele>75.6</ele>
        <time>2021-05-30T10:22:19Z</time>
      </trkpt>
      <trkpt lat="48.56816" lon="2.61078">
        <ele>75.6</ele>
        <time>2021-05-30T10:22:20Z</time>
      </trkpt>
      <trkpt lat="48.56815" lon="2.61073">
        <ele>75.6</ele>
        <time>2021-05-30T10:22:21Z</time>
      </trkpt>
      <trkpt lat="48.56814" lon="2.61069">
        <ele>75.5</ele>
        <time>2021-05-30T10:22:22Z</time>
      </trkpt>
      <trkpt lat="48.56809" lon="2.61025">
        <ele>75.4</ele>
        <time>2021-05-30T10:22:30Z</time>
      </trkpt>
      <trkpt lat="48.56809" lon="2.60999">
        <ele>75.4</ele>
        <time>2021-05-30T10:22:34Z</time>
      </trkpt>
      <trkpt lat="48.56811" lon="2.60994">
        <ele>75.6</ele>
        <time>2021-05-30T10:22:35Z</time>
      </trkpt>
      <trkpt lat="48.56814" lon="2.60988">
        <ele>75.8</ele>
        <time>2021-05-30T10:22:36Z</time>
      </trkpt>
      <trkpt lat="48.5682" lon="2.60979">
        <ele>76.1</ele>
        <time>2021-05-30T10:22:38Z</time>
      </trkpt>
      <trkpt lat="48.56823" lon="2.60975">
        <ele>76.3</ele>
        <time>2021-05-30T10:22:39Z</time>
      </trkpt>
      <trkpt lat="48.56828" lon="2.60973">
        <ele>76.5</ele>
        <time>2021-05-30T10:22:40Z</time>
      </trkpt>
      <trkpt lat="48.56832" lon="2.60971">
        <ele>76.7</ele>
        <time>2021-05-30T10:22:41Z</time>
      </trkpt>
      <trkpt lat="48.56836" lon="2.6097">
        <ele>76.8</ele>
        <time>2021-05-30T10:22:42Z</time>
      </trkpt>
      <trkpt lat="48.56898" lon="2.60958">
        <ele>78.1</ele>
        <time>2021-05-30T10:22:57Z</time>
      </trkpt>
      <trkpt lat="48.56954" lon="2.60943">
        <ele>78</ele>
        <time>2021-05-30T10:23:11Z</time>
      </trkpt>
      <trkpt lat="48.57004" lon="2.60919">
        <ele>78.1</ele>
        <time>2021-05-30T10:23:25Z</time>
      </trkpt>
      <trkpt lat="48.57063" lon="2.60907">
        <ele>79.4</ele>
        <time>2021-05-30T10:23:40Z</time>
      </trkpt>
      <trkpt lat="48.57107" lon="2.6091">
        <ele>79.9</ele>
        <time>2021-05-30T10:23:51Z</time>
      </trkpt>
      <trkpt lat="48.57137" lon="2.60915">
        <ele>80</ele>
        <time>2021-05-30T10:23:59Z</time>
      </trkpt>
      <trkpt lat="48.57141" lon="2.60914">
        <ele>80</ele>
        <time>2021-05-30T10:24:00Z</time>
      </trkpt>
      <trkpt lat="48.57145" lon="2.60912">
        <ele>80</ele>
        <time>2021-05-30T10:24:01Z</time>
      </trkpt>
      <trkpt lat="48.57148" lon="2.60909">
        <ele>80</ele>
        <time>2021-05-30T10:24:02Z</time>
      </trkpt>
      <trkpt lat="48.57152" lon="2.60906">
        <ele>80</ele>
        <time>2021-05-30T10:24:03Z</time>
      </trkpt>
      <trkpt lat="48.57156" lon="2.60904">
        <ele>80</ele>
        <time>2021-05-30T10:24:04Z</time>
      </trkpt>
      <trkpt lat="48.5716" lon="2.60903">
        <ele>80</ele>
        <time>2021-05-30T10:24:05Z</time>
      </trkpt>
      <trkpt lat="48.57165" lon="2.60903">
        <ele>80</ele>
        <time>2021-05-30T10:24:06Z</time>
      </trkpt>
      <trkpt lat="48.57178" lon="2.60901">
        <ele>79.9</ele>
        <time>2021-05-30T10:24:09Z</time>
      </trkpt>
      <trkpt lat="48.57183" lon="2.60901">
        <ele>79.9</ele>
        <time>2021-05-30T10:24:10Z</time>
      </trkpt>
      <trkpt lat="48.57192" lon="2.60903">
        <ele>79.8</ele>
        <time>2021-05-30T10:24:12Z</time>
      </trkpt>
      <trkpt lat="48.5726" lon="2.60929">
        <ele>78.9</ele>
        <time>2021-05-30T10:24:26Z</time>
      </trkpt>
      <trkpt lat="48.57265" lon="2.60932">
        <ele>78.9</ele>
        <time>2021-05-30T10:24:27Z</time>
      </trkpt>
      <trkpt lat="48.57325" lon="2.60956">
        <ele>79</ele>
        <time>2021-05-30T10:24:40Z</time>
      </trkpt>
      <trkpt lat="48.5733" lon="2.60958">
        <ele>79</ele>
        <time>2021-05-30T10:24:41Z</time>
      </trkpt>
      <trkpt lat="48.57347" lon="2.60967">
        <ele>78.8</ele>
        <time>2021-05-30T10:24:45Z</time>
      </trkpt>
      <trkpt lat="48.5735" lon="2.60972">
        <ele>78.7</ele>
        <time>2021-05-30T10:24:46Z</time>
      </trkpt>
      <trkpt lat="48.57351" lon="2.60978">
        <ele>78.7</ele>
        <time>2021-05-30T10:24:47Z</time>
      </trkpt>
      <trkpt lat="48.5735" lon="2.60984">
        <ele>78.7</ele>
        <time>2021-05-30T10:24:48Z</time>
      </trkpt>
      <trkpt lat="48.57349" lon="2.60989">
        <ele>78.7</ele>
        <time>2021-05-30T10:24:49Z</time>
      </trkpt>
      <trkpt lat="48.57342" lon="2.61013">
        <ele>78.6</ele>
        <time>2021-05-30T10:24:54Z</time>
      </trkpt>
      <trkpt lat="48.57339" lon="2.61014">
        <ele>78.7</ele>
        <time>2021-05-30T10:24:55Z</time>
      </trkpt>
      <trkpt lat="48.57336" lon="2.61014">
        <ele>78.8</ele>
        <time>2021-05-30T10:24:56Z</time>
      </trkpt>
      <trkpt lat="48.57325" lon="2.61015">
        <ele>78.8</ele>
        <time>2021-05-30T10:24:59Z</time>
      </trkpt>
      <trkpt lat="48.57322" lon="2.61019">
        <ele>78.7</ele>
        <time>2021-05-30T10:25:00Z</time>
      </trkpt>
      <trkpt lat="48.5732" lon="2.61024">
        <ele>78.6</ele>
        <time>2021-05-30T10:25:01Z</time>
      </trkpt>
      <trkpt lat="48.57318" lon="2.61029">
        <ele>78.6</ele>
        <time>2021-05-30T10:25:02Z</time>
      </trkpt>
      <trkpt lat="48.57317" lon="2.61035">
        <ele>78.5</ele>
        <time>2021-05-30T10:25:03Z</time>
      </trkpt>
      <trkpt lat="48.57314" lon="2.61054">
        <ele>78.4</ele>
        <time>2021-05-30T10:25:06Z</time>
      </trkpt>
      <trkpt lat="48.57314" lon="2.61067">
        <ele>78.3</ele>
        <time>2021-05-30T10:25:08Z</time>
      </trkpt>
      <trkpt lat="48.57314" lon="2.61101">
        <ele>78.2</ele>
        <time>2021-05-30T10:25:13Z</time>
      </trkpt>
      <trkpt lat="48.57315" lon="2.61121">
        <ele>78.1</ele>
        <time>2021-05-30T10:25:16Z</time>
      </trkpt>
      <trkpt lat="48.57316" lon="2.61147">
        <ele>78</ele>
        <time>2021-05-30T10:25:20Z</time>
      </trkpt>
      <trkpt lat="48.5732" lon="2.61169">
        <ele>78</ele>
        <time>2021-05-30T10:25:24Z</time>
      </trkpt>
      <trkpt lat="48.57323" lon="2.61171">
        <ele>77.9</ele>
        <time>2021-05-30T10:25:25Z</time>
      </trkpt>
      <trkpt lat="48.57326" lon="2.61172">
        <ele>77.9</ele>
        <time>2021-05-30T10:25:26Z</time>
      </trkpt>
      <trkpt lat="48.57329" lon="2.61173">
        <ele>77.9</ele>
        <time>2021-05-30T10:25:27Z</time>
      </trkpt>
      <trkpt lat="48.57333" lon="2.61173">
        <ele>77.9</ele>
        <time>2021-05-30T10:25:28Z</time>
      </trkpt>
      <trkpt lat="48.57342" lon="2.61179">
        <ele>77.6</ele>
        <time>2021-05-30T10:25:31Z</time>
      </trkpt>
      <trkpt lat="48.57344" lon="2.61183">
        <ele>77.6</ele>
        <time>2021-05-30T10:25:32Z</time>
      </trkpt>
      <trkpt lat="48.57345" lon="2.61186">
        <ele>77.5</ele>
        <time>2021-05-30T10:25:33Z</time>
      </trkpt>
      <trkpt lat="48.57347" lon="2.61188">
        <ele>77.4</ele>
        <time>2021-05-30T10:25:34Z</time>
      </trkpt>
      <trkpt lat="48.57349" lon="2.6119">
        <ele>77.3</ele>
        <time>2021-05-30T10:25:35Z</time>
      </trkpt>
      <trkpt lat="48.57351" lon="2.61191">
        <ele>77.3</ele>
        <time>2021-05-30T10:25:36Z</time>
      </trkpt>
      <trkpt lat="48.57354" lon="2.61192">
        <ele>77.2</ele>
        <time>2021-05-30T10:25:37Z</time>
      </trkpt>
      <trkpt lat="48.57357" lon="2.61194">
        <ele>77.1</ele>
        <time>2021-05-30T10:25:38Z</time>
      </trkpt>
      <trkpt lat="48.57359" lon="2.61197">
        <ele>77</ele>
        <time>2021-05-30T10:25:39Z</time>
      </trkpt>
      <trkpt lat="48.57359" lon="2.61202">
        <ele>77</ele>
        <time>2021-05-30T10:25:40Z</time>
      </trkpt>
      <trkpt lat="48.5736" lon="2.61207">
        <ele>76.9</ele>
        <time>2021-05-30T10:25:41Z</time>
      </trkpt>
      <trkpt lat="48.5736" lon="2.61223">
        <ele>76.7</ele>
        <time>2021-05-30T10:25:44Z</time>
      </trkpt>
      <trkpt lat="48.57359" lon="2.61227">
        <ele>76.7</ele>
        <time>2021-05-30T10:25:45Z</time>
      </trkpt>
      <trkpt lat="48.57357" lon="2.6123">
        <ele>76.7</ele>
        <time>2021-05-30T10:25:54Z</time>
      </trkpt>
      <trkpt lat="48.57357" lon="2.6123">
        <ele>76.7</ele>
        <time>2021-05-30T10:26:16Z</time>
      </trkpt>
      <trkpt lat="48.57358" lon="2.6123">
        <ele>76.6</ele>
        <time>2021-05-30T10:26:32Z</time>
      </trkpt>
    </trkseg>
  </trk>
</gpx>